<?xml version='1.0' encoding='UTF-8'?><gpx version="1.1" creator="JPX - https://github.com/jenetics/jpx" xmlns="http://www.topografix.com/GPX/1/1"><trk><trkseg><trkpt lat="45.7885942" lon="9.9814049"><ele>339.0</ele><time>2026-03-29T07:55:56.385Z</time></trkpt><trkpt lat="45.7886611" lon="9.9814054"><ele>339.0</ele><time>2026-03-29T08:02:31.959Z</time></trkpt><trkpt lat="45.788729" lon="9.9813956"><ele>339.0</ele><time>2026-03-29T08:02:37.958Z</time></trkpt><trkpt lat="45.7886672" lon="9.9813762"><ele>339.0</ele><time>2026-03-29T08:02:44.964Z</time></trkpt><trkpt lat="45.7886016" lon="9.9813963"><ele>339.0</ele><time>2026-03-29T08:03:04.959Z</time></trkpt><trkpt lat="45.7886679" lon="9.9814062"><ele>339.0</ele><time>2026-03-29T08:03:11.96Z</time></trkpt><trkpt lat="45.7887043" lon="9.9813283"><ele>339.0</ele><time>2026-03-29T08:03:15.961Z</time></trkpt><trkpt lat="45.7887418" lon="9.9812467"><ele>339.0</ele><time>2026-03-29T08:03:19.959Z</time></trkpt><trkpt lat="45.7887778" lon="9.9811422"><ele>339.0</ele><time>2026-03-29T08:03:23.957Z</time></trkpt><trkpt lat="45.7888355" lon="9.9810751"><ele>339.0</ele><time>2026-03-29T08:03:26.946Z</time></trkpt><trkpt lat="45.7889168" lon="9.9810243"><ele>339.0</ele><time>2026-03-29T08:03:29.966Z</time></trkpt><trkpt lat="45.7889756" lon="9.9809651"><ele>339.0</ele><time>2026-03-29T08:03:31.957Z</time></trkpt><trkpt lat="45.7890404" lon="9.9809032"><ele>339.0</ele><time>2026-03-29T08:03:33.956Z</time></trkpt><trkpt lat="45.7891204" lon="9.9808312"><ele>339.0</ele><time>2026-03-29T08:03:35.954Z</time></trkpt><trkpt lat="45.7892139" lon="9.9808377"><ele>339.0</ele><time>2026-03-29T08:03:37.951Z</time></trkpt><trkpt lat="45.7892792" lon="9.9809635"><ele>339.0</ele><time>2026-03-29T08:03:39.957Z</time></trkpt><trkpt lat="45.7892839" lon="9.9810787"><ele>339.0</ele><time>2026-03-29T08:03:41.949Z</time></trkpt><trkpt lat="45.7892978" lon="9.9811903"><ele>339.0</ele><time>2026-03-29T08:03:43.955Z</time></trkpt><trkpt lat="45.7893022" lon="9.9813255"><ele>339.0</ele><time>2026-03-29T08:03:46.026Z</time></trkpt><trkpt lat="45.7892806" lon="9.9814928"><ele>339.0</ele><time>2026-03-29T08:03:47.96Z</time></trkpt><trkpt lat="45.7892535" lon="9.9816356"><ele>339.0</ele><time>2026-03-29T08:03:49.956Z</time></trkpt><trkpt lat="45.7892198" lon="9.9817692"><ele>339.0</ele><time>2026-03-29T08:03:51.955Z</time></trkpt><trkpt lat="45.7891818" lon="9.9819069"><ele>339.0</ele><time>2026-03-29T08:03:53.954Z</time></trkpt><trkpt lat="45.7891424" lon="9.9820361"><ele>338.79999999999995</ele><time>2026-03-29T08:03:56.032Z</time></trkpt><trkpt lat="45.7891133" lon="9.9821485"><ele>338.59999999999997</ele><time>2026-03-29T08:03:57.953Z</time></trkpt><trkpt lat="45.7890937" lon="9.9822807"><ele>338.4</ele><time>2026-03-29T08:03:59.96Z</time></trkpt><trkpt lat="45.7890634" lon="9.9824051"><ele>338.2</ele><time>2026-03-29T08:04:02.026Z</time></trkpt><trkpt lat="45.7890325" lon="9.9825464"><ele>338.0</ele><time>2026-03-29T08:04:03.958Z</time></trkpt><trkpt lat="45.7890016" lon="9.9826717"><ele>337.59999999999997</ele><time>2026-03-29T08:04:05.953Z</time></trkpt><trkpt lat="45.788977" lon="9.9827928"><ele>337.2</ele><time>2026-03-29T08:04:08.031Z</time></trkpt><trkpt lat="45.7889464" lon="9.9829054"><ele>336.8</ele><time>2026-03-29T08:04:09.961Z</time></trkpt><trkpt lat="45.7889147" lon="9.9830253"><ele>336.4</ele><time>2026-03-29T08:04:11.957Z</time></trkpt><trkpt lat="45.7888778" lon="9.9831514"><ele>336.0</ele><time>2026-03-29T08:04:13.949Z</time></trkpt><trkpt lat="45.7888401" lon="9.9832757"><ele>336.0</ele><time>2026-03-29T08:04:15.953Z</time></trkpt><trkpt lat="45.7888084" lon="9.9833835"><ele>336.0</ele><time>2026-03-29T08:04:18.033Z</time></trkpt><trkpt lat="45.7887773" lon="9.9834941"><ele>336.0</ele><time>2026-03-29T08:04:19.951Z</time></trkpt><trkpt lat="45.788751" lon="9.9835979"><ele>336.0</ele><time>2026-03-29T08:04:21.956Z</time></trkpt><trkpt lat="45.7887281" lon="9.9837022"><ele>336.0</ele><time>2026-03-29T08:04:23.952Z</time></trkpt><trkpt lat="45.788687" lon="9.9838074"><ele>336.0</ele><time>2026-03-29T08:04:25.97Z</time></trkpt><trkpt lat="45.7886488" lon="9.9838818"><ele>336.0</ele><time>2026-03-29T08:04:27.957Z</time></trkpt><trkpt lat="45.7886112" lon="9.9839745"><ele>336.0</ele><time>2026-03-29T08:04:29.956Z</time></trkpt><trkpt lat="45.7885734" lon="9.9840924"><ele>336.0</ele><time>2026-03-29T08:04:31.956Z</time></trkpt><trkpt lat="45.7885414" lon="9.9841942"><ele>336.0</ele><time>2026-03-29T08:04:33.959Z</time></trkpt><trkpt lat="45.7885004" lon="9.9843265"><ele>336.0</ele><time>2026-03-29T08:04:35.959Z</time></trkpt><trkpt lat="45.7884635" lon="9.9844464"><ele>336.0</ele><time>2026-03-29T08:04:37.953Z</time></trkpt><trkpt lat="45.7884206" lon="9.9845759"><ele>336.5</ele><time>2026-03-29T08:04:39.944Z</time></trkpt><trkpt lat="45.7883809" lon="9.9847132"><ele>337.0</ele><time>2026-03-29T08:04:41.961Z</time></trkpt><trkpt lat="45.7883184" lon="9.984818"><ele>337.5</ele><time>2026-03-29T08:04:45.953Z</time></trkpt><trkpt lat="45.7882599" lon="9.9848865"><ele>338.0</ele><time>2026-03-29T08:04:47.959Z</time></trkpt><trkpt lat="45.7882055" lon="9.9849417"><ele>338.5</ele><time>2026-03-29T08:04:50.956Z</time></trkpt><trkpt lat="45.788229" lon="9.9850408"><ele>339.0</ele><time>2026-03-29T08:04:54.952Z</time></trkpt><trkpt lat="45.7882344" lon="9.9851452"><ele>339.0</ele><time>2026-03-29T08:04:56.954Z</time></trkpt><trkpt lat="45.7881654" lon="9.9852565"><ele>339.0</ele><time>2026-03-29T08:04:58.953Z</time></trkpt><trkpt lat="45.7880916" lon="9.9853348"><ele>339.0</ele><time>2026-03-29T08:05:00.949Z</time></trkpt><trkpt lat="45.7880397" lon="9.9854262"><ele>339.0</ele><time>2026-03-29T08:05:02.952Z</time></trkpt><trkpt lat="45.7879811" lon="9.9855236"><ele>339.0</ele><time>2026-03-29T08:05:04.954Z</time></trkpt><trkpt lat="45.7879192" lon="9.9856385"><ele>339.0</ele><time>2026-03-29T08:05:06.957Z</time></trkpt><trkpt lat="45.7878495" lon="9.9857434"><ele>339.0</ele><time>2026-03-29T08:05:08.956Z</time></trkpt><trkpt lat="45.787778" lon="9.9858437"><ele>339.0</ele><time>2026-03-29T08:05:10.952Z</time></trkpt><trkpt lat="45.7877054" lon="9.9859413"><ele>339.0</ele><time>2026-03-29T08:05:12.95Z</time></trkpt><trkpt lat="45.7876461" lon="9.9860396"><ele>339.0</ele><time>2026-03-29T08:05:14.957Z</time></trkpt><trkpt lat="45.7875772" lon="9.9861364"><ele>338.79999999999995</ele><time>2026-03-29T08:05:16.952Z</time></trkpt><trkpt lat="45.7875114" lon="9.9862134"><ele>338.59999999999997</ele><time>2026-03-29T08:05:18.942Z</time></trkpt><trkpt lat="45.7874405" lon="9.9862994"><ele>338.4</ele><time>2026-03-29T08:05:20.954Z</time></trkpt><trkpt lat="45.7873684" lon="9.9863869"><ele>338.2</ele><time>2026-03-29T08:05:22.956Z</time></trkpt><trkpt lat="45.7872936" lon="9.9864754"><ele>338.0</ele><time>2026-03-29T08:05:24.951Z</time></trkpt><trkpt lat="45.7872177" lon="9.9865568"><ele>338.0</ele><time>2026-03-29T08:05:26.957Z</time></trkpt><trkpt lat="45.7871286" lon="9.9866221"><ele>338.0</ele><time>2026-03-29T08:05:28.957Z</time></trkpt><trkpt lat="45.7870376" lon="9.9866634"><ele>338.0</ele><time>2026-03-29T08:05:30.955Z</time></trkpt><trkpt lat="45.786947" lon="9.9866977"><ele>338.0</ele><time>2026-03-29T08:05:32.957Z</time></trkpt><trkpt lat="45.7868556" lon="9.9867359"><ele>338.0</ele><time>2026-03-29T08:05:34.95Z</time></trkpt><trkpt lat="45.7867805" lon="9.9867649"><ele>338.0</ele><time>2026-03-29T08:05:37.03Z</time></trkpt><trkpt lat="45.7867035" lon="9.9867959"><ele>338.0</ele><time>2026-03-29T08:05:38.96Z</time></trkpt><trkpt lat="45.7866215" lon="9.9868288"><ele>338.0</ele><time>2026-03-29T08:05:40.963Z</time></trkpt><trkpt lat="45.7865383" lon="9.9868581"><ele>338.0</ele><time>2026-03-29T08:05:42.96Z</time></trkpt><trkpt lat="45.7864582" lon="9.9868985"><ele>338.0</ele><time>2026-03-29T08:05:44.955Z</time></trkpt><trkpt lat="45.7863759" lon="9.9869634"><ele>338.0</ele><time>2026-03-29T08:05:46.944Z</time></trkpt><trkpt lat="45.7863032" lon="9.9870382"><ele>338.0</ele><time>2026-03-29T08:05:48.956Z</time></trkpt><trkpt lat="45.7862367" lon="9.9871143"><ele>338.0</ele><time>2026-03-29T08:05:51.005Z</time></trkpt><trkpt lat="45.7861772" lon="9.9872017"><ele>338.0</ele><time>2026-03-29T08:05:53.028Z</time></trkpt><trkpt lat="45.7861314" lon="9.9873071"><ele>338.0</ele><time>2026-03-29T08:05:54.962Z</time></trkpt><trkpt lat="45.7860967" lon="9.987434"><ele>338.0</ele><time>2026-03-29T08:05:56.96Z</time></trkpt><trkpt lat="45.786067" lon="9.9875535"><ele>338.0</ele><time>2026-03-29T08:05:58.959Z</time></trkpt><trkpt lat="45.786048" lon="9.9876624"><ele>338.0</ele><time>2026-03-29T08:06:00.961Z</time></trkpt><trkpt lat="45.7859785" lon="9.987712"><ele>338.0</ele><time>2026-03-29T08:06:05.95Z</time></trkpt><trkpt lat="45.785933" lon="9.9877949"><ele>338.0</ele><time>2026-03-29T08:06:08.956Z</time></trkpt><trkpt lat="45.7859187" lon="9.9879168"><ele>338.0</ele><time>2026-03-29T08:06:10.95Z</time></trkpt><trkpt lat="45.7859058" lon="9.9880471"><ele>338.0</ele><time>2026-03-29T08:06:12.954Z</time></trkpt><trkpt lat="45.7858701" lon="9.9881792"><ele>338.0</ele><time>2026-03-29T08:06:14.948Z</time></trkpt><trkpt lat="45.7858061" lon="9.9882968"><ele>338.2</ele><time>2026-03-29T08:06:16.955Z</time></trkpt><trkpt lat="45.7857086" lon="9.9883432"><ele>338.4</ele><time>2026-03-29T08:06:18.954Z</time></trkpt><trkpt lat="45.7855992" lon="9.988366"><ele>338.59999999999997</ele><time>2026-03-29T08:06:20.948Z</time></trkpt><trkpt lat="45.7854863" lon="9.9883891"><ele>338.79999999999995</ele><time>2026-03-29T08:06:23.042Z</time></trkpt><trkpt lat="45.7853819" lon="9.9884167"><ele>339.0</ele><time>2026-03-29T08:06:24.952Z</time></trkpt><trkpt lat="45.7852839" lon="9.988425"><ele>339.0</ele><time>2026-03-29T08:06:26.956Z</time></trkpt><trkpt lat="45.7851855" lon="9.9884455"><ele>339.0</ele><time>2026-03-29T08:06:29.027Z</time></trkpt><trkpt lat="45.7850884" lon="9.9884558"><ele>339.0</ele><time>2026-03-29T08:06:30.969Z</time></trkpt><trkpt lat="45.7849946" lon="9.9884714"><ele>339.0</ele><time>2026-03-29T08:06:33.041Z</time></trkpt><trkpt lat="45.7849064" lon="9.9884855"><ele>339.0</ele><time>2026-03-29T08:06:34.949Z</time></trkpt><trkpt lat="45.7848162" lon="9.9885035"><ele>338.8333333333333</ele><time>2026-03-29T08:06:37.037Z</time></trkpt><trkpt lat="45.7847225" lon="9.9885238"><ele>338.6666666666667</ele><time>2026-03-29T08:06:38.949Z</time></trkpt><trkpt lat="45.7846342" lon="9.9885411"><ele>338.5</ele><time>2026-03-29T08:06:40.949Z</time></trkpt><trkpt lat="45.7845614" lon="9.9885411"><ele>338.33333333333337</ele><time>2026-03-29T08:06:42.96Z</time></trkpt><trkpt lat="45.7844857" lon="9.9885289"><ele>338.1666666666667</ele><time>2026-03-29T08:06:45.948Z</time></trkpt><trkpt lat="45.7844513" lon="9.9886138"><ele>338.0</ele><time>2026-03-29T08:06:48.95Z</time></trkpt><trkpt lat="45.7844518" lon="9.9887068"><ele>338.0</ele><time>2026-03-29T08:06:51.027Z</time></trkpt><trkpt lat="45.7844617" lon="9.988821"><ele>338.0</ele><time>2026-03-29T08:06:52.959Z</time></trkpt><trkpt lat="45.7844767" lon="9.9889448"><ele>338.0</ele><time>2026-03-29T08:06:54.962Z</time></trkpt><trkpt lat="45.784497" lon="9.9890904"><ele>338.0</ele><time>2026-03-29T08:06:57.024Z</time></trkpt><trkpt lat="45.7845157" lon="9.9892231"><ele>338.0</ele><time>2026-03-29T08:06:58.954Z</time></trkpt><trkpt lat="45.7845303" lon="9.9893438"><ele>338.4</ele><time>2026-03-29T08:07:00.951Z</time></trkpt><trkpt lat="45.7845437" lon="9.989469"><ele>338.79999999999995</ele><time>2026-03-29T08:07:03.028Z</time></trkpt><trkpt lat="45.784565" lon="9.989601"><ele>339.2</ele><time>2026-03-29T08:07:04.956Z</time></trkpt><trkpt lat="45.7845836" lon="9.9897302"><ele>339.6</ele><time>2026-03-29T08:07:06.954Z</time></trkpt><trkpt lat="45.7846119" lon="9.9898529"><ele>340.0</ele><time>2026-03-29T08:07:08.976Z</time></trkpt><trkpt lat="45.7846449" lon="9.9899727"><ele>340.8</ele><time>2026-03-29T08:07:10.95Z</time></trkpt><trkpt lat="45.7846867" lon="9.9900894"><ele>341.6</ele><time>2026-03-29T08:07:12.953Z</time></trkpt><trkpt lat="45.7847302" lon="9.9902125"><ele>342.4</ele><time>2026-03-29T08:07:14.95Z</time></trkpt><trkpt lat="45.7847716" lon="9.9903429"><ele>343.2</ele><time>2026-03-29T08:07:16.951Z</time></trkpt><trkpt lat="45.7848123" lon="9.9904538"><ele>344.0</ele><time>2026-03-29T08:07:18.951Z</time></trkpt><trkpt lat="45.7848535" lon="9.9905565"><ele>344.0</ele><time>2026-03-29T08:07:20.945Z</time></trkpt><trkpt lat="45.7849003" lon="9.9906749"><ele>344.0</ele><time>2026-03-29T08:07:22.952Z</time></trkpt><trkpt lat="45.7849465" lon="9.9907851"><ele>344.0</ele><time>2026-03-29T08:07:24.955Z</time></trkpt><trkpt lat="45.7850017" lon="9.9908951"><ele>344.0</ele><time>2026-03-29T08:07:26.955Z</time></trkpt><trkpt lat="45.7850607" lon="9.9910126"><ele>344.0</ele><time>2026-03-29T08:07:28.952Z</time></trkpt><trkpt lat="45.7851136" lon="9.9911251"><ele>344.0</ele><time>2026-03-29T08:07:30.95Z</time></trkpt><trkpt lat="45.7851547" lon="9.991235"><ele>344.0</ele><time>2026-03-29T08:07:32.953Z</time></trkpt><trkpt lat="45.7851894" lon="9.9913466"><ele>344.0</ele><time>2026-03-29T08:07:34.949Z</time></trkpt><trkpt lat="45.7852493" lon="9.9914555"><ele>344.0</ele><time>2026-03-29T08:07:36.973Z</time></trkpt><trkpt lat="45.7852983" lon="9.9915658"><ele>344.0</ele><time>2026-03-29T08:07:38.95Z</time></trkpt><trkpt lat="45.7853472" lon="9.9916789"><ele>344.0</ele><time>2026-03-29T08:07:40.948Z</time></trkpt><trkpt lat="45.7853928" lon="9.9917907"><ele>344.0</ele><time>2026-03-29T08:07:42.95Z</time></trkpt><trkpt lat="45.7854384" lon="9.9918985"><ele>344.0</ele><time>2026-03-29T08:07:44.95Z</time></trkpt><trkpt lat="45.7854851" lon="9.9920103"><ele>344.0</ele><time>2026-03-29T08:07:46.953Z</time></trkpt><trkpt lat="45.7855254" lon="9.9921413"><ele>344.0</ele><time>2026-03-29T08:07:48.954Z</time></trkpt><trkpt lat="45.7855636" lon="9.9922544"><ele>344.0</ele><time>2026-03-29T08:07:50.955Z</time></trkpt><trkpt lat="45.7855859" lon="9.9923792"><ele>344.0</ele><time>2026-03-29T08:07:52.955Z</time></trkpt><trkpt lat="45.7856206" lon="9.9925101"><ele>344.0</ele><time>2026-03-29T08:07:54.952Z</time></trkpt><trkpt lat="45.7856609" lon="9.9926437"><ele>344.0</ele><time>2026-03-29T08:07:56.943Z</time></trkpt><trkpt lat="45.7857076" lon="9.9927526"><ele>344.0</ele><time>2026-03-29T08:07:58.95Z</time></trkpt><trkpt lat="45.7857722" lon="9.9928643"><ele>344.0</ele><time>2026-03-29T08:08:00.956Z</time></trkpt><trkpt lat="45.785839" lon="9.9929566"><ele>344.0</ele><time>2026-03-29T08:08:02.95Z</time></trkpt><trkpt lat="45.7859004" lon="9.9930533"><ele>344.0</ele><time>2026-03-29T08:08:05.025Z</time></trkpt><trkpt lat="45.7859686" lon="9.9931523"><ele>344.0</ele><time>2026-03-29T08:08:06.966Z</time></trkpt><trkpt lat="45.786034" lon="9.99325"><ele>344.0</ele><time>2026-03-29T08:08:08.959Z</time></trkpt><trkpt lat="45.7860939" lon="9.993344"><ele>344.33333333333337</ele><time>2026-03-29T08:08:10.962Z</time></trkpt><trkpt lat="45.7861333" lon="9.9934624"><ele>344.6666666666667</ele><time>2026-03-29T08:08:13.042Z</time></trkpt><trkpt lat="45.7861644" lon="9.993595"><ele>345.0</ele><time>2026-03-29T08:08:14.952Z</time></trkpt><trkpt lat="45.7861879" lon="9.9937269"><ele>345.3333333333333</ele><time>2026-03-29T08:08:16.961Z</time></trkpt><trkpt lat="45.786206" lon="9.9938486"><ele>345.66666666666663</ele><time>2026-03-29T08:08:19.025Z</time></trkpt><trkpt lat="45.7862174" lon="9.9939563"><ele>346.0</ele><time>2026-03-29T08:08:20.963Z</time></trkpt><trkpt lat="45.7861824" lon="9.994034"><ele>346.0</ele><time>2026-03-29T08:08:22.962Z</time></trkpt><trkpt lat="45.7861239" lon="9.994081"><ele>346.0</ele><time>2026-03-29T08:08:25.953Z</time></trkpt><trkpt lat="45.7860604" lon="9.9941323"><ele>346.0</ele><time>2026-03-29T08:08:28.96Z</time></trkpt><trkpt lat="45.7859906" lon="9.9942189"><ele>346.0</ele><time>2026-03-29T08:08:31.969Z</time></trkpt><trkpt lat="45.7859351" lon="9.9942669"><ele>346.0</ele><time>2026-03-29T08:08:33.973Z</time></trkpt><trkpt lat="45.7858733" lon="9.9943103"><ele>346.0</ele><time>2026-03-29T08:08:35.968Z</time></trkpt><trkpt lat="45.7858218" lon="9.9943665"><ele>346.0</ele><time>2026-03-29T08:08:37.972Z</time></trkpt><trkpt lat="45.785763" lon="9.9944581"><ele>346.5</ele><time>2026-03-29T08:08:40.968Z</time></trkpt><trkpt lat="45.7857335" lon="9.9945485"><ele>347.0</ele><time>2026-03-29T08:08:44.036Z</time></trkpt><trkpt lat="45.7857234" lon="9.9946466"><ele>347.5</ele><time>2026-03-29T08:08:46.947Z</time></trkpt><trkpt lat="45.7857247" lon="9.9947602"><ele>348.0</ele><time>2026-03-29T08:08:49.952Z</time></trkpt><trkpt lat="45.7856993" lon="9.9948668"><ele>348.5</ele><time>2026-03-29T08:08:52.953Z</time></trkpt><trkpt lat="45.7856424" lon="9.9949505"><ele>349.0</ele><time>2026-03-29T08:08:55.945Z</time></trkpt><trkpt lat="45.7855761" lon="9.9950181"><ele>348.99999999999994</ele><time>2026-03-29T08:08:58.95Z</time></trkpt><trkpt lat="45.7855035" lon="9.995092"><ele>349.0</ele><time>2026-03-29T08:09:01.952Z</time></trkpt><trkpt lat="45.7854467" lon="9.9951376"><ele>349.0</ele><time>2026-03-29T08:09:04.027Z</time></trkpt><trkpt lat="45.7853795" lon="9.995176"><ele>349.0</ele><time>2026-03-29T08:09:05.963Z</time></trkpt><trkpt lat="45.785313" lon="9.995192"><ele>349.0</ele><time>2026-03-29T08:09:07.959Z</time></trkpt><trkpt lat="45.7852425" lon="9.9952233"><ele>348.99999999999994</ele><time>2026-03-29T08:09:10.965Z</time></trkpt><trkpt lat="45.785226" lon="9.9953252"><ele>349.0</ele><time>2026-03-29T08:09:15.959Z</time></trkpt><trkpt lat="45.7851868" lon="9.9954086"><ele>349.85714285714283</ele><time>2026-03-29T08:09:18.951Z</time></trkpt><trkpt lat="45.7851156" lon="9.9954632"><ele>350.7142857142857</ele><time>2026-03-29T08:09:29.949Z</time></trkpt><trkpt lat="45.7850534" lon="9.9955006"><ele>351.57142857142856</ele><time>2026-03-29T08:09:33.96Z</time></trkpt><trkpt lat="45.7849778" lon="9.9954843"><ele>352.42857142857144</ele><time>2026-03-29T08:09:38.955Z</time></trkpt><trkpt lat="45.7849098" lon="9.9954813"><ele>353.2857142857143</ele><time>2026-03-29T08:09:41.95Z</time></trkpt><trkpt lat="45.7848467" lon="9.9954746"><ele>354.1428571428571</ele><time>2026-03-29T08:09:44.956Z</time></trkpt><trkpt lat="45.7847818" lon="9.9954488"><ele>355.0</ele><time>2026-03-29T08:09:48.036Z</time></trkpt><trkpt lat="45.7847144" lon="9.995406"><ele>355.0</ele><time>2026-03-29T08:09:51.969Z</time></trkpt><trkpt lat="45.7846414" lon="9.9954092"><ele>355.0</ele><time>2026-03-29T08:09:56.03Z</time></trkpt><trkpt lat="45.7845726" lon="9.9954334"><ele>355.0</ele><time>2026-03-29T08:09:58.961Z</time></trkpt><trkpt lat="45.7844938" lon="9.9954521"><ele>355.0</ele><time>2026-03-29T08:10:01.952Z</time></trkpt><trkpt lat="45.7844207" lon="9.9954673"><ele>355.0</ele><time>2026-03-29T08:10:04.965Z</time></trkpt><trkpt lat="45.7843417" lon="9.9955442"><ele>355.0</ele><time>2026-03-29T08:10:11.958Z</time></trkpt><trkpt lat="45.7842811" lon="9.9956351"><ele>355.2857142857143</ele><time>2026-03-29T08:10:44.966Z</time></trkpt><trkpt lat="45.7842794" lon="9.9957266"><ele>355.57142857142856</ele><time>2026-03-29T08:10:50.963Z</time></trkpt><trkpt lat="45.7843061" lon="9.9958243"><ele>355.8571428571429</ele><time>2026-03-29T08:10:55.944Z</time></trkpt><trkpt lat="45.7843163" lon="9.9959294"><ele>356.1428571428571</ele><time>2026-03-29T08:10:59.951Z</time></trkpt><trkpt lat="45.7843308" lon="9.9960278"><ele>356.42857142857144</ele><time>2026-03-29T08:11:03.957Z</time></trkpt><trkpt lat="45.7843491" lon="9.9961458"><ele>356.7142857142857</ele><time>2026-03-29T08:11:07.955Z</time></trkpt><trkpt lat="45.7843687" lon="9.9962498"><ele>357.0</ele><time>2026-03-29T08:11:12.955Z</time></trkpt><trkpt lat="45.784356" lon="9.9963405"><ele>357.0</ele><time>2026-03-29T08:11:17.033Z</time></trkpt><trkpt lat="45.7843412" lon="9.9964405"><ele>357.0</ele><time>2026-03-29T08:11:21.961Z</time></trkpt><trkpt lat="45.7843729" lon="9.9965406"><ele>357.0</ele><time>2026-03-29T08:11:27.036Z</time></trkpt><trkpt lat="45.7844245" lon="9.996601"><ele>357.0</ele><time>2026-03-29T08:11:29.96Z</time></trkpt><trkpt lat="45.7844945" lon="9.9966787"><ele>357.0</ele><time>2026-03-29T08:11:32.951Z</time></trkpt><trkpt lat="45.7845741" lon="9.9967591"><ele>357.0</ele><time>2026-03-29T08:11:34.962Z</time></trkpt><trkpt lat="45.7846624" lon="9.9968289"><ele>356.8</ele><time>2026-03-29T08:11:36.961Z</time></trkpt><trkpt lat="45.7847639" lon="9.9968773"><ele>356.6</ele><time>2026-03-29T08:11:38.967Z</time></trkpt><trkpt lat="45.7848618" lon="9.9968972"><ele>356.40000000000003</ele><time>2026-03-29T08:11:40.965Z</time></trkpt><trkpt lat="45.7849522" lon="9.9969282"><ele>356.20000000000005</ele><time>2026-03-29T08:11:42.98Z</time></trkpt><trkpt lat="45.7850294" lon="9.9970237"><ele>356.0</ele><time>2026-03-29T08:11:44.95Z</time></trkpt><trkpt lat="45.7851187" lon="9.9971087"><ele>354.0</ele><time>2026-03-29T08:11:46.955Z</time></trkpt><trkpt lat="45.7852011" lon="9.9971574"><ele>352.0</ele><time>2026-03-29T08:11:48.955Z</time></trkpt><trkpt lat="45.7853036" lon="9.9972366"><ele>350.0</ele><time>2026-03-29T08:11:50.958Z</time></trkpt><trkpt lat="45.7853995" lon="9.9973371"><ele>348.0</ele><time>2026-03-29T08:11:53.029Z</time></trkpt><trkpt lat="45.7854793" lon="9.9975006"><ele>348.0</ele><time>2026-03-29T08:11:55.953Z</time></trkpt><trkpt lat="45.7855107" lon="9.9976058"><ele>348.0</ele><time>2026-03-29T08:11:57.955Z</time></trkpt><trkpt lat="45.7855719" lon="9.997683"><ele>348.0</ele><time>2026-03-29T08:11:59.953Z</time></trkpt><trkpt lat="45.78564" lon="9.9977548"><ele>348.0</ele><time>2026-03-29T08:12:01.956Z</time></trkpt><trkpt lat="45.7857173" lon="9.9978189"><ele>348.0</ele><time>2026-03-29T08:12:03.973Z</time></trkpt><trkpt lat="45.7858048" lon="9.9978775"><ele>348.0</ele><time>2026-03-29T08:12:05.951Z</time></trkpt><trkpt lat="45.7858846" lon="9.9979446"><ele>348.0</ele><time>2026-03-29T08:12:07.956Z</time></trkpt><trkpt lat="45.7859662" lon="9.9980227"><ele>348.0</ele><time>2026-03-29T08:12:09.965Z</time></trkpt><trkpt lat="45.7860511" lon="9.9981058"><ele>348.0</ele><time>2026-03-29T08:12:11.958Z</time></trkpt><trkpt lat="45.7861307" lon="9.9981835"><ele>348.0</ele><time>2026-03-29T08:12:13.959Z</time></trkpt><trkpt lat="45.7862192" lon="9.9982566"><ele>348.0</ele><time>2026-03-29T08:12:15.96Z</time></trkpt><trkpt lat="45.7863152" lon="9.9983165"><ele>347.79999999999995</ele><time>2026-03-29T08:12:18.031Z</time></trkpt><trkpt lat="45.7864115" lon="9.9983624"><ele>347.6</ele><time>2026-03-29T08:12:19.958Z</time></trkpt><trkpt lat="45.7865035" lon="9.9984006"><ele>347.4</ele><time>2026-03-29T08:12:22.063Z</time></trkpt><trkpt lat="45.7865868" lon="9.9984762"><ele>347.20000000000005</ele><time>2026-03-29T08:12:24.034Z</time></trkpt><trkpt lat="45.7866424" lon="9.9986021"><ele>347.0</ele><time>2026-03-29T08:12:25.962Z</time></trkpt><trkpt lat="45.7866663" lon="9.9987514"><ele>347.0</ele><time>2026-03-29T08:12:28.027Z</time></trkpt><trkpt lat="45.7866849" lon="9.9988762"><ele>347.0</ele><time>2026-03-29T08:12:29.954Z</time></trkpt><trkpt lat="45.7867029" lon="9.9989995"><ele>347.0</ele><time>2026-03-29T08:12:31.953Z</time></trkpt><trkpt lat="45.7867171" lon="9.9991205"><ele>347.0</ele><time>2026-03-29T08:12:33.961Z</time></trkpt><trkpt lat="45.7867395" lon="9.9992461"><ele>347.0</ele><time>2026-03-29T08:12:35.96Z</time></trkpt><trkpt lat="45.7867575" lon="9.9993838"><ele>347.0</ele><time>2026-03-29T08:12:37.962Z</time></trkpt><trkpt lat="45.786776" lon="9.9995179"><ele>347.0</ele><time>2026-03-29T08:12:39.955Z</time></trkpt><trkpt lat="45.7867986" lon="9.9996573"><ele>347.0</ele><time>2026-03-29T08:12:41.956Z</time></trkpt><trkpt lat="45.7868147" lon="9.9998034"><ele>347.0</ele><time>2026-03-29T08:12:43.953Z</time></trkpt><trkpt lat="45.7868288" lon="9.9999419"><ele>347.0</ele><time>2026-03-29T08:12:45.954Z</time></trkpt><trkpt lat="45.786887" lon="10.0000704"><ele>347.0</ele><time>2026-03-29T08:12:47.975Z</time></trkpt><trkpt lat="45.786975" lon="10.0001395"><ele>347.0</ele><time>2026-03-29T08:12:49.956Z</time></trkpt><trkpt lat="45.7870628" lon="10.0001797"><ele>347.0</ele><time>2026-03-29T08:12:51.963Z</time></trkpt><trkpt lat="45.7871131" lon="10.000239"><ele>347.0</ele><time>2026-03-29T08:12:53.963Z</time></trkpt><trkpt lat="45.7871067" lon="10.0003378"><ele>347.0</ele><time>2026-03-29T08:12:55.96Z</time></trkpt><trkpt lat="45.7870623" lon="10.0004637"><ele>347.0</ele><time>2026-03-29T08:12:57.956Z</time></trkpt><trkpt lat="45.7870183" lon="10.0005851"><ele>347.0</ele><time>2026-03-29T08:12:59.954Z</time></trkpt><trkpt lat="45.7869814" lon="10.0007157"><ele>347.0</ele><time>2026-03-29T08:13:01.955Z</time></trkpt><trkpt lat="45.7869447" lon="10.0008465"><ele>347.0</ele><time>2026-03-29T08:13:04.029Z</time></trkpt><trkpt lat="45.7869218" lon="10.0009963"><ele>347.0</ele><time>2026-03-29T08:13:05.979Z</time></trkpt><trkpt lat="45.7869009" lon="10.0011561"><ele>347.0</ele><time>2026-03-29T08:13:07.957Z</time></trkpt><trkpt lat="45.7868813" lon="10.0013201"><ele>347.20000000000005</ele><time>2026-03-29T08:13:09.958Z</time></trkpt><trkpt lat="45.786864" lon="10.00146"><ele>347.4</ele><time>2026-03-29T08:13:12.032Z</time></trkpt><trkpt lat="45.7868478" lon="10.0016137"><ele>347.6</ele><time>2026-03-29T08:13:14.036Z</time></trkpt><trkpt lat="45.7868261" lon="10.0017667"><ele>347.79999999999995</ele><time>2026-03-29T08:13:15.957Z</time></trkpt><trkpt lat="45.786804" lon="10.0019054"><ele>348.0</ele><time>2026-03-29T08:13:17.953Z</time></trkpt><trkpt lat="45.7867893" lon="10.0020143"><ele>347.59999999999997</ele><time>2026-03-29T08:13:19.956Z</time></trkpt><trkpt lat="45.7867735" lon="10.0021332"><ele>347.2</ele><time>2026-03-29T08:13:22.03Z</time></trkpt><trkpt lat="45.78675" lon="10.0022691"><ele>346.8</ele><time>2026-03-29T08:13:23.958Z</time></trkpt><trkpt lat="45.7867223" lon="10.0024024"><ele>346.4</ele><time>2026-03-29T08:13:25.975Z</time></trkpt><trkpt lat="45.7867183" lon="10.0025374"><ele>346.0</ele><time>2026-03-29T08:13:27.957Z</time></trkpt><trkpt lat="45.7867337" lon="10.0026754"><ele>345.8</ele><time>2026-03-29T08:13:29.975Z</time></trkpt><trkpt lat="45.7867429" lon="10.0028172"><ele>345.6</ele><time>2026-03-29T08:13:31.948Z</time></trkpt><trkpt lat="45.7867507" lon="10.0029496"><ele>345.4</ele><time>2026-03-29T08:13:33.964Z</time></trkpt><trkpt lat="45.7867632" lon="10.0030736"><ele>345.2</ele><time>2026-03-29T08:13:35.965Z</time></trkpt><trkpt lat="45.7868129" lon="10.0031907"><ele>345.0</ele><time>2026-03-29T08:13:37.962Z</time></trkpt><trkpt lat="45.7868659" lon="10.0033025"><ele>344.8</ele><time>2026-03-29T08:13:39.964Z</time></trkpt><trkpt lat="45.7868718" lon="10.0034385"><ele>344.6</ele><time>2026-03-29T08:13:42.042Z</time></trkpt><trkpt lat="45.7868318" lon="10.003574"><ele>344.4</ele><time>2026-03-29T08:13:44.048Z</time></trkpt><trkpt lat="45.786803" lon="10.0037057"><ele>344.2</ele><time>2026-03-29T08:13:45.953Z</time></trkpt><trkpt lat="45.7867966" lon="10.0038666"><ele>344.0</ele><time>2026-03-29T08:13:47.954Z</time></trkpt><trkpt lat="45.7867963" lon="10.0040051"><ele>344.4</ele><time>2026-03-29T08:13:49.954Z</time></trkpt><trkpt lat="45.786794" lon="10.0041451"><ele>344.79999999999995</ele><time>2026-03-29T08:13:51.952Z</time></trkpt><trkpt lat="45.7867722" lon="10.0043389"><ele>345.20000000000005</ele><time>2026-03-29T08:13:54.955Z</time></trkpt><trkpt lat="45.7867633" lon="10.0044697"><ele>345.6</ele><time>2026-03-29T08:13:56.956Z</time></trkpt><trkpt lat="45.7867656" lon="10.004598"><ele>346.0</ele><time>2026-03-29T08:13:58.95Z</time></trkpt><trkpt lat="45.786758" lon="10.0047278"><ele>346.8</ele><time>2026-03-29T08:14:00.957Z</time></trkpt><trkpt lat="45.7867472" lon="10.0048565"><ele>347.6</ele><time>2026-03-29T08:14:02.954Z</time></trkpt><trkpt lat="45.7867396" lon="10.0049905"><ele>348.4</ele><time>2026-03-29T08:14:04.953Z</time></trkpt><trkpt lat="45.7867306" lon="10.0051207"><ele>349.2</ele><time>2026-03-29T08:14:06.955Z</time></trkpt><trkpt lat="45.7867191" lon="10.0052829"><ele>350.0</ele><time>2026-03-29T08:14:08.948Z</time></trkpt><trkpt lat="45.7867277" lon="10.0054354"><ele>350.6666666666667</ele><time>2026-03-29T08:14:10.943Z</time></trkpt><trkpt lat="45.7867389" lon="10.0055563"><ele>351.33333333333337</ele><time>2026-03-29T08:14:12.951Z</time></trkpt><trkpt lat="45.7867458" lon="10.0056715"><ele>352.0</ele><time>2026-03-29T08:14:14.952Z</time></trkpt><trkpt lat="45.7867456" lon="10.0057958"><ele>352.6666666666667</ele><time>2026-03-29T08:14:16.952Z</time></trkpt><trkpt lat="45.786753" lon="10.0059231"><ele>353.3333333333333</ele><time>2026-03-29T08:14:18.954Z</time></trkpt><trkpt lat="45.7867588" lon="10.0060495"><ele>354.0</ele><time>2026-03-29T08:14:20.955Z</time></trkpt><trkpt lat="45.7867755" lon="10.0061824"><ele>355.2</ele><time>2026-03-29T08:14:22.949Z</time></trkpt><trkpt lat="45.7868014" lon="10.0063186"><ele>356.4</ele><time>2026-03-29T08:14:24.951Z</time></trkpt><trkpt lat="45.7868327" lon="10.0064481"><ele>357.6</ele><time>2026-03-29T08:14:26.936Z</time></trkpt><trkpt lat="45.7868672" lon="10.0065783"><ele>358.8</ele><time>2026-03-29T08:14:28.956Z</time></trkpt><trkpt lat="45.7869033" lon="10.0067049"><ele>360.0</ele><time>2026-03-29T08:14:30.955Z</time></trkpt><trkpt lat="45.7869402" lon="10.0068395"><ele>357.8</ele><time>2026-03-29T08:14:32.954Z</time></trkpt><trkpt lat="45.7869674" lon="10.0069744"><ele>355.6</ele><time>2026-03-29T08:14:34.954Z</time></trkpt><trkpt lat="45.7870007" lon="10.0071132"><ele>353.4</ele><time>2026-03-29T08:14:36.956Z</time></trkpt><trkpt lat="45.7870354" lon="10.0072378"><ele>351.2</ele><time>2026-03-29T08:14:38.945Z</time></trkpt><trkpt lat="45.7870694" lon="10.0073705"><ele>349.0</ele><time>2026-03-29T08:14:40.953Z</time></trkpt><trkpt lat="45.787107" lon="10.0074981"><ele>349.0</ele><time>2026-03-29T08:14:42.954Z</time></trkpt><trkpt lat="45.7871492" lon="10.0076262"><ele>349.0</ele><time>2026-03-29T08:14:44.955Z</time></trkpt><trkpt lat="45.7871911" lon="10.0077612"><ele>349.0</ele><time>2026-03-29T08:14:47.031Z</time></trkpt><trkpt lat="45.787228" lon="10.0078752"><ele>349.0</ele><time>2026-03-29T08:14:48.961Z</time></trkpt><trkpt lat="45.7872602" lon="10.0080128"><ele>349.0</ele><time>2026-03-29T08:14:50.961Z</time></trkpt><trkpt lat="45.7873013" lon="10.00815"><ele>349.0</ele><time>2026-03-29T08:14:53.031Z</time></trkpt><trkpt lat="45.7873394" lon="10.0082807"><ele>349.0</ele><time>2026-03-29T08:14:54.955Z</time></trkpt><trkpt lat="45.7873737" lon="10.0084069"><ele>349.0</ele><time>2026-03-29T08:14:56.958Z</time></trkpt><trkpt lat="45.7874125" lon="10.0085492"><ele>349.0</ele><time>2026-03-29T08:14:58.953Z</time></trkpt><trkpt lat="45.787451" lon="10.0086872"><ele>349.0</ele><time>2026-03-29T08:15:00.994Z</time></trkpt><trkpt lat="45.7874906" lon="10.0088225"><ele>349.4</ele><time>2026-03-29T08:15:03.026Z</time></trkpt><trkpt lat="45.7875308" lon="10.0089711"><ele>349.79999999999995</ele><time>2026-03-29T08:15:04.954Z</time></trkpt><trkpt lat="45.7875697" lon="10.0091089"><ele>350.20000000000005</ele><time>2026-03-29T08:15:07.034Z</time></trkpt><trkpt lat="45.7876101" lon="10.0092456"><ele>350.6</ele><time>2026-03-29T08:15:09.03Z</time></trkpt><trkpt lat="45.7876489" lon="10.0093912"><ele>351.0</ele><time>2026-03-29T08:15:10.955Z</time></trkpt><trkpt lat="45.787687" lon="10.0095343"><ele>351.4</ele><time>2026-03-29T08:15:13.055Z</time></trkpt><trkpt lat="45.7877209" lon="10.0096594"><ele>351.8</ele><time>2026-03-29T08:15:14.95Z</time></trkpt><trkpt lat="45.7877599" lon="10.0097868"><ele>352.2</ele><time>2026-03-29T08:15:17.036Z</time></trkpt><trkpt lat="45.7877911" lon="10.0098993"><ele>352.59999999999997</ele><time>2026-03-29T08:15:19.031Z</time></trkpt><trkpt lat="45.7878307" lon="10.0100205"><ele>353.0</ele><time>2026-03-29T08:15:21.033Z</time></trkpt><trkpt lat="45.7878655" lon="10.0101378"><ele>353.0</ele><time>2026-03-29T08:15:22.939Z</time></trkpt><trkpt lat="45.787898" lon="10.0102601"><ele>353.0</ele><time>2026-03-29T08:15:24.953Z</time></trkpt><trkpt lat="45.7879189" lon="10.0103583"><ele>353.0</ele><time>2026-03-29T08:15:27.033Z</time></trkpt><trkpt lat="45.7879469" lon="10.0104645"><ele>353.0</ele><time>2026-03-29T08:15:28.961Z</time></trkpt><trkpt lat="45.7879759" lon="10.0105689"><ele>353.0</ele><time>2026-03-29T08:15:30.958Z</time></trkpt><trkpt lat="45.788013" lon="10.0106671"><ele>353.0</ele><time>2026-03-29T08:15:32.952Z</time></trkpt><trkpt lat="45.7880444" lon="10.0107797"><ele>354.2857142857143</ele><time>2026-03-29T08:15:34.955Z</time></trkpt><trkpt lat="45.7880736" lon="10.0108903"><ele>355.5714285714286</ele><time>2026-03-29T08:15:36.958Z</time></trkpt><trkpt lat="45.7881057" lon="10.0109858"><ele>356.8571428571429</ele><time>2026-03-29T08:15:38.957Z</time></trkpt><trkpt lat="45.7881413" lon="10.0110786"><ele>358.1428571428571</ele><time>2026-03-29T08:15:40.948Z</time></trkpt><trkpt lat="45.7881877" lon="10.0111579"><ele>359.42857142857144</ele><time>2026-03-29T08:15:42.955Z</time></trkpt><trkpt lat="45.7882454" lon="10.0112295"><ele>360.7142857142857</ele><time>2026-03-29T08:15:44.954Z</time></trkpt><trkpt lat="45.7882988" lon="10.0112937"><ele>362.0</ele><time>2026-03-29T08:15:46.963Z</time></trkpt><trkpt lat="45.7883624" lon="10.0113489"><ele>362.0</ele><time>2026-03-29T08:15:48.963Z</time></trkpt><trkpt lat="45.788427" lon="10.0114392"><ele>362.0</ele><time>2026-03-29T08:15:50.966Z</time></trkpt><trkpt lat="45.788449" lon="10.0115596"><ele>362.0</ele><time>2026-03-29T08:15:52.959Z</time></trkpt><trkpt lat="45.7884204" lon="10.0116826"><ele>362.0</ele><time>2026-03-29T08:15:54.961Z</time></trkpt><trkpt lat="45.7883661" lon="10.0117407"><ele>362.0</ele><time>2026-03-29T08:15:56.959Z</time></trkpt><trkpt lat="45.7882957" lon="10.0117649"><ele>362.0</ele><time>2026-03-29T08:15:58.962Z</time></trkpt><trkpt lat="45.7882202" lon="10.0117356"><ele>362.0</ele><time>2026-03-29T08:16:00.958Z</time></trkpt><trkpt lat="45.7881594" lon="10.0116891"><ele>362.0</ele><time>2026-03-29T08:16:02.949Z</time></trkpt><trkpt lat="45.7880934" lon="10.0116299"><ele>362.0</ele><time>2026-03-29T08:16:04.955Z</time></trkpt><trkpt lat="45.7880311" lon="10.011586"><ele>362.0</ele><time>2026-03-29T08:16:06.963Z</time></trkpt><trkpt lat="45.7879712" lon="10.0115339"><ele>362.0</ele><time>2026-03-29T08:16:08.957Z</time></trkpt><trkpt lat="45.7879041" lon="10.0114991"><ele>362.0</ele><time>2026-03-29T08:16:10.959Z</time></trkpt><trkpt lat="45.7878367" lon="10.0114666"><ele>362.0</ele><time>2026-03-29T08:16:12.95Z</time></trkpt><trkpt lat="45.7877709" lon="10.0114436"><ele>362.0</ele><time>2026-03-29T08:16:14.956Z</time></trkpt><trkpt lat="45.7876888" lon="10.0114219"><ele>362.0</ele><time>2026-03-29T08:16:16.956Z</time></trkpt><trkpt lat="45.7876049" lon="10.0114109"><ele>362.0</ele><time>2026-03-29T08:16:18.958Z</time></trkpt><trkpt lat="45.7875363" lon="10.0113757"><ele>362.0</ele><time>2026-03-29T08:16:20.96Z</time></trkpt><trkpt lat="45.7874711" lon="10.0113374"><ele>362.0</ele><time>2026-03-29T08:16:22.957Z</time></trkpt><trkpt lat="45.7874023" lon="10.0112974"><ele>362.0</ele><time>2026-03-29T08:16:24.96Z</time></trkpt><trkpt lat="45.7873409" lon="10.0112503"><ele>363.0</ele><time>2026-03-29T08:16:26.946Z</time></trkpt><trkpt lat="45.7872781" lon="10.0112053"><ele>364.0</ele><time>2026-03-29T08:16:28.955Z</time></trkpt><trkpt lat="45.7872147" lon="10.0111511"><ele>365.0</ele><time>2026-03-29T08:16:30.962Z</time></trkpt><trkpt lat="45.7871551" lon="10.0110879"><ele>366.0</ele><time>2026-03-29T08:16:32.956Z</time></trkpt><trkpt lat="45.7870946" lon="10.0110377"><ele>367.0</ele><time>2026-03-29T08:16:34.961Z</time></trkpt><trkpt lat="45.7870296" lon="10.0109756"><ele>368.0</ele><time>2026-03-29T08:16:36.959Z</time></trkpt><trkpt lat="45.7869717" lon="10.010909"><ele>369.0</ele><time>2026-03-29T08:16:38.968Z</time></trkpt><trkpt lat="45.7869151" lon="10.0108522"><ele>370.0</ele><time>2026-03-29T08:16:40.956Z</time></trkpt><trkpt lat="45.7868568" lon="10.0107974"><ele>371.0</ele><time>2026-03-29T08:16:42.958Z</time></trkpt><trkpt lat="45.7868021" lon="10.0107293"><ele>372.0</ele><time>2026-03-29T08:16:44.955Z</time></trkpt><trkpt lat="45.7867466" lon="10.0106645"><ele>373.0</ele><time>2026-03-29T08:16:46.944Z</time></trkpt><trkpt lat="45.7866893" lon="10.0106046"><ele>374.0</ele><time>2026-03-29T08:16:48.961Z</time></trkpt><trkpt lat="45.7866273" lon="10.0105531"><ele>375.0</ele><time>2026-03-29T08:16:50.947Z</time></trkpt><trkpt lat="45.786544" lon="10.0105246"><ele>376.0</ele><time>2026-03-29T08:16:52.959Z</time></trkpt><trkpt lat="45.7864624" lon="10.0105084"><ele>376.0</ele><time>2026-03-29T08:16:54.962Z</time></trkpt><trkpt lat="45.7863925" lon="10.0105022"><ele>376.0</ele><time>2026-03-29T08:16:56.962Z</time></trkpt><trkpt lat="45.7863022" lon="10.010499"><ele>376.0</ele><time>2026-03-29T08:16:59.956Z</time></trkpt><trkpt lat="45.7862392" lon="10.0105107"><ele>376.0</ele><time>2026-03-29T08:17:01.955Z</time></trkpt><trkpt lat="45.7861779" lon="10.0105407"><ele>376.0</ele><time>2026-03-29T08:17:03.956Z</time></trkpt><trkpt lat="45.7861137" lon="10.0105886"><ele>376.0</ele><time>2026-03-29T08:17:05.952Z</time></trkpt><trkpt lat="45.7860515" lon="10.0106564"><ele>376.0</ele><time>2026-03-29T08:17:07.964Z</time></trkpt><trkpt lat="45.7859957" lon="10.0107511"><ele>378.0</ele><time>2026-03-29T08:17:09.956Z</time></trkpt><trkpt lat="45.7859463" lon="10.0108347"><ele>380.0</ele><time>2026-03-29T08:17:11.957Z</time></trkpt><trkpt lat="45.7858959" lon="10.0109187"><ele>382.0</ele><time>2026-03-29T08:17:13.966Z</time></trkpt><trkpt lat="45.7858446" lon="10.0110033"><ele>384.0</ele><time>2026-03-29T08:17:15.959Z</time></trkpt><trkpt lat="45.7858024" lon="10.0110891"><ele>386.00000000000006</ele><time>2026-03-29T08:17:17.951Z</time></trkpt><trkpt lat="45.7857491" lon="10.0111991"><ele>388.0</ele><time>2026-03-29T08:17:20.96Z</time></trkpt><trkpt lat="45.7856914" lon="10.0112869"><ele>388.00000000000006</ele><time>2026-03-29T08:17:22.963Z</time></trkpt><trkpt lat="45.7856524" lon="10.0113757"><ele>388.0</ele><time>2026-03-29T08:17:24.962Z</time></trkpt><trkpt lat="45.785613" lon="10.0114722"><ele>388.0</ele><time>2026-03-29T08:17:26.959Z</time></trkpt><trkpt lat="45.7855793" lon="10.0115992"><ele>388.0</ele><time>2026-03-29T08:17:28.962Z</time></trkpt><trkpt lat="45.7855431" lon="10.0117097"><ele>388.00000000000006</ele><time>2026-03-29T08:17:30.946Z</time></trkpt><trkpt lat="45.7854874" lon="10.0118336"><ele>388.0</ele><time>2026-03-29T08:17:32.965Z</time></trkpt><trkpt lat="45.7854299" lon="10.0119388"><ele>390.4</ele><time>2026-03-29T08:17:34.961Z</time></trkpt><trkpt lat="45.7853783" lon="10.0120489"><ele>392.79999999999995</ele><time>2026-03-29T08:17:36.954Z</time></trkpt><trkpt lat="45.785323" lon="10.0121666"><ele>395.2</ele><time>2026-03-29T08:17:38.955Z</time></trkpt><trkpt lat="45.785277" lon="10.0122867"><ele>397.6</ele><time>2026-03-29T08:17:40.959Z</time></trkpt><trkpt lat="45.7852041" lon="10.0123971"><ele>400.0</ele><time>2026-03-29T08:17:42.957Z</time></trkpt><trkpt lat="45.7851511" lon="10.0124983"><ele>400.6</ele><time>2026-03-29T08:17:44.958Z</time></trkpt><trkpt lat="45.7850883" lon="10.0125886"><ele>401.2</ele><time>2026-03-29T08:17:46.959Z</time></trkpt><trkpt lat="45.7850124" lon="10.0126816"><ele>401.79999999999995</ele><time>2026-03-29T08:17:48.957Z</time></trkpt><trkpt lat="45.7849333" lon="10.0127794"><ele>402.4</ele><time>2026-03-29T08:17:50.96Z</time></trkpt><trkpt lat="45.7848606" lon="10.0129047"><ele>403.0</ele><time>2026-03-29T08:17:52.956Z</time></trkpt><trkpt lat="45.7847969" lon="10.0130338"><ele>403.0</ele><time>2026-03-29T08:17:54.964Z</time></trkpt><trkpt lat="45.7847518" lon="10.013171"><ele>403.0</ele><time>2026-03-29T08:17:56.957Z</time></trkpt><trkpt lat="45.784721" lon="10.0133011"><ele>403.0</ele><time>2026-03-29T08:17:58.959Z</time></trkpt><trkpt lat="45.7846885" lon="10.0134271"><ele>403.0</ele><time>2026-03-29T08:18:00.954Z</time></trkpt><trkpt lat="45.7846526" lon="10.0135463"><ele>403.0</ele><time>2026-03-29T08:18:02.958Z</time></trkpt><trkpt lat="45.7846232" lon="10.0136758"><ele>405.00000000000006</ele><time>2026-03-29T08:18:04.958Z</time></trkpt><trkpt lat="45.7845914" lon="10.0138009"><ele>407.0</ele><time>2026-03-29T08:18:06.962Z</time></trkpt><trkpt lat="45.7845616" lon="10.0139242"><ele>409.0</ele><time>2026-03-29T08:18:08.957Z</time></trkpt><trkpt lat="45.7845336" lon="10.0140403"><ele>411.0</ele><time>2026-03-29T08:18:10.958Z</time></trkpt><trkpt lat="45.7845015" lon="10.0141565"><ele>413.00000000000006</ele><time>2026-03-29T08:18:12.954Z</time></trkpt><trkpt lat="45.7844674" lon="10.0142745"><ele>415.0</ele><time>2026-03-29T08:18:14.961Z</time></trkpt><trkpt lat="45.7844073" lon="10.0143846"><ele>415.00000000000006</ele><time>2026-03-29T08:18:16.964Z</time></trkpt><trkpt lat="45.7843278" lon="10.0144525"><ele>415.0</ele><time>2026-03-29T08:18:18.96Z</time></trkpt><trkpt lat="45.7842314" lon="10.0144933"><ele>415.0</ele><time>2026-03-29T08:18:20.957Z</time></trkpt><trkpt lat="45.7841384" lon="10.0144913"><ele>415.0</ele><time>2026-03-29T08:18:22.961Z</time></trkpt><trkpt lat="45.7840561" lon="10.0144796"><ele>415.00000000000006</ele><time>2026-03-29T08:18:24.959Z</time></trkpt><trkpt lat="45.7839804" lon="10.0144499"><ele>415.0</ele><time>2026-03-29T08:18:26.957Z</time></trkpt><trkpt lat="45.7839089" lon="10.0144569"><ele>415.0</ele><time>2026-03-29T08:18:28.965Z</time></trkpt><trkpt lat="45.7838427" lon="10.0144795"><ele>415.0</ele><time>2026-03-29T08:18:30.964Z</time></trkpt><trkpt lat="45.7837852" lon="10.0145372"><ele>415.0</ele><time>2026-03-29T08:18:32.953Z</time></trkpt><trkpt lat="45.7837408" lon="10.0146127"><ele>415.0</ele><time>2026-03-29T08:18:34.96Z</time></trkpt><trkpt lat="45.7836984" lon="10.014699"><ele>415.0</ele><time>2026-03-29T08:18:36.96Z</time></trkpt><trkpt lat="45.78366" lon="10.0147914"><ele>415.0</ele><time>2026-03-29T08:18:38.96Z</time></trkpt><trkpt lat="45.7836233" lon="10.0149011"><ele>415.0</ele><time>2026-03-29T08:18:40.96Z</time></trkpt><trkpt lat="45.7835963" lon="10.0150018"><ele>416.83333333333337</ele><time>2026-03-29T08:18:42.96Z</time></trkpt><trkpt lat="45.7835727" lon="10.0151025"><ele>418.6666666666667</ele><time>2026-03-29T08:18:44.958Z</time></trkpt><trkpt lat="45.7835517" lon="10.0152126"><ele>420.5</ele><time>2026-03-29T08:18:46.966Z</time></trkpt><trkpt lat="45.7835216" lon="10.0153188"><ele>422.33333333333337</ele><time>2026-03-29T08:18:48.961Z</time></trkpt><trkpt lat="45.7834998" lon="10.0154239"><ele>424.1666666666667</ele><time>2026-03-29T08:18:50.963Z</time></trkpt><trkpt lat="45.7834854" lon="10.0155239"><ele>426.0</ele><time>2026-03-29T08:18:52.962Z</time></trkpt><trkpt lat="45.7834643" lon="10.0156224"><ele>426.0</ele><time>2026-03-29T08:18:54.958Z</time></trkpt><trkpt lat="45.7834466" lon="10.0157259"><ele>426.0</ele><time>2026-03-29T08:18:56.955Z</time></trkpt><trkpt lat="45.7834342" lon="10.0158354"><ele>426.0</ele><time>2026-03-29T08:18:58.958Z</time></trkpt><trkpt lat="45.7834119" lon="10.0159305"><ele>426.0</ele><time>2026-03-29T08:19:00.956Z</time></trkpt><trkpt lat="45.7833753" lon="10.0160341"><ele>426.0</ele><time>2026-03-29T08:19:02.958Z</time></trkpt><trkpt lat="45.7833373" lon="10.0161333"><ele>426.0</ele><time>2026-03-29T08:19:04.962Z</time></trkpt><trkpt lat="45.783292" lon="10.0162393"><ele>426.0</ele><time>2026-03-29T08:19:06.96Z</time></trkpt><trkpt lat="45.7832448" lon="10.0163379"><ele>426.0</ele><time>2026-03-29T08:19:08.962Z</time></trkpt><trkpt lat="45.7832065" lon="10.0164392"><ele>426.0</ele><time>2026-03-29T08:19:10.962Z</time></trkpt><trkpt lat="45.7831692" lon="10.016538"><ele>426.0</ele><time>2026-03-29T08:19:12.962Z</time></trkpt><trkpt lat="45.7831179" lon="10.0166338"><ele>426.0</ele><time>2026-03-29T08:19:14.957Z</time></trkpt><trkpt lat="45.7830682" lon="10.0167402"><ele>426.0</ele><time>2026-03-29T08:19:16.963Z</time></trkpt><trkpt lat="45.7830192" lon="10.0168449"><ele>426.5</ele><time>2026-03-29T08:19:18.966Z</time></trkpt><trkpt lat="45.7829707" lon="10.016944"><ele>427.0</ele><time>2026-03-29T08:19:20.948Z</time></trkpt><trkpt lat="45.7829173" lon="10.0170387"><ele>427.5</ele><time>2026-03-29T08:19:22.961Z</time></trkpt><trkpt lat="45.7828528" lon="10.0171337"><ele>428.0</ele><time>2026-03-29T08:19:24.964Z</time></trkpt><trkpt lat="45.7827951" lon="10.0172294"><ele>428.5</ele><time>2026-03-29T08:19:26.954Z</time></trkpt><trkpt lat="45.782734" lon="10.0173112"><ele>429.0</ele><time>2026-03-29T08:19:28.958Z</time></trkpt><trkpt lat="45.7826761" lon="10.0173862"><ele>429.0</ele><time>2026-03-29T08:19:30.953Z</time></trkpt><trkpt lat="45.7826178" lon="10.0174515"><ele>429.0</ele><time>2026-03-29T08:19:32.973Z</time></trkpt><trkpt lat="45.7825712" lon="10.0175224"><ele>429.0</ele><time>2026-03-29T08:19:34.961Z</time></trkpt><trkpt lat="45.7825142" lon="10.0175895"><ele>429.0</ele><time>2026-03-29T08:19:36.957Z</time></trkpt><trkpt lat="45.7824538" lon="10.01767"><ele>429.0</ele><time>2026-03-29T08:19:38.962Z</time></trkpt><trkpt lat="45.7824046" lon="10.0177373"><ele>429.0</ele><time>2026-03-29T08:19:40.95Z</time></trkpt><trkpt lat="45.7823579" lon="10.0178099"><ele>429.0</ele><time>2026-03-29T08:19:42.966Z</time></trkpt><trkpt lat="45.7823096" lon="10.0179004"><ele>429.5</ele><time>2026-03-29T08:19:44.965Z</time></trkpt><trkpt lat="45.7822662" lon="10.017981"><ele>430.0</ele><time>2026-03-29T08:19:46.959Z</time></trkpt><trkpt lat="45.7822175" lon="10.0180882"><ele>430.5</ele><time>2026-03-29T08:19:49.966Z</time></trkpt><trkpt lat="45.7821771" lon="10.0181777"><ele>431.0</ele><time>2026-03-29T08:19:51.961Z</time></trkpt><trkpt lat="45.782142" lon="10.018266"><ele>431.5</ele><time>2026-03-29T08:19:53.957Z</time></trkpt><trkpt lat="45.7821025" lon="10.0183487"><ele>432.0</ele><time>2026-03-29T08:19:55.959Z</time></trkpt><trkpt lat="45.782059" lon="10.0184359"><ele>432.1666666666667</ele><time>2026-03-29T08:19:57.965Z</time></trkpt><trkpt lat="45.7820203" lon="10.0185268"><ele>432.33333333333337</ele><time>2026-03-29T08:19:59.958Z</time></trkpt><trkpt lat="45.7819803" lon="10.0186072"><ele>432.5</ele><time>2026-03-29T08:20:01.961Z</time></trkpt><trkpt lat="45.7819373" lon="10.0186882"><ele>432.6666666666667</ele><time>2026-03-29T08:20:03.957Z</time></trkpt><trkpt lat="45.7818956" lon="10.0187737"><ele>432.83333333333337</ele><time>2026-03-29T08:20:05.96Z</time></trkpt><trkpt lat="45.7818535" lon="10.0188859"><ele>433.0</ele><time>2026-03-29T08:20:07.96Z</time></trkpt><trkpt lat="45.7818128" lon="10.0189866"><ele>433.00000000000006</ele><time>2026-03-29T08:20:09.96Z</time></trkpt><trkpt lat="45.781776" lon="10.0190793"><ele>433.0</ele><time>2026-03-29T08:20:11.961Z</time></trkpt><trkpt lat="45.7817464" lon="10.0191883"><ele>433.0</ele><time>2026-03-29T08:20:13.962Z</time></trkpt><trkpt lat="45.781712" lon="10.019285"><ele>433.0</ele><time>2026-03-29T08:20:15.961Z</time></trkpt><trkpt lat="45.7816835" lon="10.0193839"><ele>433.00000000000006</ele><time>2026-03-29T08:20:17.963Z</time></trkpt><trkpt lat="45.7816543" lon="10.0194899"><ele>433.0</ele><time>2026-03-29T08:20:19.962Z</time></trkpt><trkpt lat="45.7816178" lon="10.0196048"><ele>433.50000000000006</ele><time>2026-03-29T08:20:21.962Z</time></trkpt><trkpt lat="45.7815993" lon="10.0197257"><ele>434.0</ele><time>2026-03-29T08:20:23.965Z</time></trkpt><trkpt lat="45.7815798" lon="10.0198413"><ele>434.5</ele><time>2026-03-29T08:20:25.953Z</time></trkpt><trkpt lat="45.7815699" lon="10.0199656"><ele>435.0</ele><time>2026-03-29T08:20:27.964Z</time></trkpt><trkpt lat="45.7815462" lon="10.0200804"><ele>435.50000000000006</ele><time>2026-03-29T08:20:29.961Z</time></trkpt><trkpt lat="45.781529" lon="10.0201964"><ele>436.0</ele><time>2026-03-29T08:20:31.955Z</time></trkpt><trkpt lat="45.78151" lon="10.0203135"><ele>436.6666666666667</ele><time>2026-03-29T08:20:33.96Z</time></trkpt><trkpt lat="45.7814859" lon="10.0204269"><ele>437.33333333333337</ele><time>2026-03-29T08:20:35.956Z</time></trkpt><trkpt lat="45.7814677" lon="10.0205433"><ele>438.0</ele><time>2026-03-29T08:20:37.962Z</time></trkpt><trkpt lat="45.7814454" lon="10.0206576"><ele>438.66666666666663</ele><time>2026-03-29T08:20:39.961Z</time></trkpt><trkpt lat="45.7814327" lon="10.0207774"><ele>439.3333333333333</ele><time>2026-03-29T08:20:41.955Z</time></trkpt><trkpt lat="45.7814302" lon="10.0208837"><ele>440.0</ele><time>2026-03-29T08:20:43.957Z</time></trkpt><trkpt lat="45.7814368" lon="10.0209997"><ele>440.8333333333333</ele><time>2026-03-29T08:20:45.953Z</time></trkpt><trkpt lat="45.7814522" lon="10.0211215"><ele>441.66666666666663</ele><time>2026-03-29T08:20:47.958Z</time></trkpt><trkpt lat="45.7814611" lon="10.0212438"><ele>442.5</ele><time>2026-03-29T08:20:49.962Z</time></trkpt><trkpt lat="45.7814578" lon="10.0213609"><ele>443.33333333333337</ele><time>2026-03-29T08:20:51.957Z</time></trkpt><trkpt lat="45.7814606" lon="10.0214821"><ele>444.1666666666667</ele><time>2026-03-29T08:20:53.955Z</time></trkpt><trkpt lat="45.7814667" lon="10.0216033"><ele>445.0</ele><time>2026-03-29T08:20:55.957Z</time></trkpt><trkpt lat="45.7814836" lon="10.0217297"><ele>445.50000000000006</ele><time>2026-03-29T08:20:57.957Z</time></trkpt><trkpt lat="45.7814959" lon="10.0218504"><ele>446.0</ele><time>2026-03-29T08:20:59.95Z</time></trkpt><trkpt lat="45.7815251" lon="10.0219457"><ele>446.5</ele><time>2026-03-29T08:21:01.959Z</time></trkpt><trkpt lat="45.7815685" lon="10.022043"><ele>447.0</ele><time>2026-03-29T08:21:03.962Z</time></trkpt><trkpt lat="45.7816093" lon="10.022134"><ele>447.50000000000006</ele><time>2026-03-29T08:21:05.958Z</time></trkpt><trkpt lat="45.7816512" lon="10.0222236"><ele>448.0</ele><time>2026-03-29T08:21:07.961Z</time></trkpt><trkpt lat="45.7816919" lon="10.0223024"><ele>448.00000000000006</ele><time>2026-03-29T08:21:09.965Z</time></trkpt><trkpt lat="45.7817545" lon="10.0223309"><ele>448.0</ele><time>2026-03-29T08:21:11.96Z</time></trkpt><trkpt lat="45.7818348" lon="10.0222923"><ele>448.0</ele><time>2026-03-29T08:21:14.963Z</time></trkpt><trkpt lat="45.7818982" lon="10.0222695"><ele>448.0</ele><time>2026-03-29T08:21:16.959Z</time></trkpt><trkpt lat="45.7819625" lon="10.0222485"><ele>448.00000000000006</ele><time>2026-03-29T08:21:18.961Z</time></trkpt><trkpt lat="45.7820498" lon="10.0222418"><ele>448.0</ele><time>2026-03-29T08:21:21.96Z</time></trkpt><trkpt lat="45.7821479" lon="10.0222174"><ele>450.00000000000006</ele><time>2026-03-29T08:21:24.961Z</time></trkpt><trkpt lat="45.7822204" lon="10.0221967"><ele>452.0</ele><time>2026-03-29T08:21:27.967Z</time></trkpt><trkpt lat="45.7823042" lon="10.0221818"><ele>454.0</ele><time>2026-03-29T08:21:30.962Z</time></trkpt><trkpt lat="45.7823711" lon="10.0221559"><ele>456.0</ele><time>2026-03-29T08:21:33.962Z</time></trkpt><trkpt lat="45.7824385" lon="10.0220882"><ele>458.00000000000006</ele><time>2026-03-29T08:21:36.958Z</time></trkpt><trkpt lat="45.7824856" lon="10.0220056"><ele>460.0</ele><time>2026-03-29T08:21:39.968Z</time></trkpt><trkpt lat="45.7825035" lon="10.0219103"><ele>460.00000000000006</ele><time>2026-03-29T08:21:42.962Z</time></trkpt><trkpt lat="45.782517" lon="10.0217991"><ele>460.0</ele><time>2026-03-29T08:21:45.962Z</time></trkpt><trkpt lat="45.7825429" lon="10.0216884"><ele>460.0</ele><time>2026-03-29T08:21:48.959Z</time></trkpt><trkpt lat="45.7825585" lon="10.021572"><ele>460.0</ele><time>2026-03-29T08:21:51.957Z</time></trkpt><trkpt lat="45.7825774" lon="10.021443"><ele>460.00000000000006</ele><time>2026-03-29T08:21:54.958Z</time></trkpt><trkpt lat="45.7825965" lon="10.0213161"><ele>460.0</ele><time>2026-03-29T08:21:57.956Z</time></trkpt><trkpt lat="45.782618" lon="10.0211744"><ele>459.5714285714285</ele><time>2026-03-29T08:22:00.949Z</time></trkpt><trkpt lat="45.7826487" lon="10.0210915"><ele>459.1428571428571</ele><time>2026-03-29T08:22:02.959Z</time></trkpt><trkpt lat="45.7826858" lon="10.0210177"><ele>458.7142857142857</ele><time>2026-03-29T08:22:04.96Z</time></trkpt><trkpt lat="45.7827509" lon="10.0209275"><ele>458.2857142857143</ele><time>2026-03-29T08:22:07.962Z</time></trkpt><trkpt lat="45.7828181" lon="10.0208379"><ele>457.8571428571429</ele><time>2026-03-29T08:22:10.961Z</time></trkpt><trkpt lat="45.7828633" lon="10.0207679"><ele>457.4285714285715</ele><time>2026-03-29T08:22:12.959Z</time></trkpt><trkpt lat="45.7829134" lon="10.020702"><ele>457.00000000000006</ele><time>2026-03-29T08:22:14.959Z</time></trkpt><trkpt lat="45.7829854" lon="10.0206205"><ele>460.83333333333337</ele><time>2026-03-29T08:22:17.964Z</time></trkpt><trkpt lat="45.7830453" lon="10.0205384"><ele>464.6666666666667</ele><time>2026-03-29T08:22:20.951Z</time></trkpt><trkpt lat="45.7830951" lon="10.0204354"><ele>468.5</ele><time>2026-03-29T08:22:23.96Z</time></trkpt><trkpt lat="45.783128" lon="10.0203439"><ele>472.33333333333337</ele><time>2026-03-29T08:22:26.95Z</time></trkpt><trkpt lat="45.7831591" lon="10.0202333"><ele>476.1666666666667</ele><time>2026-03-29T08:22:29.964Z</time></trkpt><trkpt lat="45.7831817" lon="10.0201114"><ele>480.0</ele><time>2026-03-29T08:22:32.96Z</time></trkpt><trkpt lat="45.7831816" lon="10.0200175"><ele>480.0</ele><time>2026-03-29T08:22:34.96Z</time></trkpt><trkpt lat="45.7831824" lon="10.0198854"><ele>480.0</ele><time>2026-03-29T08:22:37.962Z</time></trkpt><trkpt lat="45.7832136" lon="10.0197858"><ele>480.0</ele><time>2026-03-29T08:22:40.956Z</time></trkpt><trkpt lat="45.7832674" lon="10.0198732"><ele>480.0</ele><time>2026-03-29T08:22:44.952Z</time></trkpt><trkpt lat="45.783273" lon="10.0200068"><ele>480.0</ele><time>2026-03-29T08:22:47.962Z</time></trkpt><trkpt lat="45.7832878" lon="10.0201017"><ele>480.0</ele><time>2026-03-29T08:22:49.96Z</time></trkpt><trkpt lat="45.7833029" lon="10.0201985"><ele>480.0</ele><time>2026-03-29T08:22:51.96Z</time></trkpt><trkpt lat="45.7833166" lon="10.0203"><ele>480.0</ele><time>2026-03-29T08:22:53.957Z</time></trkpt><trkpt lat="45.7833247" lon="10.020393"><ele>480.0</ele><time>2026-03-29T08:22:55.959Z</time></trkpt><trkpt lat="45.7833414" lon="10.0204939"><ele>480.0</ele><time>2026-03-29T08:22:57.958Z</time></trkpt><trkpt lat="45.7833576" lon="10.0205875"><ele>480.0</ele><time>2026-03-29T08:22:59.97Z</time></trkpt><trkpt lat="45.7833776" lon="10.0206837"><ele>480.0</ele><time>2026-03-29T08:23:01.967Z</time></trkpt><trkpt lat="45.7834023" lon="10.0207857"><ele>480.0</ele><time>2026-03-29T08:23:03.959Z</time></trkpt><trkpt lat="45.7834155" lon="10.0208772"><ele>480.0</ele><time>2026-03-29T08:23:05.955Z</time></trkpt><trkpt lat="45.7834266" lon="10.0209661"><ele>480.0</ele><time>2026-03-29T08:23:07.959Z</time></trkpt><trkpt lat="45.7834302" lon="10.0210625"><ele>480.0</ele><time>2026-03-29T08:23:09.958Z</time></trkpt><trkpt lat="45.7834391" lon="10.021152"><ele>480.0</ele><time>2026-03-29T08:23:11.959Z</time></trkpt><trkpt lat="45.783449" lon="10.0212779"><ele>480.0</ele><time>2026-03-29T08:23:14.959Z</time></trkpt><trkpt lat="45.7834533" lon="10.0214039"><ele>480.0</ele><time>2026-03-29T08:23:17.958Z</time></trkpt><trkpt lat="45.7834474" lon="10.0214999"><ele>480.0</ele><time>2026-03-29T08:23:19.961Z</time></trkpt><trkpt lat="45.7834326" lon="10.021597"><ele>480.8333333333333</ele><time>2026-03-29T08:23:21.958Z</time></trkpt><trkpt lat="45.7834229" lon="10.0216972"><ele>481.66666666666663</ele><time>2026-03-29T08:23:23.962Z</time></trkpt><trkpt lat="45.7834182" lon="10.0217955"><ele>482.5</ele><time>2026-03-29T08:23:25.946Z</time></trkpt><trkpt lat="45.7834209" lon="10.021902"><ele>483.3333333333333</ele><time>2026-03-29T08:23:27.958Z</time></trkpt><trkpt lat="45.7834249" lon="10.0220162"><ele>484.16666666666663</ele><time>2026-03-29T08:23:29.962Z</time></trkpt><trkpt lat="45.7834361" lon="10.0221359"><ele>485.0</ele><time>2026-03-29T08:23:31.965Z</time></trkpt><trkpt lat="45.7834539" lon="10.0222499"><ele>484.99999999999994</ele><time>2026-03-29T08:23:33.963Z</time></trkpt><trkpt lat="45.7834696" lon="10.0223645"><ele>485.0</ele><time>2026-03-29T08:23:36.03Z</time></trkpt><trkpt lat="45.7834774" lon="10.0224655"><ele>485.0</ele><time>2026-03-29T08:23:37.973Z</time></trkpt><trkpt lat="45.7834897" lon="10.0225774"><ele>485.0</ele><time>2026-03-29T08:23:39.961Z</time></trkpt><trkpt lat="45.7835104" lon="10.0227083"><ele>484.99999999999994</ele><time>2026-03-29T08:23:42.963Z</time></trkpt><trkpt lat="45.7835352" lon="10.0228263"><ele>485.0</ele><time>2026-03-29T08:23:44.958Z</time></trkpt><trkpt lat="45.7835638" lon="10.0229382"><ele>488.8333333333333</ele><time>2026-03-29T08:23:47.023Z</time></trkpt><trkpt lat="45.7835799" lon="10.0230401"><ele>492.66666666666663</ele><time>2026-03-29T08:23:48.958Z</time></trkpt><trkpt lat="45.7836006" lon="10.0231387"><ele>496.5</ele><time>2026-03-29T08:23:50.957Z</time></trkpt><trkpt lat="45.7836226" lon="10.0232447"><ele>500.33333333333337</ele><time>2026-03-29T08:23:52.962Z</time></trkpt><trkpt lat="45.78365" lon="10.0233666"><ele>504.1666666666667</ele><time>2026-03-29T08:23:54.95Z</time></trkpt><trkpt lat="45.783679" lon="10.0234819"><ele>508.0</ele><time>2026-03-29T08:23:56.958Z</time></trkpt><trkpt lat="45.7837105" lon="10.0235804"><ele>508.00000000000006</ele><time>2026-03-29T08:23:58.958Z</time></trkpt><trkpt lat="45.7837325" lon="10.0236826"><ele>508.0</ele><time>2026-03-29T08:24:00.96Z</time></trkpt><trkpt lat="45.7837556" lon="10.0238009"><ele>508.0</ele><time>2026-03-29T08:24:02.962Z</time></trkpt><trkpt lat="45.7837808" lon="10.0239014"><ele>508.0</ele><time>2026-03-29T08:24:04.948Z</time></trkpt><trkpt lat="45.7838202" lon="10.0239999"><ele>508.00000000000006</ele><time>2026-03-29T08:24:06.957Z</time></trkpt><trkpt lat="45.7838523" lon="10.0241"><ele>508.0</ele><time>2026-03-29T08:24:08.961Z</time></trkpt><trkpt lat="45.7838853" lon="10.0241835"><ele>507.57142857142856</ele><time>2026-03-29T08:24:10.961Z</time></trkpt><trkpt lat="45.7839193" lon="10.024271"><ele>507.1428571428571</ele><time>2026-03-29T08:24:12.961Z</time></trkpt><trkpt lat="45.7839496" lon="10.0243507"><ele>506.71428571428567</ele><time>2026-03-29T08:24:14.96Z</time></trkpt><trkpt lat="45.7839809" lon="10.0244316"><ele>506.2857142857143</ele><time>2026-03-29T08:24:16.959Z</time></trkpt><trkpt lat="45.7840083" lon="10.0245193"><ele>505.8571428571428</ele><time>2026-03-29T08:24:18.959Z</time></trkpt><trkpt lat="45.7840336" lon="10.0246052"><ele>505.4285714285714</ele><time>2026-03-29T08:24:20.971Z</time></trkpt><trkpt lat="45.7840605" lon="10.024687"><ele>505.0</ele><time>2026-03-29T08:24:22.959Z</time></trkpt><trkpt lat="45.7840867" lon="10.0247721"><ele>505.00000000000006</ele><time>2026-03-29T08:24:24.949Z</time></trkpt><trkpt lat="45.7841181" lon="10.0248528"><ele>505.0</ele><time>2026-03-29T08:24:26.953Z</time></trkpt><trkpt lat="45.7841455" lon="10.0249413"><ele>505.0</ele><time>2026-03-29T08:24:28.961Z</time></trkpt><trkpt lat="45.7841868" lon="10.0250564"><ele>505.0</ele><time>2026-03-29T08:24:31.957Z</time></trkpt><trkpt lat="45.7842333" lon="10.025171"><ele>505.00000000000006</ele><time>2026-03-29T08:24:34.968Z</time></trkpt><trkpt lat="45.7842874" lon="10.0252709"><ele>505.0</ele><time>2026-03-29T08:24:37.959Z</time></trkpt><trkpt lat="45.784353" lon="10.0253623"><ele>505.71428571428567</ele><time>2026-03-29T08:24:40.963Z</time></trkpt><trkpt lat="45.7843978" lon="10.0254316"><ele>506.4285714285714</ele><time>2026-03-29T08:24:42.963Z</time></trkpt><trkpt lat="45.7844488" lon="10.0255049"><ele>507.1428571428571</ele><time>2026-03-29T08:24:44.964Z</time></trkpt><trkpt lat="45.7844979" lon="10.0255766"><ele>507.8571428571429</ele><time>2026-03-29T08:24:46.954Z</time></trkpt><trkpt lat="45.7845434" lon="10.0256434"><ele>508.5714285714286</ele><time>2026-03-29T08:24:48.966Z</time></trkpt><trkpt lat="45.7845889" lon="10.025716"><ele>509.28571428571433</ele><time>2026-03-29T08:24:50.965Z</time></trkpt><trkpt lat="45.7846416" lon="10.025795"><ele>510.0</ele><time>2026-03-29T08:24:53.008Z</time></trkpt><trkpt lat="45.7846899" lon="10.0258608"><ele>510.0</ele><time>2026-03-29T08:24:54.966Z</time></trkpt><trkpt lat="45.7847374" lon="10.0259291"><ele>510.00000000000006</ele><time>2026-03-29T08:24:56.96Z</time></trkpt><trkpt lat="45.7847846" lon="10.0259942"><ele>510.0</ele><time>2026-03-29T08:24:58.963Z</time></trkpt><trkpt lat="45.7848295" lon="10.0260663"><ele>510.0</ele><time>2026-03-29T08:25:00.967Z</time></trkpt><trkpt lat="45.784884" lon="10.0261419"><ele>510.00000000000006</ele><time>2026-03-29T08:25:02.963Z</time></trkpt><trkpt lat="45.7849299" lon="10.026206"><ele>510.0</ele><time>2026-03-29T08:25:04.952Z</time></trkpt><trkpt lat="45.7849748" lon="10.026282"><ele>510.0</ele><time>2026-03-29T08:25:06.962Z</time></trkpt><trkpt lat="45.7850321" lon="10.0263646"><ele>510.0</ele><time>2026-03-29T08:25:08.96Z</time></trkpt><trkpt lat="45.7850922" lon="10.0264457"><ele>510.0</ele><time>2026-03-29T08:25:10.963Z</time></trkpt><trkpt lat="45.7851421" lon="10.0265204"><ele>510.0</ele><time>2026-03-29T08:25:12.962Z</time></trkpt><trkpt lat="45.785197" lon="10.0265912"><ele>510.0</ele><time>2026-03-29T08:25:14.961Z</time></trkpt><trkpt lat="45.7852467" lon="10.0266554"><ele>510.0</ele><time>2026-03-29T08:25:16.959Z</time></trkpt><trkpt lat="45.7853001" lon="10.0267062"><ele>510.0</ele><time>2026-03-29T08:25:18.963Z</time></trkpt><trkpt lat="45.7853819" lon="10.0267761"><ele>510.42857142857144</ele><time>2026-03-29T08:25:21.958Z</time></trkpt><trkpt lat="45.7854439" lon="10.0268214"><ele>510.8571428571429</ele><time>2026-03-29T08:25:23.962Z</time></trkpt><trkpt lat="45.7855049" lon="10.0268689"><ele>511.28571428571433</ele><time>2026-03-29T08:25:25.96Z</time></trkpt><trkpt lat="45.7855775" lon="10.0268991"><ele>511.7142857142858</ele><time>2026-03-29T08:25:27.966Z</time></trkpt><trkpt lat="45.7856512" lon="10.0269357"><ele>512.1428571428571</ele><time>2026-03-29T08:25:29.961Z</time></trkpt><trkpt lat="45.7857212" lon="10.0269516"><ele>512.5714285714287</ele><time>2026-03-29T08:25:31.966Z</time></trkpt><trkpt lat="45.7857854" lon="10.0269717"><ele>513.0</ele><time>2026-03-29T08:25:33.962Z</time></trkpt><trkpt lat="45.7858714" lon="10.0269856"><ele>513.0000000000001</ele><time>2026-03-29T08:25:35.959Z</time></trkpt><trkpt lat="45.7859394" lon="10.0269875"><ele>513.0</ele><time>2026-03-29T08:25:37.962Z</time></trkpt><trkpt lat="45.7860089" lon="10.0269917"><ele>513.0</ele><time>2026-03-29T08:25:39.964Z</time></trkpt><trkpt lat="45.7860773" lon="10.0269906"><ele>513.0</ele><time>2026-03-29T08:25:41.96Z</time></trkpt><trkpt lat="45.7861462" lon="10.0269942"><ele>513.0</ele><time>2026-03-29T08:25:43.964Z</time></trkpt><trkpt lat="45.7862446" lon="10.0270092"><ele>513.0000000000001</ele><time>2026-03-29T08:25:46.961Z</time></trkpt><trkpt lat="45.7863091" lon="10.0270246"><ele>513.0</ele><time>2026-03-29T08:25:48.962Z</time></trkpt><trkpt lat="45.7863963" lon="10.0270672"><ele>516.0</ele><time>2026-03-29T08:25:51.95Z</time></trkpt><trkpt lat="45.7864626" lon="10.0270973"><ele>519.0</ele><time>2026-03-29T08:25:53.964Z</time></trkpt><trkpt lat="45.7865241" lon="10.0271358"><ele>522.0</ele><time>2026-03-29T08:25:55.961Z</time></trkpt><trkpt lat="45.7865995" lon="10.0272075"><ele>525.0</ele><time>2026-03-29T08:25:58.966Z</time></trkpt><trkpt lat="45.7866768" lon="10.0272701"><ele>528.0</ele><time>2026-03-29T08:26:01.958Z</time></trkpt><trkpt lat="45.7867514" lon="10.027346"><ele>531.0</ele><time>2026-03-29T08:26:04.962Z</time></trkpt><trkpt lat="45.7868075" lon="10.0274005"><ele>532.8333333333334</ele><time>2026-03-29T08:26:06.953Z</time></trkpt><trkpt lat="45.7868812" lon="10.0274688"><ele>534.6666666666666</ele><time>2026-03-29T08:26:09.948Z</time></trkpt><trkpt lat="45.7869551" lon="10.0275312"><ele>536.5</ele><time>2026-03-29T08:26:12.962Z</time></trkpt><trkpt lat="45.7870233" lon="10.0276055"><ele>538.3333333333333</ele><time>2026-03-29T08:26:15.96Z</time></trkpt><trkpt lat="45.7870983" lon="10.0276813"><ele>540.1666666666666</ele><time>2026-03-29T08:26:18.964Z</time></trkpt><trkpt lat="45.7871676" lon="10.0277578"><ele>542.0</ele><time>2026-03-29T08:26:21.97Z</time></trkpt><trkpt lat="45.7872337" lon="10.0278357"><ele>542.0</ele><time>2026-03-29T08:26:24.956Z</time></trkpt><trkpt lat="45.7872847" lon="10.027912"><ele>542.0</ele><time>2026-03-29T08:26:26.964Z</time></trkpt><trkpt lat="45.7873529" lon="10.0279851"><ele>542.0</ele><time>2026-03-29T08:26:29.961Z</time></trkpt><trkpt lat="45.7874108" lon="10.0280261"><ele>542.0</ele><time>2026-03-29T08:26:31.963Z</time></trkpt><trkpt lat="45.7874772" lon="10.028062"><ele>542.0</ele><time>2026-03-29T08:26:33.968Z</time></trkpt><trkpt lat="45.7875578" lon="10.0280757"><ele>542.0</ele><time>2026-03-29T08:26:36.965Z</time></trkpt><trkpt lat="45.7876228" lon="10.0280641"><ele>542.0</ele><time>2026-03-29T08:26:39.96Z</time></trkpt><trkpt lat="45.7876961" lon="10.0280541"><ele>543.3333333333333</ele><time>2026-03-29T08:26:42.961Z</time></trkpt><trkpt lat="45.7877812" lon="10.0280413"><ele>544.6666666666666</ele><time>2026-03-29T08:26:45.967Z</time></trkpt><trkpt lat="45.7878595" lon="10.0280359"><ele>546.0</ele><time>2026-03-29T08:26:48.958Z</time></trkpt><trkpt lat="45.7879434" lon="10.0280114"><ele>547.3333333333334</ele><time>2026-03-29T08:26:51.949Z</time></trkpt><trkpt lat="45.7880265" lon="10.0279946"><ele>548.6666666666667</ele><time>2026-03-29T08:26:54.962Z</time></trkpt><trkpt lat="45.7881054" lon="10.0279712"><ele>550.0</ele><time>2026-03-29T08:26:57.954Z</time></trkpt><trkpt lat="45.788167" lon="10.0279422"><ele>550.0</ele><time>2026-03-29T08:27:00.958Z</time></trkpt><trkpt lat="45.7882379" lon="10.0278868"><ele>550.0</ele><time>2026-03-29T08:27:04.031Z</time></trkpt><trkpt lat="45.788311" lon="10.0278299"><ele>550.0</ele><time>2026-03-29T08:27:06.961Z</time></trkpt><trkpt lat="45.7883832" lon="10.0277587"><ele>550.0</ele><time>2026-03-29T08:27:09.962Z</time></trkpt><trkpt lat="45.7884369" lon="10.0277043"><ele>550.0</ele><time>2026-03-29T08:27:12.028Z</time></trkpt><trkpt lat="45.788509" lon="10.0276358"><ele>550.0</ele><time>2026-03-29T08:27:14.973Z</time></trkpt><trkpt lat="45.7885749" lon="10.02755"><ele>553.3333333333334</ele><time>2026-03-29T08:27:17.964Z</time></trkpt><trkpt lat="45.7886288" lon="10.0274382"><ele>556.6666666666667</ele><time>2026-03-29T08:27:20.968Z</time></trkpt><trkpt lat="45.7886539" lon="10.0273474"><ele>560.0</ele><time>2026-03-29T08:27:22.982Z</time></trkpt><trkpt lat="45.7886862" lon="10.027233"><ele>563.3333333333334</ele><time>2026-03-29T08:27:26.027Z</time></trkpt><trkpt lat="45.7887079" lon="10.027107"><ele>566.6666666666666</ele><time>2026-03-29T08:27:28.956Z</time></trkpt><trkpt lat="45.7887187" lon="10.0269815"><ele>570.0</ele><time>2026-03-29T08:27:31.956Z</time></trkpt><trkpt lat="45.7887255" lon="10.0268913"><ele>570.0</ele><time>2026-03-29T08:27:33.964Z</time></trkpt><trkpt lat="45.7887331" lon="10.0267984"><ele>570.0</ele><time>2026-03-29T08:27:36.038Z</time></trkpt><trkpt lat="45.7887453" lon="10.0266746"><ele>570.0</ele><time>2026-03-29T08:27:38.952Z</time></trkpt><trkpt lat="45.788757" lon="10.0265476"><ele>570.0</ele><time>2026-03-29T08:27:41.954Z</time></trkpt><trkpt lat="45.7887688" lon="10.0264299"><ele>570.0</ele><time>2026-03-29T08:27:44.951Z</time></trkpt><trkpt lat="45.7887818" lon="10.0263109"><ele>570.0</ele><time>2026-03-29T08:27:48.034Z</time></trkpt><trkpt lat="45.7887982" lon="10.026191"><ele>571.0</ele><time>2026-03-29T08:27:50.968Z</time></trkpt><trkpt lat="45.7888194" lon="10.026069"><ele>572.0</ele><time>2026-03-29T08:27:53.962Z</time></trkpt><trkpt lat="45.7888532" lon="10.0259579"><ele>573.0</ele><time>2026-03-29T08:27:56.948Z</time></trkpt><trkpt lat="45.7888994" lon="10.0258543"><ele>574.0</ele><time>2026-03-29T08:27:59.964Z</time></trkpt><trkpt lat="45.7889564" lon="10.0257722"><ele>575.0</ele><time>2026-03-29T08:28:02.964Z</time></trkpt><trkpt lat="45.7890188" lon="10.0257148"><ele>576.0</ele><time>2026-03-29T08:28:05.968Z</time></trkpt><trkpt lat="45.7890881" lon="10.0256422"><ele>576.0</ele><time>2026-03-29T08:28:08.969Z</time></trkpt><trkpt lat="45.789161" lon="10.0255832"><ele>576.0</ele><time>2026-03-29T08:28:12.032Z</time></trkpt><trkpt lat="45.7892358" lon="10.0255304"><ele>576.0</ele><time>2026-03-29T08:28:14.976Z</time></trkpt><trkpt lat="45.7893023" lon="10.0254667"><ele>576.0</ele><time>2026-03-29T08:28:17.964Z</time></trkpt><trkpt lat="45.7893598" lon="10.0255431"><ele>576.0</ele><time>2026-03-29T08:28:22.96Z</time></trkpt><trkpt lat="45.789357" lon="10.0256421"><ele>576.0</ele><time>2026-03-29T08:28:25.959Z</time></trkpt><trkpt lat="45.7893704" lon="10.0257421"><ele>577.1666666666666</ele><time>2026-03-29T08:28:27.963Z</time></trkpt><trkpt lat="45.7894083" lon="10.0258479"><ele>578.3333333333334</ele><time>2026-03-29T08:28:31.032Z</time></trkpt><trkpt lat="45.7894389" lon="10.0259295"><ele>579.5</ele><time>2026-03-29T08:28:32.969Z</time></trkpt><trkpt lat="45.7894905" lon="10.025995"><ele>580.6666666666667</ele><time>2026-03-29T08:28:36.026Z</time></trkpt><trkpt lat="45.7895612" lon="10.0260276"><ele>581.8333333333334</ele><time>2026-03-29T08:28:38.954Z</time></trkpt><trkpt lat="45.7896254" lon="10.0261138"><ele>583.0</ele><time>2026-03-29T08:28:41.954Z</time></trkpt><trkpt lat="45.789674" lon="10.026225"><ele>583.0000000000001</ele><time>2026-03-29T08:28:44.954Z</time></trkpt><trkpt lat="45.7897501" lon="10.0263038"><ele>583.0</ele><time>2026-03-29T08:28:47.968Z</time></trkpt><trkpt lat="45.7898169" lon="10.0263684"><ele>583.0</ele><time>2026-03-29T08:28:49.974Z</time></trkpt><trkpt lat="45.7898708" lon="10.0264181"><ele>583.0</ele><time>2026-03-29T08:28:51.951Z</time></trkpt><trkpt lat="45.7899134" lon="10.0264915"><ele>583.0</ele><time>2026-03-29T08:28:53.964Z</time></trkpt><trkpt lat="45.7899393" lon="10.0265824"><ele>583.0000000000001</ele><time>2026-03-29T08:28:55.955Z</time></trkpt><trkpt lat="45.7899543" lon="10.0266874"><ele>583.0</ele><time>2026-03-29T08:28:57.953Z</time></trkpt><trkpt lat="45.7899787" lon="10.0267777"><ele>582.8333333333334</ele><time>2026-03-29T08:28:59.961Z</time></trkpt><trkpt lat="45.7900285" lon="10.0269054"><ele>582.6666666666667</ele><time>2026-03-29T08:29:02.947Z</time></trkpt><trkpt lat="45.790049" lon="10.0270096"><ele>582.5</ele><time>2026-03-29T08:29:04.96Z</time></trkpt><trkpt lat="45.7900618" lon="10.0271191"><ele>582.3333333333334</ele><time>2026-03-29T08:29:06.956Z</time></trkpt><trkpt lat="45.7900825" lon="10.0272196"><ele>582.1666666666666</ele><time>2026-03-29T08:29:08.956Z</time></trkpt><trkpt lat="45.7900914" lon="10.0273166"><ele>582.0</ele><time>2026-03-29T08:29:11.007Z</time></trkpt><trkpt lat="45.7900971" lon="10.0274077"><ele>582.3333333333334</ele><time>2026-03-29T08:29:12.956Z</time></trkpt><trkpt lat="45.7900977" lon="10.0275242"><ele>582.6666666666666</ele><time>2026-03-29T08:29:15.963Z</time></trkpt><trkpt lat="45.790101" lon="10.0276162"><ele>583.0</ele><time>2026-03-29T08:29:17.961Z</time></trkpt><trkpt lat="45.7901116" lon="10.0277155"><ele>583.3333333333333</ele><time>2026-03-29T08:29:19.962Z</time></trkpt><trkpt lat="45.7901349" lon="10.0278192"><ele>583.6666666666666</ele><time>2026-03-29T08:29:21.964Z</time></trkpt><trkpt lat="45.7901441" lon="10.027916"><ele>584.0</ele><time>2026-03-29T08:29:23.962Z</time></trkpt><trkpt lat="45.7901611" lon="10.0280445"><ele>584.0</ele><time>2026-03-29T08:29:26.956Z</time></trkpt><trkpt lat="45.7901689" lon="10.0281357"><ele>584.0</ele><time>2026-03-29T08:29:28.956Z</time></trkpt><trkpt lat="45.7901983" lon="10.0282696"><ele>584.0</ele><time>2026-03-29T08:29:31.952Z</time></trkpt><trkpt lat="45.7902337" lon="10.0283444"><ele>584.0</ele><time>2026-03-29T08:29:33.958Z</time></trkpt><trkpt lat="45.7902886" lon="10.0284101"><ele>584.0</ele><time>2026-03-29T08:29:35.953Z</time></trkpt><trkpt lat="45.7903642" lon="10.0284755"><ele>584.0</ele><time>2026-03-29T08:29:38.956Z</time></trkpt><trkpt lat="45.7904478" lon="10.0285208"><ele>585.5714285714286</ele><time>2026-03-29T08:29:41.95Z</time></trkpt><trkpt lat="45.7905352" lon="10.0285609"><ele>587.1428571428571</ele><time>2026-03-29T08:29:44.967Z</time></trkpt><trkpt lat="45.7905994" lon="10.0286018"><ele>588.7142857142858</ele><time>2026-03-29T08:29:46.959Z</time></trkpt><trkpt lat="45.7906506" lon="10.0286609"><ele>590.2857142857142</ele><time>2026-03-29T08:29:48.959Z</time></trkpt><trkpt lat="45.7906971" lon="10.0287259"><ele>591.8571428571429</ele><time>2026-03-29T08:29:50.956Z</time></trkpt><trkpt lat="45.7907412" lon="10.028804"><ele>593.4285714285714</ele><time>2026-03-29T08:29:52.962Z</time></trkpt><trkpt lat="45.7907806" lon="10.0288794"><ele>595.0</ele><time>2026-03-29T08:29:54.957Z</time></trkpt><trkpt lat="45.7908321" lon="10.0289435"><ele>595.0</ele><time>2026-03-29T08:29:56.955Z</time></trkpt><trkpt lat="45.7908918" lon="10.0290406"><ele>595.0</ele><time>2026-03-29T08:29:59.958Z</time></trkpt><trkpt lat="45.7909454" lon="10.0291473"><ele>595.0</ele><time>2026-03-29T08:30:02.96Z</time></trkpt><trkpt lat="45.7909788" lon="10.029225"><ele>595.0</ele><time>2026-03-29T08:30:04.96Z</time></trkpt><trkpt lat="45.7910069" lon="10.0293102"><ele>595.0</ele><time>2026-03-29T08:30:06.959Z</time></trkpt><trkpt lat="45.7910321" lon="10.0294102"><ele>595.0</ele><time>2026-03-29T08:30:08.957Z</time></trkpt><trkpt lat="45.7910456" lon="10.0295418"><ele>596.0</ele><time>2026-03-29T08:30:11.957Z</time></trkpt><trkpt lat="45.7910612" lon="10.0296314"><ele>597.0</ele><time>2026-03-29T08:30:13.955Z</time></trkpt><trkpt lat="45.7910862" lon="10.0297537"><ele>598.0</ele><time>2026-03-29T08:30:15.96Z</time></trkpt><trkpt lat="45.7911002" lon="10.0298683"><ele>599.0</ele><time>2026-03-29T08:30:17.956Z</time></trkpt><trkpt lat="45.7911079" lon="10.0299877"><ele>600.0</ele><time>2026-03-29T08:30:19.965Z</time></trkpt><trkpt lat="45.7911198" lon="10.0300947"><ele>601.0</ele><time>2026-03-29T08:30:21.961Z</time></trkpt><trkpt lat="45.7911243" lon="10.0301912"><ele>601.0</ele><time>2026-03-29T08:30:23.959Z</time></trkpt><trkpt lat="45.7911331" lon="10.0302823"><ele>601.0</ele><time>2026-03-29T08:30:25.941Z</time></trkpt><trkpt lat="45.7911508" lon="10.0303954"><ele>601.0</ele><time>2026-03-29T08:30:27.954Z</time></trkpt><trkpt lat="45.7911602" lon="10.0304901"><ele>601.0</ele><time>2026-03-29T08:30:29.942Z</time></trkpt><trkpt lat="45.7911841" lon="10.0306429"><ele>601.0</ele><time>2026-03-29T08:30:31.945Z</time></trkpt><trkpt lat="45.7911763" lon="10.0307509"><ele>601.0</ele><time>2026-03-29T08:30:33.957Z</time></trkpt><trkpt lat="45.7911825" lon="10.0308881"><ele>600.6666666666667</ele><time>2026-03-29T08:30:36.954Z</time></trkpt><trkpt lat="45.7911768" lon="10.0309824"><ele>600.3333333333334</ele><time>2026-03-29T08:30:38.96Z</time></trkpt><trkpt lat="45.7911595" lon="10.0310979"><ele>600.0</ele><time>2026-03-29T08:30:40.957Z</time></trkpt><trkpt lat="45.7911264" lon="10.0312259"><ele>599.6666666666666</ele><time>2026-03-29T08:30:42.96Z</time></trkpt><trkpt lat="45.7910925" lon="10.0313251"><ele>599.3333333333333</ele><time>2026-03-29T08:30:44.952Z</time></trkpt><trkpt lat="45.7910749" lon="10.0314316"><ele>599.0</ele><time>2026-03-29T08:30:46.95Z</time></trkpt><trkpt lat="45.7910578" lon="10.0315388"><ele>599.5</ele><time>2026-03-29T08:30:48.957Z</time></trkpt><trkpt lat="45.7910477" lon="10.0316408"><ele>600.0</ele><time>2026-03-29T08:30:50.959Z</time></trkpt><trkpt lat="45.7910498" lon="10.0317408"><ele>600.5</ele><time>2026-03-29T08:30:52.959Z</time></trkpt><trkpt lat="45.7910596" lon="10.0318375"><ele>601.0</ele><time>2026-03-29T08:30:54.959Z</time></trkpt><trkpt lat="45.7910894" lon="10.0319685"><ele>601.5</ele><time>2026-03-29T08:30:56.962Z</time></trkpt><trkpt lat="45.7911267" lon="10.0320904"><ele>602.0</ele><time>2026-03-29T08:30:58.962Z</time></trkpt><trkpt lat="45.7911775" lon="10.0322081"><ele>602.0</ele><time>2026-03-29T08:31:00.957Z</time></trkpt><trkpt lat="45.7911429" lon="10.0323298"><ele>602.0</ele><time>2026-03-29T08:31:02.959Z</time></trkpt><trkpt lat="45.7910853" lon="10.0323731"><ele>602.0</ele><time>2026-03-29T08:31:03.96Z</time></trkpt><trkpt lat="45.7910254" lon="10.0324039"><ele>602.0</ele><time>2026-03-29T08:31:04.955Z</time></trkpt><trkpt lat="45.7909543" lon="10.0324348"><ele>602.0</ele><time>2026-03-29T08:31:05.954Z</time></trkpt><trkpt lat="45.7908843" lon="10.0324693"><ele>602.0</ele><time>2026-03-29T08:31:06.952Z</time></trkpt><trkpt lat="45.7908196" lon="10.0325124"><ele>602.0</ele><time>2026-03-29T08:31:07.956Z</time></trkpt><trkpt lat="45.790758" lon="10.0325722"><ele>601.3333333333333</ele><time>2026-03-29T08:31:08.961Z</time></trkpt><trkpt lat="45.7907078" lon="10.0326503"><ele>600.6666666666666</ele><time>2026-03-29T08:31:09.946Z</time></trkpt><trkpt lat="45.7906679" lon="10.0327532"><ele>600.0</ele><time>2026-03-29T08:31:10.955Z</time></trkpt><trkpt lat="45.790635" lon="10.0328643"><ele>599.3333333333334</ele><time>2026-03-29T08:31:11.941Z</time></trkpt><trkpt lat="45.7905985" lon="10.0329797"><ele>598.6666666666667</ele><time>2026-03-29T08:31:12.956Z</time></trkpt><trkpt lat="45.7905811" lon="10.0331"><ele>598.0</ele><time>2026-03-29T08:31:13.955Z</time></trkpt><trkpt lat="45.7905723" lon="10.0332264"><ele>598.5</ele><time>2026-03-29T08:31:14.952Z</time></trkpt><trkpt lat="45.79057" lon="10.0333493"><ele>599.0</ele><time>2026-03-29T08:31:15.953Z</time></trkpt><trkpt lat="45.7905571" lon="10.0334704"><ele>599.5</ele><time>2026-03-29T08:31:16.951Z</time></trkpt><trkpt lat="45.7905417" lon="10.0335801"><ele>600.0</ele><time>2026-03-29T08:31:17.949Z</time></trkpt><trkpt lat="45.7905141" lon="10.0336826"><ele>600.5</ele><time>2026-03-29T08:31:18.959Z</time></trkpt><trkpt lat="45.790486" lon="10.0337857"><ele>601.0</ele><time>2026-03-29T08:31:19.957Z</time></trkpt><trkpt lat="45.7904593" lon="10.0338752"><ele>601.0</ele><time>2026-03-29T08:31:20.953Z</time></trkpt><trkpt lat="45.7904407" lon="10.0339626"><ele>601.0</ele><time>2026-03-29T08:31:21.959Z</time></trkpt><trkpt lat="45.790425" lon="10.0340511"><ele>601.0</ele><time>2026-03-29T08:31:22.955Z</time></trkpt><trkpt lat="45.7904011" lon="10.0342205"><ele>601.0</ele><time>2026-03-29T08:31:24.953Z</time></trkpt><trkpt lat="45.7903881" lon="10.0343915"><ele>601.0</ele><time>2026-03-29T08:31:26.954Z</time></trkpt><trkpt lat="45.7903822" lon="10.0345589"><ele>601.2</ele><time>2026-03-29T08:31:28.951Z</time></trkpt><trkpt lat="45.7903794" lon="10.0347085"><ele>601.4000000000001</ele><time>2026-03-29T08:31:30.952Z</time></trkpt><trkpt lat="45.7903841" lon="10.0348536"><ele>601.6</ele><time>2026-03-29T08:31:32.958Z</time></trkpt><trkpt lat="45.7903882" lon="10.0349853"><ele>601.8000000000001</ele><time>2026-03-29T08:31:34.953Z</time></trkpt><trkpt lat="45.7903892" lon="10.0351231"><ele>602.0</ele><time>2026-03-29T08:31:36.954Z</time></trkpt><trkpt lat="45.790377" lon="10.0352678"><ele>602.6</ele><time>2026-03-29T08:31:38.949Z</time></trkpt><trkpt lat="45.790361" lon="10.0354225"><ele>603.2</ele><time>2026-03-29T08:31:40.957Z</time></trkpt><trkpt lat="45.7903377" lon="10.0355829"><ele>603.8</ele><time>2026-03-29T08:31:42.952Z</time></trkpt><trkpt lat="45.7903158" lon="10.0357367"><ele>604.4</ele><time>2026-03-29T08:31:44.949Z</time></trkpt><trkpt lat="45.7903086" lon="10.0358967"><ele>605.0</ele><time>2026-03-29T08:31:46.95Z</time></trkpt><trkpt lat="45.7903146" lon="10.0360353"><ele>606.8333333333333</ele><time>2026-03-29T08:31:48.974Z</time></trkpt><trkpt lat="45.7903214" lon="10.0361683"><ele>608.6666666666666</ele><time>2026-03-29T08:31:50.951Z</time></trkpt><trkpt lat="45.790323" lon="10.0363056"><ele>610.5</ele><time>2026-03-29T08:31:52.957Z</time></trkpt><trkpt lat="45.7903038" lon="10.0364334"><ele>612.3333333333334</ele><time>2026-03-29T08:31:54.949Z</time></trkpt><trkpt lat="45.7902898" lon="10.0365411"><ele>614.1666666666667</ele><time>2026-03-29T08:31:56.961Z</time></trkpt><trkpt lat="45.7902634" lon="10.036638"><ele>616.0</ele><time>2026-03-29T08:31:58.945Z</time></trkpt><trkpt lat="45.79023" lon="10.0367253"><ele>617.8333333333334</ele><time>2026-03-29T08:32:00.953Z</time></trkpt><trkpt lat="45.7902077" lon="10.0368147"><ele>619.6666666666667</ele><time>2026-03-29T08:32:02.948Z</time></trkpt><trkpt lat="45.7901776" lon="10.0369395"><ele>621.5</ele><time>2026-03-29T08:32:05.948Z</time></trkpt><trkpt lat="45.7901294" lon="10.0370352"><ele>623.3333333333334</ele><time>2026-03-29T08:32:08.955Z</time></trkpt><trkpt lat="45.7900735" lon="10.0371084"><ele>625.1666666666666</ele><time>2026-03-29T08:32:11.941Z</time></trkpt><trkpt lat="45.7900035" lon="10.0371732"><ele>627.0</ele><time>2026-03-29T08:32:14.958Z</time></trkpt><trkpt lat="45.7899501" lon="10.0372546"><ele>623.0</ele><time>2026-03-29T08:32:18.953Z</time></trkpt><trkpt lat="45.7899049" lon="10.0373371"><ele>619.0</ele><time>2026-03-29T08:32:21.953Z</time></trkpt><trkpt lat="45.789873" lon="10.0374151"><ele>615.0</ele><time>2026-03-29T08:32:24.957Z</time></trkpt><trkpt lat="45.7898407" lon="10.0375015"><ele>611.0</ele><time>2026-03-29T08:32:27.955Z</time></trkpt><trkpt lat="45.7898106" lon="10.0376114"><ele>607.0</ele><time>2026-03-29T08:32:30.962Z</time></trkpt><trkpt lat="45.7897767" lon="10.0377152"><ele>603.0</ele><time>2026-03-29T08:32:33.948Z</time></trkpt><trkpt lat="45.7897674" lon="10.0378367"><ele>603.0</ele><time>2026-03-29T08:32:36.956Z</time></trkpt><trkpt lat="45.7897875" lon="10.0379359"><ele>603.0</ele><time>2026-03-29T08:32:38.958Z</time></trkpt><trkpt lat="45.7898046" lon="10.0380359"><ele>603.0</ele><time>2026-03-29T08:32:40.954Z</time></trkpt><trkpt lat="45.7898204" lon="10.0381383"><ele>603.0</ele><time>2026-03-29T08:32:42.949Z</time></trkpt><trkpt lat="45.7898502" lon="10.03828"><ele>603.0</ele><time>2026-03-29T08:32:44.953Z</time></trkpt><trkpt lat="45.7898497" lon="10.0383716"><ele>603.0</ele><time>2026-03-29T08:32:45.953Z</time></trkpt><trkpt lat="45.7898719" lon="10.0385353"><ele>603.8333333333334</ele><time>2026-03-29T08:32:47.956Z</time></trkpt><trkpt lat="45.7898893" lon="10.0386854"><ele>604.6666666666666</ele><time>2026-03-29T08:32:49.952Z</time></trkpt><trkpt lat="45.7899061" lon="10.0388147"><ele>605.5</ele><time>2026-03-29T08:32:51.955Z</time></trkpt><trkpt lat="45.7899129" lon="10.0389128"><ele>606.3333333333333</ele><time>2026-03-29T08:32:53.957Z</time></trkpt><trkpt lat="45.7899189" lon="10.0390205"><ele>607.1666666666666</ele><time>2026-03-29T08:32:55.952Z</time></trkpt><trkpt lat="45.7899239" lon="10.0391263"><ele>608.0</ele><time>2026-03-29T08:32:57.96Z</time></trkpt><trkpt lat="45.7899056" lon="10.0392394"><ele>608.5714285714286</ele><time>2026-03-29T08:33:00.953Z</time></trkpt><trkpt lat="45.7898875" lon="10.0393405"><ele>609.1428571428572</ele><time>2026-03-29T08:33:03.953Z</time></trkpt><trkpt lat="45.7898884" lon="10.039436"><ele>609.7142857142858</ele><time>2026-03-29T08:33:06.956Z</time></trkpt><trkpt lat="45.7898852" lon="10.0395271"><ele>610.2857142857142</ele><time>2026-03-29T08:33:09.948Z</time></trkpt><trkpt lat="45.789892" lon="10.0396451"><ele>610.8571428571429</ele><time>2026-03-29T08:33:12.95Z</time></trkpt><trkpt lat="45.7898881" lon="10.0397413"><ele>611.4285714285714</ele><time>2026-03-29T08:33:15.953Z</time></trkpt><trkpt lat="45.7898897" lon="10.0398378"><ele>612.0</ele><time>2026-03-29T08:33:18.954Z</time></trkpt><trkpt lat="45.789898" lon="10.039936"><ele>613.5714285714286</ele><time>2026-03-29T08:33:21.954Z</time></trkpt><trkpt lat="45.7899088" lon="10.0400501"><ele>615.1428571428571</ele><time>2026-03-29T08:33:24.957Z</time></trkpt><trkpt lat="45.7899142" lon="10.0401481"><ele>616.7142857142858</ele><time>2026-03-29T08:33:27.946Z</time></trkpt><trkpt lat="45.7899207" lon="10.0402465"><ele>618.2857142857142</ele><time>2026-03-29T08:33:30.964Z</time></trkpt><trkpt lat="45.789927" lon="10.0403476"><ele>619.8571428571429</ele><time>2026-03-29T08:33:33.952Z</time></trkpt><trkpt lat="45.7899288" lon="10.0404392"><ele>621.4285714285714</ele><time>2026-03-29T08:33:36.963Z</time></trkpt><trkpt lat="45.7899269" lon="10.0405503"><ele>623.0</ele><time>2026-03-29T08:33:39.939Z</time></trkpt><trkpt lat="45.7899131" lon="10.0406439"><ele>623.0</ele><time>2026-03-29T08:33:42.953Z</time></trkpt><trkpt lat="45.7898842" lon="10.0407577"><ele>623.0</ele><time>2026-03-29T08:33:46.946Z</time></trkpt><trkpt lat="45.7898518" lon="10.0408489"><ele>623.0</ele><time>2026-03-29T08:33:49.958Z</time></trkpt><trkpt lat="45.7898383" lon="10.0409549"><ele>623.0</ele><time>2026-03-29T08:33:52.959Z</time></trkpt><trkpt lat="45.78983" lon="10.0410623"><ele>623.0</ele><time>2026-03-29T08:33:55.954Z</time></trkpt><trkpt lat="45.7898238" lon="10.0411552"><ele>623.0</ele><time>2026-03-29T08:33:58.957Z</time></trkpt><trkpt lat="45.7897994" lon="10.0412526"><ele>623.0</ele><time>2026-03-29T08:34:01.944Z</time></trkpt><trkpt lat="45.7897598" lon="10.0413461"><ele>624.8571428571429</ele><time>2026-03-29T08:34:04.951Z</time></trkpt><trkpt lat="45.7897306" lon="10.0414348"><ele>626.7142857142858</ele><time>2026-03-29T08:34:08.03Z</time></trkpt><trkpt lat="45.7896933" lon="10.0415281"><ele>628.5714285714286</ele><time>2026-03-29T08:34:10.954Z</time></trkpt><trkpt lat="45.7896492" lon="10.0416095"><ele>630.4285714285714</ele><time>2026-03-29T08:34:13.961Z</time></trkpt><trkpt lat="45.7896058" lon="10.0416824"><ele>632.2857142857143</ele><time>2026-03-29T08:34:16.959Z</time></trkpt><trkpt lat="45.7895671" lon="10.0417597"><ele>634.1428571428571</ele><time>2026-03-29T08:34:19.953Z</time></trkpt><trkpt lat="45.7895162" lon="10.0418613"><ele>636.0</ele><time>2026-03-29T08:34:23.95Z</time></trkpt><trkpt lat="45.7894723" lon="10.0419447"><ele>638.8571428571428</ele><time>2026-03-29T08:34:26.947Z</time></trkpt><trkpt lat="45.7894475" lon="10.0420292"><ele>641.7142857142858</ele><time>2026-03-29T08:34:29.95Z</time></trkpt><trkpt lat="45.7894395" lon="10.042147"><ele>644.5714285714286</ele><time>2026-03-29T08:34:33.948Z</time></trkpt><trkpt lat="45.7894511" lon="10.0422486"><ele>647.4285714285713</ele><time>2026-03-29T08:34:36.949Z</time></trkpt><trkpt lat="45.789455" lon="10.0423489"><ele>650.2857142857142</ele><time>2026-03-29T08:34:39.964Z</time></trkpt><trkpt lat="45.7894693" lon="10.0424481"><ele>653.1428571428571</ele><time>2026-03-29T08:34:43.968Z</time></trkpt><trkpt lat="45.7894729" lon="10.0425732"><ele>656.0</ele><time>2026-03-29T08:34:47.966Z</time></trkpt><trkpt lat="45.7894655" lon="10.0426665"><ele>658.1428571428571</ele><time>2026-03-29T08:34:50.966Z</time></trkpt><trkpt lat="45.7894661" lon="10.0427569"><ele>660.2857142857142</ele><time>2026-03-29T08:34:54.968Z</time></trkpt><trkpt lat="45.7894382" lon="10.0428513"><ele>662.4285714285713</ele><time>2026-03-29T08:34:58.968Z</time></trkpt><trkpt lat="45.7894057" lon="10.0429588"><ele>664.5714285714286</ele><time>2026-03-29T08:35:02.973Z</time></trkpt><trkpt lat="45.7893925" lon="10.0430641"><ele>666.7142857142858</ele><time>2026-03-29T08:35:06.973Z</time></trkpt><trkpt lat="45.7893929" lon="10.04317"><ele>668.8571428571428</ele><time>2026-03-29T08:35:09.972Z</time></trkpt><trkpt lat="45.7893982" lon="10.0432672"><ele>671.0</ele><time>2026-03-29T08:35:13.026Z</time></trkpt><trkpt lat="45.7893872" lon="10.0433716"><ele>671.1666666666666</ele><time>2026-03-29T08:35:16.964Z</time></trkpt><trkpt lat="45.7893863" lon="10.0434876"><ele>671.3333333333333</ele><time>2026-03-29T08:35:20.963Z</time></trkpt><trkpt lat="45.7893984" lon="10.0436006"><ele>671.5</ele><time>2026-03-29T08:35:24.962Z</time></trkpt><trkpt lat="45.7894032" lon="10.0437237"><ele>671.6666666666666</ele><time>2026-03-29T08:35:30.961Z</time></trkpt><trkpt lat="45.7893895" lon="10.0438162"><ele>671.8333333333334</ele><time>2026-03-29T08:36:01.957Z</time></trkpt><trkpt lat="45.7893884" lon="10.0439184"><ele>672.0</ele><time>2026-03-29T08:36:39.963Z</time></trkpt><trkpt lat="45.7893687" lon="10.0440431"><ele>672.0</ele><time>2026-03-29T08:37:23.96Z</time></trkpt><trkpt lat="45.7894449" lon="10.0440826"><ele>672.0</ele><time>2026-03-29T08:37:50.956Z</time></trkpt><trkpt lat="45.7895084" lon="10.0441085"><ele>672.0</ele><time>2026-03-29T08:37:57.966Z</time></trkpt><trkpt lat="45.7895763" lon="10.0441103"><ele>672.0</ele><time>2026-03-29T08:38:03.961Z</time></trkpt><trkpt lat="45.7896464" lon="10.0440941"><ele>672.0</ele><time>2026-03-29T08:38:07.967Z</time></trkpt><trkpt lat="45.7897224" lon="10.0440806"><ele>672.0</ele><time>2026-03-29T08:38:13.958Z</time></trkpt><trkpt lat="45.7897917" lon="10.0440743"><ele>672.0</ele><time>2026-03-29T08:38:17.964Z</time></trkpt><trkpt lat="45.7898751" lon="10.0440924"><ele>672.0</ele><time>2026-03-29T08:38:20.965Z</time></trkpt><trkpt lat="45.7899666" lon="10.0441101"><ele>672.0</ele><time>2026-03-29T08:38:23.966Z</time></trkpt><trkpt lat="45.7900403" lon="10.0441174"><ele>672.0</ele><time>2026-03-29T08:38:25.965Z</time></trkpt><trkpt lat="45.7901167" lon="10.0441199"><ele>672.0</ele><time>2026-03-29T08:38:27.964Z</time></trkpt><trkpt lat="45.7902016" lon="10.0441111"><ele>672.0</ele><time>2026-03-29T08:38:29.963Z</time></trkpt><trkpt lat="45.7902942" lon="10.0441059"><ele>672.0</ele><time>2026-03-29T08:38:32.962Z</time></trkpt><trkpt lat="45.7903674" lon="10.0440809"><ele>672.1666666666666</ele><time>2026-03-29T08:38:34.966Z</time></trkpt><trkpt lat="45.7904292" lon="10.0440292"><ele>672.3333333333334</ele><time>2026-03-29T08:38:36.964Z</time></trkpt><trkpt lat="45.7904815" lon="10.0439618"><ele>672.5</ele><time>2026-03-29T08:38:39.954Z</time></trkpt><trkpt lat="45.7905391" lon="10.0438543"><ele>672.6666666666667</ele><time>2026-03-29T08:38:43.963Z</time></trkpt><trkpt lat="45.7905954" lon="10.0437626"><ele>672.8333333333334</ele><time>2026-03-29T08:38:45.969Z</time></trkpt><trkpt lat="45.7906718" lon="10.043625"><ele>673.0</ele><time>2026-03-29T08:38:46.947Z</time></trkpt><trkpt lat="45.7907382" lon="10.0435248"><ele>673.0</ele><time>2026-03-29T08:38:47.958Z</time></trkpt><trkpt lat="45.7908043" lon="10.0434643"><ele>673.0</ele><time>2026-03-29T08:38:48.957Z</time></trkpt><trkpt lat="45.7908724" lon="10.0433669"><ele>673.0</ele><time>2026-03-29T08:38:50.962Z</time></trkpt><trkpt lat="45.7909081" lon="10.0432861"><ele>673.0</ele><time>2026-03-29T08:38:51.959Z</time></trkpt><trkpt lat="45.7909572" lon="10.0431963"><ele>673.0</ele><time>2026-03-29T08:38:52.969Z</time></trkpt><trkpt lat="45.791003" lon="10.0431166"><ele>673.0</ele><time>2026-03-29T08:38:53.958Z</time></trkpt><trkpt lat="45.7910442" lon="10.0430448"><ele>667.0</ele><time>2026-03-29T08:38:54.962Z</time></trkpt><trkpt lat="45.791129" lon="10.0429258"><ele>661.0</ele><time>2026-03-29T08:38:56.969Z</time></trkpt><trkpt lat="45.7911715" lon="10.0428503"><ele>655.0</ele><time>2026-03-29T08:38:57.968Z</time></trkpt><trkpt lat="45.7912221" lon="10.0427863"><ele>649.0</ele><time>2026-03-29T08:38:58.963Z</time></trkpt><trkpt lat="45.7912718" lon="10.042711"><ele>643.0</ele><time>2026-03-29T08:38:59.962Z</time></trkpt><trkpt lat="45.7913279" lon="10.0426377"><ele>637.0</ele><time>2026-03-29T08:39:00.962Z</time></trkpt><trkpt lat="45.791383" lon="10.0425516"><ele>638.6</ele><time>2026-03-29T08:39:01.967Z</time></trkpt><trkpt lat="45.791435" lon="10.0424526"><ele>640.2</ele><time>2026-03-29T08:39:02.963Z</time></trkpt><trkpt lat="45.7914745" lon="10.042354"><ele>641.8</ele><time>2026-03-29T08:39:03.958Z</time></trkpt><trkpt lat="45.7915196" lon="10.0422281"><ele>643.4</ele><time>2026-03-29T08:39:04.962Z</time></trkpt><trkpt lat="45.791559" lon="10.0421041"><ele>645.0</ele><time>2026-03-29T08:39:05.963Z</time></trkpt><trkpt lat="45.791604" lon="10.0419772"><ele>645.0</ele><time>2026-03-29T08:39:06.959Z</time></trkpt><trkpt lat="45.7916589" lon="10.0418694"><ele>645.0</ele><time>2026-03-29T08:39:07.961Z</time></trkpt><trkpt lat="45.7916968" lon="10.0417779"><ele>645.0</ele><time>2026-03-29T08:39:08.962Z</time></trkpt><trkpt lat="45.7917449" lon="10.041671"><ele>645.0</ele><time>2026-03-29T08:39:09.966Z</time></trkpt><trkpt lat="45.7917891" lon="10.0415717"><ele>645.0</ele><time>2026-03-29T08:39:10.956Z</time></trkpt><trkpt lat="45.7918348" lon="10.0414641"><ele>645.0</ele><time>2026-03-29T08:39:11.956Z</time></trkpt><trkpt lat="45.791864" lon="10.041339"><ele>640.0</ele><time>2026-03-29T08:39:12.959Z</time></trkpt><trkpt lat="45.7918863" lon="10.041209"><ele>635.0</ele><time>2026-03-29T08:39:13.964Z</time></trkpt><trkpt lat="45.791904" lon="10.0410841"><ele>630.0</ele><time>2026-03-29T08:39:14.959Z</time></trkpt><trkpt lat="45.7919176" lon="10.0409606"><ele>625.0</ele><time>2026-03-29T08:39:15.96Z</time></trkpt><trkpt lat="45.7919386" lon="10.0408327"><ele>620.0</ele><time>2026-03-29T08:39:16.961Z</time></trkpt><trkpt lat="45.7919617" lon="10.0407069"><ele>620.0</ele><time>2026-03-29T08:39:17.953Z</time></trkpt><trkpt lat="45.7919977" lon="10.0405842"><ele>620.0</ele><time>2026-03-29T08:39:18.958Z</time></trkpt><trkpt lat="45.7920429" lon="10.0404573"><ele>620.0</ele><time>2026-03-29T08:39:19.956Z</time></trkpt><trkpt lat="45.7920729" lon="10.0403412"><ele>620.0</ele><time>2026-03-29T08:39:20.962Z</time></trkpt><trkpt lat="45.7920911" lon="10.0402127"><ele>620.0</ele><time>2026-03-29T08:39:21.958Z</time></trkpt><trkpt lat="45.7921098" lon="10.040092"><ele>620.0</ele><time>2026-03-29T08:39:22.954Z</time></trkpt><trkpt lat="45.7921299" lon="10.0399704"><ele>620.0</ele><time>2026-03-29T08:39:23.959Z</time></trkpt><trkpt lat="45.7921511" lon="10.0398409"><ele>620.0</ele><time>2026-03-29T08:39:24.957Z</time></trkpt><trkpt lat="45.7921844" lon="10.0397183"><ele>620.0</ele><time>2026-03-29T08:39:25.961Z</time></trkpt><trkpt lat="45.7922078" lon="10.0396052"><ele>620.0</ele><time>2026-03-29T08:39:26.959Z</time></trkpt><trkpt lat="45.7922342" lon="10.0394907"><ele>620.0</ele><time>2026-03-29T08:39:27.966Z</time></trkpt><trkpt lat="45.7922586" lon="10.0393772"><ele>620.5714285714286</ele><time>2026-03-29T08:39:28.962Z</time></trkpt><trkpt lat="45.7922876" lon="10.0392786"><ele>621.1428571428571</ele><time>2026-03-29T08:39:29.954Z</time></trkpt><trkpt lat="45.7923187" lon="10.0391851"><ele>621.7142857142858</ele><time>2026-03-29T08:39:30.967Z</time></trkpt><trkpt lat="45.7923524" lon="10.0390962"><ele>622.2857142857142</ele><time>2026-03-29T08:39:31.966Z</time></trkpt><trkpt lat="45.7923921" lon="10.0390033"><ele>622.8571428571428</ele><time>2026-03-29T08:39:32.967Z</time></trkpt><trkpt lat="45.7924255" lon="10.0389192"><ele>623.4285714285714</ele><time>2026-03-29T08:39:33.966Z</time></trkpt><trkpt lat="45.7924633" lon="10.0388354"><ele>624.0</ele><time>2026-03-29T08:39:34.962Z</time></trkpt><trkpt lat="45.7925379" lon="10.0386878"><ele>624.4</ele><time>2026-03-29T08:39:36.963Z</time></trkpt><trkpt lat="45.7926159" lon="10.0385588"><ele>624.8</ele><time>2026-03-29T08:39:38.964Z</time></trkpt><trkpt lat="45.7926833" lon="10.038548"><ele>625.2</ele><time>2026-03-29T08:39:41.96Z</time></trkpt><trkpt lat="45.7926826" lon="10.0386484"><ele>625.6</ele><time>2026-03-29T08:39:44.963Z</time></trkpt><trkpt lat="45.7927118" lon="10.0387999"><ele>626.0</ele><time>2026-03-29T08:39:47.958Z</time></trkpt><trkpt lat="45.7927533" lon="10.038953"><ele>623.0</ele><time>2026-03-29T08:39:49.969Z</time></trkpt><trkpt lat="45.7927817" lon="10.039038"><ele>620.0</ele><time>2026-03-29T08:39:50.969Z</time></trkpt><trkpt lat="45.7928342" lon="10.0392004"><ele>617.0</ele><time>2026-03-29T08:39:52.964Z</time></trkpt><trkpt lat="45.7928765" lon="10.0393591"><ele>614.0</ele><time>2026-03-29T08:39:54.966Z</time></trkpt><trkpt lat="45.7929229" lon="10.0395145"><ele>611.0</ele><time>2026-03-29T08:39:56.965Z</time></trkpt><trkpt lat="45.7929476" lon="10.0396883"><ele>610.1428571428572</ele><time>2026-03-29T08:39:58.965Z</time></trkpt><trkpt lat="45.792959" lon="10.0397793"><ele>609.2857142857143</ele><time>2026-03-29T08:39:59.96Z</time></trkpt><trkpt lat="45.7929622" lon="10.0398702"><ele>608.4285714285714</ele><time>2026-03-29T08:40:00.962Z</time></trkpt><trkpt lat="45.7929571" lon="10.0399616"><ele>607.5714285714287</ele><time>2026-03-29T08:40:01.966Z</time></trkpt><trkpt lat="45.7929321" lon="10.0401382"><ele>606.7142857142858</ele><time>2026-03-29T08:40:03.961Z</time></trkpt><trkpt lat="45.7929002" lon="10.0402221"><ele>605.8571428571429</ele><time>2026-03-29T08:40:04.961Z</time></trkpt><trkpt lat="45.7928796" lon="10.0403098"><ele>605.0</ele><time>2026-03-29T08:40:05.961Z</time></trkpt><trkpt lat="45.7928585" lon="10.040424"><ele>604.4</ele><time>2026-03-29T08:40:06.961Z</time></trkpt><trkpt lat="45.7928361" lon="10.040558"><ele>603.8</ele><time>2026-03-29T08:40:07.958Z</time></trkpt><trkpt lat="45.792827" lon="10.0406857"><ele>603.2</ele><time>2026-03-29T08:40:08.964Z</time></trkpt><trkpt lat="45.792814" lon="10.0408095"><ele>602.6</ele><time>2026-03-29T08:40:09.962Z</time></trkpt><trkpt lat="45.7928047" lon="10.040937"><ele>602.0</ele><time>2026-03-29T08:40:10.962Z</time></trkpt><trkpt lat="45.7927938" lon="10.0410637"><ele>600.5</ele><time>2026-03-29T08:40:11.961Z</time></trkpt><trkpt lat="45.792779" lon="10.0411745"><ele>599.0</ele><time>2026-03-29T08:40:12.957Z</time></trkpt><trkpt lat="45.792764" lon="10.0412661"><ele>597.5</ele><time>2026-03-29T08:40:13.953Z</time></trkpt><trkpt lat="45.7927366" lon="10.0413681"><ele>596.0</ele><time>2026-03-29T08:40:14.953Z</time></trkpt><trkpt lat="45.7927115" lon="10.0414713"><ele>594.5</ele><time>2026-03-29T08:40:15.957Z</time></trkpt><trkpt lat="45.7926956" lon="10.0415834"><ele>593.0</ele><time>2026-03-29T08:40:16.966Z</time></trkpt><trkpt lat="45.7926744" lon="10.0416938"><ele>595.5</ele><time>2026-03-29T08:40:17.962Z</time></trkpt><trkpt lat="45.7926513" lon="10.0418094"><ele>598.0</ele><time>2026-03-29T08:40:18.955Z</time></trkpt><trkpt lat="45.7926249" lon="10.0419119"><ele>600.5</ele><time>2026-03-29T08:40:19.957Z</time></trkpt><trkpt lat="45.7925894" lon="10.042001"><ele>603.0</ele><time>2026-03-29T08:40:20.954Z</time></trkpt><trkpt lat="45.7925333" lon="10.0421527"><ele>605.5</ele><time>2026-03-29T08:40:22.953Z</time></trkpt><trkpt lat="45.7924962" lon="10.0422297"><ele>608.0</ele><time>2026-03-29T08:40:23.962Z</time></trkpt><trkpt lat="45.7924492" lon="10.0423767"><ele>605.0</ele><time>2026-03-29T08:40:25.961Z</time></trkpt><trkpt lat="45.7924169" lon="10.0425464"><ele>602.0</ele><time>2026-03-29T08:40:27.962Z</time></trkpt><trkpt lat="45.7923773" lon="10.0427132"><ele>599.0</ele><time>2026-03-29T08:40:29.965Z</time></trkpt><trkpt lat="45.7923548" lon="10.0428799"><ele>596.0</ele><time>2026-03-29T08:40:31.947Z</time></trkpt><trkpt lat="45.7923254" lon="10.0430324"><ele>596.0</ele><time>2026-03-29T08:40:33.964Z</time></trkpt><trkpt lat="45.7922875" lon="10.0431812"><ele>596.0</ele><time>2026-03-29T08:40:35.963Z</time></trkpt><trkpt lat="45.7922693" lon="10.0432701"><ele>596.0</ele><time>2026-03-29T08:40:36.964Z</time></trkpt><trkpt lat="45.7922521" lon="10.0434466"><ele>596.0</ele><time>2026-03-29T08:40:38.957Z</time></trkpt><trkpt lat="45.7922633" lon="10.0436239"><ele>596.0</ele><time>2026-03-29T08:40:40.959Z</time></trkpt><trkpt lat="45.7922651" lon="10.0437449"><ele>595.1666666666666</ele><time>2026-03-29T08:40:42.966Z</time></trkpt><trkpt lat="45.7922748" lon="10.0438417"><ele>594.3333333333333</ele><time>2026-03-29T08:41:02.955Z</time></trkpt><trkpt lat="45.7923236" lon="10.0439309"><ele>593.5</ele><time>2026-03-29T08:41:06.965Z</time></trkpt><trkpt lat="45.7923522" lon="10.044033"><ele>592.6666666666666</ele><time>2026-03-29T08:41:09.963Z</time></trkpt><trkpt lat="45.7923816" lon="10.0441311"><ele>591.8333333333334</ele><time>2026-03-29T08:41:11.961Z</time></trkpt><trkpt lat="45.7924247" lon="10.044212"><ele>591.0</ele><time>2026-03-29T08:41:13.961Z</time></trkpt><trkpt lat="45.7924851" lon="10.0442941"><ele>590.6666666666666</ele><time>2026-03-29T08:41:15.948Z</time></trkpt><trkpt lat="45.7925361" lon="10.0443662"><ele>590.3333333333334</ele><time>2026-03-29T08:41:16.965Z</time></trkpt><trkpt lat="45.7925815" lon="10.044446"><ele>590.0</ele><time>2026-03-29T08:41:17.965Z</time></trkpt><trkpt lat="45.7926232" lon="10.0445162"><ele>589.6666666666667</ele><time>2026-03-29T08:41:18.956Z</time></trkpt><trkpt lat="45.7926671" lon="10.0446302"><ele>589.3333333333334</ele><time>2026-03-29T08:41:20.959Z</time></trkpt><trkpt lat="45.7926786" lon="10.0447459"><ele>589.0</ele><time>2026-03-29T08:41:23.958Z</time></trkpt><trkpt lat="45.7926734" lon="10.0448869"><ele>585.6666666666667</ele><time>2026-03-29T08:41:26.962Z</time></trkpt><trkpt lat="45.792674" lon="10.0449892"><ele>582.3333333333334</ele><time>2026-03-29T08:41:28.965Z</time></trkpt><trkpt lat="45.7926781" lon="10.0451152"><ele>579.0</ele><time>2026-03-29T08:41:30.965Z</time></trkpt><trkpt lat="45.7927028" lon="10.0452123"><ele>575.6666666666666</ele><time>2026-03-29T08:41:32.964Z</time></trkpt><trkpt lat="45.79277" lon="10.0452753"><ele>572.3333333333333</ele><time>2026-03-29T08:41:34.96Z</time></trkpt><trkpt lat="45.7928351" lon="10.0453447"><ele>569.0</ele><time>2026-03-29T08:41:36.964Z</time></trkpt><trkpt lat="45.7928972" lon="10.04544"><ele>569.0</ele><time>2026-03-29T08:41:39.965Z</time></trkpt><trkpt lat="45.7929593" lon="10.0455911"><ele>569.0</ele><time>2026-03-29T08:41:41.962Z</time></trkpt><trkpt lat="45.7930112" lon="10.0457024"><ele>569.0</ele><time>2026-03-29T08:41:42.965Z</time></trkpt><trkpt lat="45.7930601" lon="10.0457798"><ele>569.0</ele><time>2026-03-29T08:41:43.967Z</time></trkpt><trkpt lat="45.7930748" lon="10.0458969"><ele>569.0</ele><time>2026-03-29T08:41:45.96Z</time></trkpt><trkpt lat="45.7930358" lon="10.045985"><ele>569.0</ele><time>2026-03-29T08:41:47.957Z</time></trkpt><trkpt lat="45.7929977" lon="10.0460948"><ele>568.4</ele><time>2026-03-29T08:41:49.963Z</time></trkpt><trkpt lat="45.7930021" lon="10.0462538"><ele>567.8</ele><time>2026-03-29T08:41:51.963Z</time></trkpt><trkpt lat="45.7929974" lon="10.0464037"><ele>567.2</ele><time>2026-03-29T08:41:53.953Z</time></trkpt><trkpt lat="45.7929797" lon="10.0465461"><ele>566.6</ele><time>2026-03-29T08:41:55.963Z</time></trkpt><trkpt lat="45.7929351" lon="10.0466444"><ele>566.0</ele><time>2026-03-29T08:41:57.957Z</time></trkpt><trkpt lat="45.7929029" lon="10.0467459"><ele>564.3333333333333</ele><time>2026-03-29T08:42:00.956Z</time></trkpt><trkpt lat="45.7929158" lon="10.0468437"><ele>562.6666666666666</ele><time>2026-03-29T08:42:02.956Z</time></trkpt><trkpt lat="45.7929664" lon="10.0469086"><ele>561.0</ele><time>2026-03-29T08:42:06.959Z</time></trkpt><trkpt lat="45.7930407" lon="10.047007"><ele>559.3333333333334</ele><time>2026-03-29T08:42:09.958Z</time></trkpt><trkpt lat="45.7930724" lon="10.0471212"><ele>557.6666666666667</ele><time>2026-03-29T08:42:11.952Z</time></trkpt><trkpt lat="45.7930891" lon="10.0472372"><ele>556.0</ele><time>2026-03-29T08:42:13.959Z</time></trkpt><trkpt lat="45.7931183" lon="10.0473508"><ele>553.5</ele><time>2026-03-29T08:42:15.958Z</time></trkpt><trkpt lat="45.7932085" lon="10.047479"><ele>551.0</ele><time>2026-03-29T08:42:17.961Z</time></trkpt><trkpt lat="45.7932705" lon="10.0475187"><ele>548.5</ele><time>2026-03-29T08:42:18.96Z</time></trkpt><trkpt lat="45.7933331" lon="10.0475556"><ele>546.0</ele><time>2026-03-29T08:42:19.946Z</time></trkpt><trkpt lat="45.7933944" lon="10.0475909"><ele>543.5</ele><time>2026-03-29T08:42:20.961Z</time></trkpt><trkpt lat="45.7934589" lon="10.047628"><ele>541.0</ele><time>2026-03-29T08:42:21.963Z</time></trkpt><trkpt lat="45.7935189" lon="10.0476596"><ele>541.0</ele><time>2026-03-29T08:42:22.959Z</time></trkpt><trkpt lat="45.7935847" lon="10.047713"><ele>541.0</ele><time>2026-03-29T08:42:23.961Z</time></trkpt><trkpt lat="45.7936469" lon="10.0477704"><ele>541.0</ele><time>2026-03-29T08:42:24.963Z</time></trkpt><trkpt lat="45.7937008" lon="10.0478282"><ele>541.0</ele><time>2026-03-29T08:42:25.957Z</time></trkpt><trkpt lat="45.7937686" lon="10.0479193"><ele>541.0</ele><time>2026-03-29T08:42:27.954Z</time></trkpt><trkpt lat="45.7937677" lon="10.0480159"><ele>541.0</ele><time>2026-03-29T08:42:29.955Z</time></trkpt><trkpt lat="45.793692" lon="10.0480363"><ele>541.0</ele><time>2026-03-29T08:42:32.966Z</time></trkpt><trkpt lat="45.7936143" lon="10.0480462"><ele>541.0</ele><time>2026-03-29T08:42:35.96Z</time></trkpt><trkpt lat="45.7935439" lon="10.0480762"><ele>541.0</ele><time>2026-03-29T08:42:38.96Z</time></trkpt><trkpt lat="45.7934623" lon="10.0481202"><ele>541.0</ele><time>2026-03-29T08:42:42.959Z</time></trkpt><trkpt lat="45.7933649" lon="10.0481556"><ele>541.0</ele><time>2026-03-29T08:42:45.97Z</time></trkpt><trkpt lat="45.7932829" lon="10.0481948"><ele>541.0</ele><time>2026-03-29T08:42:47.957Z</time></trkpt><trkpt lat="45.7932124" lon="10.0482513"><ele>534.6666666666667</ele><time>2026-03-29T08:42:49.961Z</time></trkpt><trkpt lat="45.793165" lon="10.0483271"><ele>528.3333333333334</ele><time>2026-03-29T08:42:51.959Z</time></trkpt><trkpt lat="45.7931459" lon="10.0484691"><ele>522.0</ele><time>2026-03-29T08:42:53.959Z</time></trkpt><trkpt lat="45.7931026" lon="10.0485384"><ele>515.6666666666666</ele><time>2026-03-29T08:42:55.969Z</time></trkpt><trkpt lat="45.7930779" lon="10.0486352"><ele>509.3333333333333</ele><time>2026-03-29T08:42:58.973Z</time></trkpt><trkpt lat="45.7931584" lon="10.0486885"><ele>503.0</ele><time>2026-03-29T08:43:01.961Z</time></trkpt><trkpt lat="45.79328" lon="10.048719"><ele>502.99999999999994</ele><time>2026-03-29T08:43:03.96Z</time></trkpt><trkpt lat="45.7933472" lon="10.0487507"><ele>503.0</ele><time>2026-03-29T08:43:04.957Z</time></trkpt><trkpt lat="45.7934145" lon="10.0487936"><ele>503.0</ele><time>2026-03-29T08:43:05.961Z</time></trkpt><trkpt lat="45.7934787" lon="10.048844"><ele>503.0</ele><time>2026-03-29T08:43:06.96Z</time></trkpt><trkpt lat="45.7935528" lon="10.0488978"><ele>502.99999999999994</ele><time>2026-03-29T08:43:07.957Z</time></trkpt><trkpt lat="45.7936327" lon="10.0489672"><ele>503.0</ele><time>2026-03-29T08:43:08.958Z</time></trkpt><trkpt lat="45.7937322" lon="10.0490456"><ele>500.79999999999995</ele><time>2026-03-29T08:43:09.958Z</time></trkpt><trkpt lat="45.793828" lon="10.0491287"><ele>498.59999999999997</ele><time>2026-03-29T08:43:10.953Z</time></trkpt><trkpt lat="45.7939197" lon="10.049207"><ele>496.40000000000003</ele><time>2026-03-29T08:43:11.961Z</time></trkpt><trkpt lat="45.7939953" lon="10.049293"><ele>494.20000000000005</ele><time>2026-03-29T08:43:12.958Z</time></trkpt><trkpt lat="45.7940633" lon="10.0493776"><ele>492.0</ele><time>2026-03-29T08:43:13.959Z</time></trkpt><trkpt lat="45.7941296" lon="10.0494622"><ele>492.0</ele><time>2026-03-29T08:43:14.958Z</time></trkpt><trkpt lat="45.7941911" lon="10.0495436"><ele>492.0</ele><time>2026-03-29T08:43:15.961Z</time></trkpt><trkpt lat="45.7942473" lon="10.0496188"><ele>492.0</ele><time>2026-03-29T08:43:16.957Z</time></trkpt><trkpt lat="45.7943024" lon="10.0496701"><ele>492.0</ele><time>2026-03-29T08:43:17.958Z</time></trkpt><trkpt lat="45.794402" lon="10.0497229"><ele>492.0</ele><time>2026-03-29T08:43:19.958Z</time></trkpt><trkpt lat="45.794497" lon="10.0497392"><ele>492.0</ele><time>2026-03-29T08:43:21.952Z</time></trkpt><trkpt lat="45.7946056" lon="10.0497994"><ele>490.0</ele><time>2026-03-29T08:43:23.953Z</time></trkpt><trkpt lat="45.794646" lon="10.0498699"><ele>488.0</ele><time>2026-03-29T08:43:24.947Z</time></trkpt><trkpt lat="45.794714" lon="10.0499965"><ele>486.0</ele><time>2026-03-29T08:43:26.96Z</time></trkpt><trkpt lat="45.79476" lon="10.0501011"><ele>484.0</ele><time>2026-03-29T08:43:28.961Z</time></trkpt><trkpt lat="45.7948108" lon="10.0501591"><ele>482.0</ele><time>2026-03-29T08:43:30.959Z</time></trkpt><trkpt lat="45.7948695" lon="10.0502286"><ele>480.0</ele><time>2026-03-29T08:43:32.958Z</time></trkpt><trkpt lat="45.7949088" lon="10.0503442"><ele>480.0</ele><time>2026-03-29T08:43:34.959Z</time></trkpt><trkpt lat="45.7949671" lon="10.0504125"><ele>480.0</ele><time>2026-03-29T08:43:37.955Z</time></trkpt><trkpt lat="45.7949973" lon="10.05052"><ele>480.0</ele><time>2026-03-29T08:43:39.957Z</time></trkpt><trkpt lat="45.7950307" lon="10.0505999"><ele>480.0</ele><time>2026-03-29T08:43:40.963Z</time></trkpt><trkpt lat="45.7950838" lon="10.0506934"><ele>480.0</ele><time>2026-03-29T08:43:41.955Z</time></trkpt><trkpt lat="45.7951508" lon="10.0507785"><ele>480.0</ele><time>2026-03-29T08:43:42.954Z</time></trkpt><trkpt lat="45.7952032" lon="10.0508554"><ele>481.6</ele><time>2026-03-29T08:43:43.957Z</time></trkpt><trkpt lat="45.7952919" lon="10.0510095"><ele>483.2</ele><time>2026-03-29T08:43:45.955Z</time></trkpt><trkpt lat="45.7953279" lon="10.0511112"><ele>484.79999999999995</ele><time>2026-03-29T08:43:46.958Z</time></trkpt><trkpt lat="45.7953645" lon="10.0512156"><ele>486.4</ele><time>2026-03-29T08:43:47.946Z</time></trkpt><trkpt lat="45.7954015" lon="10.0513272"><ele>488.0</ele><time>2026-03-29T08:43:48.961Z</time></trkpt><trkpt lat="45.7954354" lon="10.0514391"><ele>487.99999999999994</ele><time>2026-03-29T08:43:49.958Z</time></trkpt><trkpt lat="45.7954673" lon="10.0515467"><ele>488.0</ele><time>2026-03-29T08:43:50.963Z</time></trkpt><trkpt lat="45.7954989" lon="10.0516618"><ele>488.0</ele><time>2026-03-29T08:43:51.964Z</time></trkpt><trkpt lat="45.7955222" lon="10.0517624"><ele>488.0</ele><time>2026-03-29T08:43:52.963Z</time></trkpt><trkpt lat="45.7955465" lon="10.0518558"><ele>487.99999999999994</ele><time>2026-03-29T08:43:53.961Z</time></trkpt><trkpt lat="45.7956018" lon="10.0520247"><ele>488.0</ele><time>2026-03-29T08:43:55.957Z</time></trkpt><trkpt lat="45.7956507" lon="10.0521142"><ele>484.49999999999994</ele><time>2026-03-29T08:43:56.958Z</time></trkpt><trkpt lat="45.7957017" lon="10.0521848"><ele>481.0</ele><time>2026-03-29T08:43:57.96Z</time></trkpt><trkpt lat="45.7957468" lon="10.0522716"><ele>477.5</ele><time>2026-03-29T08:43:58.961Z</time></trkpt><trkpt lat="45.7957765" lon="10.052372"><ele>474.0</ele><time>2026-03-29T08:43:59.956Z</time></trkpt><trkpt lat="45.7958037" lon="10.0524712"><ele>470.49999999999994</ele><time>2026-03-29T08:44:00.957Z</time></trkpt><trkpt lat="45.7958305" lon="10.0525611"><ele>467.0</ele><time>2026-03-29T08:44:01.956Z</time></trkpt><trkpt lat="45.7958702" lon="10.0526963"><ele>466.66666666666663</ele><time>2026-03-29T08:44:03.952Z</time></trkpt><trkpt lat="45.7959124" lon="10.0528186"><ele>466.3333333333333</ele><time>2026-03-29T08:44:05.959Z</time></trkpt><trkpt lat="45.7959498" lon="10.0529057"><ele>466.0</ele><time>2026-03-29T08:44:07.945Z</time></trkpt><trkpt lat="45.7959721" lon="10.0530058"><ele>465.66666666666663</ele><time>2026-03-29T08:44:09.959Z</time></trkpt><trkpt lat="45.7960236" lon="10.0531232"><ele>465.3333333333333</ele><time>2026-03-29T08:44:12.957Z</time></trkpt><trkpt lat="45.7960561" lon="10.0532014"><ele>465.0</ele><time>2026-03-29T08:44:14.961Z</time></trkpt><trkpt lat="45.7960922" lon="10.053306"><ele>465.0</ele><time>2026-03-29T08:44:17.961Z</time></trkpt><trkpt lat="45.7961583" lon="10.0534193"><ele>465.0</ele><time>2026-03-29T08:45:12.955Z</time></trkpt><trkpt lat="45.796185" lon="10.0535079"><ele>465.0</ele><time>2026-03-29T08:45:17.962Z</time></trkpt><trkpt lat="45.796129" lon="10.0534634"><ele>465.0</ele><time>2026-03-29T08:45:21.962Z</time></trkpt><trkpt lat="45.7960613" lon="10.0533901"><ele>465.0</ele><time>2026-03-29T08:45:23.975Z</time></trkpt><trkpt lat="45.7959919" lon="10.0533288"><ele>465.0</ele><time>2026-03-29T08:45:25.959Z</time></trkpt><trkpt lat="45.7959244" lon="10.0532566"><ele>462.5</ele><time>2026-03-29T08:45:27.976Z</time></trkpt><trkpt lat="45.7958507" lon="10.0531995"><ele>460.0</ele><time>2026-03-29T08:45:29.96Z</time></trkpt><trkpt lat="45.7957772" lon="10.0531081"><ele>457.5</ele><time>2026-03-29T08:45:31.959Z</time></trkpt><trkpt lat="45.7957067" lon="10.0530247"><ele>455.0</ele><time>2026-03-29T08:45:34.026Z</time></trkpt><trkpt lat="45.7956758" lon="10.0529439"><ele>452.5</ele><time>2026-03-29T08:45:35.96Z</time></trkpt><trkpt lat="45.7956332" lon="10.0528321"><ele>450.0</ele><time>2026-03-29T08:45:37.958Z</time></trkpt><trkpt lat="45.7955819" lon="10.052722"><ele>450.0</ele><time>2026-03-29T08:45:39.961Z</time></trkpt><trkpt lat="45.7955299" lon="10.052619"><ele>450.0</ele><time>2026-03-29T08:45:42.031Z</time></trkpt><trkpt lat="45.7954602" lon="10.0525576"><ele>450.0</ele><time>2026-03-29T08:45:43.968Z</time></trkpt><trkpt lat="45.7953902" lon="10.0524894"><ele>450.0</ele><time>2026-03-29T08:45:45.963Z</time></trkpt><trkpt lat="45.7953291" lon="10.0524242"><ele>450.0</ele><time>2026-03-29T08:45:47.966Z</time></trkpt><trkpt lat="45.7952711" lon="10.0523607"><ele>450.0</ele><time>2026-03-29T08:45:49.966Z</time></trkpt><trkpt lat="45.7952127" lon="10.052294"><ele>446.4</ele><time>2026-03-29T08:45:51.969Z</time></trkpt><trkpt lat="45.7951255" lon="10.0521638"><ele>442.8</ele><time>2026-03-29T08:45:53.994Z</time></trkpt><trkpt lat="45.7950679" lon="10.0520896"><ele>439.20000000000005</ele><time>2026-03-29T08:45:54.95Z</time></trkpt><trkpt lat="45.7950145" lon="10.0520152"><ele>435.6</ele><time>2026-03-29T08:45:55.966Z</time></trkpt><trkpt lat="45.7949592" lon="10.0519369"><ele>432.0</ele><time>2026-03-29T08:45:56.964Z</time></trkpt><trkpt lat="45.7948794" lon="10.0517885"><ele>432.0</ele><time>2026-03-29T08:45:58.967Z</time></trkpt><trkpt lat="45.7948375" lon="10.0517136"><ele>432.0</ele><time>2026-03-29T08:45:59.962Z</time></trkpt><trkpt lat="45.7947843" lon="10.0516346"><ele>432.0</ele><time>2026-03-29T08:46:01.967Z</time></trkpt><trkpt lat="45.794735" lon="10.0515548"><ele>432.0</ele><time>2026-03-29T08:46:03.962Z</time></trkpt><trkpt lat="45.7946549" lon="10.0515272"><ele>432.0</ele><time>2026-03-29T08:46:10.957Z</time></trkpt><trkpt lat="45.7945533" lon="10.0516185"><ele>432.0</ele><time>2026-03-29T08:46:13.955Z</time></trkpt><trkpt lat="45.794491" lon="10.0517298"><ele>432.0</ele><time>2026-03-29T08:46:14.954Z</time></trkpt><trkpt lat="45.7944066" lon="10.0518477"><ele>432.0</ele><time>2026-03-29T08:46:15.95Z</time></trkpt><trkpt lat="45.794341" lon="10.0519753"><ele>432.0</ele><time>2026-03-29T08:46:16.949Z</time></trkpt><trkpt lat="45.7942788" lon="10.0521195"><ele>432.0</ele><time>2026-03-29T08:46:17.95Z</time></trkpt><trkpt lat="45.7942055" lon="10.0523115"><ele>415.5</ele><time>2026-03-29T08:46:18.945Z</time></trkpt><trkpt lat="45.7941591" lon="10.0524716"><ele>399.0</ele><time>2026-03-29T08:46:19.962Z</time></trkpt><trkpt lat="45.794082" lon="10.0526523"><ele>382.5</ele><time>2026-03-29T08:46:20.988Z</time></trkpt><trkpt lat="45.7940349" lon="10.0527828"><ele>366.0</ele><time>2026-03-29T08:46:22.001Z</time></trkpt><trkpt lat="45.7940073" lon="10.0529462"><ele>366.0</ele><time>2026-03-29T08:46:22.955Z</time></trkpt><trkpt lat="45.793974" lon="10.0530407"><ele>366.0</ele><time>2026-03-29T08:46:23.948Z</time></trkpt><trkpt lat="45.7939816" lon="10.0532064"><ele>366.0</ele><time>2026-03-29T08:46:25.956Z</time></trkpt><trkpt lat="45.7941072" lon="10.0532616"><ele>366.0</ele><time>2026-03-29T08:46:27.949Z</time></trkpt><trkpt lat="45.7941787" lon="10.0532805"><ele>366.0</ele><time>2026-03-29T08:46:28.952Z</time></trkpt><trkpt lat="45.7942548" lon="10.0532822"><ele>372.8333333333333</ele><time>2026-03-29T08:46:29.951Z</time></trkpt><trkpt lat="45.7943517" lon="10.0532493"><ele>379.66666666666663</ele><time>2026-03-29T08:46:30.951Z</time></trkpt><trkpt lat="45.7944287" lon="10.0532589"><ele>386.5</ele><time>2026-03-29T08:46:31.954Z</time></trkpt><trkpt lat="45.7945151" lon="10.0532545"><ele>393.3333333333333</ele><time>2026-03-29T08:46:32.945Z</time></trkpt><trkpt lat="45.7945875" lon="10.0532637"><ele>400.16666666666663</ele><time>2026-03-29T08:46:33.958Z</time></trkpt><trkpt lat="45.7946571" lon="10.0532695"><ele>407.0</ele><time>2026-03-29T08:46:34.949Z</time></trkpt><trkpt lat="45.7947896" lon="10.0532768"><ele>404.16666666666663</ele><time>2026-03-29T08:46:36.947Z</time></trkpt><trkpt lat="45.7948545" lon="10.0533329"><ele>401.3333333333333</ele><time>2026-03-29T08:46:38.95Z</time></trkpt><trkpt lat="45.7948782" lon="10.0534544"><ele>398.5</ele><time>2026-03-29T08:46:40.953Z</time></trkpt><trkpt lat="45.7949088" lon="10.0535944"><ele>395.66666666666663</ele><time>2026-03-29T08:46:43.947Z</time></trkpt><trkpt lat="45.7949658" lon="10.0536464"><ele>392.8333333333333</ele><time>2026-03-29T08:46:47.95Z</time></trkpt><trkpt lat="45.794921" lon="10.0535723"><ele>390.0</ele><time>2026-03-29T08:46:55.956Z</time></trkpt><trkpt lat="45.7949566" lon="10.0534375"><ele>392.8333333333333</ele><time>2026-03-29T08:46:59.96Z</time></trkpt><trkpt lat="45.7949918" lon="10.0532801"><ele>395.66666666666663</ele><time>2026-03-29T08:47:01.953Z</time></trkpt><trkpt lat="45.7949826" lon="10.0531229"><ele>398.5</ele><time>2026-03-29T08:47:03.958Z</time></trkpt><trkpt lat="45.7950233" lon="10.0530413"><ele>401.3333333333333</ele><time>2026-03-29T08:47:04.956Z</time></trkpt><trkpt lat="45.795057" lon="10.0529585"><ele>404.16666666666663</ele><time>2026-03-29T08:47:05.956Z</time></trkpt><trkpt lat="45.7950984" lon="10.0528638"><ele>407.0</ele><time>2026-03-29T08:47:06.949Z</time></trkpt><trkpt lat="45.7951402" lon="10.0527708"><ele>417.75</ele><time>2026-03-29T08:47:08.038Z</time></trkpt><trkpt lat="45.7952274" lon="10.0526218"><ele>428.5</ele><time>2026-03-29T08:47:09.958Z</time></trkpt><trkpt lat="45.7952747" lon="10.0525357"><ele>439.25</ele><time>2026-03-29T08:47:10.956Z</time></trkpt><trkpt lat="45.7952852" lon="10.0523103"><ele>450.0</ele><time>2026-03-29T08:47:12.957Z</time></trkpt><trkpt lat="45.7952777" lon="10.0521774"><ele>450.6</ele><time>2026-03-29T08:47:13.961Z</time></trkpt><trkpt lat="45.7952386" lon="10.0519926"><ele>451.2</ele><time>2026-03-29T08:47:14.961Z</time></trkpt><trkpt lat="45.7952009" lon="10.051915"><ele>451.79999999999995</ele><time>2026-03-29T08:47:15.954Z</time></trkpt><trkpt lat="45.7951648" lon="10.0517708"><ele>452.4</ele><time>2026-03-29T08:47:16.962Z</time></trkpt><trkpt lat="45.7950887" lon="10.0516965"><ele>453.0</ele><time>2026-03-29T08:47:17.96Z</time></trkpt><trkpt lat="45.7950634" lon="10.0516122"><ele>453.0</ele><time>2026-03-29T08:47:18.971Z</time></trkpt><trkpt lat="45.7950279" lon="10.0514728"><ele>452.99999999999994</ele><time>2026-03-29T08:47:20.959Z</time></trkpt><trkpt lat="45.7949695" lon="10.0513299"><ele>452.99999999999994</ele><time>2026-03-29T08:47:22.96Z</time></trkpt><trkpt lat="45.7949333" lon="10.0511955"><ele>453.0</ele><time>2026-03-29T08:47:24.968Z</time></trkpt><trkpt lat="45.7948628" lon="10.0510644"><ele>453.0</ele><time>2026-03-29T08:47:26.96Z</time></trkpt><trkpt lat="45.7948172" lon="10.0509952"><ele>453.0</ele><time>2026-03-29T08:47:27.953Z</time></trkpt><trkpt lat="45.7947624" lon="10.0509285"><ele>452.99999999999994</ele><time>2026-03-29T08:47:29.027Z</time></trkpt><trkpt lat="45.7946641" lon="10.0508272"><ele>452.99999999999994</ele><time>2026-03-29T08:47:30.954Z</time></trkpt><trkpt lat="45.7945995" lon="10.050763"><ele>453.0</ele><time>2026-03-29T08:47:31.952Z</time></trkpt><trkpt lat="45.7945281" lon="10.0507011"><ele>453.0</ele><time>2026-03-29T08:47:32.954Z</time></trkpt><trkpt lat="45.7944034" lon="10.0507059"><ele>454.75</ele><time>2026-03-29T08:47:33.953Z</time></trkpt><trkpt lat="45.7942861" lon="10.0506586"><ele>456.5</ele><time>2026-03-29T08:47:35.952Z</time></trkpt><trkpt lat="45.7941748" lon="10.0506196"><ele>458.25</ele><time>2026-03-29T08:47:38.029Z</time></trkpt><trkpt lat="45.7940649" lon="10.0505868"><ele>460.0</ele><time>2026-03-29T08:47:39.956Z</time></trkpt><trkpt lat="45.7939321" lon="10.0505775"><ele>460.00000000000006</ele><time>2026-03-29T08:47:41.953Z</time></trkpt><trkpt lat="45.7938661" lon="10.0505771"><ele>460.0</ele><time>2026-03-29T08:47:42.955Z</time></trkpt><trkpt lat="45.7937974" lon="10.0505929"><ele>460.0</ele><time>2026-03-29T08:47:43.956Z</time></trkpt><trkpt lat="45.7937182" lon="10.0506093"><ele>460.0</ele><time>2026-03-29T08:47:45.029Z</time></trkpt><trkpt lat="45.7936447" lon="10.0506334"><ele>460.00000000000006</ele><time>2026-03-29T08:47:45.948Z</time></trkpt><trkpt lat="45.793526" lon="10.0506561"><ele>460.0</ele><time>2026-03-29T08:47:47.952Z</time></trkpt><trkpt lat="45.7934221" lon="10.0506347"><ele>456.1666666666667</ele><time>2026-03-29T08:47:49.958Z</time></trkpt><trkpt lat="45.7933546" lon="10.0506198"><ele>452.33333333333337</ele><time>2026-03-29T08:47:50.953Z</time></trkpt><trkpt lat="45.7932348" lon="10.050585"><ele>448.5</ele><time>2026-03-29T08:47:52.954Z</time></trkpt><trkpt lat="45.7931677" lon="10.0505694"><ele>444.66666666666663</ele><time>2026-03-29T08:47:53.951Z</time></trkpt><trkpt lat="45.7930763" lon="10.0505709"><ele>440.8333333333333</ele><time>2026-03-29T08:47:54.948Z</time></trkpt><trkpt lat="45.7929891" lon="10.0505497"><ele>437.0</ele><time>2026-03-29T08:47:55.956Z</time></trkpt><trkpt lat="45.7929138" lon="10.0505284"><ele>436.99999999999994</ele><time>2026-03-29T08:47:56.941Z</time></trkpt><trkpt lat="45.7928415" lon="10.0505256"><ele>437.0</ele><time>2026-03-29T08:47:57.951Z</time></trkpt><trkpt lat="45.7927286" lon="10.0505239"><ele>437.0</ele><time>2026-03-29T08:47:59.958Z</time></trkpt><trkpt lat="45.7926155" lon="10.0505165"><ele>437.0</ele><time>2026-03-29T08:48:01.945Z</time></trkpt><trkpt lat="45.7925485" lon="10.0505354"><ele>436.99999999999994</ele><time>2026-03-29T08:48:02.956Z</time></trkpt><trkpt lat="45.7924726" lon="10.0505744"><ele>437.0</ele><time>2026-03-29T08:48:03.95Z</time></trkpt><trkpt lat="45.7924036" lon="10.0505927"><ele>432.40000000000003</ele><time>2026-03-29T08:48:04.947Z</time></trkpt><trkpt lat="45.7923217" lon="10.0506336"><ele>427.80000000000007</ele><time>2026-03-29T08:48:05.948Z</time></trkpt><trkpt lat="45.7922168" lon="10.0506968"><ele>423.2</ele><time>2026-03-29T08:48:06.95Z</time></trkpt><trkpt lat="45.7921491" lon="10.050747"><ele>418.6</ele><time>2026-03-29T08:48:07.952Z</time></trkpt><trkpt lat="45.7920425" lon="10.050803"><ele>414.0</ele><time>2026-03-29T08:48:10.028Z</time></trkpt><trkpt lat="45.791957" lon="10.0508294"><ele>408.1666666666667</ele><time>2026-03-29T08:48:11.956Z</time></trkpt><trkpt lat="45.7918828" lon="10.0509198"><ele>402.3333333333333</ele><time>2026-03-29T08:48:13.954Z</time></trkpt><trkpt lat="45.7918493" lon="10.051007"><ele>396.5</ele><time>2026-03-29T08:48:18.061Z</time></trkpt><trkpt lat="45.7918916" lon="10.0511216"><ele>390.66666666666663</ele><time>2026-03-29T08:48:21.957Z</time></trkpt><trkpt lat="45.7918952" lon="10.051235"><ele>384.8333333333333</ele><time>2026-03-29T08:48:23.957Z</time></trkpt><trkpt lat="45.7919286" lon="10.0513166"><ele>379.0</ele><time>2026-03-29T08:48:25.954Z</time></trkpt><trkpt lat="45.7919746" lon="10.0514027"><ele>379.0</ele><time>2026-03-29T08:48:27.961Z</time></trkpt><trkpt lat="45.7920229" lon="10.0515093"><ele>379.0</ele><time>2026-03-29T08:48:30.039Z</time></trkpt><trkpt lat="45.7920833" lon="10.0516046"><ele>379.0</ele><time>2026-03-29T08:48:31.958Z</time></trkpt><trkpt lat="45.7921486" lon="10.0516765"><ele>379.0</ele><time>2026-03-29T08:48:33.949Z</time></trkpt><trkpt lat="45.792221" lon="10.051751"><ele>379.0</ele><time>2026-03-29T08:48:35.951Z</time></trkpt><trkpt lat="45.7923294" lon="10.0518244"><ele>373.16666666666663</ele><time>2026-03-29T08:48:38.032Z</time></trkpt><trkpt lat="45.7923925" lon="10.0519028"><ele>367.3333333333333</ele><time>2026-03-29T08:48:39.956Z</time></trkpt><trkpt lat="45.7924327" lon="10.0520054"><ele>361.5</ele><time>2026-03-29T08:48:41.952Z</time></trkpt><trkpt lat="45.7924684" lon="10.0520996"><ele>355.6666666666667</ele><time>2026-03-29T08:48:43.96Z</time></trkpt><trkpt lat="45.7925302" lon="10.052216"><ele>349.83333333333337</ele><time>2026-03-29T08:48:45.957Z</time></trkpt><trkpt lat="45.7925868" lon="10.0522973"><ele>344.0</ele><time>2026-03-29T08:48:46.962Z</time></trkpt><trkpt lat="45.7926295" lon="10.0523855"><ele>342.5</ele><time>2026-03-29T08:48:47.958Z</time></trkpt><trkpt lat="45.7926714" lon="10.0524789"><ele>341.0</ele><time>2026-03-29T08:48:49.028Z</time></trkpt><trkpt lat="45.792711" lon="10.052563"><ele>339.5</ele><time>2026-03-29T08:48:50.024Z</time></trkpt><trkpt lat="45.792762" lon="10.0526305"><ele>338.0</ele><time>2026-03-29T08:48:50.964Z</time></trkpt><trkpt lat="45.7928333" lon="10.0527423"><ele>336.5</ele><time>2026-03-29T08:48:52.963Z</time></trkpt><trkpt lat="45.7928873" lon="10.0528548"><ele>335.0</ele><time>2026-03-29T08:48:54.961Z</time></trkpt><trkpt lat="45.7929304" lon="10.0529649"><ele>335.0</ele><time>2026-03-29T08:48:57.03Z</time></trkpt><trkpt lat="45.7929573" lon="10.0530978"><ele>335.0</ele><time>2026-03-29T08:48:59.956Z</time></trkpt><trkpt lat="45.7929684" lon="10.0532133"><ele>335.0</ele><time>2026-03-29T08:49:01.959Z</time></trkpt><trkpt lat="45.7929721" lon="10.0533444"><ele>335.0</ele><time>2026-03-29T08:49:04.96Z</time></trkpt><trkpt lat="45.7929977" lon="10.0534972"><ele>335.0</ele><time>2026-03-29T08:49:11.949Z</time></trkpt><trkpt lat="45.7930697" lon="10.0536396"><ele>332.33333333333337</ele><time>2026-03-29T08:49:15.952Z</time></trkpt><trkpt lat="45.793099" lon="10.0537536"><ele>329.6666666666667</ele><time>2026-03-29T08:49:18.955Z</time></trkpt><trkpt lat="45.7931502" lon="10.0538248"><ele>327.0</ele><time>2026-03-29T08:49:36.948Z</time></trkpt><trkpt lat="45.7931953" lon="10.0538961"><ele>324.3333333333333</ele><time>2026-03-29T08:49:41.952Z</time></trkpt><trkpt lat="45.7932339" lon="10.0539748"><ele>321.66666666666663</ele><time>2026-03-29T08:49:46.951Z</time></trkpt><trkpt lat="45.7933043" lon="10.0540216"><ele>319.0</ele><time>2026-03-29T08:49:55.943Z</time></trkpt><trkpt lat="45.793369" lon="10.0540996"><ele>319.7142857142857</ele><time>2026-03-29T08:49:58.956Z</time></trkpt><trkpt lat="45.7934087" lon="10.0541829"><ele>320.4285714285714</ele><time>2026-03-29T08:50:01.953Z</time></trkpt><trkpt lat="45.7934639" lon="10.0542482"><ele>321.1428571428571</ele><time>2026-03-29T08:50:04.958Z</time></trkpt><trkpt lat="45.7935007" lon="10.0543419"><ele>321.8571428571429</ele><time>2026-03-29T08:50:07.952Z</time></trkpt><trkpt lat="45.7935278" lon="10.0544347"><ele>322.57142857142856</ele><time>2026-03-29T08:50:10.952Z</time></trkpt><trkpt lat="45.793569" lon="10.054517"><ele>323.2857142857143</ele><time>2026-03-29T08:50:13.951Z</time></trkpt><trkpt lat="45.7936265" lon="10.0545639"><ele>324.0</ele><time>2026-03-29T08:50:16.954Z</time></trkpt><trkpt lat="45.7936714" lon="10.0546633"><ele>324.0</ele><time>2026-03-29T08:50:20.955Z</time></trkpt><trkpt lat="45.7936889" lon="10.0547854"><ele>324.0</ele><time>2026-03-29T08:50:22.959Z</time></trkpt><trkpt lat="45.793705" lon="10.0549194"><ele>324.0</ele><time>2026-03-29T08:50:24.956Z</time></trkpt><trkpt lat="45.7937339" lon="10.0550202"><ele>324.0</ele><time>2026-03-29T08:50:27.027Z</time></trkpt><trkpt lat="45.7937878" lon="10.0551159"><ele>324.0</ele><time>2026-03-29T08:50:29.954Z</time></trkpt><trkpt lat="45.7938165" lon="10.0552387"><ele>324.0</ele><time>2026-03-29T08:50:32.96Z</time></trkpt><trkpt lat="45.7938394" lon="10.0553397"><ele>319.2857142857143</ele><time>2026-03-29T08:50:34.968Z</time></trkpt><trkpt lat="45.7938612" lon="10.0554422"><ele>314.57142857142856</ele><time>2026-03-29T08:50:36.954Z</time></trkpt><trkpt lat="45.7938863" lon="10.0555392"><ele>309.85714285714283</ele><time>2026-03-29T08:50:39.037Z</time></trkpt><trkpt lat="45.7939257" lon="10.0556405"><ele>305.1428571428571</ele><time>2026-03-29T08:50:40.955Z</time></trkpt><trkpt lat="45.7939507" lon="10.0557288"><ele>300.4285714285714</ele><time>2026-03-29T08:50:43.956Z</time></trkpt><trkpt lat="45.7939726" lon="10.0558444"><ele>295.7142857142857</ele><time>2026-03-29T08:50:53.958Z</time></trkpt><trkpt lat="45.7939203" lon="10.0558965"><ele>291.0</ele><time>2026-03-29T08:51:19.96Z</time></trkpt><trkpt lat="45.7938542" lon="10.0558702"><ele>291.0</ele><time>2026-03-29T08:51:45.962Z</time></trkpt><trkpt lat="45.7937655" lon="10.0558425"><ele>291.0</ele><time>2026-03-29T08:52:02.963Z</time></trkpt><trkpt lat="45.7936874" lon="10.0557908"><ele>291.0</ele><time>2026-03-29T08:52:32.966Z</time></trkpt><trkpt lat="45.7936271" lon="10.0557647"><ele>291.0</ele><time>2026-03-29T08:52:42.954Z</time></trkpt><trkpt lat="45.7935912" lon="10.0556884"><ele>291.0</ele><time>2026-03-29T08:52:52.868Z</time></trkpt><trkpt lat="45.7935594" lon="10.0555773"><ele>291.0</ele><time>2026-03-29T08:52:56.956Z</time></trkpt><trkpt lat="45.7935047" lon="10.055513"><ele>285.7142857142857</ele><time>2026-03-29T08:52:59.957Z</time></trkpt><trkpt lat="45.7934401" lon="10.0554832"><ele>280.4285714285714</ele><time>2026-03-29T08:53:02.949Z</time></trkpt><trkpt lat="45.7933737" lon="10.0554613"><ele>275.1428571428571</ele><time>2026-03-29T08:53:12.952Z</time></trkpt><trkpt lat="45.7934227" lon="10.055546"><ele>269.85714285714283</ele><time>2026-03-29T08:53:27.015Z</time></trkpt><trkpt lat="45.7934632" lon="10.055617"><ele>264.57142857142856</ele><time>2026-03-29T08:53:32.938Z</time></trkpt><trkpt lat="45.7934413" lon="10.055721"><ele>259.2857142857143</ele><time>2026-03-29T08:53:35.952Z</time></trkpt><trkpt lat="45.7934502" lon="10.0558167"><ele>254.0</ele><time>2026-03-29T08:53:38.947Z</time></trkpt><trkpt lat="45.7934631" lon="10.0559091"><ele>255.28571428571428</ele><time>2026-03-29T08:53:45.956Z</time></trkpt><trkpt lat="45.7934929" lon="10.0559949"><ele>256.57142857142856</ele><time>2026-03-29T08:53:51.954Z</time></trkpt><trkpt lat="45.7934972" lon="10.056103"><ele>257.85714285714283</ele><time>2026-03-29T08:54:08.951Z</time></trkpt><trkpt lat="45.793519" lon="10.0561898"><ele>259.1428571428571</ele><time>2026-03-29T08:54:40.948Z</time></trkpt><trkpt lat="45.7935352" lon="10.0562812"><ele>260.4285714285714</ele><time>2026-03-29T08:54:45.949Z</time></trkpt><trkpt lat="45.7935755" lon="10.0563523"><ele>261.7142857142857</ele><time>2026-03-29T08:54:48.957Z</time></trkpt><trkpt lat="45.7936007" lon="10.0564414"><ele>263.0</ele><time>2026-03-29T08:54:51.954Z</time></trkpt><trkpt lat="45.7936489" lon="10.0565462"><ele>259.0</ele><time>2026-03-29T08:54:54.953Z</time></trkpt><trkpt lat="45.7937114" lon="10.0566389"><ele>255.0</ele><time>2026-03-29T08:54:57.951Z</time></trkpt><trkpt lat="45.7937061" lon="10.0567338"><ele>251.0</ele><time>2026-03-29T08:55:00.939Z</time></trkpt><trkpt lat="45.7936235" lon="10.0567228"><ele>247.0</ele><time>2026-03-29T08:55:03.944Z</time></trkpt><trkpt lat="45.7935426" lon="10.0566413"><ele>243.00000000000003</ele><time>2026-03-29T08:55:06.954Z</time></trkpt><trkpt lat="45.7934988" lon="10.0565751"><ele>239.0</ele><time>2026-03-29T08:55:08.957Z</time></trkpt><trkpt lat="45.7934302" lon="10.0565356"><ele>239.00000000000003</ele><time>2026-03-29T08:55:11.948Z</time></trkpt><trkpt lat="45.7933566" lon="10.0565287"><ele>239.0</ele><time>2026-03-29T08:59:16.953Z</time></trkpt><trkpt lat="45.7933322" lon="10.0566294"><ele>239.00000000000003</ele><time>2026-03-29T08:59:22.953Z</time></trkpt><trkpt lat="45.7933693" lon="10.0567147"><ele>239.00000000000003</ele><time>2026-03-29T08:59:24.949Z</time></trkpt><trkpt lat="45.7934113" lon="10.0568041"><ele>239.0</ele><time>2026-03-29T08:59:26.951Z</time></trkpt><trkpt lat="45.7934623" lon="10.0568925"><ele>239.00000000000003</ele><time>2026-03-29T08:59:28.949Z</time></trkpt><trkpt lat="45.7935076" lon="10.0569756"><ele>239.00000000000003</ele><time>2026-03-29T08:59:30.937Z</time></trkpt><trkpt lat="45.7935685" lon="10.0570721"><ele>239.0</ele><time>2026-03-29T08:59:32.949Z</time></trkpt><trkpt lat="45.7936285" lon="10.0571609"><ele>238.99999999999997</ele><time>2026-03-29T08:59:34.955Z</time></trkpt><trkpt lat="45.7936949" lon="10.0572412"><ele>238.99999999999997</ele><time>2026-03-29T08:59:36.95Z</time></trkpt><trkpt lat="45.7937615" lon="10.0573474"><ele>239.0</ele><time>2026-03-29T08:59:38.954Z</time></trkpt><trkpt lat="45.7938234" lon="10.057455"><ele>239.0</ele><time>2026-03-29T08:59:40.948Z</time></trkpt><trkpt lat="45.7938753" lon="10.057562"><ele>234.6</ele><time>2026-03-29T08:59:42.942Z</time></trkpt><trkpt lat="45.7939311" lon="10.0576821"><ele>230.2</ele><time>2026-03-29T08:59:44.951Z</time></trkpt><trkpt lat="45.7939844" lon="10.0578007"><ele>225.79999999999998</ele><time>2026-03-29T08:59:46.949Z</time></trkpt><trkpt lat="45.7940373" lon="10.0579228"><ele>221.39999999999998</ele><time>2026-03-29T08:59:48.954Z</time></trkpt><trkpt lat="45.7941" lon="10.0580367"><ele>217.0</ele><time>2026-03-29T08:59:50.957Z</time></trkpt><trkpt lat="45.7941597" lon="10.0581536"><ele>217.0</ele><time>2026-03-29T08:59:52.943Z</time></trkpt><trkpt lat="45.7942328" lon="10.058279"><ele>217.0</ele><time>2026-03-29T08:59:55.026Z</time></trkpt><trkpt lat="45.7943116" lon="10.0583875"><ele>217.0</ele><time>2026-03-29T08:59:56.962Z</time></trkpt><trkpt lat="45.7943818" lon="10.0584623"><ele>217.0</ele><time>2026-03-29T08:59:58.952Z</time></trkpt><trkpt lat="45.7944517" lon="10.0585592"><ele>217.0</ele><time>2026-03-29T09:00:00.951Z</time></trkpt><trkpt lat="45.7945299" lon="10.0586033"><ele>217.0</ele><time>2026-03-29T09:00:02.964Z</time></trkpt><trkpt lat="45.7946122" lon="10.0585934"><ele>217.0</ele><time>2026-03-29T09:00:04.963Z</time></trkpt><trkpt lat="45.7947022" lon="10.0585699"><ele>217.0</ele><time>2026-03-29T09:00:06.971Z</time></trkpt><trkpt lat="45.7948095" lon="10.0585417"><ele>217.0</ele><time>2026-03-29T09:00:08.98Z</time></trkpt><trkpt lat="45.7949052" lon="10.0585037"><ele>217.0</ele><time>2026-03-29T09:00:10.968Z</time></trkpt><trkpt lat="45.7949905" lon="10.058467"><ele>217.0</ele><time>2026-03-29T09:00:13.075Z</time></trkpt><trkpt lat="45.7950609" lon="10.058426"><ele>217.0</ele><time>2026-03-29T09:00:14.965Z</time></trkpt><trkpt lat="45.7951718" lon="10.0583547"><ele>217.0</ele><time>2026-03-29T09:00:16.965Z</time></trkpt><trkpt lat="45.7952346" lon="10.0583323"><ele>217.0</ele><time>2026-03-29T09:00:17.967Z</time></trkpt><trkpt lat="45.7953556" lon="10.0583325"><ele>217.0</ele><time>2026-03-29T09:00:19.965Z</time></trkpt><trkpt lat="45.7954222" lon="10.0583325"><ele>220.5</ele><time>2026-03-29T09:00:20.969Z</time></trkpt><trkpt lat="45.795543" lon="10.0583818"><ele>224.0</ele><time>2026-03-29T09:00:23.03Z</time></trkpt><trkpt lat="45.7956424" lon="10.0584767"><ele>227.5</ele><time>2026-03-29T09:00:24.955Z</time></trkpt><trkpt lat="45.7957433" lon="10.0585538"><ele>231.0</ele><time>2026-03-29T09:00:26.956Z</time></trkpt><trkpt lat="45.7958454" lon="10.0586189"><ele>231.0</ele><time>2026-03-29T09:00:28.95Z</time></trkpt><trkpt lat="45.7959156" lon="10.0586549"><ele>231.0</ele><time>2026-03-29T09:00:30.951Z</time></trkpt><trkpt lat="45.7959602" lon="10.0587745"><ele>231.0</ele><time>2026-03-29T09:00:33.013Z</time></trkpt><trkpt lat="45.7960248" lon="10.0587543"><ele>231.0</ele><time>2026-03-29T09:00:34.048Z</time></trkpt><trkpt lat="45.796096" lon="10.058712"><ele>231.0</ele><time>2026-03-29T09:00:35.027Z</time></trkpt><trkpt lat="45.7961741" lon="10.0586978"><ele>231.0</ele><time>2026-03-29T09:00:35.98Z</time></trkpt><trkpt lat="45.7962435" lon="10.0586991"><ele>237.5</ele><time>2026-03-29T09:00:37.034Z</time></trkpt><trkpt lat="45.7963568" lon="10.0586939"><ele>244.0</ele><time>2026-03-29T09:00:39.034Z</time></trkpt><trkpt lat="45.796475" lon="10.0586955"><ele>250.5</ele><time>2026-03-29T09:00:40.95Z</time></trkpt><trkpt lat="45.7965884" lon="10.0586881"><ele>257.0</ele><time>2026-03-29T09:00:43.031Z</time></trkpt><trkpt lat="45.7967024" lon="10.058711"><ele>257.0</ele><time>2026-03-29T09:00:45.028Z</time></trkpt><trkpt lat="45.7968198" lon="10.0587374"><ele>257.0</ele><time>2026-03-29T09:00:46.956Z</time></trkpt><trkpt lat="45.7969222" lon="10.0587748"><ele>257.0</ele><time>2026-03-29T09:00:49.032Z</time></trkpt><trkpt lat="45.7970219" lon="10.0588342"><ele>257.0</ele><time>2026-03-29T09:00:50.956Z</time></trkpt><trkpt lat="45.7971192" lon="10.0588332"><ele>257.0</ele><time>2026-03-29T09:00:53.029Z</time></trkpt><trkpt lat="45.797197" lon="10.0587664"><ele>262.1666666666667</ele><time>2026-03-29T09:00:54.955Z</time></trkpt><trkpt lat="45.7972638" lon="10.0586856"><ele>267.33333333333337</ele><time>2026-03-29T09:00:57.026Z</time></trkpt><trkpt lat="45.7973181" lon="10.0586177"><ele>272.5</ele><time>2026-03-29T09:00:58.943Z</time></trkpt><trkpt lat="45.797377" lon="10.058525"><ele>277.6666666666667</ele><time>2026-03-29T09:01:01.954Z</time></trkpt><trkpt lat="45.7974412" lon="10.0584562"><ele>282.8333333333333</ele><time>2026-03-29T09:01:04.977Z</time></trkpt><trkpt lat="45.7974981" lon="10.0584022"><ele>288.0</ele><time>2026-03-29T09:01:06.948Z</time></trkpt><trkpt lat="45.7975565" lon="10.0583383"><ele>298.6666666666667</ele><time>2026-03-29T09:01:08.951Z</time></trkpt><trkpt lat="45.7976039" lon="10.0582614"><ele>309.3333333333333</ele><time>2026-03-29T09:01:10.955Z</time></trkpt><trkpt lat="45.7976992" lon="10.0581784"><ele>320.0</ele><time>2026-03-29T09:01:13.954Z</time></trkpt><trkpt lat="45.7977771" lon="10.0581382"><ele>330.66666666666663</ele><time>2026-03-29T09:01:14.947Z</time></trkpt><trkpt lat="45.7978589" lon="10.0580698"><ele>341.3333333333333</ele><time>2026-03-29T09:01:15.942Z</time></trkpt><trkpt lat="45.7979328" lon="10.0580269"><ele>352.0</ele><time>2026-03-29T09:01:17.07Z</time></trkpt><trkpt lat="45.7980067" lon="10.0579794"><ele>354.3333333333333</ele><time>2026-03-29T09:01:18.031Z</time></trkpt><trkpt lat="45.7980656" lon="10.0579428"><ele>356.66666666666663</ele><time>2026-03-29T09:01:19.027Z</time></trkpt><trkpt lat="45.7981333" lon="10.0579053"><ele>359.0</ele><time>2026-03-29T09:01:20.015Z</time></trkpt><trkpt lat="45.7981938" lon="10.057863"><ele>361.3333333333333</ele><time>2026-03-29T09:01:20.939Z</time></trkpt><trkpt lat="45.7983102" lon="10.0578169"><ele>363.6666666666667</ele><time>2026-03-29T09:01:22.97Z</time></trkpt><trkpt lat="45.7984169" lon="10.0577766"><ele>366.0</ele><time>2026-03-29T09:01:24.97Z</time></trkpt><trkpt lat="45.7985051" lon="10.0577034"><ele>378.20000000000005</ele><time>2026-03-29T09:01:26.968Z</time></trkpt><trkpt lat="45.7985609" lon="10.0576524"><ele>390.40000000000003</ele><time>2026-03-29T09:01:27.964Z</time></trkpt><trkpt lat="45.798655" lon="10.0575574"><ele>402.6</ele><time>2026-03-29T09:01:30.023Z</time></trkpt><trkpt lat="45.7987637" lon="10.057474"><ele>414.8</ele><time>2026-03-29T09:01:31.962Z</time></trkpt><trkpt lat="45.7988203" lon="10.0574253"><ele>427.0</ele><time>2026-03-29T09:01:32.968Z</time></trkpt><trkpt lat="45.7989219" lon="10.0573185"><ele>427.0</ele><time>2026-03-29T09:01:34.97Z</time></trkpt><trkpt lat="45.7990224" lon="10.057203"><ele>427.0</ele><time>2026-03-29T09:01:36.967Z</time></trkpt><trkpt lat="45.7991176" lon="10.0571144"><ele>427.0</ele><time>2026-03-29T09:01:39.099Z</time></trkpt><trkpt lat="45.7992153" lon="10.0570191"><ele>427.0</ele><time>2026-03-29T09:01:40.957Z</time></trkpt><trkpt lat="45.7993127" lon="10.056929"><ele>425.0</ele><time>2026-03-29T09:01:43.039Z</time></trkpt><trkpt lat="45.7994179" lon="10.0568378"><ele>423.00000000000006</ele><time>2026-03-29T09:01:45.029Z</time></trkpt><trkpt lat="45.799508" lon="10.0567422"><ele>421.0</ele><time>2026-03-29T09:01:46.95Z</time></trkpt><trkpt lat="45.7995986" lon="10.056678"><ele>419.0</ele><time>2026-03-29T09:01:49.037Z</time></trkpt><trkpt lat="45.7996601" lon="10.0566337"><ele>417.0</ele><time>2026-03-29T09:01:50.029Z</time></trkpt><trkpt lat="45.799724" lon="10.0565962"><ele>417.0</ele><time>2026-03-29T09:01:50.949Z</time></trkpt><trkpt lat="45.7998361" lon="10.056527"><ele>417.0</ele><time>2026-03-29T09:01:52.981Z</time></trkpt><trkpt lat="45.7999099" lon="10.0565093"><ele>417.0</ele><time>2026-03-29T09:01:54.031Z</time></trkpt><trkpt lat="45.7999878" lon="10.0565054"><ele>417.0</ele><time>2026-03-29T09:01:55.029Z</time></trkpt><trkpt lat="45.8000654" lon="10.0565071"><ele>417.0</ele><time>2026-03-29T09:01:55.955Z</time></trkpt><trkpt lat="45.8001405" lon="10.0565021"><ele>417.0</ele><time>2026-03-29T09:01:56.95Z</time></trkpt><trkpt lat="45.8002172" lon="10.0565041"><ele>413.0</ele><time>2026-03-29T09:01:57.952Z</time></trkpt><trkpt lat="45.8002905" lon="10.0565032"><ele>409.0</ele><time>2026-03-29T09:01:58.966Z</time></trkpt><trkpt lat="45.8004218" lon="10.0564856"><ele>405.0</ele><time>2026-03-29T09:02:00.951Z</time></trkpt><trkpt lat="45.8004905" lon="10.0564898"><ele>401.0</ele><time>2026-03-29T09:02:01.954Z</time></trkpt><trkpt lat="45.8005573" lon="10.0564907"><ele>397.0</ele><time>2026-03-29T09:02:03.058Z</time></trkpt><trkpt lat="45.800705" lon="10.0565134"><ele>397.0</ele><time>2026-03-29T09:02:04.999Z</time></trkpt><trkpt lat="45.8007737" lon="10.0565541"><ele>397.0</ele><time>2026-03-29T09:02:05.947Z</time></trkpt><trkpt lat="45.8008344" lon="10.0565806"><ele>397.0</ele><time>2026-03-29T09:02:06.94Z</time></trkpt><trkpt lat="45.8008935" lon="10.0566144"><ele>397.0</ele><time>2026-03-29T09:02:07.942Z</time></trkpt><trkpt lat="45.8009614" lon="10.0566487"><ele>397.0</ele><time>2026-03-29T09:02:08.94Z</time></trkpt><trkpt lat="45.8010256" lon="10.0566965"><ele>397.0</ele><time>2026-03-29T09:02:09.936Z</time></trkpt><trkpt lat="45.8010586" lon="10.056781"><ele>397.0</ele><time>2026-03-29T09:02:10.945Z</time></trkpt><trkpt lat="45.8011001" lon="10.0568681"><ele>391.25</ele><time>2026-03-29T09:02:11.944Z</time></trkpt><trkpt lat="45.8011361" lon="10.0569761"><ele>385.5</ele><time>2026-03-29T09:02:12.937Z</time></trkpt><trkpt lat="45.8011747" lon="10.0571377"><ele>379.75</ele><time>2026-03-29T09:02:13.938Z</time></trkpt><trkpt lat="45.801182" lon="10.0573189"><ele>374.0</ele><time>2026-03-29T09:02:14.939Z</time></trkpt><trkpt lat="45.8011852" lon="10.0574978"><ele>367.2</ele><time>2026-03-29T09:02:15.936Z</time></trkpt><trkpt lat="45.8011921" lon="10.0576792"><ele>360.4</ele><time>2026-03-29T09:02:16.939Z</time></trkpt><trkpt lat="45.8011953" lon="10.0578241"><ele>353.6</ele><time>2026-03-29T09:02:17.938Z</time></trkpt><trkpt lat="45.8011951" lon="10.0579434"><ele>346.8</ele><time>2026-03-29T09:02:18.941Z</time></trkpt><trkpt lat="45.8011633" lon="10.0580793"><ele>340.0</ele><time>2026-03-29T09:02:19.946Z</time></trkpt><trkpt lat="45.8011342" lon="10.0581896"><ele>264.0</ele><time>2026-03-29T09:02:20.937Z</time></trkpt><trkpt lat="45.8019674" lon="10.0595569"><ele>264.0</ele><time>2026-03-29T09:02:36.69Z</time></trkpt><trkpt lat="45.8019362" lon="10.0599067"><ele>264.0</ele><time>2026-03-29T09:02:48.947Z</time></trkpt><trkpt lat="45.8019996" lon="10.0600179"><ele>264.0</ele><time>2026-03-29T09:02:52.948Z</time></trkpt><trkpt lat="45.8019851" lon="10.0601119"><ele>264.0</ele><time>2026-03-29T09:02:54.028Z</time></trkpt><trkpt lat="45.801979" lon="10.0602046"><ele>258.2</ele><time>2026-03-29T09:02:54.949Z</time></trkpt><trkpt lat="45.8019641" lon="10.0603509"><ele>252.39999999999998</ele><time>2026-03-29T09:02:56.975Z</time></trkpt><trkpt lat="45.8019672" lon="10.0605054"><ele>246.6</ele><time>2026-03-29T09:02:59.133Z</time></trkpt><trkpt lat="45.8020037" lon="10.060681"><ele>240.8</ele><time>2026-03-29T09:03:01.037Z</time></trkpt><trkpt lat="45.8019965" lon="10.0607995"><ele>235.0</ele><time>2026-03-29T09:03:02.033Z</time></trkpt><trkpt lat="45.8019517" lon="10.0609001"><ele>233.16666666666666</ele><time>2026-03-29T09:03:03.031Z</time></trkpt><trkpt lat="45.8018826" lon="10.0609959"><ele>231.33333333333331</ele><time>2026-03-29T09:03:04.026Z</time></trkpt><trkpt lat="45.8018302" lon="10.0610681"><ele>229.5</ele><time>2026-03-29T09:03:04.952Z</time></trkpt><trkpt lat="45.8018023" lon="10.0611672"><ele>227.66666666666669</ele><time>2026-03-29T09:03:06.023Z</time></trkpt><trkpt lat="45.8017696" lon="10.061259"><ele>225.83333333333334</ele><time>2026-03-29T09:03:06.956Z</time></trkpt><trkpt lat="45.8017477" lon="10.0613596"><ele>224.0</ele><time>2026-03-29T09:03:08.029Z</time></trkpt><trkpt lat="45.8017241" lon="10.0614666"><ele>220.00000000000003</ele><time>2026-03-29T09:03:09.027Z</time></trkpt><trkpt lat="45.8017056" lon="10.0615645"><ele>216.0</ele><time>2026-03-29T09:03:09.955Z</time></trkpt><trkpt lat="45.8016912" lon="10.0616613"><ele>212.0</ele><time>2026-03-29T09:03:10.959Z</time></trkpt><trkpt lat="45.8016861" lon="10.0617534"><ele>208.0</ele><time>2026-03-29T09:03:11.954Z</time></trkpt><trkpt lat="45.8016965" lon="10.0619292"><ele>204.00000000000003</ele><time>2026-03-29T09:03:13.957Z</time></trkpt><trkpt lat="45.8017166" lon="10.0620213"><ele>200.0</ele><time>2026-03-29T09:03:14.96Z</time></trkpt><trkpt lat="45.8017386" lon="10.0621078"><ele>200.0</ele><time>2026-03-29T09:03:15.964Z</time></trkpt><trkpt lat="45.8017864" lon="10.0622613"><ele>200.0</ele><time>2026-03-29T09:03:17.967Z</time></trkpt><trkpt lat="45.8018312" lon="10.0624129"><ele>200.0</ele><time>2026-03-29T09:03:19.963Z</time></trkpt><trkpt lat="45.8018641" lon="10.0624947"><ele>200.0</ele><time>2026-03-29T09:03:21.029Z</time></trkpt><trkpt lat="45.8019118" lon="10.0626436"><ele>200.0</ele><time>2026-03-29T09:03:22.971Z</time></trkpt><trkpt lat="45.8019604" lon="10.0627929"><ele>201.66666666666669</ele><time>2026-03-29T09:03:24.973Z</time></trkpt><trkpt lat="45.8020136" lon="10.0629203"><ele>203.33333333333334</ele><time>2026-03-29T09:03:26.978Z</time></trkpt><trkpt lat="45.8021147" lon="10.0629483"><ele>205.0</ele><time>2026-03-29T09:03:29.032Z</time></trkpt><trkpt lat="45.8021934" lon="10.062935"><ele>206.66666666666669</ele><time>2026-03-29T09:03:30.976Z</time></trkpt><trkpt lat="45.8022566" lon="10.0629336"><ele>208.33333333333334</ele><time>2026-03-29T09:03:32.976Z</time></trkpt><trkpt lat="45.8023251" lon="10.0629306"><ele>210.0</ele><time>2026-03-29T09:03:34.978Z</time></trkpt><trkpt lat="45.8023909" lon="10.0629682"><ele>210.0</ele><time>2026-03-29T09:03:37.03Z</time></trkpt><trkpt lat="45.8024449" lon="10.0630268"><ele>210.0</ele><time>2026-03-29T09:03:38.957Z</time></trkpt><trkpt lat="45.8024925" lon="10.0630942"><ele>210.0</ele><time>2026-03-29T09:03:40.956Z</time></trkpt><trkpt lat="45.8025437" lon="10.0631627"><ele>210.0</ele><time>2026-03-29T09:03:42.962Z</time></trkpt><trkpt lat="45.8025871" lon="10.0632358"><ele>210.0</ele><time>2026-03-29T09:03:44.952Z</time></trkpt><trkpt lat="45.8026495" lon="10.0633458"><ele>210.0</ele><time>2026-03-29T09:03:47.957Z</time></trkpt><trkpt lat="45.8026632" lon="10.0634415"><ele>210.0</ele><time>2026-03-29T09:03:49.965Z</time></trkpt><trkpt lat="45.8026609" lon="10.0635405"><ele>210.33333333333334</ele><time>2026-03-29T09:03:51.951Z</time></trkpt><trkpt lat="45.8026666" lon="10.0636454"><ele>210.66666666666669</ele><time>2026-03-29T09:03:53.962Z</time></trkpt><trkpt lat="45.8027306" lon="10.0637061"><ele>211.0</ele><time>2026-03-29T09:03:56.964Z</time></trkpt><trkpt lat="45.8027937" lon="10.0635999"><ele>211.33333333333334</ele><time>2026-03-29T09:03:59.961Z</time></trkpt><trkpt lat="45.8028115" lon="10.0634988"><ele>211.66666666666669</ele><time>2026-03-29T09:04:01.976Z</time></trkpt><trkpt lat="45.8028077" lon="10.0633983"><ele>212.0</ele><time>2026-03-29T09:04:03.968Z</time></trkpt><trkpt lat="45.8027953" lon="10.0632961"><ele>212.0</ele><time>2026-03-29T09:04:05.969Z</time></trkpt><trkpt lat="45.8027785" lon="10.0632083"><ele>212.0</ele><time>2026-03-29T09:04:07.965Z</time></trkpt><trkpt lat="45.8027566" lon="10.063086"><ele>212.0</ele><time>2026-03-29T09:04:10.968Z</time></trkpt><trkpt lat="45.8028132" lon="10.0630309"><ele>212.0</ele><time>2026-03-29T09:04:14.962Z</time></trkpt><trkpt lat="45.8028238" lon="10.0631288"><ele>212.0</ele><time>2026-03-29T09:04:16.962Z</time></trkpt><trkpt lat="45.8028295" lon="10.0632304"><ele>212.0</ele><time>2026-03-29T09:04:18.955Z</time></trkpt><trkpt lat="45.8028421" lon="10.0633532"><ele>212.0</ele><time>2026-03-29T09:04:20.964Z</time></trkpt><trkpt lat="45.8028629" lon="10.0634766"><ele>212.0</ele><time>2026-03-29T09:04:22.968Z</time></trkpt><trkpt lat="45.8028887" lon="10.0635725"><ele>212.0</ele><time>2026-03-29T09:04:24.972Z</time></trkpt><trkpt lat="45.8029201" lon="10.0636614"><ele>212.0</ele><time>2026-03-29T09:04:26.965Z</time></trkpt><trkpt lat="45.8029492" lon="10.0637715"><ele>212.0</ele><time>2026-03-29T09:04:28.966Z</time></trkpt><trkpt lat="45.8029762" lon="10.0638613"><ele>212.0</ele><time>2026-03-29T09:04:30.981Z</time></trkpt><trkpt lat="45.8030046" lon="10.0639435"><ele>212.0</ele><time>2026-03-29T09:04:33.025Z</time></trkpt><trkpt lat="45.8030402" lon="10.0640218"><ele>212.0</ele><time>2026-03-29T09:04:34.969Z</time></trkpt><trkpt lat="45.803111" lon="10.0640961"><ele>212.33333333333334</ele><time>2026-03-29T09:04:37.969Z</time></trkpt><trkpt lat="45.8031657" lon="10.0641451"><ele>212.66666666666669</ele><time>2026-03-29T09:04:39.966Z</time></trkpt><trkpt lat="45.8032203" lon="10.0642009"><ele>213.0</ele><time>2026-03-29T09:04:41.97Z</time></trkpt><trkpt lat="45.8032768" lon="10.0642506"><ele>213.33333333333331</ele><time>2026-03-29T09:04:43.967Z</time></trkpt><trkpt lat="45.8033615" lon="10.0643042"><ele>213.66666666666666</ele><time>2026-03-29T09:04:46.967Z</time></trkpt><trkpt lat="45.8034301" lon="10.0642889"><ele>214.0</ele><time>2026-03-29T09:04:49.965Z</time></trkpt><trkpt lat="45.8035063" lon="10.0642186"><ele>214.16666666666666</ele><time>2026-03-29T09:04:52.974Z</time></trkpt><trkpt lat="45.8035749" lon="10.0641424"><ele>214.33333333333331</ele><time>2026-03-29T09:04:56.035Z</time></trkpt><trkpt lat="45.8036354" lon="10.0641086"><ele>214.5</ele><time>2026-03-29T09:04:58.955Z</time></trkpt><trkpt lat="45.8037003" lon="10.0640989"><ele>214.66666666666669</ele><time>2026-03-29T09:05:01.956Z</time></trkpt><trkpt lat="45.8037842" lon="10.0640751"><ele>214.83333333333334</ele><time>2026-03-29T09:05:04.962Z</time></trkpt><trkpt lat="45.8038533" lon="10.0640772"><ele>215.0</ele><time>2026-03-29T09:05:06.945Z</time></trkpt><trkpt lat="45.8039321" lon="10.0640521"><ele>216.83333333333334</ele><time>2026-03-29T09:05:09.952Z</time></trkpt><trkpt lat="45.8040117" lon="10.0639958"><ele>218.66666666666669</ele><time>2026-03-29T09:05:12.956Z</time></trkpt><trkpt lat="45.8040883" lon="10.0639265"><ele>220.5</ele><time>2026-03-29T09:05:15.955Z</time></trkpt><trkpt lat="45.8041556" lon="10.0638472"><ele>222.33333333333331</ele><time>2026-03-29T09:05:18.952Z</time></trkpt><trkpt lat="45.8042041" lon="10.0637677"><ele>224.16666666666666</ele><time>2026-03-29T09:05:21.951Z</time></trkpt><trkpt lat="45.8042418" lon="10.0636948"><ele>226.0</ele><time>2026-03-29T09:05:24.958Z</time></trkpt><trkpt lat="45.8042966" lon="10.0636393"><ele>228.16666666666666</ele><time>2026-03-29T09:05:27.948Z</time></trkpt><trkpt lat="45.8043702" lon="10.0635944"><ele>230.33333333333331</ele><time>2026-03-29T09:05:31.955Z</time></trkpt><trkpt lat="45.804431" lon="10.0635643"><ele>232.5</ele><time>2026-03-29T09:05:34.955Z</time></trkpt><trkpt lat="45.8044799" lon="10.0634965"><ele>234.66666666666669</ele><time>2026-03-29T09:05:37.959Z</time></trkpt><trkpt lat="45.8045128" lon="10.0634093"><ele>236.83333333333334</ele><time>2026-03-29T09:05:41.952Z</time></trkpt><trkpt lat="45.8045548" lon="10.0633264"><ele>239.0</ele><time>2026-03-29T09:05:44.975Z</time></trkpt><trkpt lat="45.8045874" lon="10.0631701"><ele>244.42857142857144</ele><time>2026-03-29T09:05:48.963Z</time></trkpt><trkpt lat="45.8045946" lon="10.0630576"><ele>249.85714285714286</ele><time>2026-03-29T09:05:51.957Z</time></trkpt><trkpt lat="45.8045827" lon="10.0629473"><ele>255.28571428571428</ele><time>2026-03-29T09:05:55.958Z</time></trkpt><trkpt lat="45.8045633" lon="10.0628467"><ele>260.7142857142857</ele><time>2026-03-29T09:05:58.953Z</time></trkpt><trkpt lat="45.8045467" lon="10.0627281"><ele>266.1428571428571</ele><time>2026-03-29T09:06:02.971Z</time></trkpt><trkpt lat="45.8045376" lon="10.0626261"><ele>271.57142857142856</ele><time>2026-03-29T09:06:05.959Z</time></trkpt><trkpt lat="45.8046016" lon="10.0626275"><ele>277.0</ele><time>2026-03-29T09:06:11.962Z</time></trkpt><trkpt lat="45.8046673" lon="10.062653"><ele>277.0</ele><time>2026-03-29T09:06:16.029Z</time></trkpt><trkpt lat="45.8047411" lon="10.0626986"><ele>277.0</ele><time>2026-03-29T09:06:19.957Z</time></trkpt><trkpt lat="45.8047985" lon="10.0627458"><ele>277.0</ele><time>2026-03-29T09:06:23.039Z</time></trkpt><trkpt lat="45.8048648" lon="10.0628181"><ele>277.0</ele><time>2026-03-29T09:06:26.959Z</time></trkpt><trkpt lat="45.8049279" lon="10.0628433"><ele>277.0</ele><time>2026-03-29T09:06:29.945Z</time></trkpt><trkpt lat="45.8049993" lon="10.0628652"><ele>277.0</ele><time>2026-03-29T09:06:34.03Z</time></trkpt><trkpt lat="45.8050626" lon="10.0628612"><ele>277.0</ele><time>2026-03-29T09:06:38.952Z</time></trkpt><trkpt lat="45.8051288" lon="10.0628454"><ele>277.42857142857144</ele><time>2026-03-29T09:06:42.967Z</time></trkpt><trkpt lat="45.8052008" lon="10.0628094"><ele>277.85714285714283</ele><time>2026-03-29T09:06:47.953Z</time></trkpt><trkpt lat="45.805265" lon="10.0627631"><ele>278.2857142857143</ele><time>2026-03-29T09:06:53.955Z</time></trkpt><trkpt lat="45.8053383" lon="10.0627853"><ele>278.7142857142857</ele><time>2026-03-29T09:06:58.011Z</time></trkpt><trkpt lat="45.8054146" lon="10.0628053"><ele>279.1428571428571</ele><time>2026-03-29T09:07:01.955Z</time></trkpt><trkpt lat="45.8054804" lon="10.0628069"><ele>279.57142857142856</ele><time>2026-03-29T09:07:06.954Z</time></trkpt><trkpt lat="45.8055522" lon="10.0627888"><ele>280.0</ele><time>2026-03-29T09:07:11.049Z</time></trkpt><trkpt lat="45.805616" lon="10.0627397"><ele>280.0</ele><time>2026-03-29T09:07:13.963Z</time></trkpt><trkpt lat="45.8056914" lon="10.0626867"><ele>280.0</ele><time>2026-03-29T09:07:16.949Z</time></trkpt><trkpt lat="45.8057741" lon="10.0626535"><ele>280.0</ele><time>2026-03-29T09:07:19.959Z</time></trkpt><trkpt lat="45.8058411" lon="10.0626126"><ele>280.0</ele><time>2026-03-29T09:07:22.96Z</time></trkpt><trkpt lat="45.8059006" lon="10.062538"><ele>280.0</ele><time>2026-03-29T09:07:25.962Z</time></trkpt><trkpt lat="45.8059311" lon="10.0624469"><ele>280.0</ele><time>2026-03-29T09:07:27.96Z</time></trkpt><trkpt lat="45.8060026" lon="10.0623338"><ele>278.8</ele><time>2026-03-29T09:07:29.959Z</time></trkpt><trkpt lat="45.806054" lon="10.0622668"><ele>277.6</ele><time>2026-03-29T09:07:30.965Z</time></trkpt><trkpt lat="45.8061326" lon="10.0621486"><ele>276.4</ele><time>2026-03-29T09:07:32.967Z</time></trkpt><trkpt lat="45.8061951" lon="10.0620364"><ele>275.2</ele><time>2026-03-29T09:07:34.961Z</time></trkpt><trkpt lat="45.8062196" lon="10.0618558"><ele>274.0</ele><time>2026-03-29T09:07:36.966Z</time></trkpt><trkpt lat="45.8062169" lon="10.0616825"><ele>274.3333333333333</ele><time>2026-03-29T09:07:39.02Z</time></trkpt><trkpt lat="45.8062349" lon="10.0615818"><ele>274.66666666666663</ele><time>2026-03-29T09:07:39.961Z</time></trkpt><trkpt lat="45.8062398" lon="10.0614799"><ele>275.0</ele><time>2026-03-29T09:07:40.96Z</time></trkpt><trkpt lat="45.8062627" lon="10.0613771"><ele>275.3333333333333</ele><time>2026-03-29T09:07:41.955Z</time></trkpt><trkpt lat="45.8062982" lon="10.0613"><ele>275.6666666666667</ele><time>2026-03-29T09:07:42.965Z</time></trkpt><trkpt lat="45.806332" lon="10.0612217"><ele>276.0</ele><time>2026-03-29T09:07:43.961Z</time></trkpt><trkpt lat="45.80639" lon="10.0610798"><ele>276.0</ele><time>2026-03-29T09:07:45.962Z</time></trkpt><trkpt lat="45.8064617" lon="10.0609753"><ele>276.0</ele><time>2026-03-29T09:07:47.956Z</time></trkpt><trkpt lat="45.8065332" lon="10.0609149"><ele>276.0</ele><time>2026-03-29T09:07:49.955Z</time></trkpt><trkpt lat="45.806604" lon="10.060862"><ele>276.0</ele><time>2026-03-29T09:07:52.019Z</time></trkpt><trkpt lat="45.8066737" lon="10.060809"><ele>276.0</ele><time>2026-03-29T09:07:53.959Z</time></trkpt><trkpt lat="45.8067243" lon="10.0607372"><ele>276.0</ele><time>2026-03-29T09:07:55.958Z</time></trkpt><trkpt lat="45.8067596" lon="10.0606536"><ele>275.7142857142857</ele><time>2026-03-29T09:07:57.953Z</time></trkpt><trkpt lat="45.8067829" lon="10.0605497"><ele>275.42857142857144</ele><time>2026-03-29T09:08:00.957Z</time></trkpt><trkpt lat="45.8068058" lon="10.0604441"><ele>275.14285714285717</ele><time>2026-03-29T09:08:04.956Z</time></trkpt><trkpt lat="45.8067884" lon="10.0603516"><ele>274.8571428571429</ele><time>2026-03-29T09:08:06.96Z</time></trkpt><trkpt lat="45.8067648" lon="10.0602435"><ele>274.57142857142856</ele><time>2026-03-29T09:08:09.958Z</time></trkpt><trkpt lat="45.8067337" lon="10.0601599"><ele>274.28571428571433</ele><time>2026-03-29T09:08:12.951Z</time></trkpt><trkpt lat="45.8066769" lon="10.0600981"><ele>274.0</ele><time>2026-03-29T09:08:15.956Z</time></trkpt><trkpt lat="45.806624" lon="10.060014"><ele>274.00000000000006</ele><time>2026-03-29T09:08:19.957Z</time></trkpt><trkpt lat="45.8065713" lon="10.0599514"><ele>274.0</ele><time>2026-03-29T09:08:22.95Z</time></trkpt><trkpt lat="45.80652" lon="10.0598971"><ele>274.0</ele><time>2026-03-29T09:08:25.952Z</time></trkpt><trkpt lat="45.8064583" lon="10.0598328"><ele>274.0</ele><time>2026-03-29T09:08:30.951Z</time></trkpt><trkpt lat="45.8063894" lon="10.0597909"><ele>274.0</ele><time>2026-03-29T09:08:34.955Z</time></trkpt><trkpt lat="45.8063351" lon="10.059738"><ele>274.00000000000006</ele><time>2026-03-29T09:08:38.957Z</time></trkpt><trkpt lat="45.8062741" lon="10.0596927"><ele>274.0</ele><time>2026-03-29T09:09:27.959Z</time></trkpt><trkpt lat="45.8062188" lon="10.0596483"><ele>273.14285714285717</ele><time>2026-03-29T09:09:31.956Z</time></trkpt><trkpt lat="45.8061644" lon="10.0595921"><ele>272.2857142857143</ele><time>2026-03-29T09:09:35.959Z</time></trkpt><trkpt lat="45.8061098" lon="10.0595304"><ele>271.42857142857144</ele><time>2026-03-29T09:09:40.946Z</time></trkpt><trkpt lat="45.8060456" lon="10.059466"><ele>270.57142857142856</ele><time>2026-03-29T09:09:47.959Z</time></trkpt><trkpt lat="45.8059914" lon="10.059409"><ele>269.7142857142857</ele><time>2026-03-29T09:10:15.952Z</time></trkpt><trkpt lat="45.805957" lon="10.0593205"><ele>268.8571428571429</ele><time>2026-03-29T09:10:20.955Z</time></trkpt><trkpt lat="45.8059028" lon="10.0592648"><ele>268.0</ele><time>2026-03-29T09:10:44.954Z</time></trkpt><trkpt lat="45.8058259" lon="10.0590775"><ele>274.42857142857144</ele><time>2026-03-29T09:11:15.954Z</time></trkpt><trkpt lat="45.8058024" lon="10.0589912"><ele>280.85714285714283</ele><time>2026-03-29T09:11:23.954Z</time></trkpt><trkpt lat="45.8057867" lon="10.0588967"><ele>287.2857142857143</ele><time>2026-03-29T09:11:32.945Z</time></trkpt><trkpt lat="45.805756" lon="10.0588082"><ele>293.7142857142857</ele><time>2026-03-29T09:12:14.948Z</time></trkpt><trkpt lat="45.8057296" lon="10.0587216"><ele>300.14285714285717</ele><time>2026-03-29T09:12:19.959Z</time></trkpt><trkpt lat="45.805663" lon="10.0586897"><ele>306.57142857142856</ele><time>2026-03-29T09:12:25.954Z</time></trkpt><trkpt lat="45.805634" lon="10.0587814"><ele>313.0</ele><time>2026-03-29T09:12:30.954Z</time></trkpt><trkpt lat="45.8056007" lon="10.0588584"><ele>313.0</ele><time>2026-03-29T09:12:35.949Z</time></trkpt><trkpt lat="45.8055587" lon="10.0587892"><ele>313.0</ele><time>2026-03-29T09:12:39.954Z</time></trkpt><trkpt lat="45.8055078" lon="10.0587155"><ele>313.0</ele><time>2026-03-29T09:12:42.956Z</time></trkpt><trkpt lat="45.8054418" lon="10.0586631"><ele>313.0</ele><time>2026-03-29T09:12:47.96Z</time></trkpt><trkpt lat="45.8053749" lon="10.0586597"><ele>313.0</ele><time>2026-03-29T09:12:55.96Z</time></trkpt><trkpt lat="45.8053603" lon="10.0587508"><ele>313.0</ele><time>2026-03-29T09:13:00.962Z</time></trkpt><trkpt lat="45.8053431" lon="10.0588453"><ele>313.0</ele><time>2026-03-29T09:13:06.959Z</time></trkpt><trkpt lat="45.8054106" lon="10.0587587"><ele>313.0</ele><time>2026-03-29T09:13:20.951Z</time></trkpt><trkpt lat="45.8054649" lon="10.0587022"><ele>313.0</ele><time>2026-03-29T09:13:23.952Z</time></trkpt><trkpt lat="45.8055048" lon="10.0586218"><ele>313.0</ele><time>2026-03-29T09:13:27.958Z</time></trkpt><trkpt lat="45.8055365" lon="10.0585255"><ele>313.0</ele><time>2026-03-29T09:13:31.961Z</time></trkpt><trkpt lat="45.8055526" lon="10.0584259"><ele>313.0</ele><time>2026-03-29T09:13:35.954Z</time></trkpt><trkpt lat="45.8055628" lon="10.0583137"><ele>313.0</ele><time>2026-03-29T09:13:40.953Z</time></trkpt><trkpt lat="45.805595" lon="10.0582209"><ele>313.0</ele><time>2026-03-29T09:13:44.956Z</time></trkpt><trkpt lat="45.8056408" lon="10.058139"><ele>315.0</ele><time>2026-03-29T09:13:48.956Z</time></trkpt><trkpt lat="45.8056756" lon="10.0580161"><ele>317.0</ele><time>2026-03-29T09:13:55.955Z</time></trkpt><trkpt lat="45.8057023" lon="10.0578855"><ele>319.0</ele><time>2026-03-29T09:14:01.955Z</time></trkpt><trkpt lat="45.8057088" lon="10.0577599"><ele>321.0</ele><time>2026-03-29T09:14:05.951Z</time></trkpt><trkpt lat="45.8057167" lon="10.0576686"><ele>323.0</ele><time>2026-03-29T09:14:08.96Z</time></trkpt><trkpt lat="45.8057364" lon="10.0575738"><ele>325.0</ele><time>2026-03-29T09:14:11.954Z</time></trkpt><trkpt lat="45.8057616" lon="10.0574702"><ele>327.7142857142857</ele><time>2026-03-29T09:14:14.956Z</time></trkpt><trkpt lat="45.8057812" lon="10.0573554"><ele>330.42857142857144</ele><time>2026-03-29T09:14:17.95Z</time></trkpt><trkpt lat="45.8057914" lon="10.0572488"><ele>333.14285714285717</ele><time>2026-03-29T09:14:20.948Z</time></trkpt><trkpt lat="45.8057967" lon="10.0571361"><ele>335.8571428571429</ele><time>2026-03-29T09:14:24.96Z</time></trkpt><trkpt lat="45.8058038" lon="10.0570417"><ele>338.57142857142856</ele><time>2026-03-29T09:14:27.963Z</time></trkpt><trkpt lat="45.8058218" lon="10.0569439"><ele>341.28571428571433</ele><time>2026-03-29T09:14:30.956Z</time></trkpt><trkpt lat="45.8058322" lon="10.0568461"><ele>344.0</ele><time>2026-03-29T09:14:33.959Z</time></trkpt><trkpt lat="45.8058153" lon="10.0567503"><ele>344.0</ele><time>2026-03-29T09:14:36.955Z</time></trkpt><trkpt lat="45.8057726" lon="10.0566601"><ele>344.0</ele><time>2026-03-29T09:14:39.959Z</time></trkpt><trkpt lat="45.8057264" lon="10.0565977"><ele>344.0</ele><time>2026-03-29T09:14:42.953Z</time></trkpt><trkpt lat="45.8056817" lon="10.0565258"><ele>344.0</ele><time>2026-03-29T09:14:45.952Z</time></trkpt><trkpt lat="45.8056297" lon="10.0564733"><ele>344.0</ele><time>2026-03-29T09:14:47.962Z</time></trkpt><trkpt lat="45.8055685" lon="10.0563961"><ele>344.0</ele><time>2026-03-29T09:14:49.957Z</time></trkpt><trkpt lat="45.8055062" lon="10.0562876"><ele>344.5714285714286</ele><time>2026-03-29T09:14:51.965Z</time></trkpt><trkpt lat="45.8054667" lon="10.0562165"><ele>345.14285714285717</ele><time>2026-03-29T09:14:53.944Z</time></trkpt><trkpt lat="45.8054294" lon="10.0561426"><ele>345.7142857142857</ele><time>2026-03-29T09:14:55.961Z</time></trkpt><trkpt lat="45.8053714" lon="10.0560644"><ele>346.28571428571433</ele><time>2026-03-29T09:14:58.957Z</time></trkpt><trkpt lat="45.8052967" lon="10.0560387"><ele>346.8571428571429</ele><time>2026-03-29T09:15:02.954Z</time></trkpt><trkpt lat="45.8052248" lon="10.0560208"><ele>347.42857142857144</ele><time>2026-03-29T09:15:05.962Z</time></trkpt><trkpt lat="45.8051405" lon="10.0559718"><ele>348.0</ele><time>2026-03-29T09:15:08.962Z</time></trkpt><trkpt lat="45.805078" lon="10.0559177"><ele>349.42857142857144</ele><time>2026-03-29T09:15:11.955Z</time></trkpt><trkpt lat="45.8050077" lon="10.0558738"><ele>350.8571428571429</ele><time>2026-03-29T09:15:14.957Z</time></trkpt><trkpt lat="45.8049302" lon="10.0558324"><ele>352.28571428571433</ele><time>2026-03-29T09:15:17.964Z</time></trkpt><trkpt lat="45.8048749" lon="10.0557792"><ele>353.7142857142857</ele><time>2026-03-29T09:15:20.954Z</time></trkpt><trkpt lat="45.8048328" lon="10.055686"><ele>355.14285714285717</ele><time>2026-03-29T09:15:24.96Z</time></trkpt><trkpt lat="45.804781" lon="10.0556109"><ele>356.5714285714286</ele><time>2026-03-29T09:15:28.961Z</time></trkpt><trkpt lat="45.8047268" lon="10.0555596"><ele>358.0</ele><time>2026-03-29T09:15:31.959Z</time></trkpt><trkpt lat="45.8046705" lon="10.0555044"><ele>359.00000000000006</ele><time>2026-03-29T09:15:35.946Z</time></trkpt><trkpt lat="45.8046228" lon="10.0554415"><ele>360.0</ele><time>2026-03-29T09:15:38.942Z</time></trkpt><trkpt lat="45.8045547" lon="10.0553809"><ele>361.0</ele><time>2026-03-29T09:15:41.952Z</time></trkpt><trkpt lat="45.8044992" lon="10.0553149"><ele>362.0</ele><time>2026-03-29T09:15:45.96Z</time></trkpt><trkpt lat="45.8044452" lon="10.0552569"><ele>363.0</ele><time>2026-03-29T09:15:48.96Z</time></trkpt><trkpt lat="45.8043949" lon="10.0551709"><ele>364.00000000000006</ele><time>2026-03-29T09:15:53.954Z</time></trkpt><trkpt lat="45.8043289" lon="10.055144"><ele>365.0</ele><time>2026-03-29T09:15:56.954Z</time></trkpt><trkpt lat="45.8042439" lon="10.0551175"><ele>364.33333333333337</ele><time>2026-03-29T09:15:59.945Z</time></trkpt><trkpt lat="45.8041689" lon="10.0550502"><ele>363.6666666666667</ele><time>2026-03-29T09:16:01.962Z</time></trkpt><trkpt lat="45.8040949" lon="10.0549856"><ele>363.0</ele><time>2026-03-29T09:16:03.958Z</time></trkpt><trkpt lat="45.8040283" lon="10.0549103"><ele>362.3333333333333</ele><time>2026-03-29T09:16:05.963Z</time></trkpt><trkpt lat="45.8039753" lon="10.0548414"><ele>361.66666666666663</ele><time>2026-03-29T09:16:07.965Z</time></trkpt><trkpt lat="45.803915" lon="10.0547818"><ele>361.0</ele><time>2026-03-29T09:16:09.957Z</time></trkpt><trkpt lat="45.8038462" lon="10.054725"><ele>361.0</ele><time>2026-03-29T09:16:11.957Z</time></trkpt><trkpt lat="45.8037826" lon="10.0546661"><ele>361.0</ele><time>2026-03-29T09:16:13.959Z</time></trkpt><trkpt lat="45.8037184" lon="10.0546007"><ele>361.0</ele><time>2026-03-29T09:16:15.945Z</time></trkpt><trkpt lat="45.8036583" lon="10.0545433"><ele>361.0</ele><time>2026-03-29T09:16:17.94Z</time></trkpt><trkpt lat="45.8035851" lon="10.054479"><ele>361.0</ele><time>2026-03-29T09:16:19.966Z</time></trkpt><trkpt lat="45.8035187" lon="10.0544289"><ele>361.0</ele><time>2026-03-29T09:16:21.96Z</time></trkpt><trkpt lat="45.8034627" lon="10.0543756"><ele>363.66666666666663</ele><time>2026-03-29T09:16:23.954Z</time></trkpt><trkpt lat="45.8034087" lon="10.0543174"><ele>366.3333333333333</ele><time>2026-03-29T09:16:25.957Z</time></trkpt><trkpt lat="45.8033593" lon="10.0542455"><ele>369.0</ele><time>2026-03-29T09:16:27.951Z</time></trkpt><trkpt lat="45.8033075" lon="10.0541408"><ele>371.6666666666667</ele><time>2026-03-29T09:16:30.961Z</time></trkpt><trkpt lat="45.8032558" lon="10.0540637"><ele>374.33333333333337</ele><time>2026-03-29T09:16:33.95Z</time></trkpt><trkpt lat="45.8032181" lon="10.0539681"><ele>377.0</ele><time>2026-03-29T09:16:36.955Z</time></trkpt><trkpt lat="45.8032031" lon="10.053856"><ele>377.0</ele><time>2026-03-29T09:16:39.961Z</time></trkpt><trkpt lat="45.8031924" lon="10.0537302"><ele>377.0</ele><time>2026-03-29T09:16:42.953Z</time></trkpt><trkpt lat="45.8032092" lon="10.0536013"><ele>377.0</ele><time>2026-03-29T09:16:45.966Z</time></trkpt><trkpt lat="45.8032083" lon="10.0534792"><ele>377.0</ele><time>2026-03-29T09:16:48.959Z</time></trkpt><trkpt lat="45.8031963" lon="10.0533756"><ele>377.0</ele><time>2026-03-29T09:16:50.96Z</time></trkpt><trkpt lat="45.8031837" lon="10.0532631"><ele>377.0</ele><time>2026-03-29T09:16:52.958Z</time></trkpt><trkpt lat="45.8031751" lon="10.0531608"><ele>377.1666666666667</ele><time>2026-03-29T09:16:54.96Z</time></trkpt><trkpt lat="45.8031559" lon="10.0530537"><ele>377.33333333333337</ele><time>2026-03-29T09:16:56.962Z</time></trkpt><trkpt lat="45.8031387" lon="10.0529503"><ele>377.5</ele><time>2026-03-29T09:16:58.961Z</time></trkpt><trkpt lat="45.8031126" lon="10.0528547"><ele>377.6666666666667</ele><time>2026-03-29T09:17:00.947Z</time></trkpt><trkpt lat="45.8030907" lon="10.0527549"><ele>377.8333333333333</ele><time>2026-03-29T09:17:02.954Z</time></trkpt><trkpt lat="45.8030764" lon="10.0526627"><ele>378.0</ele><time>2026-03-29T09:17:04.977Z</time></trkpt><trkpt lat="45.8030443" lon="10.0525338"><ele>377.3333333333333</ele><time>2026-03-29T09:17:07.963Z</time></trkpt><trkpt lat="45.8030204" lon="10.0524248"><ele>376.6666666666667</ele><time>2026-03-29T09:17:09.958Z</time></trkpt><trkpt lat="45.8029909" lon="10.0523222"><ele>376.0</ele><time>2026-03-29T09:17:11.955Z</time></trkpt><trkpt lat="45.8029582" lon="10.0522199"><ele>375.33333333333337</ele><time>2026-03-29T09:17:13.96Z</time></trkpt><trkpt lat="45.8029273" lon="10.0521032"><ele>374.6666666666667</ele><time>2026-03-29T09:17:15.959Z</time></trkpt><trkpt lat="45.8028945" lon="10.05201"><ele>374.0</ele><time>2026-03-29T09:17:17.961Z</time></trkpt><trkpt lat="45.8028578" lon="10.0519229"><ele>374.0</ele><time>2026-03-29T09:17:19.958Z</time></trkpt><trkpt lat="45.8028152" lon="10.0518373"><ele>374.0</ele><time>2026-03-29T09:17:21.964Z</time></trkpt><trkpt lat="45.8027645" lon="10.0517689"><ele>374.0</ele><time>2026-03-29T09:17:23.966Z</time></trkpt><trkpt lat="45.8027111" lon="10.0517025"><ele>374.0</ele><time>2026-03-29T09:17:25.957Z</time></trkpt><trkpt lat="45.8026558" lon="10.0516519"><ele>374.0</ele><time>2026-03-29T09:17:27.962Z</time></trkpt><trkpt lat="45.8025694" lon="10.0515992"><ele>374.0</ele><time>2026-03-29T09:17:30.955Z</time></trkpt><trkpt lat="45.8025068" lon="10.0515722"><ele>374.0</ele><time>2026-03-29T09:17:32.959Z</time></trkpt><trkpt lat="45.8024231" lon="10.0515396"><ele>377.4285714285714</ele><time>2026-03-29T09:17:35.954Z</time></trkpt><trkpt lat="45.8023588" lon="10.0515345"><ele>380.8571428571429</ele><time>2026-03-29T09:17:38.952Z</time></trkpt><trkpt lat="45.8022795" lon="10.0515566"><ele>384.2857142857143</ele><time>2026-03-29T09:17:41.955Z</time></trkpt><trkpt lat="45.8022043" lon="10.0515742"><ele>387.71428571428567</ele><time>2026-03-29T09:17:44.958Z</time></trkpt><trkpt lat="45.8021253" lon="10.0515708"><ele>391.1428571428571</ele><time>2026-03-29T09:17:47.957Z</time></trkpt><trkpt lat="45.8020561" lon="10.0515744"><ele>394.57142857142856</ele><time>2026-03-29T09:17:50.959Z</time></trkpt><trkpt lat="45.8019771" lon="10.051585"><ele>398.0</ele><time>2026-03-29T09:17:54.96Z</time></trkpt><trkpt lat="45.801905" lon="10.0516498"><ele>398.99999999999994</ele><time>2026-03-29T09:17:58.96Z</time></trkpt><trkpt lat="45.8018323" lon="10.0517197"><ele>400.0</ele><time>2026-03-29T09:18:01.957Z</time></trkpt><trkpt lat="45.801751" lon="10.0517945"><ele>401.0</ele><time>2026-03-29T09:18:04.948Z</time></trkpt><trkpt lat="45.8016894" lon="10.0518632"><ele>402.0</ele><time>2026-03-29T09:18:06.961Z</time></trkpt><trkpt lat="45.8016351" lon="10.0519316"><ele>402.99999999999994</ele><time>2026-03-29T09:18:09.956Z</time></trkpt><trkpt lat="45.8015922" lon="10.0519991"><ele>404.0</ele><time>2026-03-29T09:18:13.961Z</time></trkpt><trkpt lat="45.8015539" lon="10.0520794"><ele>406.3333333333333</ele><time>2026-03-29T09:18:17.96Z</time></trkpt><trkpt lat="45.8014858" lon="10.0521623"><ele>408.66666666666663</ele><time>2026-03-29T09:18:20.951Z</time></trkpt><trkpt lat="45.8014253" lon="10.0522443"><ele>411.0</ele><time>2026-03-29T09:18:23.957Z</time></trkpt><trkpt lat="45.8013572" lon="10.0522989"><ele>413.33333333333337</ele><time>2026-03-29T09:18:25.947Z</time></trkpt><trkpt lat="45.801298" lon="10.052371"><ele>415.6666666666667</ele><time>2026-03-29T09:18:27.959Z</time></trkpt><trkpt lat="45.8012598" lon="10.0524464"><ele>418.0</ele><time>2026-03-29T09:18:29.961Z</time></trkpt><trkpt lat="45.8011816" lon="10.0525146"><ele>418.57142857142856</ele><time>2026-03-29T09:18:32.95Z</time></trkpt><trkpt lat="45.8011148" lon="10.052526"><ele>419.1428571428571</ele><time>2026-03-29T09:18:35.951Z</time></trkpt><trkpt lat="45.8010384" lon="10.052501"><ele>419.7142857142857</ele><time>2026-03-29T09:18:39.958Z</time></trkpt><trkpt lat="45.8009831" lon="10.0524367"><ele>420.2857142857143</ele><time>2026-03-29T09:18:44.957Z</time></trkpt><trkpt lat="45.8009718" lon="10.0523246"><ele>420.8571428571429</ele><time>2026-03-29T09:18:48.96Z</time></trkpt><trkpt lat="45.8009556" lon="10.0522237"><ele>421.42857142857144</ele><time>2026-03-29T09:18:51.957Z</time></trkpt><trkpt lat="45.8009177" lon="10.0521315"><ele>422.0</ele><time>2026-03-29T09:18:53.963Z</time></trkpt><trkpt lat="45.8008903" lon="10.0520262"><ele>423.8333333333333</ele><time>2026-03-29T09:18:56.954Z</time></trkpt><trkpt lat="45.8008806" lon="10.051911"><ele>425.66666666666663</ele><time>2026-03-29T09:19:00.965Z</time></trkpt><trkpt lat="45.8008937" lon="10.0518005"><ele>427.5</ele><time>2026-03-29T09:19:04.957Z</time></trkpt><trkpt lat="45.8008942" lon="10.051696"><ele>429.33333333333337</ele><time>2026-03-29T09:19:09.958Z</time></trkpt><trkpt lat="45.8008715" lon="10.051603"><ele>431.1666666666667</ele><time>2026-03-29T09:19:13.955Z</time></trkpt><trkpt lat="45.8008418" lon="10.0515075"><ele>433.0</ele><time>2026-03-29T09:19:16.957Z</time></trkpt><trkpt lat="45.8008054" lon="10.0514077"><ele>434.1666666666667</ele><time>2026-03-29T09:19:19.96Z</time></trkpt><trkpt lat="45.8007595" lon="10.0513117"><ele>435.33333333333337</ele><time>2026-03-29T09:19:22.964Z</time></trkpt><trkpt lat="45.8007093" lon="10.0512195"><ele>436.5</ele><time>2026-03-29T09:19:25.961Z</time></trkpt><trkpt lat="45.8006559" lon="10.0511324"><ele>437.66666666666663</ele><time>2026-03-29T09:19:28.959Z</time></trkpt><trkpt lat="45.8006075" lon="10.0510459"><ele>438.8333333333333</ele><time>2026-03-29T09:19:34.955Z</time></trkpt><trkpt lat="45.8005676" lon="10.0509691"><ele>440.0</ele><time>2026-03-29T09:19:54.959Z</time></trkpt><trkpt lat="45.8005466" lon="10.0508816"><ele>441.1428571428571</ele><time>2026-03-29T09:22:10.966Z</time></trkpt><trkpt lat="45.8005213" lon="10.0507865"><ele>442.2857142857143</ele><time>2026-03-29T09:27:50.97Z</time></trkpt><trkpt lat="45.8005214" lon="10.05067"><ele>443.42857142857144</ele><time>2026-03-29T09:27:56.97Z</time></trkpt><trkpt lat="45.8005298" lon="10.0505519"><ele>444.57142857142856</ele><time>2026-03-29T09:28:00.966Z</time></trkpt><trkpt lat="45.800544" lon="10.0504432"><ele>445.7142857142857</ele><time>2026-03-29T09:28:03.962Z</time></trkpt><trkpt lat="45.8005672" lon="10.0503473"><ele>446.85714285714283</ele><time>2026-03-29T09:28:06.967Z</time></trkpt><trkpt lat="45.8006033" lon="10.0502689"><ele>448.0</ele><time>2026-03-29T09:28:09.969Z</time></trkpt><trkpt lat="45.8006283" lon="10.0501832"><ele>448.0</ele><time>2026-03-29T09:28:12.973Z</time></trkpt><trkpt lat="45.8006483" lon="10.0500929"><ele>448.0</ele><time>2026-03-29T09:28:15.967Z</time></trkpt><trkpt lat="45.8006675" lon="10.0500047"><ele>448.0</ele><time>2026-03-29T09:28:18.968Z</time></trkpt><trkpt lat="45.800702" lon="10.0499179"><ele>448.0</ele><time>2026-03-29T09:28:21.975Z</time></trkpt><trkpt lat="45.8007569" lon="10.0498275"><ele>448.0</ele><time>2026-03-29T09:28:25.974Z</time></trkpt><trkpt lat="45.8008118" lon="10.0497546"><ele>448.0</ele><time>2026-03-29T09:28:28.97Z</time></trkpt><trkpt lat="45.8008598" lon="10.0496546"><ele>448.0</ele><time>2026-03-29T09:28:31.97Z</time></trkpt><trkpt lat="45.8009034" lon="10.0495711"><ele>447.00000000000006</ele><time>2026-03-29T09:28:34.967Z</time></trkpt><trkpt lat="45.800956" lon="10.0495085"><ele>446.0</ele><time>2026-03-29T09:28:37.97Z</time></trkpt><trkpt lat="45.801009" lon="10.0494379"><ele>445.0</ele><time>2026-03-29T09:28:40.967Z</time></trkpt><trkpt lat="45.8010463" lon="10.0493624"><ele>444.0</ele><time>2026-03-29T09:28:43.969Z</time></trkpt><trkpt lat="45.8011225" lon="10.0493082"><ele>443.00000000000006</ele><time>2026-03-29T09:28:46.966Z</time></trkpt><trkpt lat="45.8011747" lon="10.0492349"><ele>442.0</ele><time>2026-03-29T09:28:47.968Z</time></trkpt><trkpt lat="45.8012801" lon="10.049111"><ele>442.00000000000006</ele><time>2026-03-29T09:28:49.964Z</time></trkpt><trkpt lat="45.8013361" lon="10.0490527"><ele>442.0</ele><time>2026-03-29T09:28:50.966Z</time></trkpt><trkpt lat="45.8013984" lon="10.049005"><ele>442.0</ele><time>2026-03-29T09:28:51.969Z</time></trkpt><trkpt lat="45.8014412" lon="10.0489374"><ele>442.0</ele><time>2026-03-29T09:28:52.96Z</time></trkpt><trkpt lat="45.8015128" lon="10.0488373"><ele>442.00000000000006</ele><time>2026-03-29T09:28:54.964Z</time></trkpt><trkpt lat="45.8015666" lon="10.0487474"><ele>442.0</ele><time>2026-03-29T09:28:55.966Z</time></trkpt><trkpt lat="45.801623" lon="10.048679"><ele>442.00000000000006</ele><time>2026-03-29T09:28:56.966Z</time></trkpt><trkpt lat="45.8017018" lon="10.0485476"><ele>442.0</ele><time>2026-03-29T09:28:58.962Z</time></trkpt><trkpt lat="45.8017349" lon="10.0484435"><ele>442.0</ele><time>2026-03-29T09:29:00.969Z</time></trkpt><trkpt lat="45.8017677" lon="10.0483413"><ele>442.0</ele><time>2026-03-29T09:29:02.963Z</time></trkpt><trkpt lat="45.8018028" lon="10.0482564"><ele>442.00000000000006</ele><time>2026-03-29T09:29:04.956Z</time></trkpt><trkpt lat="45.8018332" lon="10.0481244"><ele>442.0</ele><time>2026-03-29T09:29:07.964Z</time></trkpt><trkpt lat="45.8018815" lon="10.0480337"><ele>435.83333333333337</ele><time>2026-03-29T09:29:10.963Z</time></trkpt><trkpt lat="45.8019618" lon="10.0480531"><ele>429.6666666666667</ele><time>2026-03-29T09:29:14.97Z</time></trkpt><trkpt lat="45.802016" lon="10.0481021"><ele>423.5</ele><time>2026-03-29T09:29:16.967Z</time></trkpt><trkpt lat="45.8020824" lon="10.0480969"><ele>417.33333333333337</ele><time>2026-03-29T09:29:18.971Z</time></trkpt><trkpt lat="45.8021729" lon="10.0480601"><ele>411.1666666666667</ele><time>2026-03-29T09:29:21.961Z</time></trkpt><trkpt lat="45.8022355" lon="10.0480031"><ele>405.0</ele><time>2026-03-29T09:29:23.966Z</time></trkpt><trkpt lat="45.8022981" lon="10.0479058"><ele>405.0</ele><time>2026-03-29T09:29:25.968Z</time></trkpt><trkpt lat="45.8023403" lon="10.047829"><ele>405.0</ele><time>2026-03-29T09:29:26.973Z</time></trkpt><trkpt lat="45.802388" lon="10.0477268"><ele>405.0</ele><time>2026-03-29T09:29:28.966Z</time></trkpt><trkpt lat="45.8024165" lon="10.0476147"><ele>405.0</ele><time>2026-03-29T09:29:30.973Z</time></trkpt><trkpt lat="45.8024495" lon="10.047468"><ele>405.0</ele><time>2026-03-29T09:29:32.966Z</time></trkpt><trkpt lat="45.8024714" lon="10.0473474"><ele>405.0</ele><time>2026-03-29T09:29:33.966Z</time></trkpt><trkpt lat="45.8024848" lon="10.0472397"><ele>405.1666666666667</ele><time>2026-03-29T09:29:34.968Z</time></trkpt><trkpt lat="45.8024881" lon="10.0470901"><ele>405.33333333333337</ele><time>2026-03-29T09:29:36.968Z</time></trkpt><trkpt lat="45.8025083" lon="10.0469781"><ele>405.5</ele><time>2026-03-29T09:29:38.97Z</time></trkpt><trkpt lat="45.8025709" lon="10.0468291"><ele>405.6666666666667</ele><time>2026-03-29T09:29:40.971Z</time></trkpt><trkpt lat="45.8025816" lon="10.0467259"><ele>405.83333333333337</ele><time>2026-03-29T09:29:41.965Z</time></trkpt><trkpt lat="45.8025866" lon="10.0466262"><ele>406.0</ele><time>2026-03-29T09:29:42.97Z</time></trkpt><trkpt lat="45.8025863" lon="10.0465271"><ele>406.00000000000006</ele><time>2026-03-29T09:29:43.963Z</time></trkpt><trkpt lat="45.8025913" lon="10.0464349"><ele>406.0</ele><time>2026-03-29T09:29:44.968Z</time></trkpt><trkpt lat="45.8025997" lon="10.0463254"><ele>406.0</ele><time>2026-03-29T09:29:46.017Z</time></trkpt><trkpt lat="45.8026163" lon="10.0462237"><ele>406.0</ele><time>2026-03-29T09:29:46.953Z</time></trkpt><trkpt lat="45.8026478" lon="10.04612"><ele>406.00000000000006</ele><time>2026-03-29T09:29:47.967Z</time></trkpt><trkpt lat="45.8026834" lon="10.0460301"><ele>406.0</ele><time>2026-03-29T09:29:48.965Z</time></trkpt><trkpt lat="45.8027226" lon="10.0459219"><ele>400.6666666666667</ele><time>2026-03-29T09:29:49.979Z</time></trkpt><trkpt lat="45.8027538" lon="10.0458332"><ele>395.33333333333337</ele><time>2026-03-29T09:29:50.965Z</time></trkpt><trkpt lat="45.8027859" lon="10.0457542"><ele>390.0</ele><time>2026-03-29T09:29:51.97Z</time></trkpt><trkpt lat="45.8028279" lon="10.0456177"><ele>384.6666666666667</ele><time>2026-03-29T09:29:53.971Z</time></trkpt><trkpt lat="45.8028811" lon="10.0454615"><ele>379.33333333333337</ele><time>2026-03-29T09:29:55.966Z</time></trkpt><trkpt lat="45.8029157" lon="10.0453718"><ele>374.0</ele><time>2026-03-29T09:29:56.965Z</time></trkpt><trkpt lat="45.8029445" lon="10.0452881"><ele>374.0</ele><time>2026-03-29T09:29:57.963Z</time></trkpt><trkpt lat="45.8029746" lon="10.0452027"><ele>374.0</ele><time>2026-03-29T09:29:58.965Z</time></trkpt><trkpt lat="45.8030046" lon="10.0451179"><ele>374.0</ele><time>2026-03-29T09:29:59.968Z</time></trkpt><trkpt lat="45.8030493" lon="10.0450352"><ele>374.0</ele><time>2026-03-29T09:30:00.969Z</time></trkpt><trkpt lat="45.8031098" lon="10.0449524"><ele>374.0</ele><time>2026-03-29T09:30:01.967Z</time></trkpt><trkpt lat="45.8031707" lon="10.044879"><ele>374.0</ele><time>2026-03-29T09:30:03.021Z</time></trkpt><trkpt lat="45.8032309" lon="10.0448046"><ele>374.0</ele><time>2026-03-29T09:30:03.971Z</time></trkpt><trkpt lat="45.8032998" lon="10.044729"><ele>375.79999999999995</ele><time>2026-03-29T09:30:04.962Z</time></trkpt><trkpt lat="45.8033679" lon="10.0446419"><ele>377.59999999999997</ele><time>2026-03-29T09:30:05.963Z</time></trkpt><trkpt lat="45.8034312" lon="10.0445422"><ele>379.4</ele><time>2026-03-29T09:30:06.966Z</time></trkpt><trkpt lat="45.8035002" lon="10.0444281"><ele>381.2</ele><time>2026-03-29T09:30:08.024Z</time></trkpt><trkpt lat="45.8035629" lon="10.0443182"><ele>383.0</ele><time>2026-03-29T09:30:08.948Z</time></trkpt><trkpt lat="45.8036257" lon="10.0441984"><ele>378.5</ele><time>2026-03-29T09:30:09.955Z</time></trkpt><trkpt lat="45.8036821" lon="10.0440789"><ele>374.0</ele><time>2026-03-29T09:30:10.955Z</time></trkpt><trkpt lat="45.8037386" lon="10.0439663"><ele>369.5</ele><time>2026-03-29T09:30:11.958Z</time></trkpt><trkpt lat="45.8037952" lon="10.0438655"><ele>365.0</ele><time>2026-03-29T09:30:12.954Z</time></trkpt><trkpt lat="45.8038541" lon="10.0437748"><ele>360.5</ele><time>2026-03-29T09:30:13.957Z</time></trkpt><trkpt lat="45.8038982" lon="10.0437002"><ele>356.0</ele><time>2026-03-29T09:30:14.957Z</time></trkpt><trkpt lat="45.8039366" lon="10.0436244"><ele>356.0</ele><time>2026-03-29T09:30:15.957Z</time></trkpt><trkpt lat="45.804022" lon="10.0434885"><ele>356.0</ele><time>2026-03-29T09:30:17.957Z</time></trkpt><trkpt lat="45.8040782" lon="10.0434196"><ele>356.0</ele><time>2026-03-29T09:30:18.958Z</time></trkpt><trkpt lat="45.8041342" lon="10.0433429"><ele>356.0</ele><time>2026-03-29T09:30:20.028Z</time></trkpt><trkpt lat="45.8041885" lon="10.0432755"><ele>356.0</ele><time>2026-03-29T09:30:20.964Z</time></trkpt><trkpt lat="45.8042475" lon="10.0432104"><ele>356.0</ele><time>2026-03-29T09:30:22.072Z</time></trkpt><trkpt lat="45.8044014" lon="10.0430914"><ele>352.0</ele><time>2026-03-29T09:30:23.961Z</time></trkpt><trkpt lat="45.8044962" lon="10.0430307"><ele>348.0</ele><time>2026-03-29T09:30:24.962Z</time></trkpt><trkpt lat="45.8045924" lon="10.0429514"><ele>344.0</ele><time>2026-03-29T09:30:25.96Z</time></trkpt><trkpt lat="45.8046829" lon="10.0428559"><ele>340.0</ele><time>2026-03-29T09:30:26.957Z</time></trkpt><trkpt lat="45.8047472" lon="10.0427446"><ele>336.0</ele><time>2026-03-29T09:30:27.959Z</time></trkpt><trkpt lat="45.8047781" lon="10.0426298"><ele>336.0</ele><time>2026-03-29T09:30:28.956Z</time></trkpt><trkpt lat="45.804806" lon="10.0425185"><ele>336.0</ele><time>2026-03-29T09:30:29.959Z</time></trkpt><trkpt lat="45.8048362" lon="10.0424071"><ele>336.0</ele><time>2026-03-29T09:30:30.957Z</time></trkpt><trkpt lat="45.804873" lon="10.0423023"><ele>336.0</ele><time>2026-03-29T09:30:31.958Z</time></trkpt><trkpt lat="45.80491" lon="10.042189"><ele>336.0</ele><time>2026-03-29T09:30:32.954Z</time></trkpt><trkpt lat="45.8049545" lon="10.0420877"><ele>336.0</ele><time>2026-03-29T09:30:33.956Z</time></trkpt><trkpt lat="45.8050048" lon="10.0419813"><ele>334.8333333333333</ele><time>2026-03-29T09:30:34.956Z</time></trkpt><trkpt lat="45.8050508" lon="10.0418917"><ele>333.6666666666667</ele><time>2026-03-29T09:30:35.95Z</time></trkpt><trkpt lat="45.8050901" lon="10.0418137"><ele>332.5</ele><time>2026-03-29T09:30:36.968Z</time></trkpt><trkpt lat="45.805161" lon="10.0416839"><ele>331.33333333333337</ele><time>2026-03-29T09:30:38.956Z</time></trkpt><trkpt lat="45.8052131" lon="10.0415872"><ele>330.1666666666667</ele><time>2026-03-29T09:30:39.958Z</time></trkpt><trkpt lat="45.8052714" lon="10.0415032"><ele>329.0</ele><time>2026-03-29T09:30:40.959Z</time></trkpt><trkpt lat="45.8053341" lon="10.0414158"><ele>329.0</ele><time>2026-03-29T09:30:41.961Z</time></trkpt><trkpt lat="45.8053897" lon="10.0413281"><ele>329.0</ele><time>2026-03-29T09:30:42.956Z</time></trkpt><trkpt lat="45.8054325" lon="10.041249"><ele>329.0</ele><time>2026-03-29T09:30:43.956Z</time></trkpt><trkpt lat="45.8055038" lon="10.0411219"><ele>329.0</ele><time>2026-03-29T09:30:45.956Z</time></trkpt><trkpt lat="45.80556" lon="10.0410155"><ele>329.0</ele><time>2026-03-29T09:30:47.959Z</time></trkpt><trkpt lat="45.8056025" lon="10.0409325"><ele>329.0</ele><time>2026-03-29T09:30:49.957Z</time></trkpt><trkpt lat="45.805654" lon="10.0408702"><ele>330.7142857142857</ele><time>2026-03-29T09:30:52.961Z</time></trkpt><trkpt lat="45.8056158" lon="10.0407808"><ele>332.42857142857144</ele><time>2026-03-29T09:31:46.959Z</time></trkpt><trkpt lat="45.8055527" lon="10.0407339"><ele>334.1428571428571</ele><time>2026-03-29T09:31:51.034Z</time></trkpt><trkpt lat="45.8055063" lon="10.0406707"><ele>335.8571428571429</ele><time>2026-03-29T09:31:53.957Z</time></trkpt><trkpt lat="45.8054803" lon="10.0405744"><ele>337.57142857142856</ele><time>2026-03-29T09:31:58.95Z</time></trkpt><trkpt lat="45.8054866" lon="10.0404819"><ele>339.2857142857143</ele><time>2026-03-29T09:32:01.974Z</time></trkpt><trkpt lat="45.8054797" lon="10.0403689"><ele>341.0</ele><time>2026-03-29T09:32:05.952Z</time></trkpt><trkpt lat="45.8054501" lon="10.0402625"><ele>341.0</ele><time>2026-03-29T09:32:09.959Z</time></trkpt><trkpt lat="45.8054517" lon="10.0401694"><ele>341.0</ele><time>2026-03-29T09:32:12.952Z</time></trkpt><trkpt lat="45.8054571" lon="10.0400689"><ele>341.0</ele><time>2026-03-29T09:32:15.96Z</time></trkpt><trkpt lat="45.8054884" lon="10.0399653"><ele>341.0</ele><time>2026-03-29T09:32:19.959Z</time></trkpt><trkpt lat="45.8055155" lon="10.0398653"><ele>341.0</ele><time>2026-03-29T09:32:22.959Z</time></trkpt><trkpt lat="45.8055417" lon="10.0397599"><ele>341.0</ele><time>2026-03-29T09:32:25.949Z</time></trkpt><trkpt lat="45.8055845" lon="10.0396658"><ele>341.0</ele><time>2026-03-29T09:32:28.966Z</time></trkpt><trkpt lat="45.8056255" lon="10.0395722"><ele>343.2857142857143</ele><time>2026-03-29T09:32:31.957Z</time></trkpt><trkpt lat="45.8056511" lon="10.0394747"><ele>345.57142857142856</ele><time>2026-03-29T09:32:34.952Z</time></trkpt><trkpt lat="45.8056722" lon="10.03937"><ele>347.8571428571429</ele><time>2026-03-29T09:32:37.958Z</time></trkpt><trkpt lat="45.8056872" lon="10.0392619"><ele>350.1428571428571</ele><time>2026-03-29T09:32:40.957Z</time></trkpt><trkpt lat="45.8056871" lon="10.0391484"><ele>352.42857142857144</ele><time>2026-03-29T09:32:44.959Z</time></trkpt><trkpt lat="45.8056958" lon="10.0390407"><ele>354.7142857142857</ele><time>2026-03-29T09:32:50.954Z</time></trkpt><trkpt lat="45.8056878" lon="10.0389497"><ele>357.0</ele><time>2026-03-29T09:33:08.955Z</time></trkpt><trkpt lat="45.8057019" lon="10.0388572"><ele>359.3333333333333</ele><time>2026-03-29T09:33:47.96Z</time></trkpt><trkpt lat="45.8056857" lon="10.03876"><ele>361.6666666666667</ele><time>2026-03-29T09:33:52.955Z</time></trkpt><trkpt lat="45.8057103" lon="10.0386705"><ele>364.0</ele><time>2026-03-29T09:33:56.957Z</time></trkpt><trkpt lat="45.8057184" lon="10.0385535"><ele>366.33333333333337</ele><time>2026-03-29T09:34:00.962Z</time></trkpt><trkpt lat="45.8057305" lon="10.038427"><ele>368.6666666666667</ele><time>2026-03-29T09:34:04.952Z</time></trkpt><trkpt lat="45.8057573" lon="10.0383261"><ele>371.0</ele><time>2026-03-29T09:34:08.954Z</time></trkpt><trkpt lat="45.8057637" lon="10.0382091"><ele>371.5</ele><time>2026-03-29T09:34:11.941Z</time></trkpt><trkpt lat="45.8057604" lon="10.0380944"><ele>372.0</ele><time>2026-03-29T09:34:13.952Z</time></trkpt><trkpt lat="45.8057404" lon="10.0379718"><ele>372.5</ele><time>2026-03-29T09:34:15.954Z</time></trkpt><trkpt lat="45.8057203" lon="10.0378853"><ele>373.0</ele><time>2026-03-29T09:34:17.959Z</time></trkpt><trkpt lat="45.8056821" lon="10.0377729"><ele>373.5</ele><time>2026-03-29T09:34:20.956Z</time></trkpt><trkpt lat="45.8056544" lon="10.0376596"><ele>374.0</ele><time>2026-03-29T09:34:23.961Z</time></trkpt><trkpt lat="45.8056502" lon="10.037566"><ele>374.57142857142856</ele><time>2026-03-29T09:34:26.951Z</time></trkpt><trkpt lat="45.80562" lon="10.0374637"><ele>375.14285714285717</ele><time>2026-03-29T09:34:29.958Z</time></trkpt><trkpt lat="45.8056045" lon="10.0373689"><ele>375.7142857142857</ele><time>2026-03-29T09:34:32.95Z</time></trkpt><trkpt lat="45.8056148" lon="10.0372641"><ele>376.2857142857143</ele><time>2026-03-29T09:34:35.954Z</time></trkpt><trkpt lat="45.805598" lon="10.0371356"><ele>376.8571428571429</ele><time>2026-03-29T09:34:45.956Z</time></trkpt><trkpt lat="45.8055742" lon="10.0370465"><ele>377.42857142857144</ele><time>2026-03-29T09:34:48.957Z</time></trkpt><trkpt lat="45.8055414" lon="10.036966"><ele>378.0</ele><time>2026-03-29T09:34:51.964Z</time></trkpt><trkpt lat="45.8055181" lon="10.0368784"><ele>378.0</ele><time>2026-03-29T09:34:54.957Z</time></trkpt><trkpt lat="45.8054963" lon="10.0367861"><ele>378.0</ele><time>2026-03-29T09:34:57.958Z</time></trkpt><trkpt lat="45.8054925" lon="10.0366901"><ele>378.0</ele><time>2026-03-29T09:35:00.957Z</time></trkpt><trkpt lat="45.8055061" lon="10.0365764"><ele>378.0</ele><time>2026-03-29T09:35:04.957Z</time></trkpt><trkpt lat="45.8055161" lon="10.0364671"><ele>378.0</ele><time>2026-03-29T09:35:08.953Z</time></trkpt><trkpt lat="45.8055039" lon="10.0363581"><ele>378.0</ele><time>2026-03-29T09:35:12.959Z</time></trkpt><trkpt lat="45.8055159" lon="10.0362374"><ele>378.42857142857144</ele><time>2026-03-29T09:35:15.95Z</time></trkpt><trkpt lat="45.8055161" lon="10.0361423"><ele>378.8571428571429</ele><time>2026-03-29T09:35:17.954Z</time></trkpt><trkpt lat="45.8055037" lon="10.0360374"><ele>379.2857142857143</ele><time>2026-03-29T09:35:20.955Z</time></trkpt><trkpt lat="45.8054946" lon="10.0359181"><ele>379.7142857142857</ele><time>2026-03-29T09:35:24.948Z</time></trkpt><trkpt lat="45.8054832" lon="10.0358273"><ele>380.14285714285717</ele><time>2026-03-29T09:35:27.951Z</time></trkpt><trkpt lat="45.8054429" lon="10.0357543"><ele>380.57142857142856</ele><time>2026-03-29T09:35:31.946Z</time></trkpt><trkpt lat="45.8054001" lon="10.0356465"><ele>381.0</ele><time>2026-03-29T09:35:35.957Z</time></trkpt><trkpt lat="45.8053717" lon="10.0355495"><ele>381.0</ele><time>2026-03-29T09:35:38.957Z</time></trkpt><trkpt lat="45.8053238" lon="10.0354544"><ele>381.0</ele><time>2026-03-29T09:35:42.957Z</time></trkpt><trkpt lat="45.80528" lon="10.0353741"><ele>381.0</ele><time>2026-03-29T09:35:45.957Z</time></trkpt><trkpt lat="45.8052449" lon="10.0352901"><ele>381.0</ele><time>2026-03-29T09:35:48.963Z</time></trkpt><trkpt lat="45.8051989" lon="10.0352213"><ele>381.0</ele><time>2026-03-29T09:35:51.951Z</time></trkpt><trkpt lat="45.8051392" lon="10.0351216"><ele>381.0</ele><time>2026-03-29T09:39:20.958Z</time></trkpt><trkpt lat="45.8051111" lon="10.0350363"><ele>381.0</ele><time>2026-03-29T09:45:32.959Z</time></trkpt><trkpt lat="45.8051048" lon="10.0349351"><ele>385.3333333333333</ele><time>2026-03-29T09:45:37.96Z</time></trkpt><trkpt lat="45.8051302" lon="10.0348353"><ele>389.66666666666663</ele><time>2026-03-29T09:45:40.964Z</time></trkpt><trkpt lat="45.8051598" lon="10.0347375"><ele>394.0</ele><time>2026-03-29T09:45:42.96Z</time></trkpt><trkpt lat="45.8051485" lon="10.0346288"><ele>398.3333333333333</ele><time>2026-03-29T09:45:44.96Z</time></trkpt><trkpt lat="45.8050919" lon="10.034526"><ele>402.66666666666663</ele><time>2026-03-29T09:45:46.96Z</time></trkpt><trkpt lat="45.8050584" lon="10.0344282"><ele>407.0</ele><time>2026-03-29T09:45:49.95Z</time></trkpt><trkpt lat="45.805042" lon="10.0342972"><ele>406.99999999999994</ele><time>2026-03-29T09:45:57.958Z</time></trkpt><trkpt lat="45.8050576" lon="10.0341959"><ele>407.0</ele><time>2026-03-29T09:46:01.958Z</time></trkpt><trkpt lat="45.8050992" lon="10.034085"><ele>407.0</ele><time>2026-03-29T09:46:04.962Z</time></trkpt><trkpt lat="45.8051325" lon="10.0339787"><ele>407.0</ele><time>2026-03-29T09:46:06.952Z</time></trkpt><trkpt lat="45.8051393" lon="10.033844"><ele>406.99999999999994</ele><time>2026-03-29T09:46:07.959Z</time></trkpt><trkpt lat="45.8051458" lon="10.0337282"><ele>407.0</ele><time>2026-03-29T09:46:08.954Z</time></trkpt><trkpt lat="45.8051489" lon="10.0336203"><ele>406.49999999999994</ele><time>2026-03-29T09:46:09.955Z</time></trkpt><trkpt lat="45.8051488" lon="10.0335182"><ele>406.0</ele><time>2026-03-29T09:46:10.961Z</time></trkpt><trkpt lat="45.8051504" lon="10.0334095"><ele>405.5</ele><time>2026-03-29T09:46:11.956Z</time></trkpt><trkpt lat="45.8051685" lon="10.033313"><ele>405.0</ele><time>2026-03-29T09:46:12.965Z</time></trkpt><trkpt lat="45.8051789" lon="10.0332046"><ele>404.49999999999994</ele><time>2026-03-29T09:46:13.948Z</time></trkpt><trkpt lat="45.8051813" lon="10.0330844"><ele>404.0</ele><time>2026-03-29T09:46:14.96Z</time></trkpt><trkpt lat="45.8052133" lon="10.0329764"><ele>400.16666666666663</ele><time>2026-03-29T09:46:15.956Z</time></trkpt><trkpt lat="45.8052494" lon="10.0328566"><ele>396.3333333333333</ele><time>2026-03-29T09:46:16.959Z</time></trkpt><trkpt lat="45.8052879" lon="10.0327412"><ele>392.5</ele><time>2026-03-29T09:46:17.961Z</time></trkpt><trkpt lat="45.8053158" lon="10.0326166"><ele>388.66666666666663</ele><time>2026-03-29T09:46:18.957Z</time></trkpt><trkpt lat="45.8053455" lon="10.0325058"><ele>384.8333333333333</ele><time>2026-03-29T09:46:20.024Z</time></trkpt><trkpt lat="45.80536" lon="10.0324018"><ele>381.0</ele><time>2026-03-29T09:46:21.03Z</time></trkpt><trkpt lat="45.8053808" lon="10.0322881"><ele>380.5</ele><time>2026-03-29T09:46:22.958Z</time></trkpt><trkpt lat="45.8054046" lon="10.0321999"><ele>380.0</ele><time>2026-03-29T09:46:38.958Z</time></trkpt><trkpt lat="45.8054262" lon="10.0321029"><ele>379.5</ele><time>2026-03-29T09:47:04.962Z</time></trkpt><trkpt lat="45.8054548" lon="10.0320129"><ele>379.0</ele><time>2026-03-29T09:47:06.952Z</time></trkpt><trkpt lat="45.8054796" lon="10.0318653"><ele>378.5</ele><time>2026-03-29T09:47:08.981Z</time></trkpt><trkpt lat="45.8054852" lon="10.0317737"><ele>378.0</ele><time>2026-03-29T09:47:09.973Z</time></trkpt><trkpt lat="45.8054817" lon="10.0315999"><ele>377.8333333333333</ele><time>2026-03-29T09:47:11.963Z</time></trkpt><trkpt lat="45.8054494" lon="10.0314429"><ele>377.6666666666667</ele><time>2026-03-29T09:47:13.964Z</time></trkpt><trkpt lat="45.8054252" lon="10.0313531"><ele>377.5</ele><time>2026-03-29T09:47:14.964Z</time></trkpt><trkpt lat="45.8054023" lon="10.0312558"><ele>377.33333333333337</ele><time>2026-03-29T09:47:15.965Z</time></trkpt><trkpt lat="45.805367" lon="10.0311637"><ele>377.1666666666667</ele><time>2026-03-29T09:47:16.965Z</time></trkpt><trkpt lat="45.8053331" lon="10.031073"><ele>377.0</ele><time>2026-03-29T09:47:17.962Z</time></trkpt><trkpt lat="45.8053017" lon="10.0309813"><ele>376.99999999999994</ele><time>2026-03-29T09:47:18.963Z</time></trkpt><trkpt lat="45.8052805" lon="10.0308807"><ele>377.0</ele><time>2026-03-29T09:47:19.959Z</time></trkpt><trkpt lat="45.8052753" lon="10.0307789"><ele>377.0</ele><time>2026-03-29T09:47:20.948Z</time></trkpt><trkpt lat="45.8052624" lon="10.0306713"><ele>377.0</ele><time>2026-03-29T09:47:22.037Z</time></trkpt><trkpt lat="45.8052474" lon="10.0305702"><ele>377.0</ele><time>2026-03-29T09:47:23.036Z</time></trkpt><trkpt lat="45.8052268" lon="10.0304685"><ele>376.99999999999994</ele><time>2026-03-29T09:47:23.951Z</time></trkpt><trkpt lat="45.8051998" lon="10.0303729"><ele>377.0</ele><time>2026-03-29T09:47:24.955Z</time></trkpt><trkpt lat="45.8051724" lon="10.0302769"><ele>376.6666666666667</ele><time>2026-03-29T09:47:25.979Z</time></trkpt><trkpt lat="45.8051521" lon="10.0301826"><ele>376.33333333333337</ele><time>2026-03-29T09:47:27.026Z</time></trkpt><trkpt lat="45.8051473" lon="10.0300843"><ele>376.0</ele><time>2026-03-29T09:47:28.025Z</time></trkpt><trkpt lat="45.8051751" lon="10.0299969"><ele>375.6666666666667</ele><time>2026-03-29T09:47:28.964Z</time></trkpt><trkpt lat="45.8052191" lon="10.0299104"><ele>375.3333333333333</ele><time>2026-03-29T09:47:29.957Z</time></trkpt><trkpt lat="45.8053321" lon="10.0298317"><ele>375.0</ele><time>2026-03-29T09:47:32.038Z</time></trkpt><trkpt lat="45.8053885" lon="10.0297873"><ele>374.6</ele><time>2026-03-29T09:47:33.025Z</time></trkpt><trkpt lat="45.8054944" lon="10.0297029"><ele>374.2</ele><time>2026-03-29T09:47:34.966Z</time></trkpt><trkpt lat="45.8055589" lon="10.0296116"><ele>373.79999999999995</ele><time>2026-03-29T09:47:36.977Z</time></trkpt><trkpt lat="45.8056253" lon="10.0295817"><ele>373.4</ele><time>2026-03-29T09:47:38.961Z</time></trkpt><trkpt lat="45.8057328" lon="10.0296179"><ele>373.0</ele><time>2026-03-29T09:47:41.023Z</time></trkpt><trkpt lat="45.8058298" lon="10.0297191"><ele>373.0</ele><time>2026-03-29T09:47:42.961Z</time></trkpt><trkpt lat="45.8059391" lon="10.0297489"><ele>373.0</ele><time>2026-03-29T09:47:44.964Z</time></trkpt><trkpt lat="45.8060035" lon="10.0297076"><ele>373.0</ele><time>2026-03-29T09:47:45.962Z</time></trkpt><trkpt lat="45.8060732" lon="10.0296767"><ele>373.0</ele><time>2026-03-29T09:47:46.962Z</time></trkpt><trkpt lat="45.8061544" lon="10.0296736"><ele>373.0</ele><time>2026-03-29T09:47:47.964Z</time></trkpt><trkpt lat="45.8062415" lon="10.0296656"><ele>373.0</ele><time>2026-03-29T09:47:48.987Z</time></trkpt><trkpt lat="45.8063302" lon="10.0296661"><ele>371.0</ele><time>2026-03-29T09:47:49.962Z</time></trkpt><trkpt lat="45.8064175" lon="10.0296646"><ele>369.0</ele><time>2026-03-29T09:47:51.031Z</time></trkpt><trkpt lat="45.8065029" lon="10.0296641"><ele>367.0</ele><time>2026-03-29T09:47:52.046Z</time></trkpt><trkpt lat="45.8065853" lon="10.0296565"><ele>365.0</ele><time>2026-03-29T09:47:52.965Z</time></trkpt><trkpt lat="45.8066635" lon="10.0296281"><ele>363.0</ele><time>2026-03-29T09:47:53.963Z</time></trkpt><trkpt lat="45.8067368" lon="10.0295625"><ele>361.0</ele><time>2026-03-29T09:47:54.966Z</time></trkpt><trkpt lat="45.8068173" lon="10.0294878"><ele>359.6</ele><time>2026-03-29T09:47:55.961Z</time></trkpt><trkpt lat="45.8069119" lon="10.0294289"><ele>358.20000000000005</ele><time>2026-03-29T09:47:56.968Z</time></trkpt><trkpt lat="45.8070034" lon="10.0293678"><ele>356.79999999999995</ele><time>2026-03-29T09:47:57.962Z</time></trkpt><trkpt lat="45.8071038" lon="10.0293096"><ele>355.4</ele><time>2026-03-29T09:47:58.964Z</time></trkpt><trkpt lat="45.8071941" lon="10.0292495"><ele>354.0</ele><time>2026-03-29T09:47:59.964Z</time></trkpt><trkpt lat="45.8072806" lon="10.0291734"><ele>353.6</ele><time>2026-03-29T09:48:01.04Z</time></trkpt><trkpt lat="45.8073597" lon="10.0290887"><ele>353.2</ele><time>2026-03-29T09:48:02.03Z</time></trkpt><trkpt lat="45.8074405" lon="10.0290138"><ele>352.8</ele><time>2026-03-29T09:48:02.963Z</time></trkpt><trkpt lat="45.8075434" lon="10.0289653"><ele>352.40000000000003</ele><time>2026-03-29T09:48:03.958Z</time></trkpt><trkpt lat="45.8076544" lon="10.0289622"><ele>352.0</ele><time>2026-03-29T09:48:04.962Z</time></trkpt><trkpt lat="45.8077651" lon="10.029001"><ele>351.3333333333333</ele><time>2026-03-29T09:48:06.019Z</time></trkpt><trkpt lat="45.8078525" lon="10.0290376"><ele>350.66666666666663</ele><time>2026-03-29T09:48:06.958Z</time></trkpt><trkpt lat="45.8079201" lon="10.0290356"><ele>350.0</ele><time>2026-03-29T09:48:07.993Z</time></trkpt><trkpt lat="45.8080187" lon="10.028982"><ele>349.3333333333333</ele><time>2026-03-29T09:48:09.966Z</time></trkpt><trkpt lat="45.8080809" lon="10.0289538"><ele>348.6666666666667</ele><time>2026-03-29T09:48:12.06Z</time></trkpt><trkpt lat="45.8081427" lon="10.0288858"><ele>348.0</ele><time>2026-03-29T09:48:16.041Z</time></trkpt><trkpt lat="45.8081533" lon="10.028772"><ele>348.0</ele><time>2026-03-29T09:48:18.971Z</time></trkpt><trkpt lat="45.8081483" lon="10.0286447"><ele>348.0</ele><time>2026-03-29T09:48:21.965Z</time></trkpt><trkpt lat="45.8081272" lon="10.0285452"><ele>348.0</ele><time>2026-03-29T09:48:23.969Z</time></trkpt><trkpt lat="45.8080834" lon="10.0284392"><ele>348.0</ele><time>2026-03-29T09:48:25.968Z</time></trkpt><trkpt lat="45.8080412" lon="10.0283288"><ele>348.0</ele><time>2026-03-29T09:48:27.967Z</time></trkpt><trkpt lat="45.8080021" lon="10.0282226"><ele>348.0</ele><time>2026-03-29T09:48:29.965Z</time></trkpt><trkpt lat="45.8079539" lon="10.028129"><ele>347.79999999999995</ele><time>2026-03-29T09:48:31.966Z</time></trkpt><trkpt lat="45.8078974" lon="10.0280218"><ele>347.6</ele><time>2026-03-29T09:48:33.967Z</time></trkpt><trkpt lat="45.8078381" lon="10.0279186"><ele>347.4</ele><time>2026-03-29T09:48:36.034Z</time></trkpt><trkpt lat="45.8077643" lon="10.0278133"><ele>347.20000000000005</ele><time>2026-03-29T09:48:38.031Z</time></trkpt><trkpt lat="45.8076948" lon="10.0277257"><ele>347.0</ele><time>2026-03-29T09:48:39.948Z</time></trkpt><trkpt lat="45.8076142" lon="10.0276318"><ele>347.0</ele><time>2026-03-29T09:48:41.954Z</time></trkpt><trkpt lat="45.8075354" lon="10.0275299"><ele>347.0</ele><time>2026-03-29T09:48:43.948Z</time></trkpt><trkpt lat="45.8074467" lon="10.0274418"><ele>347.0</ele><time>2026-03-29T09:48:46.031Z</time></trkpt><trkpt lat="45.8073665" lon="10.027348"><ele>347.0</ele><time>2026-03-29T09:48:48.043Z</time></trkpt><trkpt lat="45.8072854" lon="10.027261"><ele>347.0</ele><time>2026-03-29T09:48:50.027Z</time></trkpt><trkpt lat="45.8072008" lon="10.0271615"><ele>346.40000000000003</ele><time>2026-03-29T09:48:51.945Z</time></trkpt><trkpt lat="45.8071289" lon="10.0270528"><ele>345.8</ele><time>2026-03-29T09:48:53.953Z</time></trkpt><trkpt lat="45.8070618" lon="10.0269533"><ele>345.2</ele><time>2026-03-29T09:48:56.032Z</time></trkpt><trkpt lat="45.8069941" lon="10.0268289"><ele>344.6</ele><time>2026-03-29T09:48:58.032Z</time></trkpt><trkpt lat="45.8069264" lon="10.0266944"><ele>344.0</ele><time>2026-03-29T09:48:59.955Z</time></trkpt><trkpt lat="45.8068634" lon="10.0265718"><ele>344.6</ele><time>2026-03-29T09:49:02.024Z</time></trkpt><trkpt lat="45.8067995" lon="10.0264508"><ele>345.2</ele><time>2026-03-29T09:49:03.953Z</time></trkpt><trkpt lat="45.8067448" lon="10.0263213"><ele>345.8</ele><time>2026-03-29T09:49:06.03Z</time></trkpt><trkpt lat="45.8066818" lon="10.0261934"><ele>346.40000000000003</ele><time>2026-03-29T09:49:08.033Z</time></trkpt><trkpt lat="45.8066149" lon="10.0260594"><ele>347.0</ele><time>2026-03-29T09:49:09.958Z</time></trkpt><trkpt lat="45.8065373" lon="10.0258288"><ele>346.33333333333337</ele><time>2026-03-29T09:49:12.958Z</time></trkpt><trkpt lat="45.8064662" lon="10.0256805"><ele>345.6666666666667</ele><time>2026-03-29T09:49:14.945Z</time></trkpt><trkpt lat="45.8064282" lon="10.0256004"><ele>345.0</ele><time>2026-03-29T09:49:15.946Z</time></trkpt><trkpt lat="45.8063864" lon="10.0255167"><ele>344.3333333333333</ele><time>2026-03-29T09:49:16.94Z</time></trkpt><trkpt lat="45.8063408" lon="10.0254481"><ele>343.66666666666663</ele><time>2026-03-29T09:49:17.947Z</time></trkpt><trkpt lat="45.8062944" lon="10.0253858"><ele>343.0</ele><time>2026-03-29T09:49:18.954Z</time></trkpt><trkpt lat="45.8062344" lon="10.0252527"><ele>343.0</ele><time>2026-03-29T09:49:20.952Z</time></trkpt><trkpt lat="45.8061833" lon="10.0251139"><ele>343.0</ele><time>2026-03-29T09:49:22.95Z</time></trkpt><trkpt lat="45.8061096" lon="10.0249804"><ele>343.0</ele><time>2026-03-29T09:49:24.96Z</time></trkpt><trkpt lat="45.8060446" lon="10.0248529"><ele>343.0</ele><time>2026-03-29T09:49:27.036Z</time></trkpt><trkpt lat="45.8059797" lon="10.0247262"><ele>343.0</ele><time>2026-03-29T09:49:28.953Z</time></trkpt><trkpt lat="45.805929" lon="10.0246616"><ele>343.4</ele><time>2026-03-29T09:49:29.954Z</time></trkpt><trkpt lat="45.8058817" lon="10.0246"><ele>343.79999999999995</ele><time>2026-03-29T09:49:30.955Z</time></trkpt><trkpt lat="45.8058011" lon="10.024485"><ele>344.2</ele><time>2026-03-29T09:49:33.021Z</time></trkpt><trkpt lat="45.8057178" lon="10.0244027"><ele>344.6</ele><time>2026-03-29T09:49:34.954Z</time></trkpt><trkpt lat="45.8056322" lon="10.0243064"><ele>345.0</ele><time>2026-03-29T09:49:36.957Z</time></trkpt><trkpt lat="45.805529" lon="10.0242096"><ele>344.8</ele><time>2026-03-29T09:49:38.96Z</time></trkpt><trkpt lat="45.8054226" lon="10.0241272"><ele>344.6</ele><time>2026-03-29T09:49:40.986Z</time></trkpt><trkpt lat="45.805325" lon="10.0240308"><ele>344.4</ele><time>2026-03-29T09:49:43.035Z</time></trkpt><trkpt lat="45.805224" lon="10.0239368"><ele>344.2</ele><time>2026-03-29T09:49:44.946Z</time></trkpt><trkpt lat="45.8051656" lon="10.0238947"><ele>344.0</ele><time>2026-03-29T09:49:45.955Z</time></trkpt><trkpt lat="45.8050571" lon="10.0238032"><ele>344.75</ele><time>2026-03-29T09:49:48.03Z</time></trkpt><trkpt lat="45.8049561" lon="10.0237034"><ele>345.5</ele><time>2026-03-29T09:49:50.032Z</time></trkpt><trkpt lat="45.8048594" lon="10.0236005"><ele>346.25</ele><time>2026-03-29T09:49:51.963Z</time></trkpt><trkpt lat="45.804772" lon="10.0234992"><ele>347.0</ele><time>2026-03-29T09:49:53.963Z</time></trkpt><trkpt lat="45.8046919" lon="10.0233867"><ele>346.5</ele><time>2026-03-29T09:49:55.951Z</time></trkpt><trkpt lat="45.804613" lon="10.0232775"><ele>346.0</ele><time>2026-03-29T09:49:58.028Z</time></trkpt><trkpt lat="45.8045296" lon="10.0231534"><ele>345.5</ele><time>2026-03-29T09:49:59.945Z</time></trkpt><trkpt lat="45.8044503" lon="10.0230152"><ele>345.0</ele><time>2026-03-29T09:50:01.946Z</time></trkpt><trkpt lat="45.8043783" lon="10.0228847"><ele>345.0</ele><time>2026-03-29T09:50:03.947Z</time></trkpt><trkpt lat="45.8043396" lon="10.0228131"><ele>345.0</ele><time>2026-03-29T09:50:04.95Z</time></trkpt><trkpt lat="45.8042688" lon="10.0226886"><ele>345.0</ele><time>2026-03-29T09:50:07.032Z</time></trkpt><trkpt lat="45.8041968" lon="10.0225617"><ele>345.0</ele><time>2026-03-29T09:50:08.955Z</time></trkpt><trkpt lat="45.8041296" lon="10.0224401"><ele>345.0</ele><time>2026-03-29T09:50:11.065Z</time></trkpt><trkpt lat="45.8040587" lon="10.0223101"><ele>344.75</ele><time>2026-03-29T09:50:12.957Z</time></trkpt><trkpt lat="45.8039776" lon="10.0221788"><ele>344.5</ele><time>2026-03-29T09:50:14.952Z</time></trkpt><trkpt lat="45.8039085" lon="10.0220494"><ele>344.25</ele><time>2026-03-29T09:50:17.033Z</time></trkpt><trkpt lat="45.8038324" lon="10.0219333"><ele>344.0</ele><time>2026-03-29T09:50:18.961Z</time></trkpt><trkpt lat="45.8037503" lon="10.021836"><ele>344.0</ele><time>2026-03-29T09:50:21.051Z</time></trkpt><trkpt lat="45.8036667" lon="10.0217291"><ele>344.0</ele><time>2026-03-29T09:50:23.027Z</time></trkpt><trkpt lat="45.8035919" lon="10.0216216"><ele>344.0</ele><time>2026-03-29T09:50:24.959Z</time></trkpt><trkpt lat="45.803518" lon="10.0215253"><ele>344.0</ele><time>2026-03-29T09:50:26.977Z</time></trkpt><trkpt lat="45.8034257" lon="10.0214566"><ele>344.0</ele><time>2026-03-29T09:50:28.956Z</time></trkpt><trkpt lat="45.8033274" lon="10.0213813"><ele>344.2</ele><time>2026-03-29T09:50:30.954Z</time></trkpt><trkpt lat="45.8032368" lon="10.0213054"><ele>344.4</ele><time>2026-03-29T09:50:33.029Z</time></trkpt><trkpt lat="45.8031335" lon="10.0212438"><ele>344.6</ele><time>2026-03-29T09:50:34.946Z</time></trkpt><trkpt lat="45.8030378" lon="10.0211786"><ele>344.8</ele><time>2026-03-29T09:50:36.959Z</time></trkpt><trkpt lat="45.8029293" lon="10.0211133"><ele>345.0</ele><time>2026-03-29T09:50:38.958Z</time></trkpt><trkpt lat="45.802823" lon="10.0210485"><ele>345.0</ele><time>2026-03-29T09:50:40.952Z</time></trkpt><trkpt lat="45.8027197" lon="10.0209765"><ele>345.0</ele><time>2026-03-29T09:50:42.957Z</time></trkpt><trkpt lat="45.8026132" lon="10.0209164"><ele>345.0</ele><time>2026-03-29T09:50:44.95Z</time></trkpt><trkpt lat="45.8025157" lon="10.0208604"><ele>345.0</ele><time>2026-03-29T09:50:46.958Z</time></trkpt><trkpt lat="45.8024118" lon="10.0208132"><ele>345.0</ele><time>2026-03-29T09:50:48.949Z</time></trkpt><trkpt lat="45.8023067" lon="10.0207634"><ele>345.0</ele><time>2026-03-29T09:50:50.949Z</time></trkpt><trkpt lat="45.8022123" lon="10.0207077"><ele>345.0</ele><time>2026-03-29T09:50:52.995Z</time></trkpt><trkpt lat="45.8021008" lon="10.0206463"><ele>345.0</ele><time>2026-03-29T09:50:54.954Z</time></trkpt><trkpt lat="45.8019955" lon="10.0205709"><ele>345.0</ele><time>2026-03-29T09:50:57.029Z</time></trkpt><trkpt lat="45.8018901" lon="10.0205112"><ele>345.0</ele><time>2026-03-29T09:50:58.966Z</time></trkpt><trkpt lat="45.8017854" lon="10.0204533"><ele>345.0</ele><time>2026-03-29T09:51:01.035Z</time></trkpt><trkpt lat="45.801679" lon="10.0203963"><ele>345.0</ele><time>2026-03-29T09:51:03.035Z</time></trkpt><trkpt lat="45.8015657" lon="10.0203307"><ele>345.0</ele><time>2026-03-29T09:51:04.96Z</time></trkpt><trkpt lat="45.8014558" lon="10.0202661"><ele>345.0</ele><time>2026-03-29T09:51:07.053Z</time></trkpt><trkpt lat="45.8013442" lon="10.0201897"><ele>345.0</ele><time>2026-03-29T09:51:08.957Z</time></trkpt><trkpt lat="45.8012917" lon="10.0201395"><ele>345.0</ele><time>2026-03-29T09:51:09.955Z</time></trkpt><trkpt lat="45.8011905" lon="10.0200389"><ele>345.0</ele><time>2026-03-29T09:51:12.027Z</time></trkpt><trkpt lat="45.801108" lon="10.0199172"><ele>345.0</ele><time>2026-03-29T09:51:13.959Z</time></trkpt><trkpt lat="45.8010663" lon="10.0198459"><ele>344.5</ele><time>2026-03-29T09:51:14.96Z</time></trkpt><trkpt lat="45.8010266" lon="10.0197748"><ele>344.0</ele><time>2026-03-29T09:51:15.949Z</time></trkpt><trkpt lat="45.8009605" lon="10.0196237"><ele>343.5</ele><time>2026-03-29T09:51:17.953Z</time></trkpt><trkpt lat="45.8009018" lon="10.0194657"><ele>343.0</ele><time>2026-03-29T09:51:20.031Z</time></trkpt><trkpt lat="45.8008773" lon="10.0193803"><ele>342.5</ele><time>2026-03-29T09:51:21.02Z</time></trkpt><trkpt lat="45.800853" lon="10.0192936"><ele>342.0</ele><time>2026-03-29T09:51:22.041Z</time></trkpt><trkpt lat="45.8008343" lon="10.0192019"><ele>342.0</ele><time>2026-03-29T09:51:23.031Z</time></trkpt><trkpt lat="45.8008201" lon="10.0191126"><ele>342.0</ele><time>2026-03-29T09:51:23.95Z</time></trkpt><trkpt lat="45.8007837" lon="10.0189428"><ele>342.0</ele><time>2026-03-29T09:51:25.958Z</time></trkpt><trkpt lat="45.8007587" lon="10.0187864"><ele>342.0</ele><time>2026-03-29T09:51:27.955Z</time></trkpt><trkpt lat="45.8007305" lon="10.0186432"><ele>342.0</ele><time>2026-03-29T09:51:29.951Z</time></trkpt><trkpt lat="45.800666" lon="10.0185307"><ele>342.0</ele><time>2026-03-29T09:51:31.952Z</time></trkpt><trkpt lat="45.8005838" lon="10.0184697"><ele>342.0</ele><time>2026-03-29T09:51:33.951Z</time></trkpt><trkpt lat="45.8004884" lon="10.0184398"><ele>342.0</ele><time>2026-03-29T09:51:35.955Z</time></trkpt><trkpt lat="45.8003953" lon="10.0184201"><ele>342.0</ele><time>2026-03-29T09:51:38.03Z</time></trkpt><trkpt lat="45.8003244" lon="10.0183919"><ele>342.0</ele><time>2026-03-29T09:51:39.939Z</time></trkpt><trkpt lat="45.8002562" lon="10.0184049"><ele>342.0</ele><time>2026-03-29T09:51:41.953Z</time></trkpt><trkpt lat="45.8001868" lon="10.0184739"><ele>342.3333333333333</ele><time>2026-03-29T09:51:43.957Z</time></trkpt><trkpt lat="45.8001197" lon="10.0185539"><ele>342.6666666666667</ele><time>2026-03-29T09:51:45.951Z</time></trkpt><trkpt lat="45.8000599" lon="10.0186282"><ele>343.0</ele><time>2026-03-29T09:51:47.961Z</time></trkpt><trkpt lat="45.8000232" lon="10.0187026"><ele>343.33333333333337</ele><time>2026-03-29T09:51:52.963Z</time></trkpt><trkpt lat="45.8000053" lon="10.0188389"><ele>343.6666666666667</ele><time>2026-03-29T09:51:55.951Z</time></trkpt><trkpt lat="45.7999589" lon="10.0189574"><ele>344.0</ele><time>2026-03-29T09:51:58.953Z</time></trkpt><trkpt lat="45.7999001" lon="10.0189981"><ele>344.0</ele><time>2026-03-29T09:52:00.957Z</time></trkpt><trkpt lat="45.7998262" lon="10.0189542"><ele>344.0</ele><time>2026-03-29T09:52:02.959Z</time></trkpt><trkpt lat="45.7997462" lon="10.01889"><ele>344.0</ele><time>2026-03-29T09:52:05.957Z</time></trkpt><trkpt lat="45.7996979" lon="10.0188294"><ele>344.0</ele><time>2026-03-29T09:52:07.951Z</time></trkpt><trkpt lat="45.7996482" lon="10.0187702"><ele>344.0</ele><time>2026-03-29T09:52:09.948Z</time></trkpt><trkpt lat="45.7995654" lon="10.0187103"><ele>344.0</ele><time>2026-03-29T09:52:13.029Z</time></trkpt><trkpt lat="45.7994806" lon="10.0186649"><ele>344.0</ele><time>2026-03-29T09:52:15.957Z</time></trkpt><trkpt lat="45.7994154" lon="10.0185992"><ele>344.0</ele><time>2026-03-29T09:52:18.964Z</time></trkpt><trkpt lat="45.7993579" lon="10.0185"><ele>344.0</ele><time>2026-03-29T09:52:21.962Z</time></trkpt><trkpt lat="45.7993473" lon="10.0184017"><ele>344.0</ele><time>2026-03-29T09:53:47.956Z</time></trkpt><trkpt lat="45.7993043" lon="10.0184701"><ele>344.0</ele><time>2026-03-29T09:57:21.95Z</time></trkpt><trkpt lat="45.7993743" lon="10.0185053"><ele>344.0</ele><time>2026-03-29T09:57:31.948Z</time></trkpt><trkpt lat="45.7994469" lon="10.0184848"><ele>344.00000000000006</ele><time>2026-03-29T09:57:36.95Z</time></trkpt><trkpt lat="45.7995135" lon="10.0184882"><ele>344.0</ele><time>2026-03-29T09:57:40.95Z</time></trkpt><trkpt lat="45.7995762" lon="10.0184552"><ele>344.0</ele><time>2026-03-29T09:57:45.957Z</time></trkpt><trkpt lat="45.7996274" lon="10.0183787"><ele>344.0</ele><time>2026-03-29T09:57:50.951Z</time></trkpt><trkpt lat="45.7996688" lon="10.0183009"><ele>344.0</ele><time>2026-03-29T09:57:54.951Z</time></trkpt><trkpt lat="45.7997085" lon="10.0182266"><ele>344.00000000000006</ele><time>2026-03-29T09:57:59.95Z</time></trkpt><trkpt lat="45.7996609" lon="10.0182926"><ele>344.0</ele><time>2026-03-29T09:58:06.946Z</time></trkpt><trkpt lat="45.7996183" lon="10.0183823"><ele>344.00000000000006</ele><time>2026-03-29T09:58:10.955Z</time></trkpt><trkpt lat="45.7995591" lon="10.0184463"><ele>344.0</ele><time>2026-03-29T09:58:15.946Z</time></trkpt><trkpt lat="45.7994848" lon="10.0184845"><ele>344.0</ele><time>2026-03-29T09:58:19.948Z</time></trkpt><trkpt lat="45.799407" lon="10.0184925"><ele>344.0</ele><time>2026-03-29T09:58:22.942Z</time></trkpt><trkpt lat="45.7993426" lon="10.0184804"><ele>344.0</ele><time>2026-03-29T09:58:25.961Z</time></trkpt><trkpt lat="45.7993283" lon="10.0185812"><ele>344.00000000000006</ele><time>2026-03-29T09:58:37.95Z</time></trkpt><trkpt lat="45.7993934" lon="10.0186433"><ele>344.0</ele><time>2026-03-29T09:58:41.946Z</time></trkpt><trkpt lat="45.7994708" lon="10.0187"><ele>344.00000000000006</ele><time>2026-03-29T09:58:45.952Z</time></trkpt><trkpt lat="45.7995337" lon="10.0187487"><ele>344.0</ele><time>2026-03-29T09:58:48.955Z</time></trkpt><trkpt lat="45.7995951" lon="10.0187967"><ele>344.0</ele><time>2026-03-29T09:58:51.95Z</time></trkpt><trkpt lat="45.7996588" lon="10.0188423"><ele>344.0</ele><time>2026-03-29T09:58:54.95Z</time></trkpt><trkpt lat="45.7997054" lon="10.0189127"><ele>344.0</ele><time>2026-03-29T09:58:57.944Z</time></trkpt><trkpt lat="45.7997359" lon="10.0190127"><ele>344.00000000000006</ele><time>2026-03-29T09:59:01.948Z</time></trkpt><trkpt lat="45.7996669" lon="10.019049"><ele>344.0</ele><time>2026-03-29T09:59:07.947Z</time></trkpt><trkpt lat="45.7996033" lon="10.0190673"><ele>344.0</ele><time>2026-03-29T09:59:10.951Z</time></trkpt><trkpt lat="45.7995379" lon="10.0191062"><ele>344.0</ele><time>2026-03-29T09:59:14.947Z</time></trkpt><trkpt lat="45.7994723" lon="10.0191359"><ele>344.0</ele><time>2026-03-29T09:59:18.95Z</time></trkpt><trkpt lat="45.7993924" lon="10.0191637"><ele>344.0</ele><time>2026-03-29T09:59:22.955Z</time></trkpt><trkpt lat="45.7993102" lon="10.0191982"><ele>344.0</ele><time>2026-03-29T09:59:26.949Z</time></trkpt><trkpt lat="45.7992299" lon="10.0192299"><ele>344.0</ele><time>2026-03-29T09:59:30.951Z</time></trkpt><trkpt lat="45.7991537" lon="10.0192697"><ele>345.33333333333337</ele><time>2026-03-29T09:59:35.942Z</time></trkpt><trkpt lat="45.7990768" lon="10.0192728"><ele>346.6666666666667</ele><time>2026-03-29T09:59:39.947Z</time></trkpt><trkpt lat="45.7989981" lon="10.0192793"><ele>348.0</ele><time>2026-03-29T09:59:43.946Z</time></trkpt><trkpt lat="45.7989203" lon="10.0192756"><ele>349.3333333333333</ele><time>2026-03-29T09:59:47.952Z</time></trkpt><trkpt lat="45.7989812" lon="10.0193437"><ele>350.66666666666663</ele><time>2026-03-29T09:59:57.946Z</time></trkpt><trkpt lat="45.799069" lon="10.0193529"><ele>352.0</ele><time>2026-03-29T10:00:00.943Z</time></trkpt><trkpt lat="45.7991353" lon="10.0193368"><ele>352.0</ele><time>2026-03-29T10:00:02.949Z</time></trkpt><trkpt lat="45.7992233" lon="10.0192802"><ele>352.0</ele><time>2026-03-29T10:00:04.956Z</time></trkpt><trkpt lat="45.7993445" lon="10.019223"><ele>352.0</ele><time>2026-03-29T10:00:07.035Z</time></trkpt><trkpt lat="45.7994093" lon="10.0192051"><ele>352.0</ele><time>2026-03-29T10:00:07.945Z</time></trkpt><trkpt lat="45.7995294" lon="10.0191693"><ele>352.0</ele><time>2026-03-29T10:00:09.952Z</time></trkpt><trkpt lat="45.7996449" lon="10.0191402"><ele>350.66666666666663</ele><time>2026-03-29T10:00:11.954Z</time></trkpt><trkpt lat="45.7997365" lon="10.0190902"><ele>349.3333333333333</ele><time>2026-03-29T10:00:13.953Z</time></trkpt><trkpt lat="45.7997821" lon="10.0190003"><ele>348.0</ele><time>2026-03-29T10:00:15.959Z</time></trkpt><trkpt lat="45.7997372" lon="10.0189077"><ele>346.6666666666667</ele><time>2026-03-29T10:00:17.947Z</time></trkpt><trkpt lat="45.7996933" lon="10.0188292"><ele>345.33333333333337</ele><time>2026-03-29T10:00:19.94Z</time></trkpt><trkpt lat="45.7996375" lon="10.0187615"><ele>344.0</ele><time>2026-03-29T10:00:22.037Z</time></trkpt><trkpt lat="45.7995621" lon="10.0186954"><ele>344.00000000000006</ele><time>2026-03-29T10:00:24.025Z</time></trkpt><trkpt lat="45.7994977" lon="10.018646"><ele>344.0</ele><time>2026-03-29T10:00:25.956Z</time></trkpt><trkpt lat="45.799432" lon="10.0186022"><ele>344.0</ele><time>2026-03-29T10:00:27.959Z</time></trkpt><trkpt lat="45.7993744" lon="10.0185494"><ele>344.0</ele><time>2026-03-29T10:00:29.956Z</time></trkpt><trkpt lat="45.7993089" lon="10.0185282"><ele>344.0</ele><time>2026-03-29T10:00:31.957Z</time></trkpt><trkpt lat="45.799222" lon="10.0184897"><ele>344.00000000000006</ele><time>2026-03-29T10:00:34.951Z</time></trkpt><trkpt lat="45.7991535" lon="10.0184533"><ele>344.0</ele><time>2026-03-29T10:00:37.954Z</time></trkpt><trkpt lat="45.7990791" lon="10.018411"><ele>344.0</ele><time>2026-03-29T10:00:40.957Z</time></trkpt><trkpt lat="45.7990085" lon="10.0183478"><ele>344.0</ele><time>2026-03-29T10:00:44.009Z</time></trkpt><trkpt lat="45.7989414" lon="10.0182895"><ele>344.0</ele><time>2026-03-29T10:00:46.952Z</time></trkpt><trkpt lat="45.798879" lon="10.0182213"><ele>344.0</ele><time>2026-03-29T10:00:49.949Z</time></trkpt><trkpt lat="45.798796" lon="10.0181684"><ele>344.0</ele><time>2026-03-29T10:00:52.956Z</time></trkpt><trkpt lat="45.7987348" lon="10.0181136"><ele>344.0</ele><time>2026-03-29T10:00:55.948Z</time></trkpt><trkpt lat="45.7986796" lon="10.0180637"><ele>344.0</ele><time>2026-03-29T10:00:58.945Z</time></trkpt><trkpt lat="45.7986102" lon="10.0180254"><ele>344.0</ele><time>2026-03-29T10:01:01.956Z</time></trkpt><trkpt lat="45.7985551" lon="10.0179704"><ele>344.0</ele><time>2026-03-29T10:01:04.952Z</time></trkpt><trkpt lat="45.7984823" lon="10.0179241"><ele>344.0</ele><time>2026-03-29T10:01:08.951Z</time></trkpt><trkpt lat="45.7984027" lon="10.0178767"><ele>344.0</ele><time>2026-03-29T10:01:11.952Z</time></trkpt><trkpt lat="45.7983368" lon="10.0178426"><ele>344.0</ele><time>2026-03-29T10:01:14.958Z</time></trkpt><trkpt lat="45.79827" lon="10.0177985"><ele>344.0</ele><time>2026-03-29T10:01:17.959Z</time></trkpt><trkpt lat="45.7981892" lon="10.0177457"><ele>344.0</ele><time>2026-03-29T10:01:20.938Z</time></trkpt><trkpt lat="45.7981109" lon="10.0176935"><ele>344.0</ele><time>2026-03-29T10:01:23.953Z</time></trkpt><trkpt lat="45.7980347" lon="10.0176307"><ele>344.0</ele><time>2026-03-29T10:01:26.955Z</time></trkpt><trkpt lat="45.7979762" lon="10.0175903"><ele>344.0</ele><time>2026-03-29T10:01:28.941Z</time></trkpt><trkpt lat="45.7979092" lon="10.0175429"><ele>344.0</ele><time>2026-03-29T10:01:30.955Z</time></trkpt><trkpt lat="45.7978429" lon="10.0174912"><ele>344.0</ele><time>2026-03-29T10:01:33.028Z</time></trkpt><trkpt lat="45.7977603" lon="10.0174134"><ele>344.0</ele><time>2026-03-29T10:01:34.953Z</time></trkpt><trkpt lat="45.7976619" lon="10.0173275"><ele>344.0</ele><time>2026-03-29T10:01:36.963Z</time></trkpt><trkpt lat="45.7975835" lon="10.0172375"><ele>344.0</ele><time>2026-03-29T10:01:38.962Z</time></trkpt><trkpt lat="45.7974852" lon="10.0171791"><ele>344.0</ele><time>2026-03-29T10:01:41.036Z</time></trkpt><trkpt lat="45.797386" lon="10.0171198"><ele>344.0</ele><time>2026-03-29T10:01:43.029Z</time></trkpt><trkpt lat="45.7972894" lon="10.0170432"><ele>344.0</ele><time>2026-03-29T10:01:44.966Z</time></trkpt><trkpt lat="45.7971907" lon="10.0169653"><ele>344.0</ele><time>2026-03-29T10:01:46.949Z</time></trkpt><trkpt lat="45.797096" lon="10.0169026"><ele>344.0</ele><time>2026-03-29T10:01:48.959Z</time></trkpt><trkpt lat="45.7970094" lon="10.0168614"><ele>344.0</ele><time>2026-03-29T10:01:50.967Z</time></trkpt><trkpt lat="45.7969095" lon="10.0167951"><ele>344.2</ele><time>2026-03-29T10:01:52.96Z</time></trkpt><trkpt lat="45.7968055" lon="10.0167511"><ele>344.4</ele><time>2026-03-29T10:01:54.96Z</time></trkpt><trkpt lat="45.7967053" lon="10.0166908"><ele>344.6</ele><time>2026-03-29T10:01:56.962Z</time></trkpt><trkpt lat="45.7966107" lon="10.0166112"><ele>344.8</ele><time>2026-03-29T10:01:58.96Z</time></trkpt><trkpt lat="45.7965061" lon="10.0165299"><ele>345.0</ele><time>2026-03-29T10:02:00.962Z</time></trkpt><trkpt lat="45.7964251" lon="10.0164719"><ele>345.0</ele><time>2026-03-29T10:02:02.966Z</time></trkpt><trkpt lat="45.7963427" lon="10.0163952"><ele>345.0</ele><time>2026-03-29T10:02:04.958Z</time></trkpt><trkpt lat="45.7962549" lon="10.0163192"><ele>345.0</ele><time>2026-03-29T10:02:06.966Z</time></trkpt><trkpt lat="45.7961614" lon="10.0162687"><ele>345.0</ele><time>2026-03-29T10:02:08.965Z</time></trkpt><trkpt lat="45.7960535" lon="10.016248"><ele>345.0</ele><time>2026-03-29T10:02:10.967Z</time></trkpt><trkpt lat="45.7959397" lon="10.0162275"><ele>344.6</ele><time>2026-03-29T10:02:12.958Z</time></trkpt><trkpt lat="45.7958758" lon="10.016197"><ele>344.2</ele><time>2026-03-29T10:02:13.96Z</time></trkpt><trkpt lat="45.7958137" lon="10.0161667"><ele>343.79999999999995</ele><time>2026-03-29T10:02:14.963Z</time></trkpt><trkpt lat="45.7957071" lon="10.0161366"><ele>343.4</ele><time>2026-03-29T10:02:17.03Z</time></trkpt><trkpt lat="45.7955906" lon="10.0161095"><ele>343.0</ele><time>2026-03-29T10:02:19.024Z</time></trkpt><trkpt lat="45.7954854" lon="10.0160812"><ele>343.0</ele><time>2026-03-29T10:02:20.956Z</time></trkpt><trkpt lat="45.7953867" lon="10.0160361"><ele>343.0</ele><time>2026-03-29T10:02:22.958Z</time></trkpt><trkpt lat="45.795309" lon="10.0159388"><ele>343.0</ele><time>2026-03-29T10:02:24.974Z</time></trkpt><trkpt lat="45.7952609" lon="10.0158151"><ele>343.0</ele><time>2026-03-29T10:02:27.041Z</time></trkpt><trkpt lat="45.7952219" lon="10.0156671"><ele>343.0</ele><time>2026-03-29T10:02:29.025Z</time></trkpt><trkpt lat="45.7951803" lon="10.0155296"><ele>342.5</ele><time>2026-03-29T10:02:30.959Z</time></trkpt><trkpt lat="45.7951321" lon="10.0153895"><ele>342.0</ele><time>2026-03-29T10:02:32.959Z</time></trkpt><trkpt lat="45.7950517" lon="10.0152627"><ele>341.5</ele><time>2026-03-29T10:02:34.962Z</time></trkpt><trkpt lat="45.7949425" lon="10.0152266"><ele>341.0</ele><time>2026-03-29T10:02:37.031Z</time></trkpt><trkpt lat="45.7948302" lon="10.0152454"><ele>341.0</ele><time>2026-03-29T10:02:38.958Z</time></trkpt><trkpt lat="45.7947464" lon="10.0152815"><ele>341.0</ele><time>2026-03-29T10:02:40.961Z</time></trkpt><trkpt lat="45.7946556" lon="10.0153148"><ele>341.0</ele><time>2026-03-29T10:02:42.958Z</time></trkpt><trkpt lat="45.7945773" lon="10.0153669"><ele>341.0</ele><time>2026-03-29T10:02:44.967Z</time></trkpt><trkpt lat="45.7945027" lon="10.0154162"><ele>341.0</ele><time>2026-03-29T10:02:46.983Z</time></trkpt><trkpt lat="45.7944515" lon="10.0154697"><ele>341.0</ele><time>2026-03-29T10:02:48.949Z</time></trkpt><trkpt lat="45.794365" lon="10.015512"><ele>342.20000000000005</ele><time>2026-03-29T10:02:50.959Z</time></trkpt><trkpt lat="45.7942797" lon="10.0155254"><ele>343.40000000000003</ele><time>2026-03-29T10:02:52.962Z</time></trkpt><trkpt lat="45.7941626" lon="10.0155308"><ele>344.6</ele><time>2026-03-29T10:02:54.968Z</time></trkpt><trkpt lat="45.7940456" lon="10.0155056"><ele>345.8</ele><time>2026-03-29T10:02:56.969Z</time></trkpt><trkpt lat="45.79394" lon="10.0154274"><ele>347.0</ele><time>2026-03-29T10:02:58.972Z</time></trkpt><trkpt lat="45.7938405" lon="10.015347"><ele>347.0</ele><time>2026-03-29T10:03:01.027Z</time></trkpt><trkpt lat="45.7937533" lon="10.0152525"><ele>347.0</ele><time>2026-03-29T10:03:03.033Z</time></trkpt><trkpt lat="45.7936815" lon="10.0151298"><ele>347.0</ele><time>2026-03-29T10:03:04.956Z</time></trkpt><trkpt lat="45.7936403" lon="10.0149961"><ele>347.0</ele><time>2026-03-29T10:03:06.955Z</time></trkpt><trkpt lat="45.7935978" lon="10.0148692"><ele>347.0</ele><time>2026-03-29T10:03:08.953Z</time></trkpt><trkpt lat="45.7935431" lon="10.0147291"><ele>347.20000000000005</ele><time>2026-03-29T10:03:10.955Z</time></trkpt><trkpt lat="45.7934819" lon="10.0146014"><ele>347.4</ele><time>2026-03-29T10:03:12.954Z</time></trkpt><trkpt lat="45.7934012" lon="10.0144899"><ele>347.6</ele><time>2026-03-29T10:03:14.95Z</time></trkpt><trkpt lat="45.7933277" lon="10.0143769"><ele>347.79999999999995</ele><time>2026-03-29T10:03:16.961Z</time></trkpt><trkpt lat="45.793265" lon="10.0142668"><ele>348.0</ele><time>2026-03-29T10:03:18.953Z</time></trkpt><trkpt lat="45.7932303" lon="10.0141414"><ele>347.5</ele><time>2026-03-29T10:03:20.962Z</time></trkpt><trkpt lat="45.7931934" lon="10.0140039"><ele>347.0</ele><time>2026-03-29T10:03:22.956Z</time></trkpt><trkpt lat="45.7931642" lon="10.0138827"><ele>346.5</ele><time>2026-03-29T10:03:24.953Z</time></trkpt><trkpt lat="45.7931442" lon="10.0137878"><ele>346.0</ele><time>2026-03-29T10:03:26.955Z</time></trkpt><trkpt lat="45.7931006" lon="10.0136894"><ele>345.5</ele><time>2026-03-29T10:03:28.952Z</time></trkpt><trkpt lat="45.793052" lon="10.013565"><ele>345.0</ele><time>2026-03-29T10:03:30.957Z</time></trkpt><trkpt lat="45.7930016" lon="10.0134368"><ele>344.6</ele><time>2026-03-29T10:03:32.962Z</time></trkpt><trkpt lat="45.7929493" lon="10.0133205"><ele>344.2</ele><time>2026-03-29T10:03:34.958Z</time></trkpt><trkpt lat="45.792893" lon="10.0132126"><ele>343.79999999999995</ele><time>2026-03-29T10:03:36.95Z</time></trkpt><trkpt lat="45.7928234" lon="10.0130849"><ele>343.4</ele><time>2026-03-29T10:03:38.972Z</time></trkpt><trkpt lat="45.7927619" lon="10.0129342"><ele>343.0</ele><time>2026-03-29T10:03:40.974Z</time></trkpt><trkpt lat="45.7927339" lon="10.012851"><ele>343.2</ele><time>2026-03-29T10:03:41.956Z</time></trkpt><trkpt lat="45.7926654" lon="10.0126938"><ele>343.4</ele><time>2026-03-29T10:03:43.956Z</time></trkpt><trkpt lat="45.7926025" lon="10.0125298"><ele>343.59999999999997</ele><time>2026-03-29T10:03:45.953Z</time></trkpt><trkpt lat="45.7925667" lon="10.0124452"><ele>343.79999999999995</ele><time>2026-03-29T10:03:46.953Z</time></trkpt><trkpt lat="45.7925235" lon="10.0123639"><ele>344.0</ele><time>2026-03-29T10:03:47.953Z</time></trkpt><trkpt lat="45.7924697" lon="10.0123123"><ele>343.0</ele><time>2026-03-29T10:03:48.953Z</time></trkpt><trkpt lat="45.7923657" lon="10.0122766"><ele>342.0</ele><time>2026-03-29T10:03:50.957Z</time></trkpt><trkpt lat="45.7922506" lon="10.0122874"><ele>341.0</ele><time>2026-03-29T10:03:52.956Z</time></trkpt><trkpt lat="45.7921277" lon="10.0122888"><ele>340.0</ele><time>2026-03-29T10:03:54.959Z</time></trkpt><trkpt lat="45.792006" lon="10.0122449"><ele>340.0</ele><time>2026-03-29T10:03:56.961Z</time></trkpt><trkpt lat="45.7919032" lon="10.0121879"><ele>340.0</ele><time>2026-03-29T10:03:58.957Z</time></trkpt><trkpt lat="45.7918085" lon="10.0121366"><ele>340.0</ele><time>2026-03-29T10:04:00.961Z</time></trkpt><trkpt lat="45.7917211" lon="10.0120849"><ele>340.0</ele><time>2026-03-29T10:04:02.954Z</time></trkpt><trkpt lat="45.7916362" lon="10.0120491"><ele>340.0</ele><time>2026-03-29T10:04:04.952Z</time></trkpt><trkpt lat="45.7915458" lon="10.0120014"><ele>340.0</ele><time>2026-03-29T10:04:06.957Z</time></trkpt><trkpt lat="45.7914639" lon="10.0119688"><ele>340.0</ele><time>2026-03-29T10:04:08.964Z</time></trkpt><trkpt lat="45.7914034" lon="10.0119427"><ele>340.0</ele><time>2026-03-29T10:04:10.955Z</time></trkpt><trkpt lat="45.7913398" lon="10.0119105"><ele>340.0</ele><time>2026-03-29T10:04:12.956Z</time></trkpt><trkpt lat="45.7912731" lon="10.0118943"><ele>340.0</ele><time>2026-03-29T10:04:14.956Z</time></trkpt><trkpt lat="45.7912089" lon="10.011871"><ele>340.0</ele><time>2026-03-29T10:04:16.952Z</time></trkpt><trkpt lat="45.7911328" lon="10.0118132"><ele>340.0</ele><time>2026-03-29T10:04:18.954Z</time></trkpt><trkpt lat="45.7910461" lon="10.0118"><ele>340.6</ele><time>2026-03-29T10:04:20.956Z</time></trkpt><trkpt lat="45.7909838" lon="10.0117439"><ele>341.2</ele><time>2026-03-29T10:04:22.956Z</time></trkpt><trkpt lat="45.7909606" lon="10.0116164"><ele>341.79999999999995</ele><time>2026-03-29T10:04:25.955Z</time></trkpt><trkpt lat="45.7909926" lon="10.0114725"><ele>342.4</ele><time>2026-03-29T10:04:27.956Z</time></trkpt><trkpt lat="45.790979" lon="10.0113373"><ele>343.0</ele><time>2026-03-29T10:04:29.955Z</time></trkpt><trkpt lat="45.7909043" lon="10.0112208"><ele>343.0</ele><time>2026-03-29T10:04:31.951Z</time></trkpt><trkpt lat="45.7908185" lon="10.0111274"><ele>343.0</ele><time>2026-03-29T10:04:33.955Z</time></trkpt><trkpt lat="45.7907327" lon="10.0110409"><ele>343.0</ele><time>2026-03-29T10:04:35.951Z</time></trkpt><trkpt lat="45.7906609" lon="10.0109501"><ele>343.0</ele><time>2026-03-29T10:04:37.945Z</time></trkpt><trkpt lat="45.7905848" lon="10.0108922"><ele>343.0</ele><time>2026-03-29T10:04:39.956Z</time></trkpt><trkpt lat="45.790518" lon="10.0108232"><ele>343.16666666666663</ele><time>2026-03-29T10:04:41.954Z</time></trkpt><trkpt lat="45.7904393" lon="10.0107644"><ele>343.3333333333333</ele><time>2026-03-29T10:04:43.948Z</time></trkpt><trkpt lat="45.7903491" lon="10.0107262"><ele>343.5</ele><time>2026-03-29T10:04:45.952Z</time></trkpt><trkpt lat="45.7902693" lon="10.0107012"><ele>343.6666666666667</ele><time>2026-03-29T10:04:47.943Z</time></trkpt><trkpt lat="45.7901932" lon="10.0106673"><ele>343.83333333333337</ele><time>2026-03-29T10:04:49.943Z</time></trkpt><trkpt lat="45.7901096" lon="10.0106348"><ele>344.0</ele><time>2026-03-29T10:04:51.957Z</time></trkpt><trkpt lat="45.7900035" lon="10.0106209"><ele>344.0</ele><time>2026-03-29T10:04:53.961Z</time></trkpt><trkpt lat="45.7899034" lon="10.0106011"><ele>344.0</ele><time>2026-03-29T10:04:55.955Z</time></trkpt><trkpt lat="45.7898065" lon="10.0106118"><ele>344.0</ele><time>2026-03-29T10:04:57.955Z</time></trkpt><trkpt lat="45.7897238" lon="10.0106111"><ele>344.0</ele><time>2026-03-29T10:04:59.944Z</time></trkpt><trkpt lat="45.7896353" lon="10.0106032"><ele>344.0</ele><time>2026-03-29T10:05:01.952Z</time></trkpt><trkpt lat="45.7895445" lon="10.0105839"><ele>344.0</ele><time>2026-03-29T10:05:03.951Z</time></trkpt><trkpt lat="45.7894584" lon="10.0105764"><ele>344.0</ele><time>2026-03-29T10:05:05.96Z</time></trkpt><trkpt lat="45.7893726" lon="10.0105727"><ele>344.0</ele><time>2026-03-29T10:05:07.958Z</time></trkpt><trkpt lat="45.7892984" lon="10.0105859"><ele>344.0</ele><time>2026-03-29T10:05:09.963Z</time></trkpt><trkpt lat="45.789181" lon="10.0105376"><ele>344.0</ele><time>2026-03-29T10:05:12.954Z</time></trkpt><trkpt lat="45.7890886" lon="10.0105406"><ele>344.4</ele><time>2026-03-29T10:05:14.947Z</time></trkpt><trkpt lat="45.7889888" lon="10.0105243"><ele>344.79999999999995</ele><time>2026-03-29T10:05:17.026Z</time></trkpt><trkpt lat="45.7889106" lon="10.0104563"><ele>345.20000000000005</ele><time>2026-03-29T10:05:18.968Z</time></trkpt><trkpt lat="45.7888176" lon="10.0104125"><ele>345.6</ele><time>2026-03-29T10:05:20.963Z</time></trkpt><trkpt lat="45.7887292" lon="10.0103645"><ele>346.0</ele><time>2026-03-29T10:05:22.949Z</time></trkpt><trkpt lat="45.7886391" lon="10.0102907"><ele>346.0</ele><time>2026-03-29T10:05:24.965Z</time></trkpt><trkpt lat="45.7885563" lon="10.0102252"><ele>346.0</ele><time>2026-03-29T10:05:27.03Z</time></trkpt><trkpt lat="45.7884663" lon="10.0101674"><ele>346.0</ele><time>2026-03-29T10:05:29.005Z</time></trkpt><trkpt lat="45.7883694" lon="10.0101168"><ele>346.0</ele><time>2026-03-29T10:05:30.945Z</time></trkpt><trkpt lat="45.7882833" lon="10.0100474"><ele>346.0</ele><time>2026-03-29T10:05:32.952Z</time></trkpt><trkpt lat="45.7882032" lon="10.0099931"><ele>346.16666666666663</ele><time>2026-03-29T10:05:34.959Z</time></trkpt><trkpt lat="45.7881279" lon="10.0099506"><ele>346.3333333333333</ele><time>2026-03-29T10:05:36.953Z</time></trkpt><trkpt lat="45.7880509" lon="10.0099066"><ele>346.5</ele><time>2026-03-29T10:05:38.962Z</time></trkpt><trkpt lat="45.7879658" lon="10.0098725"><ele>346.6666666666667</ele><time>2026-03-29T10:05:40.95Z</time></trkpt><trkpt lat="45.787908" lon="10.0098363"><ele>346.83333333333337</ele><time>2026-03-29T10:05:43.027Z</time></trkpt><trkpt lat="45.7878585" lon="10.009775"><ele>347.0</ele><time>2026-03-29T10:05:44.964Z</time></trkpt><trkpt lat="45.7878238" lon="10.0096713"><ele>347.0</ele><time>2026-03-29T10:05:46.968Z</time></trkpt><trkpt lat="45.7877872" lon="10.0095404"><ele>347.0</ele><time>2026-03-29T10:05:48.97Z</time></trkpt><trkpt lat="45.7877582" lon="10.0094133"><ele>347.0</ele><time>2026-03-29T10:05:50.968Z</time></trkpt><trkpt lat="45.787726" lon="10.009284"><ele>347.0</ele><time>2026-03-29T10:05:53.031Z</time></trkpt><trkpt lat="45.7876964" lon="10.0091611"><ele>347.0</ele><time>2026-03-29T10:05:54.954Z</time></trkpt><trkpt lat="45.7876616" lon="10.0090311"><ele>347.6666666666667</ele><time>2026-03-29T10:05:57.029Z</time></trkpt><trkpt lat="45.7876289" lon="10.00891"><ele>348.33333333333337</ele><time>2026-03-29T10:05:59.029Z</time></trkpt><trkpt lat="45.7875973" lon="10.0087856"><ele>349.0</ele><time>2026-03-29T10:06:00.955Z</time></trkpt><trkpt lat="45.7875704" lon="10.0086649"><ele>349.6666666666667</ele><time>2026-03-29T10:06:02.954Z</time></trkpt><trkpt lat="45.7875385" lon="10.0085499"><ele>350.3333333333333</ele><time>2026-03-29T10:06:04.952Z</time></trkpt><trkpt lat="45.787502" lon="10.0084587"><ele>351.0</ele><time>2026-03-29T10:06:07.028Z</time></trkpt><trkpt lat="45.7874619" lon="10.0083851"><ele>350.6666666666667</ele><time>2026-03-29T10:06:10.942Z</time></trkpt><trkpt lat="45.7874381" lon="10.0082964"><ele>350.3333333333333</ele><time>2026-03-29T10:06:14.948Z</time></trkpt><trkpt lat="45.7874037" lon="10.0082025"><ele>350.0</ele><time>2026-03-29T10:06:16.949Z</time></trkpt><trkpt lat="45.7873684" lon="10.0080802"><ele>349.66666666666663</ele><time>2026-03-29T10:06:18.951Z</time></trkpt><trkpt lat="45.787322" lon="10.0079481"><ele>349.3333333333333</ele><time>2026-03-29T10:06:20.95Z</time></trkpt><trkpt lat="45.7872797" lon="10.0078116"><ele>349.0</ele><time>2026-03-29T10:06:23.033Z</time></trkpt><trkpt lat="45.7872389" lon="10.0076645"><ele>349.0</ele><time>2026-03-29T10:06:24.953Z</time></trkpt><trkpt lat="45.7871998" lon="10.0075095"><ele>349.0</ele><time>2026-03-29T10:06:26.949Z</time></trkpt><trkpt lat="45.7871563" lon="10.0073524"><ele>349.0</ele><time>2026-03-29T10:06:28.953Z</time></trkpt><trkpt lat="45.7871137" lon="10.0072045"><ele>349.0</ele><time>2026-03-29T10:06:30.956Z</time></trkpt><trkpt lat="45.7870647" lon="10.0070525"><ele>348.4</ele><time>2026-03-29T10:06:33.033Z</time></trkpt><trkpt lat="45.7870391" lon="10.006969"><ele>347.79999999999995</ele><time>2026-03-29T10:06:33.954Z</time></trkpt><trkpt lat="45.7869968" lon="10.0068157"><ele>347.20000000000005</ele><time>2026-03-29T10:06:36.056Z</time></trkpt><trkpt lat="45.7869531" lon="10.0066575"><ele>346.6</ele><time>2026-03-29T10:06:38.035Z</time></trkpt><trkpt lat="45.7869122" lon="10.0064854"><ele>346.0</ele><time>2026-03-29T10:06:39.956Z</time></trkpt><trkpt lat="45.7868921" lon="10.006399"><ele>345.8333333333333</ele><time>2026-03-29T10:06:41.024Z</time></trkpt><trkpt lat="45.7868753" lon="10.0063087"><ele>345.66666666666663</ele><time>2026-03-29T10:06:42.028Z</time></trkpt><trkpt lat="45.7868514" lon="10.0061273"><ele>345.5</ele><time>2026-03-29T10:06:44.029Z</time></trkpt><trkpt lat="45.7868445" lon="10.0060362"><ele>345.3333333333333</ele><time>2026-03-29T10:06:44.96Z</time></trkpt><trkpt lat="45.7868363" lon="10.0059413"><ele>345.1666666666667</ele><time>2026-03-29T10:06:45.958Z</time></trkpt><trkpt lat="45.7868319" lon="10.0058381"><ele>345.0</ele><time>2026-03-29T10:06:47.031Z</time></trkpt><trkpt lat="45.7868262" lon="10.0057393"><ele>346.2857142857143</ele><time>2026-03-29T10:06:47.958Z</time></trkpt><trkpt lat="45.7868178" lon="10.0056377"><ele>347.57142857142856</ele><time>2026-03-29T10:06:49.036Z</time></trkpt><trkpt lat="45.7868143" lon="10.0055411"><ele>348.8571428571429</ele><time>2026-03-29T10:06:49.963Z</time></trkpt><trkpt lat="45.7868098" lon="10.0054348"><ele>350.1428571428571</ele><time>2026-03-29T10:06:50.953Z</time></trkpt><trkpt lat="45.7868113" lon="10.0053287"><ele>351.4285714285714</ele><time>2026-03-29T10:06:51.997Z</time></trkpt><trkpt lat="45.7868109" lon="10.0052268"><ele>352.7142857142857</ele><time>2026-03-29T10:06:53.036Z</time></trkpt><trkpt lat="45.7868082" lon="10.0051194"><ele>354.0</ele><time>2026-03-29T10:06:54.026Z</time></trkpt><trkpt lat="45.7868069" lon="10.0050159"><ele>353.42857142857144</ele><time>2026-03-29T10:06:54.954Z</time></trkpt><trkpt lat="45.7868123" lon="10.004915"><ele>352.85714285714283</ele><time>2026-03-29T10:06:55.958Z</time></trkpt><trkpt lat="45.7868241" lon="10.0048187"><ele>352.2857142857143</ele><time>2026-03-29T10:06:57.028Z</time></trkpt><trkpt lat="45.7868329" lon="10.0047132"><ele>351.7142857142857</ele><time>2026-03-29T10:06:57.954Z</time></trkpt><trkpt lat="45.7868384" lon="10.0046058"><ele>351.1428571428571</ele><time>2026-03-29T10:06:58.956Z</time></trkpt><trkpt lat="45.7868445" lon="10.0044971"><ele>350.57142857142856</ele><time>2026-03-29T10:06:59.957Z</time></trkpt><trkpt lat="45.786848" lon="10.0043921"><ele>350.0</ele><time>2026-03-29T10:07:00.955Z</time></trkpt><trkpt lat="45.7868541" lon="10.004282"><ele>349.1666666666667</ele><time>2026-03-29T10:07:01.955Z</time></trkpt><trkpt lat="45.7868592" lon="10.0041774"><ele>348.33333333333337</ele><time>2026-03-29T10:07:02.953Z</time></trkpt><trkpt lat="45.786862" lon="10.0040771"><ele>347.5</ele><time>2026-03-29T10:07:03.969Z</time></trkpt><trkpt lat="45.7868668" lon="10.0039816"><ele>346.6666666666667</ele><time>2026-03-29T10:07:04.959Z</time></trkpt><trkpt lat="45.7868696" lon="10.003803"><ele>345.8333333333333</ele><time>2026-03-29T10:07:06.96Z</time></trkpt><trkpt lat="45.7868706" lon="10.0037088"><ele>345.0</ele><time>2026-03-29T10:07:07.962Z</time></trkpt><trkpt lat="45.7868802" lon="10.0036149"><ele>345.0</ele><time>2026-03-29T10:07:08.964Z</time></trkpt><trkpt lat="45.7868959" lon="10.003523"><ele>345.0</ele><time>2026-03-29T10:07:09.965Z</time></trkpt><trkpt lat="45.7869037" lon="10.0033548"><ele>345.0</ele><time>2026-03-29T10:07:12.025Z</time></trkpt><trkpt lat="45.7868762" lon="10.0032696"><ele>345.0</ele><time>2026-03-29T10:07:13.027Z</time></trkpt><trkpt lat="45.7868352" lon="10.0031806"><ele>345.0</ele><time>2026-03-29T10:07:14.026Z</time></trkpt><trkpt lat="45.7868064" lon="10.0030984"><ele>345.0</ele><time>2026-03-29T10:07:14.958Z</time></trkpt><trkpt lat="45.7867906" lon="10.0030056"><ele>345.0</ele><time>2026-03-29T10:07:15.952Z</time></trkpt><trkpt lat="45.7867807" lon="10.002838"><ele>345.0</ele><time>2026-03-29T10:07:17.955Z</time></trkpt><trkpt lat="45.7867751" lon="10.0027454"><ele>345.0</ele><time>2026-03-29T10:07:18.957Z</time></trkpt><trkpt lat="45.7867733" lon="10.002654"><ele>345.0</ele><time>2026-03-29T10:07:19.995Z</time></trkpt><trkpt lat="45.786782" lon="10.0024825"><ele>345.0</ele><time>2026-03-29T10:07:22.03Z</time></trkpt><trkpt lat="45.7867911" lon="10.0023112"><ele>345.2</ele><time>2026-03-29T10:07:23.951Z</time></trkpt><trkpt lat="45.786822" lon="10.0021455"><ele>345.4</ele><time>2026-03-29T10:07:26.036Z</time></trkpt><trkpt lat="45.7868303" lon="10.0020496"><ele>345.6</ele><time>2026-03-29T10:07:27.03Z</time></trkpt><trkpt lat="45.7868512" lon="10.0018829"><ele>345.8</ele><time>2026-03-29T10:07:29.031Z</time></trkpt><trkpt lat="45.7868734" lon="10.0017256"><ele>346.0</ele><time>2026-03-29T10:07:30.957Z</time></trkpt><trkpt lat="45.7868916" lon="10.0015607"><ele>346.5</ele><time>2026-03-29T10:07:33.036Z</time></trkpt><trkpt lat="45.7869102" lon="10.0014017"><ele>347.0</ele><time>2026-03-29T10:07:34.957Z</time></trkpt><trkpt lat="45.7869289" lon="10.0012382"><ele>347.5</ele><time>2026-03-29T10:07:36.956Z</time></trkpt><trkpt lat="45.7869523" lon="10.00108"><ele>348.0</ele><time>2026-03-29T10:07:38.957Z</time></trkpt><trkpt lat="45.786974" lon="10.0009092"><ele>347.75</ele><time>2026-03-29T10:07:40.956Z</time></trkpt><trkpt lat="45.7870093" lon="10.0007429"><ele>347.5</ele><time>2026-03-29T10:07:42.946Z</time></trkpt><trkpt lat="45.7870548" lon="10.0005881"><ele>347.25</ele><time>2026-03-29T10:07:44.946Z</time></trkpt><trkpt lat="45.787097" lon="10.0004387"><ele>347.0</ele><time>2026-03-29T10:07:47.028Z</time></trkpt><trkpt lat="45.7871283" lon="10.0002976"><ele>347.0</ele><time>2026-03-29T10:07:48.971Z</time></trkpt><trkpt lat="45.7871063" lon="10.0001859"><ele>347.0</ele><time>2026-03-29T10:07:50.965Z</time></trkpt><trkpt lat="45.7870361" lon="10.0001415"><ele>347.0</ele><time>2026-03-29T10:07:53.035Z</time></trkpt><trkpt lat="45.7869439" lon="10.0000976"><ele>347.0</ele><time>2026-03-29T10:07:54.957Z</time></trkpt><trkpt lat="45.7868833" lon="9.9999988"><ele>347.0</ele><time>2026-03-29T10:07:56.956Z</time></trkpt><trkpt lat="45.7868559" lon="9.9998579"><ele>347.0</ele><time>2026-03-29T10:07:58.95Z</time></trkpt><trkpt lat="45.7868328" lon="9.9996897"><ele>347.0</ele><time>2026-03-29T10:08:00.961Z</time></trkpt><trkpt lat="45.7868095" lon="9.9995172"><ele>347.0</ele><time>2026-03-29T10:08:02.961Z</time></trkpt><trkpt lat="45.7867957" lon="9.9994289"><ele>347.0</ele><time>2026-03-29T10:08:04.029Z</time></trkpt><trkpt lat="45.7867777" lon="9.9992552"><ele>347.0</ele><time>2026-03-29T10:08:05.944Z</time></trkpt><trkpt lat="45.7867536" lon="9.9990849"><ele>347.0</ele><time>2026-03-29T10:08:07.948Z</time></trkpt><trkpt lat="45.7867405" lon="9.9989946"><ele>347.0</ele><time>2026-03-29T10:08:08.947Z</time></trkpt><trkpt lat="45.7867303" lon="9.998905"><ele>347.0</ele><time>2026-03-29T10:08:09.951Z</time></trkpt><trkpt lat="45.786701" lon="9.9987412"><ele>347.0</ele><time>2026-03-29T10:08:12.035Z</time></trkpt><trkpt lat="45.7866665" lon="9.9985835"><ele>347.0</ele><time>2026-03-29T10:08:13.97Z</time></trkpt><trkpt lat="45.7866377" lon="9.9984231"><ele>347.0</ele><time>2026-03-29T10:08:15.962Z</time></trkpt><trkpt lat="45.7866098" lon="9.9982634"><ele>346.83333333333337</ele><time>2026-03-29T10:08:17.94Z</time></trkpt><trkpt lat="45.7865971" lon="9.9981726"><ele>346.6666666666667</ele><time>2026-03-29T10:08:19.032Z</time></trkpt><trkpt lat="45.7865817" lon="9.9980799"><ele>346.5</ele><time>2026-03-29T10:08:19.958Z</time></trkpt><trkpt lat="45.7865539" lon="9.9979141"><ele>346.3333333333333</ele><time>2026-03-29T10:08:21.985Z</time></trkpt><trkpt lat="45.7865381" lon="9.9978262"><ele>346.16666666666663</ele><time>2026-03-29T10:08:23.029Z</time></trkpt><trkpt lat="45.7865151" lon="9.9976573"><ele>346.0</ele><time>2026-03-29T10:08:24.956Z</time></trkpt><trkpt lat="45.7865036" lon="9.9974967"><ele>346.0</ele><time>2026-03-29T10:08:27.026Z</time></trkpt><trkpt lat="45.7864994" lon="9.9973251"><ele>346.0</ele><time>2026-03-29T10:08:29.027Z</time></trkpt><trkpt lat="45.7865098" lon="9.9971628"><ele>346.0</ele><time>2026-03-29T10:08:30.951Z</time></trkpt><trkpt lat="45.7865076" lon="9.9970724"><ele>346.0</ele><time>2026-03-29T10:08:32.05Z</time></trkpt><trkpt lat="45.7865133" lon="9.9969142"><ele>346.0</ele><time>2026-03-29T10:08:33.951Z</time></trkpt><trkpt lat="45.7865237" lon="9.9967637"><ele>346.20000000000005</ele><time>2026-03-29T10:08:35.947Z</time></trkpt><trkpt lat="45.7865203" lon="9.9966126"><ele>346.40000000000003</ele><time>2026-03-29T10:08:37.942Z</time></trkpt><trkpt lat="45.7865188" lon="9.9964504"><ele>346.6</ele><time>2026-03-29T10:08:39.934Z</time></trkpt><trkpt lat="45.7865209" lon="9.996303"><ele>346.8</ele><time>2026-03-29T10:08:41.95Z</time></trkpt><trkpt lat="45.7865243" lon="9.9961664"><ele>347.0</ele><time>2026-03-29T10:08:44.022Z</time></trkpt><trkpt lat="45.7865209" lon="9.9960351"><ele>347.0</ele><time>2026-03-29T10:08:45.966Z</time></trkpt><trkpt lat="45.7865194" lon="9.9958929"><ele>347.0</ele><time>2026-03-29T10:08:47.963Z</time></trkpt><trkpt lat="45.7865101" lon="9.9957536"><ele>347.0</ele><time>2026-03-29T10:08:49.951Z</time></trkpt><trkpt lat="45.7865043" lon="9.9956152"><ele>347.0</ele><time>2026-03-29T10:08:51.967Z</time></trkpt><trkpt lat="45.7865114" lon="9.9954643"><ele>347.0</ele><time>2026-03-29T10:08:53.951Z</time></trkpt><trkpt lat="45.7865373" lon="9.9953095"><ele>347.0</ele><time>2026-03-29T10:08:55.953Z</time></trkpt><trkpt lat="45.7865457" lon="9.995166"><ele>347.0</ele><time>2026-03-29T10:08:57.976Z</time></trkpt><trkpt lat="45.7865216" lon="9.9950426"><ele>347.0</ele><time>2026-03-29T10:08:59.948Z</time></trkpt><trkpt lat="45.7864911" lon="9.9949278"><ele>347.0</ele><time>2026-03-29T10:09:01.948Z</time></trkpt><trkpt lat="45.7864567" lon="9.9947915"><ele>347.0</ele><time>2026-03-29T10:09:04.034Z</time></trkpt><trkpt lat="45.7864352" lon="9.9946569"><ele>346.8</ele><time>2026-03-29T10:09:05.952Z</time></trkpt><trkpt lat="45.7864135" lon="9.9944624"><ele>346.6</ele><time>2026-03-29T10:09:08.956Z</time></trkpt><trkpt lat="45.7863954" lon="9.9943455"><ele>346.40000000000003</ele><time>2026-03-29T10:09:10.954Z</time></trkpt><trkpt lat="45.7863681" lon="9.994229"><ele>346.20000000000005</ele><time>2026-03-29T10:09:12.946Z</time></trkpt><trkpt lat="45.7863503" lon="9.9941131"><ele>346.0</ele><time>2026-03-29T10:09:14.952Z</time></trkpt><trkpt lat="45.7863714" lon="9.9940172"><ele>346.0</ele><time>2026-03-29T10:09:16.95Z</time></trkpt><trkpt lat="45.7863608" lon="9.9939095"><ele>346.0</ele><time>2026-03-29T10:09:19.03Z</time></trkpt><trkpt lat="45.7863363" lon="9.9937919"><ele>346.0</ele><time>2026-03-29T10:09:20.957Z</time></trkpt><trkpt lat="45.7863151" lon="9.9936673"><ele>346.0</ele><time>2026-03-29T10:09:22.949Z</time></trkpt><trkpt lat="45.7862883" lon="9.9935187"><ele>346.0</ele><time>2026-03-29T10:09:24.959Z</time></trkpt><trkpt lat="45.7862638" lon="9.9933861"><ele>345.6</ele><time>2026-03-29T10:09:27.08Z</time></trkpt><trkpt lat="45.786261" lon="9.9932379"><ele>345.20000000000005</ele><time>2026-03-29T10:09:29.032Z</time></trkpt><trkpt lat="45.786293" lon="9.9930939"><ele>344.79999999999995</ele><time>2026-03-29T10:09:30.956Z</time></trkpt><trkpt lat="45.7863444" lon="9.9929418"><ele>344.4</ele><time>2026-03-29T10:09:33.032Z</time></trkpt><trkpt lat="45.7863808" lon="9.9927913"><ele>344.0</ele><time>2026-03-29T10:09:34.951Z</time></trkpt><trkpt lat="45.7863785" lon="9.9926307"><ele>343.5</ele><time>2026-03-29T10:09:37.062Z</time></trkpt><trkpt lat="45.7863309" lon="9.9924725"><ele>343.0</ele><time>2026-03-29T10:09:39.03Z</time></trkpt><trkpt lat="45.7862837" lon="9.9923129"><ele>342.5</ele><time>2026-03-29T10:09:40.952Z</time></trkpt><trkpt lat="45.7862335" lon="9.9921494"><ele>342.0</ele><time>2026-03-29T10:09:43.037Z</time></trkpt><trkpt lat="45.7861981" lon="9.9919817"><ele>341.99999999999994</ele><time>2026-03-29T10:09:44.958Z</time></trkpt><trkpt lat="45.7861987" lon="9.9918846"><ele>342.0</ele><time>2026-03-29T10:09:45.96Z</time></trkpt><trkpt lat="45.7862035" lon="9.9917916"><ele>342.0</ele><time>2026-03-29T10:09:46.964Z</time></trkpt><trkpt lat="45.7862116" lon="9.991696"><ele>342.0</ele><time>2026-03-29T10:09:47.959Z</time></trkpt><trkpt lat="45.7862221" lon="9.9916034"><ele>342.0</ele><time>2026-03-29T10:09:48.958Z</time></trkpt><trkpt lat="45.7862421" lon="9.9915122"><ele>341.99999999999994</ele><time>2026-03-29T10:09:49.958Z</time></trkpt><trkpt lat="45.7862697" lon="9.9914282"><ele>342.0</ele><time>2026-03-29T10:09:50.962Z</time></trkpt><trkpt lat="45.7863022" lon="9.9913494"><ele>341.40000000000003</ele><time>2026-03-29T10:09:52.021Z</time></trkpt><trkpt lat="45.7863412" lon="9.9912707"><ele>340.8</ele><time>2026-03-29T10:09:52.96Z</time></trkpt><trkpt lat="45.7864082" lon="9.9911112"><ele>340.2</ele><time>2026-03-29T10:09:54.964Z</time></trkpt><trkpt lat="45.7864357" lon="9.9910189"><ele>339.6</ele><time>2026-03-29T10:09:55.958Z</time></trkpt><trkpt lat="45.7864555" lon="9.9909296"><ele>339.0</ele><time>2026-03-29T10:09:56.961Z</time></trkpt><trkpt lat="45.7864777" lon="9.990758"><ele>339.0</ele><time>2026-03-29T10:09:59.026Z</time></trkpt><trkpt lat="45.7864883" lon="9.9906683"><ele>339.0</ele><time>2026-03-29T10:09:59.951Z</time></trkpt><trkpt lat="45.7864992" lon="9.9905763"><ele>339.0</ele><time>2026-03-29T10:10:00.962Z</time></trkpt><trkpt lat="45.786522" lon="9.9904058"><ele>339.0</ele><time>2026-03-29T10:10:02.954Z</time></trkpt><trkpt lat="45.7865437" lon="9.9902309"><ele>339.0</ele><time>2026-03-29T10:10:04.957Z</time></trkpt><trkpt lat="45.7865586" lon="9.9900535"><ele>339.1666666666667</ele><time>2026-03-29T10:10:07.022Z</time></trkpt><trkpt lat="45.7865615" lon="9.9899586"><ele>339.3333333333333</ele><time>2026-03-29T10:10:08.035Z</time></trkpt><trkpt lat="45.7865381" lon="9.9897874"><ele>339.5</ele><time>2026-03-29T10:10:09.948Z</time></trkpt><trkpt lat="45.7865102" lon="9.9896991"><ele>339.66666666666663</ele><time>2026-03-29T10:10:10.952Z</time></trkpt><trkpt lat="45.7864852" lon="9.9896105"><ele>339.8333333333333</ele><time>2026-03-29T10:10:11.961Z</time></trkpt><trkpt lat="45.7864578" lon="9.9895203"><ele>340.0</ele><time>2026-03-29T10:10:13.035Z</time></trkpt><trkpt lat="45.7864267" lon="9.9894343"><ele>340.0</ele><time>2026-03-29T10:10:14.029Z</time></trkpt><trkpt lat="45.7863718" lon="9.9892738"><ele>340.0</ele><time>2026-03-29T10:10:15.957Z</time></trkpt><trkpt lat="45.7863422" lon="9.989191"><ele>340.0</ele><time>2026-03-29T10:10:17.066Z</time></trkpt><trkpt lat="45.7863088" lon="9.9891039"><ele>340.0</ele><time>2026-03-29T10:10:18.027Z</time></trkpt><trkpt lat="45.7862724" lon="9.9890142"><ele>340.0</ele><time>2026-03-29T10:10:19.032Z</time></trkpt><trkpt lat="45.7862384" lon="9.9889314"><ele>340.0</ele><time>2026-03-29T10:10:19.96Z</time></trkpt><trkpt lat="45.7861965" lon="9.9888512"><ele>339.8333333333333</ele><time>2026-03-29T10:10:20.959Z</time></trkpt><trkpt lat="45.7861578" lon="9.9887728"><ele>339.66666666666663</ele><time>2026-03-29T10:10:21.983Z</time></trkpt><trkpt lat="45.7861194" lon="9.98869"><ele>339.5</ele><time>2026-03-29T10:10:23.032Z</time></trkpt><trkpt lat="45.786084" lon="9.9886072"><ele>339.3333333333333</ele><time>2026-03-29T10:10:24.03Z</time></trkpt><trkpt lat="45.7860549" lon="9.9885251"><ele>339.1666666666667</ele><time>2026-03-29T10:10:24.955Z</time></trkpt><trkpt lat="45.7860052" lon="9.9883614"><ele>339.0</ele><time>2026-03-29T10:10:26.974Z</time></trkpt><trkpt lat="45.786014" lon="9.9881936"><ele>338.5</ele><time>2026-03-29T10:10:28.958Z</time></trkpt><trkpt lat="45.786038" lon="9.9880224"><ele>338.0</ele><time>2026-03-29T10:10:30.957Z</time></trkpt><trkpt lat="45.7860588" lon="9.9878562"><ele>337.5</ele><time>2026-03-29T10:10:33.028Z</time></trkpt><trkpt lat="45.78609" lon="9.9876935"><ele>337.0</ele><time>2026-03-29T10:10:34.962Z</time></trkpt><trkpt lat="45.7861149" lon="9.9875163"><ele>337.16666666666663</ele><time>2026-03-29T10:10:36.953Z</time></trkpt><trkpt lat="45.7861337" lon="9.9874226"><ele>337.3333333333333</ele><time>2026-03-29T10:10:37.957Z</time></trkpt><trkpt lat="45.7861577" lon="9.987336"><ele>337.5</ele><time>2026-03-29T10:10:39.026Z</time></trkpt><trkpt lat="45.7861866" lon="9.9872499"><ele>337.6666666666667</ele><time>2026-03-29T10:10:39.947Z</time></trkpt><trkpt lat="45.7862672" lon="9.9871126"><ele>337.83333333333337</ele><time>2026-03-29T10:10:41.951Z</time></trkpt><trkpt lat="45.7863659" lon="9.9870114"><ele>338.0</ele><time>2026-03-29T10:10:43.947Z</time></trkpt><trkpt lat="45.786472" lon="9.9869148"><ele>338.0</ele><time>2026-03-29T10:10:45.948Z</time></trkpt><trkpt lat="45.7865774" lon="9.9868627"><ele>338.0</ele><time>2026-03-29T10:10:47.948Z</time></trkpt><trkpt lat="45.7866907" lon="9.9868194"><ele>338.0</ele><time>2026-03-29T10:10:49.952Z</time></trkpt><trkpt lat="45.7867992" lon="9.9867737"><ele>338.0</ele><time>2026-03-29T10:10:52.06Z</time></trkpt><trkpt lat="45.7869154" lon="9.9867207"><ele>338.0</ele><time>2026-03-29T10:10:53.965Z</time></trkpt><trkpt lat="45.7869768" lon="9.9867003"><ele>338.0</ele><time>2026-03-29T10:10:54.958Z</time></trkpt><trkpt lat="45.7870407" lon="9.986673"><ele>338.0</ele><time>2026-03-29T10:10:55.955Z</time></trkpt><trkpt lat="45.7871625" lon="9.9866237"><ele>338.0</ele><time>2026-03-29T10:10:58.027Z</time></trkpt><trkpt lat="45.787278" lon="9.9865458"><ele>338.0</ele><time>2026-03-29T10:10:59.948Z</time></trkpt><trkpt lat="45.7873298" lon="9.9864877"><ele>338.0</ele><time>2026-03-29T10:11:01.029Z</time></trkpt><trkpt lat="45.7873798" lon="9.9864245"><ele>338.0</ele><time>2026-03-29T10:11:02.03Z</time></trkpt><trkpt lat="45.7874727" lon="9.9863093"><ele>338.0</ele><time>2026-03-29T10:11:04.01Z</time></trkpt><trkpt lat="45.7875189" lon="9.9862448"><ele>338.0</ele><time>2026-03-29T10:11:04.95Z</time></trkpt><trkpt lat="45.7875695" lon="9.9861797"><ele>338.0</ele><time>2026-03-29T10:11:05.954Z</time></trkpt><trkpt lat="45.7876168" lon="9.9861138"><ele>338.0</ele><time>2026-03-29T10:11:07.058Z</time></trkpt><trkpt lat="45.7876627" lon="9.9860439"><ele>338.2</ele><time>2026-03-29T10:11:08.048Z</time></trkpt><trkpt lat="45.7877119" lon="9.9859792"><ele>338.4</ele><time>2026-03-29T10:11:09.041Z</time></trkpt><trkpt lat="45.7877592" lon="9.9859129"><ele>338.59999999999997</ele><time>2026-03-29T10:11:09.941Z</time></trkpt><trkpt lat="45.7878432" lon="9.9857894"><ele>338.79999999999995</ele><time>2026-03-29T10:11:11.976Z</time></trkpt><trkpt lat="45.7879188" lon="9.9856544"><ele>339.0</ele><time>2026-03-29T10:11:14.032Z</time></trkpt><trkpt lat="45.7879857" lon="9.9855565"><ele>339.0</ele><time>2026-03-29T10:11:15.956Z</time></trkpt><trkpt lat="45.7880484" lon="9.9854571"><ele>339.0</ele><time>2026-03-29T10:11:17.955Z</time></trkpt><trkpt lat="45.7881162" lon="9.9853414"><ele>339.0</ele><time>2026-03-29T10:11:20.005Z</time></trkpt><trkpt lat="45.7881867" lon="9.9852433"><ele>339.0</ele><time>2026-03-29T10:11:22.025Z</time></trkpt><trkpt lat="45.7882514" lon="9.9851412"><ele>339.0</ele><time>2026-03-29T10:11:23.946Z</time></trkpt><trkpt lat="45.7882354" lon="9.9850504"><ele>339.6</ele><time>2026-03-29T10:11:26.946Z</time></trkpt><trkpt lat="45.7882315" lon="9.984943"><ele>340.2</ele><time>2026-03-29T10:11:31.953Z</time></trkpt><trkpt lat="45.7883157" lon="9.9848501"><ele>340.8</ele><time>2026-03-29T10:11:33.952Z</time></trkpt><trkpt lat="45.7883845" lon="9.9847423"><ele>341.40000000000003</ele><time>2026-03-29T10:11:35.952Z</time></trkpt><trkpt lat="45.7884335" lon="9.9846205"><ele>342.0</ele><time>2026-03-29T10:11:37.951Z</time></trkpt><trkpt lat="45.7884793" lon="9.9845076"><ele>340.8</ele><time>2026-03-29T10:11:39.953Z</time></trkpt><trkpt lat="45.7885268" lon="9.9843845"><ele>339.6</ele><time>2026-03-29T10:11:41.954Z</time></trkpt><trkpt lat="45.7885721" lon="9.9842615"><ele>338.40000000000003</ele><time>2026-03-29T10:11:43.95Z</time></trkpt><trkpt lat="45.7886126" lon="9.9841263"><ele>337.20000000000005</ele><time>2026-03-29T10:11:45.947Z</time></trkpt><trkpt lat="45.7886606" lon="9.9839685"><ele>336.0</ele><time>2026-03-29T10:11:47.954Z</time></trkpt><trkpt lat="45.7887178" lon="9.9838181"><ele>336.0</ele><time>2026-03-29T10:11:49.952Z</time></trkpt><trkpt lat="45.7887683" lon="9.9836596"><ele>336.0</ele><time>2026-03-29T10:11:51.956Z</time></trkpt><trkpt lat="45.788819" lon="9.9835026"><ele>336.0</ele><time>2026-03-29T10:11:53.956Z</time></trkpt><trkpt lat="45.7888634" lon="9.9833366"><ele>336.0</ele><time>2026-03-29T10:11:55.945Z</time></trkpt><trkpt lat="45.7889082" lon="9.9831774"><ele>336.0</ele><time>2026-03-29T10:11:57.951Z</time></trkpt><trkpt lat="45.7889527" lon="9.9830178"><ele>336.0</ele><time>2026-03-29T10:11:59.952Z</time></trkpt><trkpt lat="45.7889922" lon="9.9828623"><ele>336.0</ele><time>2026-03-29T10:12:01.95Z</time></trkpt><trkpt lat="45.7890323" lon="9.982702"><ele>336.0</ele><time>2026-03-29T10:12:03.954Z</time></trkpt><trkpt lat="45.7890704" lon="9.9825433"><ele>336.5</ele><time>2026-03-29T10:12:05.95Z</time></trkpt><trkpt lat="45.7891012" lon="9.9823792"><ele>337.0</ele><time>2026-03-29T10:12:07.95Z</time></trkpt><trkpt lat="45.7891345" lon="9.9822166"><ele>337.5</ele><time>2026-03-29T10:12:09.954Z</time></trkpt><trkpt lat="45.7891755" lon="9.982061"><ele>338.0</ele><time>2026-03-29T10:12:11.95Z</time></trkpt><trkpt lat="45.7892128" lon="9.9819069"><ele>338.0</ele><time>2026-03-29T10:12:13.952Z</time></trkpt><trkpt lat="45.7892449" lon="9.9817599"><ele>338.0</ele><time>2026-03-29T10:12:15.956Z</time></trkpt><trkpt lat="45.7892766" lon="9.9816282"><ele>338.0</ele><time>2026-03-29T10:12:17.951Z</time></trkpt><trkpt lat="45.7893207" lon="9.9815066"><ele>338.0</ele><time>2026-03-29T10:12:19.95Z</time></trkpt><trkpt lat="45.789337" lon="9.9813925"><ele>338.0</ele><time>2026-03-29T10:12:21.951Z</time></trkpt><trkpt lat="45.7893389" lon="9.9812569"><ele>338.2</ele><time>2026-03-29T10:12:23.949Z</time></trkpt><trkpt lat="45.7893127" lon="9.9811022"><ele>338.4</ele><time>2026-03-29T10:12:25.948Z</time></trkpt><trkpt lat="45.7893002" lon="9.9809633"><ele>338.59999999999997</ele><time>2026-03-29T10:12:27.947Z</time></trkpt><trkpt lat="45.7892585" lon="9.9808907"><ele>338.79999999999995</ele><time>2026-03-29T10:12:29.955Z</time></trkpt><trkpt lat="45.7891727" lon="9.9809268"><ele>339.0</ele><time>2026-03-29T10:12:32.948Z</time></trkpt><trkpt lat="45.7890813" lon="9.980964"><ele>339.0</ele><time>2026-03-29T10:12:35.949Z</time></trkpt><trkpt lat="45.7890065" lon="9.9810112"><ele>339.0</ele><time>2026-03-29T10:12:37.951Z</time></trkpt><trkpt lat="45.7889263" lon="9.9810711"><ele>339.0</ele><time>2026-03-29T10:12:39.952Z</time></trkpt><trkpt lat="45.7888516" lon="9.9811219"><ele>339.0</ele><time>2026-03-29T10:12:41.952Z</time></trkpt><trkpt lat="45.7887891" lon="9.9811926"><ele>339.0</ele><time>2026-03-29T10:12:43.944Z</time></trkpt><trkpt lat="45.7887434" lon="9.9812746"><ele>339.0</ele><time>2026-03-29T10:12:45.951Z</time></trkpt><trkpt lat="45.7886815" lon="9.9813591"><ele>339.0</ele><time>2026-03-29T10:12:48.957Z</time></trkpt><trkpt lat="45.7886348" lon="9.9814285"><ele>339.0</ele><time>2026-03-29T10:12:53.952Z</time></trkpt><trkpt lat="45.7885635" lon="9.9814666"><ele>339.0</ele><time>2026-03-29T10:16:44.964Z</time></trkpt><trkpt lat="45.7885031" lon="9.9814964"><ele>339.0</ele><time>2026-03-29T10:17:01.967Z</time></trkpt><trkpt lat="45.7884384" lon="9.981521"><ele>339.0</ele><time>2026-03-29T10:17:04.972Z</time></trkpt><trkpt lat="45.7883635" lon="9.9815091"><ele>339.0</ele><time>2026-03-29T10:17:07.966Z</time></trkpt><trkpt lat="45.7882934" lon="9.9814556"><ele>339.0</ele><time>2026-03-29T10:17:10.971Z</time></trkpt><trkpt lat="45.7882043" lon="9.9813997"><ele>339.2</ele><time>2026-03-29T10:17:13.965Z</time></trkpt><trkpt lat="45.7881085" lon="9.9813236"><ele>339.4</ele><time>2026-03-29T10:17:15.963Z</time></trkpt><trkpt lat="45.7880274" lon="9.9812393"><ele>339.6</ele><time>2026-03-29T10:17:17.962Z</time></trkpt><trkpt lat="45.7879521" lon="9.9811567"><ele>339.8</ele><time>2026-03-29T10:17:19.968Z</time></trkpt><trkpt lat="45.7878878" lon="9.9810622"><ele>340.0</ele><time>2026-03-29T10:17:21.964Z</time></trkpt><trkpt lat="45.7878238" lon="9.9809535"><ele>340.0</ele><time>2026-03-29T10:17:23.967Z</time></trkpt><trkpt lat="45.7877754" lon="9.9808528"><ele>340.0</ele><time>2026-03-29T10:17:25.966Z</time></trkpt><trkpt lat="45.7877393" lon="9.9807319"><ele>340.0</ele><time>2026-03-29T10:17:27.966Z</time></trkpt><trkpt lat="45.7877081" lon="9.9806106"><ele>340.0</ele><time>2026-03-29T10:17:29.964Z</time></trkpt><trkpt lat="45.7876787" lon="9.9805006"><ele>340.0</ele><time>2026-03-29T10:17:31.969Z</time></trkpt><trkpt lat="45.7876547" lon="9.9803727"><ele>340.0</ele><time>2026-03-29T10:17:33.969Z</time></trkpt><trkpt lat="45.7876352" lon="9.9802456"><ele>339.8</ele><time>2026-03-29T10:17:35.965Z</time></trkpt><trkpt lat="45.7876109" lon="9.9801104"><ele>339.6</ele><time>2026-03-29T10:17:37.972Z</time></trkpt><trkpt lat="45.7875825" lon="9.9799708"><ele>339.4</ele><time>2026-03-29T10:17:39.962Z</time></trkpt><trkpt lat="45.7875557" lon="9.9798455"><ele>339.2</ele><time>2026-03-29T10:17:41.965Z</time></trkpt><trkpt lat="45.78753" lon="9.9797185"><ele>339.0</ele><time>2026-03-29T10:17:43.964Z</time></trkpt><trkpt lat="45.7875032" lon="9.9795793"><ele>338.79999999999995</ele><time>2026-03-29T10:17:45.974Z</time></trkpt><trkpt lat="45.7874749" lon="9.9794418"><ele>338.59999999999997</ele><time>2026-03-29T10:17:47.965Z</time></trkpt><trkpt lat="45.7874525" lon="9.9793005"><ele>338.4</ele><time>2026-03-29T10:17:49.974Z</time></trkpt><trkpt lat="45.7874266" lon="9.9791498"><ele>338.2</ele><time>2026-03-29T10:17:51.968Z</time></trkpt><trkpt lat="45.7873969" lon="9.9789976"><ele>338.0</ele><time>2026-03-29T10:17:53.962Z</time></trkpt><trkpt lat="45.7873678" lon="9.9788488"><ele>338.0</ele><time>2026-03-29T10:17:55.966Z</time></trkpt><trkpt lat="45.7873381" lon="9.9787048"><ele>338.0</ele><time>2026-03-29T10:17:57.965Z</time></trkpt><trkpt lat="45.7873013" lon="9.9785615"><ele>338.0</ele><time>2026-03-29T10:17:59.965Z</time></trkpt><trkpt lat="45.7872708" lon="9.9784156"><ele>338.0</ele><time>2026-03-29T10:18:01.972Z</time></trkpt><trkpt lat="45.7872454" lon="9.9782697"><ele>338.0</ele><time>2026-03-29T10:18:03.971Z</time></trkpt><trkpt lat="45.7872116" lon="9.9781257"><ele>338.0</ele><time>2026-03-29T10:18:05.971Z</time></trkpt><trkpt lat="45.7871863" lon="9.9779713"><ele>338.0</ele><time>2026-03-29T10:18:07.959Z</time></trkpt><trkpt lat="45.7871618" lon="9.977816"><ele>338.0</ele><time>2026-03-29T10:18:09.967Z</time></trkpt><trkpt lat="45.7871331" lon="9.9776595"><ele>338.0</ele><time>2026-03-29T10:18:11.969Z</time></trkpt><trkpt lat="45.787095" lon="9.9775036"><ele>337.79999999999995</ele><time>2026-03-29T10:18:13.97Z</time></trkpt><trkpt lat="45.7870583" lon="9.9773574"><ele>337.6</ele><time>2026-03-29T10:18:15.971Z</time></trkpt><trkpt lat="45.7870127" lon="9.9772242"><ele>337.4</ele><time>2026-03-29T10:18:17.968Z</time></trkpt><trkpt lat="45.7869599" lon="9.9770778"><ele>337.20000000000005</ele><time>2026-03-29T10:18:19.962Z</time></trkpt><trkpt lat="45.7869084" lon="9.9769367"><ele>337.0</ele><time>2026-03-29T10:18:21.965Z</time></trkpt><trkpt lat="45.7868572" lon="9.9767976"><ele>337.0</ele><time>2026-03-29T10:18:23.969Z</time></trkpt><trkpt lat="45.7868059" lon="9.9766509"><ele>337.0</ele><time>2026-03-29T10:18:25.967Z</time></trkpt><trkpt lat="45.7867539" lon="9.9765066"><ele>337.0</ele><time>2026-03-29T10:18:27.968Z</time></trkpt><trkpt lat="45.7867085" lon="9.9763521"><ele>337.0</ele><time>2026-03-29T10:18:29.972Z</time></trkpt><trkpt lat="45.7866694" lon="9.9761904"><ele>337.0</ele><time>2026-03-29T10:18:31.965Z</time></trkpt><trkpt lat="45.7866309" lon="9.9760413"><ele>337.0</ele><time>2026-03-29T10:18:33.966Z</time></trkpt><trkpt lat="45.7865912" lon="9.9758905"><ele>337.0</ele><time>2026-03-29T10:18:35.968Z</time></trkpt><trkpt lat="45.7865521" lon="9.9757268"><ele>337.0</ele><time>2026-03-29T10:18:37.968Z</time></trkpt><trkpt lat="45.7865147" lon="9.975569"><ele>336.75</ele><time>2026-03-29T10:18:39.967Z</time></trkpt><trkpt lat="45.7864766" lon="9.9754132"><ele>336.5</ele><time>2026-03-29T10:18:41.968Z</time></trkpt><trkpt lat="45.7864322" lon="9.9752448"><ele>336.25</ele><time>2026-03-29T10:18:43.969Z</time></trkpt><trkpt lat="45.7863905" lon="9.9750817"><ele>336.0</ele><time>2026-03-29T10:18:45.966Z</time></trkpt><trkpt lat="45.7863465" lon="9.9749238"><ele>336.0</ele><time>2026-03-29T10:18:48.03Z</time></trkpt><trkpt lat="45.7863008" lon="9.9747655"><ele>336.0</ele><time>2026-03-29T10:18:49.959Z</time></trkpt><trkpt lat="45.786262" lon="9.9746137"><ele>336.0</ele><time>2026-03-29T10:18:51.95Z</time></trkpt><trkpt lat="45.7862174" lon="9.9744558"><ele>336.0</ele><time>2026-03-29T10:18:54.029Z</time></trkpt><trkpt lat="45.7861788" lon="9.9742985"><ele>335.75</ele><time>2026-03-29T10:18:56.037Z</time></trkpt><trkpt lat="45.7861367" lon="9.9741463"><ele>335.5</ele><time>2026-03-29T10:18:58.027Z</time></trkpt><trkpt lat="45.7860925" lon="9.9739937"><ele>335.25</ele><time>2026-03-29T10:18:59.959Z</time></trkpt><trkpt lat="45.7860451" lon="9.9738397"><ele>335.0</ele><time>2026-03-29T10:19:02.031Z</time></trkpt><trkpt lat="45.7859978" lon="9.9736915"><ele>335.4</ele><time>2026-03-29T10:19:04.028Z</time></trkpt><trkpt lat="45.7859506" lon="9.9735401"><ele>335.8</ele><time>2026-03-29T10:19:05.946Z</time></trkpt><trkpt lat="45.7859051" lon="9.9733942"><ele>336.20000000000005</ele><time>2026-03-29T10:19:08.041Z</time></trkpt><trkpt lat="45.7858555" lon="9.9732541"><ele>336.6</ele><time>2026-03-29T10:19:09.962Z</time></trkpt><trkpt lat="45.7858085" lon="9.9731106"><ele>337.0</ele><time>2026-03-29T10:19:12.025Z</time></trkpt><trkpt lat="45.7857651" lon="9.9729608"><ele>337.0</ele><time>2026-03-29T10:19:14.055Z</time></trkpt><trkpt lat="45.7857487" lon="9.9728039"><ele>337.0</ele><time>2026-03-29T10:19:15.956Z</time></trkpt><trkpt lat="45.7857528" lon="9.9726339"><ele>337.0</ele><time>2026-03-29T10:19:18.04Z</time></trkpt><trkpt lat="45.7857626" lon="9.9724621"><ele>337.0</ele><time>2026-03-29T10:19:19.957Z</time></trkpt><trkpt lat="45.7857715" lon="9.9722941"><ele>337.25</ele><time>2026-03-29T10:19:21.954Z</time></trkpt><trkpt lat="45.7857826" lon="9.9721273"><ele>337.5</ele><time>2026-03-29T10:19:23.955Z</time></trkpt><trkpt lat="45.7857956" lon="9.9719741"><ele>337.75</ele><time>2026-03-29T10:19:25.952Z</time></trkpt><trkpt lat="45.7858121" lon="9.9718133"><ele>338.0</ele><time>2026-03-29T10:19:28.036Z</time></trkpt><trkpt lat="45.7858274" lon="9.9716397"><ele>338.59999999999997</ele><time>2026-03-29T10:19:29.949Z</time></trkpt><trkpt lat="45.7858447" lon="9.9714835"><ele>339.2</ele><time>2026-03-29T10:19:31.958Z</time></trkpt><trkpt lat="45.7858424" lon="9.9713264"><ele>339.8</ele><time>2026-03-29T10:19:33.953Z</time></trkpt><trkpt lat="45.7858307" lon="9.971155"><ele>340.4</ele><time>2026-03-29T10:19:36.031Z</time></trkpt><trkpt lat="45.7858292" lon="9.9710639"><ele>341.0</ele><time>2026-03-29T10:19:36.945Z</time></trkpt><trkpt lat="45.7858229" lon="9.9709688"><ele>341.0</ele><time>2026-03-29T10:19:37.965Z</time></trkpt><trkpt lat="45.7858222" lon="9.9708751"><ele>341.0</ele><time>2026-03-29T10:19:39.029Z</time></trkpt><trkpt lat="45.7858227" lon="9.9707023"><ele>341.0</ele><time>2026-03-29T10:19:40.953Z</time></trkpt><trkpt lat="45.785827" lon="9.9705415"><ele>341.0</ele><time>2026-03-29T10:19:43.023Z</time></trkpt><trkpt lat="45.7858448" lon="9.9703714"><ele>341.0</ele><time>2026-03-29T10:19:44.971Z</time></trkpt><trkpt lat="45.7858691" lon="9.9702041"><ele>341.5</ele><time>2026-03-29T10:19:47.029Z</time></trkpt><trkpt lat="45.7858891" lon="9.9700451"><ele>342.0</ele><time>2026-03-29T10:19:49.033Z</time></trkpt><trkpt lat="45.7859141" lon="9.9698812"><ele>342.5</ele><time>2026-03-29T10:19:50.954Z</time></trkpt><trkpt lat="45.7859402" lon="9.9697269"><ele>343.0</ele><time>2026-03-29T10:19:53.037Z</time></trkpt><trkpt lat="45.7859636" lon="9.9695638"><ele>343.5</ele><time>2026-03-29T10:19:54.959Z</time></trkpt><trkpt lat="45.7859841" lon="9.9694099"><ele>344.0</ele><time>2026-03-29T10:19:57.048Z</time></trkpt><trkpt lat="45.7860041" lon="9.9692528"><ele>344.5</ele><time>2026-03-29T10:19:59.029Z</time></trkpt><trkpt lat="45.7860214" lon="9.9690823"><ele>345.0</ele><time>2026-03-29T10:20:00.951Z</time></trkpt><trkpt lat="45.7860418" lon="9.9689084"><ele>342.8</ele><time>2026-03-29T10:20:02.953Z</time></trkpt><trkpt lat="45.7860623" lon="9.9687445"><ele>340.6</ele><time>2026-03-29T10:20:04.949Z</time></trkpt><trkpt lat="45.7860815" lon="9.9685813"><ele>338.4</ele><time>2026-03-29T10:20:06.951Z</time></trkpt><trkpt lat="45.7860961" lon="9.9684123"><ele>336.2</ele><time>2026-03-29T10:20:08.957Z</time></trkpt><trkpt lat="45.7861065" lon="9.9683096"><ele>334.0</ele><time>2026-03-29T10:20:09.937Z</time></trkpt><trkpt lat="45.7861254" lon="9.9681883"><ele>334.0</ele><time>2026-03-29T10:20:10.943Z</time></trkpt><trkpt lat="45.7861415" lon="9.9680675"><ele>334.0</ele><time>2026-03-29T10:20:11.94Z</time></trkpt><trkpt lat="45.7861691" lon="9.9679385"><ele>334.0</ele><time>2026-03-29T10:20:12.94Z</time></trkpt><trkpt lat="45.786219" lon="9.9677847"><ele>334.0</ele><time>2026-03-29T10:20:14.944Z</time></trkpt><trkpt lat="45.7862707" lon="9.9676318"><ele>334.0</ele><time>2026-03-29T10:20:16.948Z</time></trkpt><trkpt lat="45.7862942" lon="9.9675023"><ele>334.6</ele><time>2026-03-29T10:20:18.954Z</time></trkpt><trkpt lat="45.7863244" lon="9.967389"><ele>335.2</ele><time>2026-03-29T10:20:20.953Z</time></trkpt><trkpt lat="45.7863487" lon="9.9672891"><ele>335.8</ele><time>2026-03-29T10:20:22.953Z</time></trkpt><trkpt lat="45.7863658" lon="9.9671686"><ele>336.40000000000003</ele><time>2026-03-29T10:20:24.959Z</time></trkpt><trkpt lat="45.7863911" lon="9.9670268"><ele>337.0</ele><time>2026-03-29T10:20:26.953Z</time></trkpt><trkpt lat="45.7864498" lon="9.966889"><ele>337.0</ele><time>2026-03-29T10:20:28.951Z</time></trkpt><trkpt lat="45.7865056" lon="9.9667414"><ele>337.0</ele><time>2026-03-29T10:20:30.941Z</time></trkpt><trkpt lat="45.7865658" lon="9.9666052"><ele>337.0</ele><time>2026-03-29T10:20:32.953Z</time></trkpt><trkpt lat="45.7866334" lon="9.9664782"><ele>337.0</ele><time>2026-03-29T10:20:34.954Z</time></trkpt><trkpt lat="45.7866967" lon="9.9663403"><ele>337.0</ele><time>2026-03-29T10:20:36.948Z</time></trkpt><trkpt lat="45.7867546" lon="9.9661886"><ele>337.0</ele><time>2026-03-29T10:20:38.955Z</time></trkpt><trkpt lat="45.7867929" lon="9.966021"><ele>337.0</ele><time>2026-03-29T10:20:40.957Z</time></trkpt><trkpt lat="45.7868372" lon="9.9658695"><ele>337.0</ele><time>2026-03-29T10:20:42.94Z</time></trkpt><trkpt lat="45.786862" lon="9.9657865"><ele>337.0</ele><time>2026-03-29T10:20:43.953Z</time></trkpt><trkpt lat="45.7869144" lon="9.9656314"><ele>336.25</ele><time>2026-03-29T10:20:45.956Z</time></trkpt><trkpt lat="45.7869478" lon="9.9654699"><ele>335.5</ele><time>2026-03-29T10:20:47.951Z</time></trkpt><trkpt lat="45.7869707" lon="9.9652941"><ele>334.75</ele><time>2026-03-29T10:20:49.959Z</time></trkpt><trkpt lat="45.7869724" lon="9.9651308"><ele>334.0</ele><time>2026-03-29T10:20:51.951Z</time></trkpt><trkpt lat="45.7869554" lon="9.9649641"><ele>334.0</ele><time>2026-03-29T10:20:53.958Z</time></trkpt><trkpt lat="45.7869359" lon="9.9647917"><ele>334.0</ele><time>2026-03-29T10:20:55.953Z</time></trkpt><trkpt lat="45.7869106" lon="9.9646156"><ele>334.0</ele><time>2026-03-29T10:20:57.956Z</time></trkpt><trkpt lat="45.7868924" lon="9.964445"><ele>334.0</ele><time>2026-03-29T10:20:59.957Z</time></trkpt><trkpt lat="45.7868785" lon="9.9642808"><ele>333.79999999999995</ele><time>2026-03-29T10:21:01.952Z</time></trkpt><trkpt lat="45.7868603" lon="9.9641257"><ele>333.59999999999997</ele><time>2026-03-29T10:21:03.946Z</time></trkpt><trkpt lat="45.7868468" lon="9.9639669"><ele>333.4</ele><time>2026-03-29T10:21:05.955Z</time></trkpt><trkpt lat="45.7868384" lon="9.9638048"><ele>333.2</ele><time>2026-03-29T10:21:07.954Z</time></trkpt><trkpt lat="45.7868365" lon="9.9636503"><ele>333.0</ele><time>2026-03-29T10:21:09.956Z</time></trkpt><trkpt lat="45.7868463" lon="9.9635057"><ele>333.2</ele><time>2026-03-29T10:21:11.952Z</time></trkpt><trkpt lat="45.7868619" lon="9.9633588"><ele>333.4</ele><time>2026-03-29T10:21:13.953Z</time></trkpt><trkpt lat="45.7868831" lon="9.9632112"><ele>333.59999999999997</ele><time>2026-03-29T10:21:15.951Z</time></trkpt><trkpt lat="45.7869041" lon="9.9630614"><ele>333.79999999999995</ele><time>2026-03-29T10:21:17.95Z</time></trkpt><trkpt lat="45.7869321" lon="9.9629059"><ele>334.0</ele><time>2026-03-29T10:21:19.96Z</time></trkpt><trkpt lat="45.7869401" lon="9.9627616"><ele>334.0</ele><time>2026-03-29T10:21:21.959Z</time></trkpt><trkpt lat="45.7869556" lon="9.9626163"><ele>334.0</ele><time>2026-03-29T10:21:23.954Z</time></trkpt><trkpt lat="45.7869624" lon="9.9624631"><ele>334.0</ele><time>2026-03-29T10:21:25.942Z</time></trkpt><trkpt lat="45.786986" lon="9.9623161"><ele>334.0</ele><time>2026-03-29T10:21:27.955Z</time></trkpt><trkpt lat="45.7870061" lon="9.962177"><ele>334.0</ele><time>2026-03-29T10:21:29.952Z</time></trkpt><trkpt lat="45.7870126" lon="9.9620225"><ele>334.2</ele><time>2026-03-29T10:21:31.952Z</time></trkpt><trkpt lat="45.7870157" lon="9.9618746"><ele>334.4</ele><time>2026-03-29T10:21:33.959Z</time></trkpt><trkpt lat="45.7870199" lon="9.961731"><ele>334.6</ele><time>2026-03-29T10:21:35.958Z</time></trkpt><trkpt lat="45.7870301" lon="9.9615983"><ele>334.8</ele><time>2026-03-29T10:21:37.951Z</time></trkpt><trkpt lat="45.7870305" lon="9.9614601"><ele>335.0</ele><time>2026-03-29T10:21:39.941Z</time></trkpt><trkpt lat="45.787042" lon="9.9613302"><ele>335.6</ele><time>2026-03-29T10:21:41.955Z</time></trkpt><trkpt lat="45.7870624" lon="9.9612075"><ele>336.2</ele><time>2026-03-29T10:21:43.956Z</time></trkpt><trkpt lat="45.7870764" lon="9.9610702"><ele>336.79999999999995</ele><time>2026-03-29T10:21:45.949Z</time></trkpt><trkpt lat="45.787084" lon="9.9609369"><ele>337.4</ele><time>2026-03-29T10:21:47.957Z</time></trkpt><trkpt lat="45.7870936" lon="9.9608001"><ele>338.0</ele><time>2026-03-29T10:21:49.958Z</time></trkpt><trkpt lat="45.787101" lon="9.9606637"><ele>338.4</ele><time>2026-03-29T10:21:51.958Z</time></trkpt><trkpt lat="45.787121" lon="9.9605172"><ele>338.79999999999995</ele><time>2026-03-29T10:21:53.952Z</time></trkpt><trkpt lat="45.7871381" lon="9.9603738"><ele>339.2</ele><time>2026-03-29T10:21:55.953Z</time></trkpt><trkpt lat="45.7871471" lon="9.9602392"><ele>339.6</ele><time>2026-03-29T10:21:57.954Z</time></trkpt><trkpt lat="45.7871571" lon="9.960091"><ele>340.0</ele><time>2026-03-29T10:21:59.961Z</time></trkpt><trkpt lat="45.7871612" lon="9.95994"><ele>340.3333333333333</ele><time>2026-03-29T10:22:01.955Z</time></trkpt><trkpt lat="45.7871648" lon="9.9597757"><ele>340.66666666666663</ele><time>2026-03-29T10:22:03.957Z</time></trkpt><trkpt lat="45.7871585" lon="9.9596024"><ele>341.0</ele><time>2026-03-29T10:22:05.952Z</time></trkpt><trkpt lat="45.7871433" lon="9.9595112"><ele>341.3333333333333</ele><time>2026-03-29T10:22:06.956Z</time></trkpt><trkpt lat="45.78712" lon="9.9594259"><ele>341.6666666666667</ele><time>2026-03-29T10:22:07.954Z</time></trkpt><trkpt lat="45.78709" lon="9.9593386"><ele>342.0</ele><time>2026-03-29T10:22:08.953Z</time></trkpt><trkpt lat="45.7870499" lon="9.9592541"><ele>341.40000000000003</ele><time>2026-03-29T10:22:09.953Z</time></trkpt><trkpt lat="45.7870006" lon="9.9591806"><ele>340.8</ele><time>2026-03-29T10:22:10.941Z</time></trkpt><trkpt lat="45.7869038" lon="9.959073"><ele>340.2</ele><time>2026-03-29T10:22:12.95Z</time></trkpt><trkpt lat="45.786801" lon="9.9589831"><ele>339.6</ele><time>2026-03-29T10:22:14.948Z</time></trkpt><trkpt lat="45.7867014" lon="9.95887"><ele>339.0</ele><time>2026-03-29T10:22:16.955Z</time></trkpt><trkpt lat="45.7866499" lon="9.9587984"><ele>339.1666666666667</ele><time>2026-03-29T10:22:17.953Z</time></trkpt><trkpt lat="45.786602" lon="9.9587136"><ele>339.3333333333333</ele><time>2026-03-29T10:22:18.956Z</time></trkpt><trkpt lat="45.7865562" lon="9.9586269"><ele>339.5</ele><time>2026-03-29T10:22:19.955Z</time></trkpt><trkpt lat="45.7865155" lon="9.9585296"><ele>339.66666666666663</ele><time>2026-03-29T10:22:20.952Z</time></trkpt><trkpt lat="45.7864625" lon="9.9584343"><ele>339.8333333333333</ele><time>2026-03-29T10:22:21.952Z</time></trkpt><trkpt lat="45.786411" lon="9.9583357"><ele>340.0</ele><time>2026-03-29T10:22:22.95Z</time></trkpt><trkpt lat="45.7863582" lon="9.9582405"><ele>340.0</ele><time>2026-03-29T10:22:23.951Z</time></trkpt><trkpt lat="45.7863039" lon="9.9581403"><ele>340.0</ele><time>2026-03-29T10:22:24.956Z</time></trkpt><trkpt lat="45.7862479" lon="9.9580381"><ele>340.0</ele><time>2026-03-29T10:22:25.957Z</time></trkpt><trkpt lat="45.7861887" lon="9.9579409"><ele>340.0</ele><time>2026-03-29T10:22:26.962Z</time></trkpt><trkpt lat="45.7861317" lon="9.9578369"><ele>340.0</ele><time>2026-03-29T10:22:27.956Z</time></trkpt><trkpt lat="45.7860794" lon="9.957729"><ele>340.0</ele><time>2026-03-29T10:22:28.952Z</time></trkpt><trkpt lat="45.7860361" lon="9.9576173"><ele>340.0</ele><time>2026-03-29T10:22:29.954Z</time></trkpt><trkpt lat="45.7860008" lon="9.9575016"><ele>340.0</ele><time>2026-03-29T10:22:30.954Z</time></trkpt><trkpt lat="45.7859822" lon="9.9573889"><ele>340.0</ele><time>2026-03-29T10:22:31.944Z</time></trkpt><trkpt lat="45.785983" lon="9.9572727"><ele>340.0</ele><time>2026-03-29T10:22:32.946Z</time></trkpt><trkpt lat="45.7859971" lon="9.9571694"><ele>340.0</ele><time>2026-03-29T10:22:33.949Z</time></trkpt><trkpt lat="45.7860134" lon="9.9570614"><ele>339.14285714285717</ele><time>2026-03-29T10:22:34.956Z</time></trkpt><trkpt lat="45.7860301" lon="9.9569413"><ele>338.2857142857143</ele><time>2026-03-29T10:22:35.951Z</time></trkpt><trkpt lat="45.7860385" lon="9.9568324"><ele>337.42857142857144</ele><time>2026-03-29T10:22:36.954Z</time></trkpt><trkpt lat="45.7860381" lon="9.9567304"><ele>336.57142857142856</ele><time>2026-03-29T10:22:37.957Z</time></trkpt><trkpt lat="45.7860339" lon="9.9566306"><ele>335.7142857142857</ele><time>2026-03-29T10:22:38.951Z</time></trkpt><trkpt lat="45.7860247" lon="9.9565219"><ele>334.85714285714283</ele><time>2026-03-29T10:22:39.955Z</time></trkpt><trkpt lat="45.7860092" lon="9.9564255"><ele>334.0</ele><time>2026-03-29T10:22:40.953Z</time></trkpt><trkpt lat="45.7859898" lon="9.9562487"><ele>336.66666666666663</ele><time>2026-03-29T10:22:42.956Z</time></trkpt><trkpt lat="45.7859766" lon="9.9560801"><ele>339.3333333333333</ele><time>2026-03-29T10:22:44.954Z</time></trkpt><trkpt lat="45.7859706" lon="9.9559821"><ele>342.0</ele><time>2026-03-29T10:22:45.95Z</time></trkpt><trkpt lat="45.7859693" lon="9.9558812"><ele>344.6666666666667</ele><time>2026-03-29T10:22:46.954Z</time></trkpt><trkpt lat="45.7859734" lon="9.9557824"><ele>347.33333333333337</ele><time>2026-03-29T10:22:47.954Z</time></trkpt><trkpt lat="45.7859854" lon="9.9556899"><ele>350.0</ele><time>2026-03-29T10:22:48.954Z</time></trkpt><trkpt lat="45.7860091" lon="9.9555175"><ele>346.8</ele><time>2026-03-29T10:22:50.952Z</time></trkpt><trkpt lat="45.7860351" lon="9.9553553"><ele>343.6</ele><time>2026-03-29T10:22:52.953Z</time></trkpt><trkpt lat="45.786061" lon="9.9552716"><ele>340.4</ele><time>2026-03-29T10:22:53.953Z</time></trkpt><trkpt lat="45.7860991" lon="9.9551229"><ele>337.2</ele><time>2026-03-29T10:22:55.95Z</time></trkpt><trkpt lat="45.7861237" lon="9.9549603"><ele>334.0</ele><time>2026-03-29T10:22:57.951Z</time></trkpt><trkpt lat="45.7861308" lon="9.9547873"><ele>333.79999999999995</ele><time>2026-03-29T10:22:59.954Z</time></trkpt><trkpt lat="45.7861285" lon="9.9546162"><ele>333.59999999999997</ele><time>2026-03-29T10:23:01.949Z</time></trkpt><trkpt lat="45.7861224" lon="9.9545249"><ele>333.4</ele><time>2026-03-29T10:23:02.953Z</time></trkpt><trkpt lat="45.786113" lon="9.9543549"><ele>333.2</ele><time>2026-03-29T10:23:04.955Z</time></trkpt><trkpt lat="45.7860978" lon="9.9541972"><ele>333.0</ele><time>2026-03-29T10:23:06.948Z</time></trkpt><trkpt lat="45.7860998" lon="9.9540383"><ele>332.79999999999995</ele><time>2026-03-29T10:23:08.951Z</time></trkpt><trkpt lat="45.7860966" lon="9.9538955"><ele>332.6</ele><time>2026-03-29T10:23:10.954Z</time></trkpt><trkpt lat="45.786074" lon="9.9537403"><ele>332.4</ele><time>2026-03-29T10:23:12.948Z</time></trkpt><trkpt lat="45.7860215" lon="9.9535699"><ele>332.20000000000005</ele><time>2026-03-29T10:23:14.949Z</time></trkpt><trkpt lat="45.7859802" lon="9.9534888"><ele>332.0</ele><time>2026-03-29T10:23:15.958Z</time></trkpt><trkpt lat="45.7859372" lon="9.9534142"><ele>333.33333333333337</ele><time>2026-03-29T10:23:16.951Z</time></trkpt><trkpt lat="45.7858941" lon="9.9533387"><ele>334.6666666666667</ele><time>2026-03-29T10:23:17.942Z</time></trkpt><trkpt lat="45.7858558" lon="9.9532612"><ele>336.0</ele><time>2026-03-29T10:23:18.952Z</time></trkpt><trkpt lat="45.7858213" lon="9.9531804"><ele>337.3333333333333</ele><time>2026-03-29T10:23:19.951Z</time></trkpt><trkpt lat="45.7857848" lon="9.9531055"><ele>338.66666666666663</ele><time>2026-03-29T10:23:20.953Z</time></trkpt><trkpt lat="45.7857089" lon="9.952966"><ele>340.0</ele><time>2026-03-29T10:23:22.953Z</time></trkpt><trkpt lat="45.7856687" lon="9.9528947"><ele>340.0</ele><time>2026-03-29T10:23:23.955Z</time></trkpt><trkpt lat="45.7856284" lon="9.9528237"><ele>340.0</ele><time>2026-03-29T10:23:24.957Z</time></trkpt><trkpt lat="45.7855586" lon="9.9526862"><ele>340.0</ele><time>2026-03-29T10:23:26.954Z</time></trkpt><trkpt lat="45.7854933" lon="9.9525713"><ele>340.0</ele><time>2026-03-29T10:23:28.957Z</time></trkpt><trkpt lat="45.7854314" lon="9.9524642"><ele>340.0</ele><time>2026-03-29T10:23:30.962Z</time></trkpt><trkpt lat="45.7853713" lon="9.9523547"><ele>339.0</ele><time>2026-03-29T10:23:32.963Z</time></trkpt><trkpt lat="45.7853033" lon="9.9522373"><ele>338.0</ele><time>2026-03-29T10:23:34.957Z</time></trkpt><trkpt lat="45.7852409" lon="9.9521159"><ele>337.0</ele><time>2026-03-29T10:23:36.952Z</time></trkpt><trkpt lat="45.7851748" lon="9.9519945"><ele>336.0</ele><time>2026-03-29T10:23:38.957Z</time></trkpt><trkpt lat="45.7851182" lon="9.9518615"><ele>335.0</ele><time>2026-03-29T10:23:40.95Z</time></trkpt><trkpt lat="45.7850612" lon="9.9517379"><ele>337.5</ele><time>2026-03-29T10:23:42.955Z</time></trkpt><trkpt lat="45.7849892" lon="9.951607"><ele>340.0</ele><time>2026-03-29T10:23:44.95Z</time></trkpt><trkpt lat="45.7849297" lon="9.95147"><ele>342.5</ele><time>2026-03-29T10:23:46.954Z</time></trkpt><trkpt lat="45.7848807" lon="9.9513187"><ele>345.0</ele><time>2026-03-29T10:23:48.96Z</time></trkpt><trkpt lat="45.7848495" lon="9.9511653"><ele>345.0</ele><time>2026-03-29T10:23:50.955Z</time></trkpt><trkpt lat="45.7848258" lon="9.9510016"><ele>345.0</ele><time>2026-03-29T10:23:52.953Z</time></trkpt><trkpt lat="45.7848177" lon="9.9508213"><ele>345.0</ele><time>2026-03-29T10:23:54.951Z</time></trkpt><trkpt lat="45.7848129" lon="9.9507291"><ele>345.0</ele><time>2026-03-29T10:23:55.953Z</time></trkpt><trkpt lat="45.7848159" lon="9.9505547"><ele>345.0</ele><time>2026-03-29T10:23:57.95Z</time></trkpt><trkpt lat="45.7848153" lon="9.9503945"><ele>343.5</ele><time>2026-03-29T10:23:59.95Z</time></trkpt><trkpt lat="45.7848077" lon="9.9502222"><ele>342.0</ele><time>2026-03-29T10:24:01.952Z</time></trkpt><trkpt lat="45.7847854" lon="9.9500666"><ele>340.5</ele><time>2026-03-29T10:24:03.95Z</time></trkpt><trkpt lat="45.7847338" lon="9.949923"><ele>339.0</ele><time>2026-03-29T10:24:05.959Z</time></trkpt><trkpt lat="45.7846845" lon="9.949775"><ele>338.6</ele><time>2026-03-29T10:24:07.957Z</time></trkpt><trkpt lat="45.7846268" lon="9.9496397"><ele>338.2</ele><time>2026-03-29T10:24:09.949Z</time></trkpt><trkpt lat="45.7845578" lon="9.9495052"><ele>337.8</ele><time>2026-03-29T10:24:11.958Z</time></trkpt><trkpt lat="45.7845203" lon="9.9494314"><ele>337.40000000000003</ele><time>2026-03-29T10:24:12.947Z</time></trkpt><trkpt lat="45.7844344" lon="9.9493033"><ele>337.0</ele><time>2026-03-29T10:24:14.946Z</time></trkpt><trkpt lat="45.7843591" lon="9.9492147"><ele>338.0</ele><time>2026-03-29T10:24:16.952Z</time></trkpt><trkpt lat="45.7842729" lon="9.9491637"><ele>339.0</ele><time>2026-03-29T10:24:18.954Z</time></trkpt><trkpt lat="45.7841746" lon="9.9491091"><ele>340.0</ele><time>2026-03-29T10:24:20.942Z</time></trkpt><trkpt lat="45.7841161" lon="9.9490752"><ele>341.0</ele><time>2026-03-29T10:24:21.959Z</time></trkpt><trkpt lat="45.7840531" lon="9.9490367"><ele>342.0</ele><time>2026-03-29T10:24:22.953Z</time></trkpt><trkpt lat="45.7839921" lon="9.9489907"><ele>343.0</ele><time>2026-03-29T10:24:23.952Z</time></trkpt><trkpt lat="45.7839243" lon="9.9489283"><ele>343.0</ele><time>2026-03-29T10:24:24.955Z</time></trkpt><trkpt lat="45.7838656" lon="9.9488684"><ele>343.0</ele><time>2026-03-29T10:24:25.957Z</time></trkpt><trkpt lat="45.7838053" lon="9.9488019"><ele>343.0</ele><time>2026-03-29T10:24:26.95Z</time></trkpt><trkpt lat="45.7837597" lon="9.9487244"><ele>343.0</ele><time>2026-03-29T10:24:27.954Z</time></trkpt><trkpt lat="45.783729" lon="9.948633"><ele>343.0</ele><time>2026-03-29T10:24:28.947Z</time></trkpt><trkpt lat="45.7837064" lon="9.9485401"><ele>343.0</ele><time>2026-03-29T10:24:29.949Z</time></trkpt><trkpt lat="45.7836955" lon="9.9484381"><ele>343.0</ele><time>2026-03-29T10:24:30.953Z</time></trkpt><trkpt lat="45.7836831" lon="9.9483382"><ele>342.4</ele><time>2026-03-29T10:24:31.956Z</time></trkpt><trkpt lat="45.7836774" lon="9.9482437"><ele>341.79999999999995</ele><time>2026-03-29T10:24:32.952Z</time></trkpt><trkpt lat="45.7836739" lon="9.9481531"><ele>341.2</ele><time>2026-03-29T10:24:33.956Z</time></trkpt><trkpt lat="45.7836495" lon="9.947993"><ele>340.6</ele><time>2026-03-29T10:24:35.959Z</time></trkpt><trkpt lat="45.783615" lon="9.9478372"><ele>340.0</ele><time>2026-03-29T10:24:37.953Z</time></trkpt><trkpt lat="45.7835732" lon="9.9476778"><ele>340.0</ele><time>2026-03-29T10:24:39.953Z</time></trkpt><trkpt lat="45.7835518" lon="9.9475913"><ele>340.0</ele><time>2026-03-29T10:24:40.958Z</time></trkpt><trkpt lat="45.7835044" lon="9.9474368"><ele>340.0</ele><time>2026-03-29T10:24:42.942Z</time></trkpt><trkpt lat="45.7834634" lon="9.9472806"><ele>340.0</ele><time>2026-03-29T10:24:44.95Z</time></trkpt><trkpt lat="45.7834266" lon="9.9471258"><ele>340.0</ele><time>2026-03-29T10:24:46.954Z</time></trkpt><trkpt lat="45.783381" lon="9.9469786"><ele>340.2</ele><time>2026-03-29T10:24:48.957Z</time></trkpt><trkpt lat="45.7833354" lon="9.9468328"><ele>340.4</ele><time>2026-03-29T10:24:50.954Z</time></trkpt><trkpt lat="45.7833106" lon="9.9467487"><ele>340.6</ele><time>2026-03-29T10:24:51.954Z</time></trkpt><trkpt lat="45.7832648" lon="9.9465907"><ele>340.8</ele><time>2026-03-29T10:24:53.955Z</time></trkpt><trkpt lat="45.7832244" lon="9.9464362"><ele>341.0</ele><time>2026-03-29T10:24:55.953Z</time></trkpt><trkpt lat="45.7831839" lon="9.9462915"><ele>341.0</ele><time>2026-03-29T10:24:57.957Z</time></trkpt><trkpt lat="45.7831485" lon="9.9461448"><ele>341.0</ele><time>2026-03-29T10:24:59.954Z</time></trkpt><trkpt lat="45.7831116" lon="9.9460076"><ele>341.0</ele><time>2026-03-29T10:25:01.954Z</time></trkpt><trkpt lat="45.7830542" lon="9.9458796"><ele>341.0</ele><time>2026-03-29T10:25:03.956Z</time></trkpt><trkpt lat="45.7829869" lon="9.9457609"><ele>341.0</ele><time>2026-03-29T10:25:05.951Z</time></trkpt><trkpt lat="45.7829063" lon="9.9456527"><ele>340.6666666666667</ele><time>2026-03-29T10:25:07.954Z</time></trkpt><trkpt lat="45.7827979" lon="9.9455656"><ele>340.33333333333337</ele><time>2026-03-29T10:25:09.958Z</time></trkpt><trkpt lat="45.7827341" lon="9.9455355"><ele>340.0</ele><time>2026-03-29T10:25:10.96Z</time></trkpt><trkpt lat="45.7826723" lon="9.9455006"><ele>339.6666666666667</ele><time>2026-03-29T10:25:11.953Z</time></trkpt><trkpt lat="45.7826117" lon="9.9454735"><ele>339.3333333333333</ele><time>2026-03-29T10:25:12.952Z</time></trkpt><trkpt lat="45.7824979" lon="9.9454087"><ele>339.0</ele><time>2026-03-29T10:25:14.954Z</time></trkpt><trkpt lat="45.7824412" lon="9.9453595"><ele>338.7142857142857</ele><time>2026-03-29T10:25:15.951Z</time></trkpt><trkpt lat="45.7823949" lon="9.9452942"><ele>338.42857142857144</ele><time>2026-03-29T10:25:16.949Z</time></trkpt><trkpt lat="45.7823453" lon="9.9452346"><ele>338.14285714285717</ele><time>2026-03-29T10:25:17.949Z</time></trkpt><trkpt lat="45.7822946" lon="9.9451748"><ele>337.8571428571429</ele><time>2026-03-29T10:25:18.958Z</time></trkpt><trkpt lat="45.782243" lon="9.9451144"><ele>337.57142857142856</ele><time>2026-03-29T10:25:19.955Z</time></trkpt><trkpt lat="45.7821828" lon="9.9450526"><ele>337.28571428571433</ele><time>2026-03-29T10:25:20.947Z</time></trkpt><trkpt lat="45.7821192" lon="9.9450001"><ele>337.0</ele><time>2026-03-29T10:25:21.961Z</time></trkpt><trkpt lat="45.7820594" lon="9.9449447"><ele>337.0</ele><time>2026-03-29T10:25:22.956Z</time></trkpt><trkpt lat="45.781994" lon="9.9448961"><ele>337.0</ele><time>2026-03-29T10:25:23.951Z</time></trkpt><trkpt lat="45.7819197" lon="9.9448523"><ele>337.0</ele><time>2026-03-29T10:25:24.954Z</time></trkpt><trkpt lat="45.7818467" lon="9.944816"><ele>337.0</ele><time>2026-03-29T10:25:25.955Z</time></trkpt><trkpt lat="45.7817739" lon="9.944786"><ele>337.0</ele><time>2026-03-29T10:25:26.955Z</time></trkpt><trkpt lat="45.7817027" lon="9.9447489"><ele>337.0</ele><time>2026-03-29T10:25:27.94Z</time></trkpt><trkpt lat="45.7816364" lon="9.9447203"><ele>337.66666666666663</ele><time>2026-03-29T10:25:28.954Z</time></trkpt><trkpt lat="45.7815724" lon="9.9446908"><ele>338.3333333333333</ele><time>2026-03-29T10:25:29.943Z</time></trkpt><trkpt lat="45.7815096" lon="9.9446603"><ele>339.0</ele><time>2026-03-29T10:25:30.954Z</time></trkpt><trkpt lat="45.7814459" lon="9.9446295"><ele>339.6666666666667</ele><time>2026-03-29T10:25:31.96Z</time></trkpt><trkpt lat="45.7813834" lon="9.9445953"><ele>340.33333333333337</ele><time>2026-03-29T10:25:32.956Z</time></trkpt><trkpt lat="45.7813224" lon="9.9445656"><ele>341.0</ele><time>2026-03-29T10:25:33.954Z</time></trkpt><trkpt lat="45.7812036" lon="9.9445145"><ele>341.0</ele><time>2026-03-29T10:25:35.955Z</time></trkpt><trkpt lat="45.7810924" lon="9.9444465"><ele>341.0</ele><time>2026-03-29T10:25:37.955Z</time></trkpt><trkpt lat="45.7809814" lon="9.9443982"><ele>341.0</ele><time>2026-03-29T10:25:39.954Z</time></trkpt><trkpt lat="45.7808658" lon="9.9443494"><ele>341.0</ele><time>2026-03-29T10:25:41.955Z</time></trkpt><trkpt lat="45.7807565" lon="9.9442942"><ele>341.75</ele><time>2026-03-29T10:25:43.956Z</time></trkpt><trkpt lat="45.7806512" lon="9.9442274"><ele>342.5</ele><time>2026-03-29T10:25:45.952Z</time></trkpt><trkpt lat="45.7805399" lon="9.9441691"><ele>343.25</ele><time>2026-03-29T10:25:47.945Z</time></trkpt><trkpt lat="45.78043" lon="9.9441159"><ele>344.0</ele><time>2026-03-29T10:25:49.954Z</time></trkpt><trkpt lat="45.7803222" lon="9.9440486"><ele>342.75</ele><time>2026-03-29T10:25:52.027Z</time></trkpt><trkpt lat="45.7802149" lon="9.943983"><ele>341.5</ele><time>2026-03-29T10:25:54.027Z</time></trkpt><trkpt lat="45.7801016" lon="9.9439247"><ele>340.25</ele><time>2026-03-29T10:25:55.952Z</time></trkpt><trkpt lat="45.7799909" lon="9.9438664"><ele>339.0</ele><time>2026-03-29T10:25:57.954Z</time></trkpt><trkpt lat="45.7798916" lon="9.9438125"><ele>339.0</ele><time>2026-03-29T10:25:59.957Z</time></trkpt><trkpt lat="45.779791" lon="9.9437588"><ele>339.0</ele><time>2026-03-29T10:26:02.029Z</time></trkpt><trkpt lat="45.7796845" lon="9.9436977"><ele>339.0</ele><time>2026-03-29T10:26:04.027Z</time></trkpt><trkpt lat="45.77958" lon="9.9436397"><ele>339.0</ele><time>2026-03-29T10:26:06.026Z</time></trkpt><trkpt lat="45.7794713" lon="9.9435783"><ele>339.0</ele><time>2026-03-29T10:26:08.033Z</time></trkpt><trkpt lat="45.7793689" lon="9.9435164"><ele>339.0</ele><time>2026-03-29T10:26:09.951Z</time></trkpt><trkpt lat="45.7792751" lon="9.9434547"><ele>339.0</ele><time>2026-03-29T10:26:11.984Z</time></trkpt><trkpt lat="45.7791821" lon="9.9434101"><ele>339.0</ele><time>2026-03-29T10:26:14.036Z</time></trkpt><trkpt lat="45.7790998" lon="9.9433565"><ele>339.0</ele><time>2026-03-29T10:26:16.027Z</time></trkpt><trkpt lat="45.7790267" lon="9.9433066"><ele>339.0</ele><time>2026-03-29T10:26:17.95Z</time></trkpt><trkpt lat="45.7789658" lon="9.9432572"><ele>339.0</ele><time>2026-03-29T10:26:19.945Z</time></trkpt><trkpt lat="45.7789131" lon="9.9432028"><ele>339.0</ele><time>2026-03-29T10:26:23.957Z</time></trkpt><trkpt lat="45.77884" lon="9.9431879"><ele>339.0</ele><time>2026-03-29T10:26:40.948Z</time></trkpt><trkpt lat="45.7787548" lon="9.9431462"><ele>339.0</ele><time>2026-03-29T10:26:43.948Z</time></trkpt><trkpt lat="45.7786744" lon="9.9431181"><ele>339.0</ele><time>2026-03-29T10:26:45.954Z</time></trkpt><trkpt lat="45.7785865" lon="9.9430979"><ele>339.0</ele><time>2026-03-29T10:26:47.952Z</time></trkpt><trkpt lat="45.7785217" lon="9.9431767"><ele>339.0</ele><time>2026-03-29T10:26:49.942Z</time></trkpt><trkpt lat="45.7784898" lon="9.9433092"><ele>339.0</ele><time>2026-03-29T10:26:51.953Z</time></trkpt><trkpt lat="45.7784534" lon="9.9433993"><ele>339.0</ele><time>2026-03-29T10:26:53.961Z</time></trkpt><trkpt lat="45.7783838" lon="9.9434248"><ele>339.0</ele><time>2026-03-29T10:26:56.956Z</time></trkpt><trkpt lat="45.7783164" lon="9.94342"><ele>339.0</ele><time>2026-03-29T10:26:59.025Z</time></trkpt><trkpt lat="45.778248" lon="9.9434004"><ele>341.6</ele><time>2026-03-29T10:27:00.949Z</time></trkpt><trkpt lat="45.7781352" lon="9.943395"><ele>344.2</ele><time>2026-03-29T10:27:02.957Z</time></trkpt><trkpt lat="45.7780168" lon="9.9434134"><ele>346.8</ele><time>2026-03-29T10:27:04.955Z</time></trkpt><trkpt lat="45.7779062" lon="9.9433964"><ele>349.40000000000003</ele><time>2026-03-29T10:27:06.944Z</time></trkpt><trkpt lat="45.7778422" lon="9.9433986"><ele>352.0</ele><time>2026-03-29T10:27:08.013Z</time></trkpt><trkpt lat="45.7777185" lon="9.9434088"><ele>352.25</ele><time>2026-03-29T10:27:09.95Z</time></trkpt><trkpt lat="45.7776152" lon="9.9434631"><ele>352.5</ele><time>2026-03-29T10:27:11.958Z</time></trkpt><trkpt lat="45.7775008" lon="9.9435334"><ele>352.75</ele><time>2026-03-29T10:27:14.027Z</time></trkpt><trkpt lat="45.7773833" lon="9.9435697"><ele>353.0</ele><time>2026-03-29T10:27:15.97Z</time></trkpt><trkpt lat="45.7772648" lon="9.9436087"><ele>353.0</ele><time>2026-03-29T10:27:18.035Z</time></trkpt><trkpt lat="45.7772048" lon="9.9436371"><ele>353.0</ele><time>2026-03-29T10:27:18.954Z</time></trkpt><trkpt lat="45.7770912" lon="9.943703"><ele>353.0</ele><time>2026-03-29T10:27:20.96Z</time></trkpt><trkpt lat="45.7769726" lon="9.9437354"><ele>353.0</ele><time>2026-03-29T10:27:23.029Z</time></trkpt><trkpt lat="45.7769054" lon="9.9437485"><ele>353.0</ele><time>2026-03-29T10:27:23.957Z</time></trkpt><trkpt lat="45.7768413" lon="9.943759"><ele>353.0</ele><time>2026-03-29T10:27:24.958Z</time></trkpt><trkpt lat="45.7767774" lon="9.9437787"><ele>352.2</ele><time>2026-03-29T10:27:25.96Z</time></trkpt><trkpt lat="45.7767143" lon="9.9437899"><ele>351.4</ele><time>2026-03-29T10:27:27.032Z</time></trkpt><trkpt lat="45.7765906" lon="9.9438148"><ele>350.59999999999997</ele><time>2026-03-29T10:27:29.034Z</time></trkpt><trkpt lat="45.7764693" lon="9.9437955"><ele>349.79999999999995</ele><time>2026-03-29T10:27:30.959Z</time></trkpt><trkpt lat="45.7764072" lon="9.9437774"><ele>349.0</ele><time>2026-03-29T10:27:31.96Z</time></trkpt><trkpt lat="45.7762923" lon="9.9437254"><ele>349.0</ele><time>2026-03-29T10:27:34.032Z</time></trkpt><trkpt lat="45.7762318" lon="9.9436889"><ele>349.0</ele><time>2026-03-29T10:27:34.96Z</time></trkpt><trkpt lat="45.7761204" lon="9.9436012"><ele>349.0</ele><time>2026-03-29T10:27:37.075Z</time></trkpt><trkpt lat="45.7760644" lon="9.9435499"><ele>349.0</ele><time>2026-03-29T10:27:38.03Z</time></trkpt><trkpt lat="45.7759639" lon="9.9434629"><ele>349.0</ele><time>2026-03-29T10:27:39.955Z</time></trkpt><trkpt lat="45.7758637" lon="9.9433611"><ele>347.3333333333333</ele><time>2026-03-29T10:27:41.956Z</time></trkpt><trkpt lat="45.7757612" lon="9.9432591"><ele>345.66666666666663</ele><time>2026-03-29T10:27:43.952Z</time></trkpt><trkpt lat="45.7757027" lon="9.9432078"><ele>344.0</ele><time>2026-03-29T10:27:44.948Z</time></trkpt><trkpt lat="45.7756462" lon="9.9431614"><ele>342.3333333333333</ele><time>2026-03-29T10:27:45.986Z</time></trkpt><trkpt lat="45.7755957" lon="9.9431022"><ele>340.6666666666667</ele><time>2026-03-29T10:27:46.954Z</time></trkpt><trkpt lat="45.775544" lon="9.9430486"><ele>339.0</ele><time>2026-03-29T10:27:48.027Z</time></trkpt><trkpt lat="45.7754468" lon="9.9429461"><ele>339.0</ele><time>2026-03-29T10:27:49.951Z</time></trkpt><trkpt lat="45.7753599" lon="9.9428629"><ele>339.0</ele><time>2026-03-29T10:27:51.951Z</time></trkpt><trkpt lat="45.7752641" lon="9.9427829"><ele>339.0</ele><time>2026-03-29T10:27:53.956Z</time></trkpt><trkpt lat="45.7751726" lon="9.9426995"><ele>339.0</ele><time>2026-03-29T10:27:55.953Z</time></trkpt><trkpt lat="45.7750718" lon="9.9426258"><ele>339.0</ele><time>2026-03-29T10:27:58.036Z</time></trkpt><trkpt lat="45.7749725" lon="9.9425529"><ele>339.0</ele><time>2026-03-29T10:27:59.957Z</time></trkpt><trkpt lat="45.7748648" lon="9.942485"><ele>339.0</ele><time>2026-03-29T10:28:01.964Z</time></trkpt><trkpt lat="45.7747579" lon="9.9424243"><ele>339.0</ele><time>2026-03-29T10:28:04.025Z</time></trkpt><trkpt lat="45.7746577" lon="9.9423493"><ele>339.0</ele><time>2026-03-29T10:28:05.949Z</time></trkpt><trkpt lat="45.7745603" lon="9.9422831"><ele>339.0</ele><time>2026-03-29T10:28:08.023Z</time></trkpt><trkpt lat="45.7744617" lon="9.9422115"><ele>339.0</ele><time>2026-03-29T10:28:09.953Z</time></trkpt><trkpt lat="45.7743656" lon="9.9421444"><ele>339.0</ele><time>2026-03-29T10:28:11.973Z</time></trkpt><trkpt lat="45.7742629" lon="9.9420726"><ele>339.0</ele><time>2026-03-29T10:28:13.967Z</time></trkpt><trkpt lat="45.7741636" lon="9.9420038"><ele>339.0</ele><time>2026-03-29T10:28:15.954Z</time></trkpt><trkpt lat="45.7740727" lon="9.9419323"><ele>339.0</ele><time>2026-03-29T10:28:17.955Z</time></trkpt><trkpt lat="45.7739817" lon="9.9418621"><ele>339.0</ele><time>2026-03-29T10:28:19.949Z</time></trkpt><trkpt lat="45.7738872" lon="9.941795"><ele>339.0</ele><time>2026-03-29T10:28:21.944Z</time></trkpt><trkpt lat="45.7737912" lon="9.9417268"><ele>339.0</ele><time>2026-03-29T10:28:23.955Z</time></trkpt><trkpt lat="45.7736945" lon="9.9416587"><ele>339.0</ele><time>2026-03-29T10:28:25.94Z</time></trkpt><trkpt lat="45.7735885" lon="9.9415854"><ele>339.79999999999995</ele><time>2026-03-29T10:28:27.948Z</time></trkpt><trkpt lat="45.7734908" lon="9.9415107"><ele>340.59999999999997</ele><time>2026-03-29T10:28:29.951Z</time></trkpt><trkpt lat="45.773393" lon="9.9414438"><ele>341.4</ele><time>2026-03-29T10:28:31.944Z</time></trkpt><trkpt lat="45.7732874" lon="9.9413774"><ele>342.2</ele><time>2026-03-29T10:28:33.953Z</time></trkpt><trkpt lat="45.7731851" lon="9.9413056"><ele>343.0</ele><time>2026-03-29T10:28:36.033Z</time></trkpt><trkpt lat="45.7730823" lon="9.9412301"><ele>343.0</ele><time>2026-03-29T10:28:38.028Z</time></trkpt><trkpt lat="45.7729777" lon="9.9411501"><ele>343.0</ele><time>2026-03-29T10:28:39.955Z</time></trkpt><trkpt lat="45.7728734" lon="9.9410688"><ele>343.0</ele><time>2026-03-29T10:28:41.955Z</time></trkpt><trkpt lat="45.7727606" lon="9.9409843"><ele>343.0</ele><time>2026-03-29T10:28:43.947Z</time></trkpt><trkpt lat="45.7727018" lon="9.9409414"><ele>343.0</ele><time>2026-03-29T10:28:44.946Z</time></trkpt><trkpt lat="45.7725937" lon="9.9408598"><ele>342.0</ele><time>2026-03-29T10:28:47.032Z</time></trkpt><trkpt lat="45.7724834" lon="9.9407851"><ele>341.0</ele><time>2026-03-29T10:28:48.956Z</time></trkpt><trkpt lat="45.7723742" lon="9.9407217"><ele>340.0</ele><time>2026-03-29T10:28:50.961Z</time></trkpt><trkpt lat="45.772275" lon="9.9406439"><ele>339.0</ele><time>2026-03-29T10:28:52.98Z</time></trkpt><trkpt lat="45.7721637" lon="9.9405728"><ele>339.0</ele><time>2026-03-29T10:28:54.959Z</time></trkpt><trkpt lat="45.7720512" lon="9.9405156"><ele>339.0</ele><time>2026-03-29T10:28:56.956Z</time></trkpt><trkpt lat="45.7719381" lon="9.940464"><ele>339.0</ele><time>2026-03-29T10:28:58.956Z</time></trkpt><trkpt lat="45.7718282" lon="9.9404014"><ele>339.0</ele><time>2026-03-29T10:29:00.959Z</time></trkpt><trkpt lat="45.7717145" lon="9.9403369"><ele>339.75</ele><time>2026-03-29T10:29:02.959Z</time></trkpt><trkpt lat="45.7716059" lon="9.9402705"><ele>340.5</ele><time>2026-03-29T10:29:04.961Z</time></trkpt><trkpt lat="45.7715007" lon="9.9401918"><ele>341.25</ele><time>2026-03-29T10:29:06.959Z</time></trkpt><trkpt lat="45.771396" lon="9.9401115"><ele>342.0</ele><time>2026-03-29T10:29:08.946Z</time></trkpt><trkpt lat="45.7713001" lon="9.9400232"><ele>342.0</ele><time>2026-03-29T10:29:10.957Z</time></trkpt><trkpt lat="45.7712023" lon="9.9399466"><ele>342.0</ele><time>2026-03-29T10:29:12.958Z</time></trkpt><trkpt lat="45.7711107" lon="9.9398596"><ele>342.0</ele><time>2026-03-29T10:29:14.955Z</time></trkpt><trkpt lat="45.7710083" lon="9.9397705"><ele>342.0</ele><time>2026-03-29T10:29:16.955Z</time></trkpt><trkpt lat="45.7709118" lon="9.9396743"><ele>342.0</ele><time>2026-03-29T10:29:18.96Z</time></trkpt><trkpt lat="45.7708209" lon="9.9395824"><ele>342.0</ele><time>2026-03-29T10:29:20.961Z</time></trkpt><trkpt lat="45.770727" lon="9.939497"><ele>342.0</ele><time>2026-03-29T10:29:22.963Z</time></trkpt><trkpt lat="45.7706269" lon="9.9394013"><ele>342.0</ele><time>2026-03-29T10:29:24.961Z</time></trkpt><trkpt lat="45.7705742" lon="9.9393516"><ele>342.0</ele><time>2026-03-29T10:29:25.961Z</time></trkpt><trkpt lat="45.7705174" lon="9.9393089"><ele>342.0</ele><time>2026-03-29T10:29:26.959Z</time></trkpt><trkpt lat="45.7704128" lon="9.9392203"><ele>342.0</ele><time>2026-03-29T10:29:28.954Z</time></trkpt><trkpt lat="45.770308" lon="9.9391281"><ele>342.0</ele><time>2026-03-29T10:29:30.95Z</time></trkpt><trkpt lat="45.7702095" lon="9.939055"><ele>342.0</ele><time>2026-03-29T10:29:32.959Z</time></trkpt><trkpt lat="45.7701155" lon="9.9389723"><ele>341.75</ele><time>2026-03-29T10:29:34.956Z</time></trkpt><trkpt lat="45.7700196" lon="9.9388949"><ele>341.5</ele><time>2026-03-29T10:29:36.962Z</time></trkpt><trkpt lat="45.7699172" lon="9.9388105"><ele>341.25</ele><time>2026-03-29T10:29:38.958Z</time></trkpt><trkpt lat="45.7698109" lon="9.9387185"><ele>341.0</ele><time>2026-03-29T10:29:40.96Z</time></trkpt><trkpt lat="45.7697009" lon="9.9386388"><ele>341.0</ele><time>2026-03-29T10:29:42.956Z</time></trkpt><trkpt lat="45.7695975" lon="9.9385627"><ele>341.0</ele><time>2026-03-29T10:29:44.96Z</time></trkpt><trkpt lat="45.7694901" lon="9.9384997"><ele>341.0</ele><time>2026-03-29T10:29:46.961Z</time></trkpt><trkpt lat="45.7693809" lon="9.9384421"><ele>341.0</ele><time>2026-03-29T10:29:48.958Z</time></trkpt><trkpt lat="45.7692649" lon="9.9383995"><ele>340.20000000000005</ele><time>2026-03-29T10:29:50.956Z</time></trkpt><trkpt lat="45.7692038" lon="9.9383736"><ele>339.40000000000003</ele><time>2026-03-29T10:29:51.96Z</time></trkpt><trkpt lat="45.7690883" lon="9.9383399"><ele>338.6</ele><time>2026-03-29T10:29:53.961Z</time></trkpt><trkpt lat="45.7689742" lon="9.9383039"><ele>337.8</ele><time>2026-03-29T10:29:55.955Z</time></trkpt><trkpt lat="45.7688628" lon="9.9382726"><ele>337.0</ele><time>2026-03-29T10:29:57.958Z</time></trkpt><trkpt lat="45.768747" lon="9.9382355"><ele>337.0</ele><time>2026-03-29T10:29:59.962Z</time></trkpt><trkpt lat="45.7686318" lon="9.9382145"><ele>337.0</ele><time>2026-03-29T10:30:01.961Z</time></trkpt><trkpt lat="45.7685112" lon="9.9382002"><ele>337.0</ele><time>2026-03-29T10:30:03.961Z</time></trkpt><trkpt lat="45.7683897" lon="9.9381834"><ele>337.0</ele><time>2026-03-29T10:30:05.963Z</time></trkpt><trkpt lat="45.7682733" lon="9.938175"><ele>337.40000000000003</ele><time>2026-03-29T10:30:07.953Z</time></trkpt><trkpt lat="45.7682094" lon="9.9381844"><ele>337.8</ele><time>2026-03-29T10:30:08.964Z</time></trkpt><trkpt lat="45.7681463" lon="9.9381921"><ele>338.2</ele><time>2026-03-29T10:30:09.959Z</time></trkpt><trkpt lat="45.7680335" lon="9.9382164"><ele>338.6</ele><time>2026-03-29T10:30:11.958Z</time></trkpt><trkpt lat="45.7679175" lon="9.9382356"><ele>339.0</ele><time>2026-03-29T10:30:13.971Z</time></trkpt><trkpt lat="45.7678012" lon="9.9382657"><ele>339.6</ele><time>2026-03-29T10:30:15.957Z</time></trkpt><trkpt lat="45.7676854" lon="9.9382849"><ele>340.2</ele><time>2026-03-29T10:30:17.957Z</time></trkpt><trkpt lat="45.7675751" lon="9.9382836"><ele>340.8</ele><time>2026-03-29T10:30:19.958Z</time></trkpt><trkpt lat="45.767465" lon="9.9382741"><ele>341.40000000000003</ele><time>2026-03-29T10:30:21.959Z</time></trkpt><trkpt lat="45.7673605" lon="9.9382538"><ele>342.0</ele><time>2026-03-29T10:30:23.965Z</time></trkpt><trkpt lat="45.767255" lon="9.9382173"><ele>342.0</ele><time>2026-03-29T10:30:25.963Z</time></trkpt><trkpt lat="45.767153" lon="9.9381587"><ele>342.0</ele><time>2026-03-29T10:30:27.953Z</time></trkpt><trkpt lat="45.7670578" lon="9.9380965"><ele>342.0</ele><time>2026-03-29T10:30:29.95Z</time></trkpt><trkpt lat="45.7669657" lon="9.9380235"><ele>342.0</ele><time>2026-03-29T10:30:31.96Z</time></trkpt><trkpt lat="45.7668856" lon="9.9379481"><ele>342.0</ele><time>2026-03-29T10:30:33.955Z</time></trkpt><trkpt lat="45.7668006" lon="9.9378716"><ele>342.0</ele><time>2026-03-29T10:30:35.964Z</time></trkpt><trkpt lat="45.7667132" lon="9.9377994"><ele>342.0</ele><time>2026-03-29T10:30:37.955Z</time></trkpt><trkpt lat="45.7666286" lon="9.9377304"><ele>342.0</ele><time>2026-03-29T10:30:39.961Z</time></trkpt><trkpt lat="45.766538" lon="9.9376566"><ele>342.0</ele><time>2026-03-29T10:30:41.958Z</time></trkpt><trkpt lat="45.766446" lon="9.9375725"><ele>342.0</ele><time>2026-03-29T10:30:43.958Z</time></trkpt><trkpt lat="45.7663626" lon="9.9374733"><ele>342.0</ele><time>2026-03-29T10:30:45.957Z</time></trkpt><trkpt lat="45.7662838" lon="9.937373"><ele>342.0</ele><time>2026-03-29T10:30:47.958Z</time></trkpt><trkpt lat="45.7662091" lon="9.9372685"><ele>342.0</ele><time>2026-03-29T10:30:49.953Z</time></trkpt><trkpt lat="45.7661347" lon="9.9371674"><ele>342.0</ele><time>2026-03-29T10:30:51.961Z</time></trkpt><trkpt lat="45.7660694" lon="9.9370592"><ele>342.0</ele><time>2026-03-29T10:30:53.959Z</time></trkpt><trkpt lat="45.7660065" lon="9.9369472"><ele>342.0</ele><time>2026-03-29T10:30:55.961Z</time></trkpt><trkpt lat="45.7659387" lon="9.9368372"><ele>342.0</ele><time>2026-03-29T10:30:57.956Z</time></trkpt><trkpt lat="45.7658812" lon="9.9367208"><ele>342.0</ele><time>2026-03-29T10:30:59.953Z</time></trkpt><trkpt lat="45.7658179" lon="9.9366149"><ele>342.0</ele><time>2026-03-29T10:31:01.957Z</time></trkpt><trkpt lat="45.7657429" lon="9.936529"><ele>342.0</ele><time>2026-03-29T10:31:03.96Z</time></trkpt><trkpt lat="45.7656639" lon="9.9364516"><ele>342.0</ele><time>2026-03-29T10:31:05.96Z</time></trkpt><trkpt lat="45.7655858" lon="9.9363601"><ele>342.0</ele><time>2026-03-29T10:31:07.963Z</time></trkpt><trkpt lat="45.7655111" lon="9.9362685"><ele>342.0</ele><time>2026-03-29T10:31:09.959Z</time></trkpt><trkpt lat="45.7654344" lon="9.936172"><ele>342.0</ele><time>2026-03-29T10:31:11.951Z</time></trkpt><trkpt lat="45.7653548" lon="9.9360835"><ele>342.0</ele><time>2026-03-29T10:31:13.954Z</time></trkpt><trkpt lat="45.7652654" lon="9.9360015"><ele>342.8</ele><time>2026-03-29T10:31:15.958Z</time></trkpt><trkpt lat="45.7651839" lon="9.9359252"><ele>343.6</ele><time>2026-03-29T10:31:17.956Z</time></trkpt><trkpt lat="45.7651029" lon="9.9358475"><ele>344.40000000000003</ele><time>2026-03-29T10:31:19.958Z</time></trkpt><trkpt lat="45.7650177" lon="9.935767"><ele>345.20000000000005</ele><time>2026-03-29T10:31:21.963Z</time></trkpt><trkpt lat="45.7649353" lon="9.9356822"><ele>346.0</ele><time>2026-03-29T10:31:23.956Z</time></trkpt><trkpt lat="45.7648743" lon="9.9355736"><ele>346.0</ele><time>2026-03-29T10:31:25.961Z</time></trkpt><trkpt lat="45.7648145" lon="9.9354638"><ele>346.0</ele><time>2026-03-29T10:31:27.961Z</time></trkpt><trkpt lat="45.7647559" lon="9.9353517"><ele>346.0</ele><time>2026-03-29T10:31:29.965Z</time></trkpt><trkpt lat="45.7646915" lon="9.9352305"><ele>346.0</ele><time>2026-03-29T10:31:31.957Z</time></trkpt><trkpt lat="45.7646204" lon="9.9351048"><ele>346.0</ele><time>2026-03-29T10:31:33.958Z</time></trkpt><trkpt lat="45.7645529" lon="9.9349908"><ele>346.0</ele><time>2026-03-29T10:31:35.961Z</time></trkpt><trkpt lat="45.764484" lon="9.9348647"><ele>346.0</ele><time>2026-03-29T10:31:37.961Z</time></trkpt><trkpt lat="45.7644176" lon="9.9347388"><ele>346.0</ele><time>2026-03-29T10:31:39.954Z</time></trkpt><trkpt lat="45.7643496" lon="9.9346313"><ele>346.0</ele><time>2026-03-29T10:31:41.966Z</time></trkpt><trkpt lat="45.7642828" lon="9.9345167"><ele>346.0</ele><time>2026-03-29T10:31:43.954Z</time></trkpt><trkpt lat="45.7642209" lon="9.9343853"><ele>346.0</ele><time>2026-03-29T10:31:45.963Z</time></trkpt><trkpt lat="45.7641799" lon="9.9342454"><ele>346.0</ele><time>2026-03-29T10:31:47.958Z</time></trkpt><trkpt lat="45.7641559" lon="9.9340935"><ele>346.0</ele><time>2026-03-29T10:31:49.958Z</time></trkpt><trkpt lat="45.7641565" lon="9.9339508"><ele>346.0</ele><time>2026-03-29T10:31:51.958Z</time></trkpt><trkpt lat="45.7641758" lon="9.9337951"><ele>346.0</ele><time>2026-03-29T10:31:53.962Z</time></trkpt><trkpt lat="45.7641925" lon="9.9336509"><ele>345.6</ele><time>2026-03-29T10:31:55.964Z</time></trkpt><trkpt lat="45.7641972" lon="9.9334971"><ele>345.20000000000005</ele><time>2026-03-29T10:31:57.96Z</time></trkpt><trkpt lat="45.7641843" lon="9.9333571"><ele>344.79999999999995</ele><time>2026-03-29T10:31:59.958Z</time></trkpt><trkpt lat="45.764151" lon="9.9332316"><ele>344.4</ele><time>2026-03-29T10:32:01.955Z</time></trkpt><trkpt lat="45.7640784" lon="9.9331179"><ele>344.0</ele><time>2026-03-29T10:32:03.959Z</time></trkpt><trkpt lat="45.7639989" lon="9.9330246"><ele>344.0</ele><time>2026-03-29T10:32:05.95Z</time></trkpt><trkpt lat="45.7639145" lon="9.9329459"><ele>344.0</ele><time>2026-03-29T10:32:07.96Z</time></trkpt><trkpt lat="45.763828" lon="9.9328808"><ele>344.0</ele><time>2026-03-29T10:32:09.959Z</time></trkpt><trkpt lat="45.7637405" lon="9.9328081"><ele>344.0</ele><time>2026-03-29T10:32:11.954Z</time></trkpt><trkpt lat="45.763655" lon="9.9327319"><ele>344.0</ele><time>2026-03-29T10:32:13.957Z</time></trkpt><trkpt lat="45.7635695" lon="9.9326517"><ele>344.6666666666667</ele><time>2026-03-29T10:32:15.959Z</time></trkpt><trkpt lat="45.7634954" lon="9.932567"><ele>345.33333333333337</ele><time>2026-03-29T10:32:17.953Z</time></trkpt><trkpt lat="45.7634198" lon="9.9324818"><ele>346.0</ele><time>2026-03-29T10:32:19.954Z</time></trkpt><trkpt lat="45.7633621" lon="9.9323885"><ele>346.6666666666667</ele><time>2026-03-29T10:32:21.96Z</time></trkpt><trkpt lat="45.7633211" lon="9.9323164"><ele>347.3333333333333</ele><time>2026-03-29T10:32:23.96Z</time></trkpt><trkpt lat="45.7632777" lon="9.9322406"><ele>348.0</ele><time>2026-03-29T10:32:26.962Z</time></trkpt><trkpt lat="45.7632268" lon="9.9321777"><ele>348.79999999999995</ele><time>2026-03-29T10:32:28.965Z</time></trkpt><trkpt lat="45.7631569" lon="9.9320849"><ele>349.6</ele><time>2026-03-29T10:32:30.951Z</time></trkpt><trkpt lat="45.7630784" lon="9.9319979"><ele>350.4</ele><time>2026-03-29T10:32:32.957Z</time></trkpt><trkpt lat="45.7629902" lon="9.9318819"><ele>351.20000000000005</ele><time>2026-03-29T10:32:34.964Z</time></trkpt><trkpt lat="45.7629039" lon="9.9317549"><ele>352.0</ele><time>2026-03-29T10:32:36.956Z</time></trkpt><trkpt lat="45.7627847" lon="9.9316855"><ele>351.8</ele><time>2026-03-29T10:32:38.959Z</time></trkpt><trkpt lat="45.7626685" lon="9.931711"><ele>351.6</ele><time>2026-03-29T10:32:40.96Z</time></trkpt><trkpt lat="45.7625718" lon="9.9316192"><ele>351.40000000000003</ele><time>2026-03-29T10:32:42.956Z</time></trkpt><trkpt lat="45.7625278" lon="9.9315133"><ele>351.20000000000005</ele><time>2026-03-29T10:32:44.96Z</time></trkpt><trkpt lat="45.7624977" lon="9.9313965"><ele>351.0</ele><time>2026-03-29T10:32:45.965Z</time></trkpt><trkpt lat="45.7624524" lon="9.9312917"><ele>351.0</ele><time>2026-03-29T10:32:46.958Z</time></trkpt><trkpt lat="45.762409" lon="9.9311899"><ele>351.0</ele><time>2026-03-29T10:32:47.955Z</time></trkpt><trkpt lat="45.7623667" lon="9.9310807"><ele>351.0</ele><time>2026-03-29T10:32:48.956Z</time></trkpt><trkpt lat="45.762327" lon="9.9309668"><ele>351.0</ele><time>2026-03-29T10:32:49.964Z</time></trkpt><trkpt lat="45.7622815" lon="9.9308504"><ele>351.0</ele><time>2026-03-29T10:32:50.963Z</time></trkpt><trkpt lat="45.7622299" lon="9.9307366"><ele>351.0</ele><time>2026-03-29T10:32:51.955Z</time></trkpt><trkpt lat="45.7621777" lon="9.9306249"><ele>350.0</ele><time>2026-03-29T10:32:52.959Z</time></trkpt><trkpt lat="45.7621238" lon="9.9305213"><ele>349.0</ele><time>2026-03-29T10:32:53.952Z</time></trkpt><trkpt lat="45.7620696" lon="9.9304051"><ele>348.0</ele><time>2026-03-29T10:32:54.965Z</time></trkpt><trkpt lat="45.7620078" lon="9.9303061"><ele>347.0</ele><time>2026-03-29T10:32:55.958Z</time></trkpt><trkpt lat="45.7619462" lon="9.9302143"><ele>346.0</ele><time>2026-03-29T10:32:56.962Z</time></trkpt><trkpt lat="45.7618803" lon="9.9301293"><ele>345.20000000000005</ele><time>2026-03-29T10:32:57.964Z</time></trkpt><trkpt lat="45.7618136" lon="9.9300514"><ele>344.40000000000003</ele><time>2026-03-29T10:32:58.958Z</time></trkpt><trkpt lat="45.7617431" lon="9.9299699"><ele>343.6</ele><time>2026-03-29T10:32:59.96Z</time></trkpt><trkpt lat="45.7616746" lon="9.9298877"><ele>342.8</ele><time>2026-03-29T10:33:00.956Z</time></trkpt><trkpt lat="45.7616011" lon="9.9298096"><ele>342.0</ele><time>2026-03-29T10:33:01.957Z</time></trkpt><trkpt lat="45.7615209" lon="9.9297404"><ele>342.0</ele><time>2026-03-29T10:33:02.955Z</time></trkpt><trkpt lat="45.7614355" lon="9.9296947"><ele>342.0</ele><time>2026-03-29T10:33:03.959Z</time></trkpt><trkpt lat="45.7613594" lon="9.9296487"><ele>342.0</ele><time>2026-03-29T10:33:04.959Z</time></trkpt><trkpt lat="45.7612862" lon="9.9296124"><ele>342.0</ele><time>2026-03-29T10:33:05.959Z</time></trkpt><trkpt lat="45.761219" lon="9.9295731"><ele>342.0</ele><time>2026-03-29T10:33:06.962Z</time></trkpt><trkpt lat="45.7611499" lon="9.9295459"><ele>342.0</ele><time>2026-03-29T10:33:07.961Z</time></trkpt><trkpt lat="45.7610878" lon="9.9295202"><ele>344.25</ele><time>2026-03-29T10:33:08.963Z</time></trkpt><trkpt lat="45.7609722" lon="9.929467"><ele>346.5</ele><time>2026-03-29T10:33:10.958Z</time></trkpt><trkpt lat="45.7608626" lon="9.9294156"><ele>348.75</ele><time>2026-03-29T10:33:12.958Z</time></trkpt><trkpt lat="45.7607669" lon="9.9293616"><ele>351.0</ele><time>2026-03-29T10:33:14.957Z</time></trkpt><trkpt lat="45.7606596" lon="9.9293198"><ele>351.0</ele><time>2026-03-29T10:33:16.955Z</time></trkpt><trkpt lat="45.7605594" lon="9.9292773"><ele>351.0</ele><time>2026-03-29T10:33:18.962Z</time></trkpt><trkpt lat="45.7604585" lon="9.9292219"><ele>351.0</ele><time>2026-03-29T10:33:20.958Z</time></trkpt><trkpt lat="45.7603623" lon="9.9291477"><ele>351.0</ele><time>2026-03-29T10:33:22.965Z</time></trkpt><trkpt lat="45.760299" lon="9.9291105"><ele>351.0</ele><time>2026-03-29T10:33:23.954Z</time></trkpt><trkpt lat="45.7602413" lon="9.929053"><ele>350.8571428571429</ele><time>2026-03-29T10:33:24.955Z</time></trkpt><trkpt lat="45.7601874" lon="9.9289862"><ele>350.7142857142857</ele><time>2026-03-29T10:33:25.956Z</time></trkpt><trkpt lat="45.7601381" lon="9.9289204"><ele>350.57142857142856</ele><time>2026-03-29T10:33:26.959Z</time></trkpt><trkpt lat="45.7600979" lon="9.9288475"><ele>350.42857142857144</ele><time>2026-03-29T10:33:27.959Z</time></trkpt><trkpt lat="45.7600605" lon="9.9287673"><ele>350.2857142857143</ele><time>2026-03-29T10:33:28.956Z</time></trkpt><trkpt lat="45.7600255" lon="9.9286859"><ele>350.14285714285717</ele><time>2026-03-29T10:33:29.959Z</time></trkpt><trkpt lat="45.7599921" lon="9.9286081"><ele>350.0</ele><time>2026-03-29T10:33:30.964Z</time></trkpt><trkpt lat="45.7599587" lon="9.9285214"><ele>350.0</ele><time>2026-03-29T10:33:31.949Z</time></trkpt><trkpt lat="45.759924" lon="9.9284368"><ele>350.0</ele><time>2026-03-29T10:33:32.954Z</time></trkpt><trkpt lat="45.7598913" lon="9.9283595"><ele>350.0</ele><time>2026-03-29T10:33:33.958Z</time></trkpt><trkpt lat="45.759824" lon="9.9282082"><ele>350.0</ele><time>2026-03-29T10:33:35.955Z</time></trkpt><trkpt lat="45.7597849" lon="9.9281305"><ele>350.0</ele><time>2026-03-29T10:33:36.96Z</time></trkpt><trkpt lat="45.7597479" lon="9.9280547"><ele>350.0</ele><time>2026-03-29T10:33:37.96Z</time></trkpt><trkpt lat="45.7596803" lon="9.927913"><ele>348.25</ele><time>2026-03-29T10:33:39.96Z</time></trkpt><trkpt lat="45.7596068" lon="9.9277691"><ele>346.5</ele><time>2026-03-29T10:33:41.96Z</time></trkpt><trkpt lat="45.7595322" lon="9.9276301"><ele>344.75</ele><time>2026-03-29T10:33:43.96Z</time></trkpt><trkpt lat="45.759476" lon="9.9274858"><ele>343.0</ele><time>2026-03-29T10:33:45.957Z</time></trkpt><trkpt lat="45.7594083" lon="9.9273513"><ele>344.5</ele><time>2026-03-29T10:33:47.962Z</time></trkpt><trkpt lat="45.7593477" lon="9.9272157"><ele>346.0</ele><time>2026-03-29T10:33:49.956Z</time></trkpt><trkpt lat="45.7592806" lon="9.9270803"><ele>347.5</ele><time>2026-03-29T10:33:51.957Z</time></trkpt><trkpt lat="45.7592102" lon="9.9269466"><ele>349.0</ele><time>2026-03-29T10:33:53.947Z</time></trkpt><trkpt lat="45.7591511" lon="9.9267911"><ele>346.75</ele><time>2026-03-29T10:33:55.965Z</time></trkpt><trkpt lat="45.7590926" lon="9.9266516"><ele>344.5</ele><time>2026-03-29T10:33:57.955Z</time></trkpt><trkpt lat="45.7590264" lon="9.9265215"><ele>342.25</ele><time>2026-03-29T10:33:59.959Z</time></trkpt><trkpt lat="45.7589681" lon="9.92638"><ele>340.0</ele><time>2026-03-29T10:34:01.962Z</time></trkpt><trkpt lat="45.7589056" lon="9.9262516"><ele>340.0</ele><time>2026-03-29T10:34:04.034Z</time></trkpt><trkpt lat="45.7588433" lon="9.9261016"><ele>340.0</ele><time>2026-03-29T10:34:05.958Z</time></trkpt><trkpt lat="45.7587857" lon="9.925953"><ele>340.0</ele><time>2026-03-29T10:34:08.034Z</time></trkpt><trkpt lat="45.7587272" lon="9.9257975"><ele>340.0</ele><time>2026-03-29T10:34:09.951Z</time></trkpt><trkpt lat="45.7586704" lon="9.9256494"><ele>340.8</ele><time>2026-03-29T10:34:11.961Z</time></trkpt><trkpt lat="45.7586227" lon="9.9254938"><ele>341.6</ele><time>2026-03-29T10:34:13.96Z</time></trkpt><trkpt lat="45.7585929" lon="9.9253486"><ele>342.4</ele><time>2026-03-29T10:34:15.952Z</time></trkpt><trkpt lat="45.7585481" lon="9.9252045"><ele>343.2</ele><time>2026-03-29T10:34:18.033Z</time></trkpt><trkpt lat="45.7584956" lon="9.925071"><ele>344.0</ele><time>2026-03-29T10:34:19.959Z</time></trkpt><trkpt lat="45.7584523" lon="9.9249291"><ele>344.0</ele><time>2026-03-29T10:34:21.953Z</time></trkpt><trkpt lat="45.758435" lon="9.9247775"><ele>344.0</ele><time>2026-03-29T10:34:23.96Z</time></trkpt><trkpt lat="45.7584249" lon="9.9246222"><ele>344.0</ele><time>2026-03-29T10:34:26.033Z</time></trkpt><trkpt lat="45.7584105" lon="9.9244746"><ele>344.0</ele><time>2026-03-29T10:34:27.982Z</time></trkpt><trkpt lat="45.7583795" lon="9.9243148"><ele>344.0</ele><time>2026-03-29T10:34:29.954Z</time></trkpt><trkpt lat="45.7583419" lon="9.9241923"><ele>343.79999999999995</ele><time>2026-03-29T10:34:32.067Z</time></trkpt><trkpt lat="45.7582992" lon="9.9240637"><ele>343.59999999999997</ele><time>2026-03-29T10:34:34.028Z</time></trkpt><trkpt lat="45.7582651" lon="9.9239341"><ele>343.4</ele><time>2026-03-29T10:34:35.947Z</time></trkpt><trkpt lat="45.7582196" lon="9.9237975"><ele>343.2</ele><time>2026-03-29T10:34:38.029Z</time></trkpt><trkpt lat="45.7581814" lon="9.9236719"><ele>343.0</ele><time>2026-03-29T10:34:39.959Z</time></trkpt><trkpt lat="45.7581396" lon="9.9235296"><ele>343.0</ele><time>2026-03-29T10:34:42.057Z</time></trkpt><trkpt lat="45.75808" lon="9.9234017"><ele>343.0</ele><time>2026-03-29T10:34:44.026Z</time></trkpt><trkpt lat="45.7580076" lon="9.9232935"><ele>343.0</ele><time>2026-03-29T10:34:45.962Z</time></trkpt><trkpt lat="45.7579284" lon="9.9232139"><ele>343.0</ele><time>2026-03-29T10:34:48.03Z</time></trkpt><trkpt lat="45.7578529" lon="9.923136"><ele>343.0</ele><time>2026-03-29T10:34:49.949Z</time></trkpt><trkpt lat="45.7577763" lon="9.9230542"><ele>343.79999999999995</ele><time>2026-03-29T10:34:52.021Z</time></trkpt><trkpt lat="45.7576952" lon="9.9229615"><ele>344.6</ele><time>2026-03-29T10:34:53.956Z</time></trkpt><trkpt lat="45.757616" lon="9.9228794"><ele>345.4</ele><time>2026-03-29T10:34:55.956Z</time></trkpt><trkpt lat="45.757546" lon="9.9227831"><ele>346.20000000000005</ele><time>2026-03-29T10:34:57.953Z</time></trkpt><trkpt lat="45.7574804" lon="9.9226689"><ele>347.0</ele><time>2026-03-29T10:34:59.952Z</time></trkpt><trkpt lat="45.7574302" lon="9.9225274"><ele>347.0</ele><time>2026-03-29T10:35:01.955Z</time></trkpt><trkpt lat="45.757391" lon="9.9223824"><ele>347.0</ele><time>2026-03-29T10:35:03.956Z</time></trkpt><trkpt lat="45.7573472" lon="9.9222234"><ele>347.0</ele><time>2026-03-29T10:35:05.959Z</time></trkpt><trkpt lat="45.7573031" lon="9.9220621"><ele>347.0</ele><time>2026-03-29T10:35:08.024Z</time></trkpt><trkpt lat="45.7572802" lon="9.9219718"><ele>347.0</ele><time>2026-03-29T10:35:09.042Z</time></trkpt><trkpt lat="45.7572284" lon="9.9218127"><ele>347.20000000000005</ele><time>2026-03-29T10:35:10.952Z</time></trkpt><trkpt lat="45.7571826" lon="9.9216593"><ele>347.4</ele><time>2026-03-29T10:35:13.033Z</time></trkpt><trkpt lat="45.7571361" lon="9.9214976"><ele>347.6</ele><time>2026-03-29T10:35:14.948Z</time></trkpt><trkpt lat="45.7571128" lon="9.9214119"><ele>347.79999999999995</ele><time>2026-03-29T10:35:15.949Z</time></trkpt><trkpt lat="45.7570868" lon="9.9213254"><ele>348.0</ele><time>2026-03-29T10:35:16.978Z</time></trkpt><trkpt lat="45.7570387" lon="9.9211644"><ele>348.0</ele><time>2026-03-29T10:35:19.032Z</time></trkpt><trkpt lat="45.7569993" lon="9.9210068"><ele>348.0</ele><time>2026-03-29T10:35:20.966Z</time></trkpt><trkpt lat="45.7569726" lon="9.9208411"><ele>348.0</ele><time>2026-03-29T10:35:23.029Z</time></trkpt><trkpt lat="45.7569651" lon="9.9206575"><ele>348.0</ele><time>2026-03-29T10:35:24.952Z</time></trkpt><trkpt lat="45.7569663" lon="9.9205612"><ele>348.0</ele><time>2026-03-29T10:35:25.96Z</time></trkpt><trkpt lat="45.7569746" lon="9.9204698"><ele>347.79999999999995</ele><time>2026-03-29T10:35:26.95Z</time></trkpt><trkpt lat="45.7569925" lon="9.9202919"><ele>347.6</ele><time>2026-03-29T10:35:29.041Z</time></trkpt><trkpt lat="45.7570201" lon="9.9201199"><ele>347.4</ele><time>2026-03-29T10:35:30.951Z</time></trkpt><trkpt lat="45.7570399" lon="9.919943"><ele>347.20000000000005</ele><time>2026-03-29T10:35:33.029Z</time></trkpt><trkpt lat="45.757044" lon="9.9198496"><ele>347.0</ele><time>2026-03-29T10:35:34.029Z</time></trkpt><trkpt lat="45.7570417" lon="9.9197522"><ele>346.5</ele><time>2026-03-29T10:35:34.964Z</time></trkpt><trkpt lat="45.7570269" lon="9.9196579"><ele>346.0</ele><time>2026-03-29T10:35:35.948Z</time></trkpt><trkpt lat="45.757006" lon="9.919566"><ele>345.5</ele><time>2026-03-29T10:35:36.952Z</time></trkpt><trkpt lat="45.7569823" lon="9.9194762"><ele>345.0</ele><time>2026-03-29T10:35:37.95Z</time></trkpt><trkpt lat="45.7569135" lon="9.9193252"><ele>344.5</ele><time>2026-03-29T10:35:39.955Z</time></trkpt><trkpt lat="45.756869" lon="9.9192534"><ele>344.0</ele><time>2026-03-29T10:35:41.032Z</time></trkpt><trkpt lat="45.7567887" lon="9.9191191"><ele>343.6</ele><time>2026-03-29T10:35:42.955Z</time></trkpt><trkpt lat="45.7567487" lon="9.9190462"><ele>343.2</ele><time>2026-03-29T10:35:43.95Z</time></trkpt><trkpt lat="45.7567091" lon="9.9189753"><ele>342.8</ele><time>2026-03-29T10:35:44.943Z</time></trkpt><trkpt lat="45.7566405" lon="9.9188342"><ele>342.40000000000003</ele><time>2026-03-29T10:35:46.947Z</time></trkpt><trkpt lat="45.756579" lon="9.9186927"><ele>342.0</ele><time>2026-03-29T10:35:49.032Z</time></trkpt><trkpt lat="45.7565175" lon="9.9185616"><ele>342.0</ele><time>2026-03-29T10:35:50.965Z</time></trkpt><trkpt lat="45.7564532" lon="9.9184204"><ele>342.0</ele><time>2026-03-29T10:35:52.983Z</time></trkpt><trkpt lat="45.7563947" lon="9.9182814"><ele>342.0</ele><time>2026-03-29T10:35:54.958Z</time></trkpt><trkpt lat="45.7563365" lon="9.9181352"><ele>342.0</ele><time>2026-03-29T10:35:56.969Z</time></trkpt><trkpt lat="45.756269" lon="9.9180087"><ele>341.5</ele><time>2026-03-29T10:35:58.962Z</time></trkpt><trkpt lat="45.7561998" lon="9.917874"><ele>341.0</ele><time>2026-03-29T10:36:01.024Z</time></trkpt><trkpt lat="45.7561205" lon="9.9177445"><ele>340.5</ele><time>2026-03-29T10:36:02.952Z</time></trkpt><trkpt lat="45.7560303" lon="9.9176376"><ele>340.0</ele><time>2026-03-29T10:36:04.958Z</time></trkpt><trkpt lat="45.7559285" lon="9.9175476"><ele>339.5</ele><time>2026-03-29T10:36:07.028Z</time></trkpt><trkpt lat="45.7558242" lon="9.9174547"><ele>339.0</ele><time>2026-03-29T10:36:08.973Z</time></trkpt><trkpt lat="45.7557284" lon="9.917372"><ele>338.5</ele><time>2026-03-29T10:36:10.958Z</time></trkpt><trkpt lat="45.7556308" lon="9.9173059"><ele>338.0</ele><time>2026-03-29T10:36:13.036Z</time></trkpt><trkpt lat="45.7555319" lon="9.9172409"><ele>338.0</ele><time>2026-03-29T10:36:14.953Z</time></trkpt><trkpt lat="45.7554361" lon="9.9171628"><ele>338.0</ele><time>2026-03-29T10:36:16.955Z</time></trkpt><trkpt lat="45.7553464" lon="9.9170761"><ele>338.0</ele><time>2026-03-29T10:36:18.954Z</time></trkpt><trkpt lat="45.7552561" lon="9.9169858"><ele>338.0</ele><time>2026-03-29T10:36:21.032Z</time></trkpt><trkpt lat="45.7551698" lon="9.9168733"><ele>338.0</ele><time>2026-03-29T10:36:23.04Z</time></trkpt><trkpt lat="45.7550946" lon="9.9167648"><ele>337.4</ele><time>2026-03-29T10:36:24.998Z</time></trkpt><trkpt lat="45.755021" lon="9.9166591"><ele>336.79999999999995</ele><time>2026-03-29T10:36:26.952Z</time></trkpt><trkpt lat="45.7549551" lon="9.9165467"><ele>336.2</ele><time>2026-03-29T10:36:28.946Z</time></trkpt><trkpt lat="45.7548797" lon="9.916436"><ele>335.6</ele><time>2026-03-29T10:36:30.949Z</time></trkpt><trkpt lat="45.7548067" lon="9.9163216"><ele>335.0</ele><time>2026-03-29T10:36:32.956Z</time></trkpt><trkpt lat="45.7547325" lon="9.9162136"><ele>335.0</ele><time>2026-03-29T10:36:34.962Z</time></trkpt><trkpt lat="45.7546671" lon="9.9161113"><ele>335.0</ele><time>2026-03-29T10:36:37.082Z</time></trkpt><trkpt lat="45.754591" lon="9.916008"><ele>335.0</ele><time>2026-03-29T10:36:39.034Z</time></trkpt><trkpt lat="45.7545117" lon="9.9159186"><ele>335.0</ele><time>2026-03-29T10:36:40.954Z</time></trkpt><trkpt lat="45.7544326" lon="9.9158215"><ele>335.0</ele><time>2026-03-29T10:36:43.028Z</time></trkpt><trkpt lat="45.7543525" lon="9.9157153"><ele>335.4</ele><time>2026-03-29T10:36:44.953Z</time></trkpt><trkpt lat="45.7542676" lon="9.9156013"><ele>335.8</ele><time>2026-03-29T10:36:46.967Z</time></trkpt><trkpt lat="45.7541845" lon="9.9155003"><ele>336.20000000000005</ele><time>2026-03-29T10:36:49.025Z</time></trkpt><trkpt lat="45.7541063" lon="9.915403"><ele>336.6</ele><time>2026-03-29T10:36:50.951Z</time></trkpt><trkpt lat="45.7540213" lon="9.9153047"><ele>337.0</ele><time>2026-03-29T10:36:52.955Z</time></trkpt><trkpt lat="45.7539264" lon="9.9152108"><ele>337.0</ele><time>2026-03-29T10:36:54.942Z</time></trkpt><trkpt lat="45.7538459" lon="9.9151102"><ele>337.0</ele><time>2026-03-29T10:36:56.953Z</time></trkpt><trkpt lat="45.7537551" lon="9.9150096"><ele>337.0</ele><time>2026-03-29T10:36:58.938Z</time></trkpt><trkpt lat="45.7536693" lon="9.914909"><ele>337.0</ele><time>2026-03-29T10:37:00.947Z</time></trkpt><trkpt lat="45.753597" lon="9.9147876"><ele>337.0</ele><time>2026-03-29T10:37:03.028Z</time></trkpt><trkpt lat="45.7535354" lon="9.9146715"><ele>337.20000000000005</ele><time>2026-03-29T10:37:04.946Z</time></trkpt><trkpt lat="45.7534679" lon="9.9145439"><ele>337.4</ele><time>2026-03-29T10:37:06.947Z</time></trkpt><trkpt lat="45.7533984" lon="9.9144212"><ele>337.6</ele><time>2026-03-29T10:37:09.036Z</time></trkpt><trkpt lat="45.7533356" lon="9.9143011"><ele>337.79999999999995</ele><time>2026-03-29T10:37:10.948Z</time></trkpt><trkpt lat="45.7532653" lon="9.914181"><ele>338.0</ele><time>2026-03-29T10:37:12.95Z</time></trkpt><trkpt lat="45.7531943" lon="9.9140684"><ele>337.2</ele><time>2026-03-29T10:37:14.953Z</time></trkpt><trkpt lat="45.7531225" lon="9.9139625"><ele>336.4</ele><time>2026-03-29T10:37:16.947Z</time></trkpt><trkpt lat="45.753056" lon="9.9138327"><ele>335.59999999999997</ele><time>2026-03-29T10:37:18.958Z</time></trkpt><trkpt lat="45.7529829" lon="9.9137066"><ele>334.79999999999995</ele><time>2026-03-29T10:37:20.954Z</time></trkpt><trkpt lat="45.7529069" lon="9.9136034"><ele>334.0</ele><time>2026-03-29T10:37:23.03Z</time></trkpt><trkpt lat="45.7528247" lon="9.9135005"><ele>333.6</ele><time>2026-03-29T10:37:24.945Z</time></trkpt><trkpt lat="45.7527432" lon="9.9133912"><ele>333.2</ele><time>2026-03-29T10:37:26.965Z</time></trkpt><trkpt lat="45.7526591" lon="9.9132823"><ele>332.8</ele><time>2026-03-29T10:37:29.028Z</time></trkpt><trkpt lat="45.7525859" lon="9.9131734"><ele>332.40000000000003</ele><time>2026-03-29T10:37:30.95Z</time></trkpt><trkpt lat="45.7525043" lon="9.9130672"><ele>332.0</ele><time>2026-03-29T10:37:33.027Z</time></trkpt><trkpt lat="45.7524268" lon="9.9129652"><ele>332.6</ele><time>2026-03-29T10:37:34.945Z</time></trkpt><trkpt lat="45.7523407" lon="9.912866"><ele>333.20000000000005</ele><time>2026-03-29T10:37:36.961Z</time></trkpt><trkpt lat="45.7522559" lon="9.9127796"><ele>333.8</ele><time>2026-03-29T10:37:38.961Z</time></trkpt><trkpt lat="45.7521708" lon="9.9127023"><ele>334.4</ele><time>2026-03-29T10:37:40.957Z</time></trkpt><trkpt lat="45.7520819" lon="9.9126207"><ele>335.0</ele><time>2026-03-29T10:37:43.032Z</time></trkpt><trkpt lat="45.7519992" lon="9.9125453"><ele>335.0</ele><time>2026-03-29T10:37:44.956Z</time></trkpt><trkpt lat="45.7519089" lon="9.9124654"><ele>335.0</ele><time>2026-03-29T10:37:46.958Z</time></trkpt><trkpt lat="45.7518154" lon="9.9123795"><ele>335.0</ele><time>2026-03-29T10:37:48.96Z</time></trkpt><trkpt lat="45.7517044" lon="9.9122933"><ele>335.0</ele><time>2026-03-29T10:37:50.955Z</time></trkpt><trkpt lat="45.751602" lon="9.9122075"><ele>335.6</ele><time>2026-03-29T10:37:52.953Z</time></trkpt><trkpt lat="45.7515003" lon="9.9121285"><ele>336.2</ele><time>2026-03-29T10:37:54.963Z</time></trkpt><trkpt lat="45.751401" lon="9.9120514"><ele>336.79999999999995</ele><time>2026-03-29T10:37:56.95Z</time></trkpt><trkpt lat="45.7512959" lon="9.9120154"><ele>337.4</ele><time>2026-03-29T10:37:59.029Z</time></trkpt><trkpt lat="45.751204" lon="9.9120226"><ele>338.0</ele><time>2026-03-29T10:38:00.953Z</time></trkpt><trkpt lat="45.7511179" lon="9.9120229"><ele>340.2</ele><time>2026-03-29T10:38:02.958Z</time></trkpt><trkpt lat="45.7510395" lon="9.9120392"><ele>342.4</ele><time>2026-03-29T10:38:04.953Z</time></trkpt><trkpt lat="45.7509628" lon="9.9120453"><ele>344.59999999999997</ele><time>2026-03-29T10:38:06.951Z</time></trkpt><trkpt lat="45.7508672" lon="9.9119717"><ele>346.79999999999995</ele><time>2026-03-29T10:38:08.958Z</time></trkpt><trkpt lat="45.7507684" lon="9.9118683"><ele>349.0</ele><time>2026-03-29T10:38:10.951Z</time></trkpt><trkpt lat="45.7506786" lon="9.9117491"><ele>347.2</ele><time>2026-03-29T10:38:12.972Z</time></trkpt><trkpt lat="45.7506312" lon="9.9116846"><ele>345.4</ele><time>2026-03-29T10:38:13.957Z</time></trkpt><trkpt lat="45.7505842" lon="9.9116207"><ele>343.6</ele><time>2026-03-29T10:38:14.955Z</time></trkpt><trkpt lat="45.750484" lon="9.9115153"><ele>341.8</ele><time>2026-03-29T10:38:16.956Z</time></trkpt><trkpt lat="45.7503955" lon="9.9114173"><ele>340.0</ele><time>2026-03-29T10:38:18.959Z</time></trkpt><trkpt lat="45.7503156" lon="9.9113145"><ele>340.0</ele><time>2026-03-29T10:38:20.956Z</time></trkpt><trkpt lat="45.7502402" lon="9.9112135"><ele>340.0</ele><time>2026-03-29T10:38:22.956Z</time></trkpt><trkpt lat="45.7501698" lon="9.9111195"><ele>340.0</ele><time>2026-03-29T10:38:24.961Z</time></trkpt><trkpt lat="45.7500849" lon="9.91105"><ele>340.0</ele><time>2026-03-29T10:38:26.957Z</time></trkpt><trkpt lat="45.7499845" lon="9.9109827"><ele>340.0</ele><time>2026-03-29T10:38:29.036Z</time></trkpt><trkpt lat="45.7498927" lon="9.9109186"><ele>339.8</ele><time>2026-03-29T10:38:30.953Z</time></trkpt><trkpt lat="45.7498043" lon="9.9108667"><ele>339.6</ele><time>2026-03-29T10:38:32.954Z</time></trkpt><trkpt lat="45.7497117" lon="9.9108427"><ele>339.4</ele><time>2026-03-29T10:38:34.956Z</time></trkpt><trkpt lat="45.7496014" lon="9.9108252"><ele>339.2</ele><time>2026-03-29T10:38:36.98Z</time></trkpt><trkpt lat="45.749489" lon="9.9107945"><ele>339.0</ele><time>2026-03-29T10:38:39.025Z</time></trkpt><trkpt lat="45.7493851" lon="9.9107747"><ele>339.0</ele><time>2026-03-29T10:38:40.968Z</time></trkpt><trkpt lat="45.7492895" lon="9.9107489"><ele>339.0</ele><time>2026-03-29T10:38:42.966Z</time></trkpt><trkpt lat="45.7492005" lon="9.9107229"><ele>339.0</ele><time>2026-03-29T10:38:44.966Z</time></trkpt><trkpt lat="45.7491029" lon="9.9106824"><ele>339.0</ele><time>2026-03-29T10:38:47.045Z</time></trkpt><trkpt lat="45.7490031" lon="9.9106386"><ele>339.0</ele><time>2026-03-29T10:38:48.953Z</time></trkpt><trkpt lat="45.7489101" lon="9.9105924"><ele>339.0</ele><time>2026-03-29T10:38:50.953Z</time></trkpt><trkpt lat="45.7488066" lon="9.9105778"><ele>339.0</ele><time>2026-03-29T10:38:52.958Z</time></trkpt><trkpt lat="45.7487067" lon="9.9105478"><ele>339.0</ele><time>2026-03-29T10:38:54.954Z</time></trkpt><trkpt lat="45.7486377" lon="9.9105065"><ele>339.0</ele><time>2026-03-29T10:38:56.956Z</time></trkpt><trkpt lat="45.7485767" lon="9.9104837"><ele>339.0</ele><time>2026-03-29T10:38:58.954Z</time></trkpt><trkpt lat="45.7485093" lon="9.9104273"><ele>339.0</ele><time>2026-03-29T10:39:02.033Z</time></trkpt><trkpt lat="45.748445" lon="9.9104221"><ele>339.0</ele><time>2026-03-29T10:39:03.943Z</time></trkpt><trkpt lat="45.7483957" lon="9.9105504"><ele>339.0</ele><time>2026-03-29T10:39:06.948Z</time></trkpt><trkpt lat="45.748369" lon="9.9106651"><ele>339.0</ele><time>2026-03-29T10:39:08.957Z</time></trkpt><trkpt lat="45.7483087" lon="9.910774"><ele>339.0</ele><time>2026-03-29T10:39:11.951Z</time></trkpt><trkpt lat="45.7482474" lon="9.9108343"><ele>339.0</ele><time>2026-03-29T10:39:17.029Z</time></trkpt><trkpt lat="45.7481691" lon="9.9108515"><ele>339.0</ele><time>2026-03-29T10:39:19.954Z</time></trkpt><trkpt lat="45.7480965" lon="9.9108325"><ele>339.0</ele><time>2026-03-29T10:39:21.963Z</time></trkpt><trkpt lat="45.7479973" lon="9.9107595"><ele>339.0</ele><time>2026-03-29T10:39:23.954Z</time></trkpt><trkpt lat="45.7479396" lon="9.9107148"><ele>339.0</ele><time>2026-03-29T10:39:24.949Z</time></trkpt><trkpt lat="45.7478606" lon="9.9106713"><ele>339.0</ele><time>2026-03-29T10:39:25.94Z</time></trkpt><trkpt lat="45.7477697" lon="9.9106342"><ele>339.0</ele><time>2026-03-29T10:39:26.955Z</time></trkpt><trkpt lat="45.747687" lon="9.910614"><ele>339.0</ele><time>2026-03-29T10:39:27.957Z</time></trkpt><trkpt lat="45.7476103" lon="9.9105857"><ele>338.6666666666667</ele><time>2026-03-29T10:39:28.951Z</time></trkpt><trkpt lat="45.7475319" lon="9.9105615"><ele>338.3333333333333</ele><time>2026-03-29T10:39:29.952Z</time></trkpt><trkpt lat="45.7474511" lon="9.91054"><ele>338.0</ele><time>2026-03-29T10:39:30.95Z</time></trkpt><trkpt lat="45.7473737" lon="9.9105226"><ele>337.66666666666663</ele><time>2026-03-29T10:39:31.953Z</time></trkpt><trkpt lat="45.7472889" lon="9.9105129"><ele>337.3333333333333</ele><time>2026-03-29T10:39:32.948Z</time></trkpt><trkpt lat="45.7472063" lon="9.9105105"><ele>337.0</ele><time>2026-03-29T10:39:33.953Z</time></trkpt><trkpt lat="45.7471298" lon="9.9105146"><ele>337.0</ele><time>2026-03-29T10:39:34.953Z</time></trkpt><trkpt lat="45.7470539" lon="9.9105252"><ele>337.0</ele><time>2026-03-29T10:39:35.953Z</time></trkpt><trkpt lat="45.7469798" lon="9.9105365"><ele>337.0</ele><time>2026-03-29T10:39:37.026Z</time></trkpt><trkpt lat="45.746909" lon="9.9105404"><ele>337.0</ele><time>2026-03-29T10:39:37.952Z</time></trkpt><trkpt lat="45.7468458" lon="9.9105435"><ele>337.0</ele><time>2026-03-29T10:39:39.035Z</time></trkpt><trkpt lat="45.7467309" lon="9.910552"><ele>337.0</ele><time>2026-03-29T10:39:40.958Z</time></trkpt><trkpt lat="45.7466452" lon="9.9105361"><ele>337.16666666666663</ele><time>2026-03-29T10:39:42.96Z</time></trkpt><trkpt lat="45.7465568" lon="9.910528"><ele>337.3333333333333</ele><time>2026-03-29T10:39:44.96Z</time></trkpt><trkpt lat="45.7464617" lon="9.9105544"><ele>337.5</ele><time>2026-03-29T10:39:46.956Z</time></trkpt><trkpt lat="45.7463766" lon="9.9105779"><ele>337.6666666666667</ele><time>2026-03-29T10:39:48.953Z</time></trkpt><trkpt lat="45.7463127" lon="9.9106179"><ele>337.83333333333337</ele><time>2026-03-29T10:39:50.957Z</time></trkpt><trkpt lat="45.7462492" lon="9.9106722"><ele>338.0</ele><time>2026-03-29T10:39:52.953Z</time></trkpt><trkpt lat="45.7461878" lon="9.9107035"><ele>338.0</ele><time>2026-03-29T10:39:54.958Z</time></trkpt><trkpt lat="45.7461237" lon="9.9107573"><ele>338.0</ele><time>2026-03-29T10:39:57.042Z</time></trkpt><trkpt lat="45.7460543" lon="9.9108052"><ele>338.0</ele><time>2026-03-29T10:39:58.955Z</time></trkpt><trkpt lat="45.7459845" lon="9.9108459"><ele>338.0</ele><time>2026-03-29T10:40:00.955Z</time></trkpt><trkpt lat="45.7459155" lon="9.9108544"><ele>338.0</ele><time>2026-03-29T10:40:02.96Z</time></trkpt><trkpt lat="45.7458364" lon="9.9108601"><ele>338.0</ele><time>2026-03-29T10:40:04.956Z</time></trkpt><trkpt lat="45.7457361" lon="9.9108509"><ele>337.83333333333337</ele><time>2026-03-29T10:40:07.03Z</time></trkpt><trkpt lat="45.7456204" lon="9.9107999"><ele>337.6666666666667</ele><time>2026-03-29T10:40:08.949Z</time></trkpt><trkpt lat="45.745559" lon="9.9107716"><ele>337.5</ele><time>2026-03-29T10:40:09.944Z</time></trkpt><trkpt lat="45.7454896" lon="9.9107538"><ele>337.3333333333333</ele><time>2026-03-29T10:40:10.956Z</time></trkpt><trkpt lat="45.7454182" lon="9.9107413"><ele>337.16666666666663</ele><time>2026-03-29T10:40:11.955Z</time></trkpt><trkpt lat="45.7453501" lon="9.9107341"><ele>337.0</ele><time>2026-03-29T10:40:12.953Z</time></trkpt><trkpt lat="45.7452855" lon="9.9107308"><ele>337.0</ele><time>2026-03-29T10:40:13.954Z</time></trkpt><trkpt lat="45.7452124" lon="9.9107194"><ele>337.0</ele><time>2026-03-29T10:40:14.957Z</time></trkpt><trkpt lat="45.7451378" lon="9.9107003"><ele>337.0</ele><time>2026-03-29T10:40:15.95Z</time></trkpt><trkpt lat="45.7450608" lon="9.9106763"><ele>337.0</ele><time>2026-03-29T10:40:17.022Z</time></trkpt><trkpt lat="45.7449803" lon="9.9106499"><ele>337.0</ele><time>2026-03-29T10:40:17.946Z</time></trkpt><trkpt lat="45.7449023" lon="9.9106298"><ele>337.0</ele><time>2026-03-29T10:40:18.95Z</time></trkpt><trkpt lat="45.7448284" lon="9.9106264"><ele>337.3333333333333</ele><time>2026-03-29T10:40:19.952Z</time></trkpt><trkpt lat="45.7447589" lon="9.9106342"><ele>337.66666666666663</ele><time>2026-03-29T10:40:20.946Z</time></trkpt><trkpt lat="45.7446925" lon="9.9106466"><ele>338.0</ele><time>2026-03-29T10:40:21.953Z</time></trkpt><trkpt lat="45.7446303" lon="9.9106758"><ele>338.3333333333333</ele><time>2026-03-29T10:40:22.945Z</time></trkpt><trkpt lat="45.7445664" lon="9.9107119"><ele>338.6666666666667</ele><time>2026-03-29T10:40:23.948Z</time></trkpt><trkpt lat="45.7445053" lon="9.9107383"><ele>339.0</ele><time>2026-03-29T10:40:24.957Z</time></trkpt><trkpt lat="45.7443871" lon="9.9107602"><ele>338.75</ele><time>2026-03-29T10:40:26.954Z</time></trkpt><trkpt lat="45.7442728" lon="9.9107579"><ele>338.5</ele><time>2026-03-29T10:40:28.961Z</time></trkpt><trkpt lat="45.7441542" lon="9.9107427"><ele>338.25</ele><time>2026-03-29T10:40:31.057Z</time></trkpt><trkpt lat="45.7440338" lon="9.9107155"><ele>338.0</ele><time>2026-03-29T10:40:33.037Z</time></trkpt><trkpt lat="45.7438508" lon="9.9106763"><ele>338.0</ele><time>2026-03-29T10:40:36.034Z</time></trkpt><trkpt lat="45.743786" lon="9.9106646"><ele>338.0</ele><time>2026-03-29T10:40:36.954Z</time></trkpt><trkpt lat="45.7437199" lon="9.9106566"><ele>338.0</ele><time>2026-03-29T10:40:38.02Z</time></trkpt><trkpt lat="45.7436494" lon="9.9106619"><ele>338.0</ele><time>2026-03-29T10:40:39.047Z</time></trkpt><trkpt lat="45.7435868" lon="9.9106792"><ele>338.0</ele><time>2026-03-29T10:40:39.959Z</time></trkpt><trkpt lat="45.7435238" lon="9.9107118"><ele>338.0</ele><time>2026-03-29T10:40:40.96Z</time></trkpt><trkpt lat="45.7434126" lon="9.9107833"><ele>337.5</ele><time>2026-03-29T10:40:43.032Z</time></trkpt><trkpt lat="45.7433511" lon="9.91083"><ele>337.0</ele><time>2026-03-29T10:40:44.019Z</time></trkpt><trkpt lat="45.7432446" lon="9.9109107"><ele>336.5</ele><time>2026-03-29T10:40:45.95Z</time></trkpt><trkpt lat="45.7431874" lon="9.9109496"><ele>336.0</ele><time>2026-03-29T10:40:46.95Z</time></trkpt><trkpt lat="45.7430964" lon="9.9110129"><ele>335.5</ele><time>2026-03-29T10:40:49.028Z</time></trkpt><trkpt lat="45.7430141" lon="9.9110563"><ele>335.0</ele><time>2026-03-29T10:40:50.953Z</time></trkpt><trkpt lat="45.7429279" lon="9.9111035"><ele>336.33333333333337</ele><time>2026-03-29T10:40:52.96Z</time></trkpt><trkpt lat="45.742841" lon="9.9111522"><ele>337.6666666666667</ele><time>2026-03-29T10:40:54.958Z</time></trkpt><trkpt lat="45.7427583" lon="9.9111859"><ele>339.0</ele><time>2026-03-29T10:40:56.951Z</time></trkpt><trkpt lat="45.7426926" lon="9.911224"><ele>340.3333333333333</ele><time>2026-03-29T10:40:58.95Z</time></trkpt><trkpt lat="45.7426166" lon="9.9112732"><ele>341.66666666666663</ele><time>2026-03-29T10:41:00.954Z</time></trkpt><trkpt lat="45.7425437" lon="9.9113216"><ele>343.0</ele><time>2026-03-29T10:41:02.956Z</time></trkpt><trkpt lat="45.742464" lon="9.9113708"><ele>343.0</ele><time>2026-03-29T10:41:04.978Z</time></trkpt><trkpt lat="45.7423874" lon="9.9114298"><ele>343.0</ele><time>2026-03-29T10:41:06.94Z</time></trkpt><trkpt lat="45.7423156" lon="9.9114905"><ele>343.0</ele><time>2026-03-29T10:41:08.945Z</time></trkpt><trkpt lat="45.7422564" lon="9.9115653"><ele>343.0</ele><time>2026-03-29T10:41:10.95Z</time></trkpt><trkpt lat="45.7421781" lon="9.9116473"><ele>343.0</ele><time>2026-03-29T10:41:12.942Z</time></trkpt><trkpt lat="45.7420714" lon="9.911712"><ele>343.0</ele><time>2026-03-29T10:41:14.943Z</time></trkpt><trkpt lat="45.7419897" lon="9.9117481"><ele>343.0</ele><time>2026-03-29T10:41:16.944Z</time></trkpt><trkpt lat="45.741895" lon="9.9117785"><ele>343.0</ele><time>2026-03-29T10:41:18.946Z</time></trkpt><trkpt lat="45.7418126" lon="9.9118111"><ele>343.0</ele><time>2026-03-29T10:41:20.946Z</time></trkpt><trkpt lat="45.7417351" lon="9.9118412"><ele>343.0</ele><time>2026-03-29T10:41:23.033Z</time></trkpt><trkpt lat="45.7416548" lon="9.9118512"><ele>343.0</ele><time>2026-03-29T10:41:24.962Z</time></trkpt><trkpt lat="45.7415671" lon="9.9118579"><ele>343.0</ele><time>2026-03-29T10:41:26.965Z</time></trkpt><trkpt lat="45.7414854" lon="9.9118236"><ele>343.0</ele><time>2026-03-29T10:41:28.96Z</time></trkpt><trkpt lat="45.7414109" lon="9.9117439"><ele>343.0</ele><time>2026-03-29T10:41:30.974Z</time></trkpt><trkpt lat="45.7412827" lon="9.9116885"><ele>343.0</ele><time>2026-03-29T10:41:32.97Z</time></trkpt><trkpt lat="45.7411976" lon="9.9116999"><ele>343.0</ele><time>2026-03-29T10:41:33.957Z</time></trkpt><trkpt lat="45.7411188" lon="9.9117354"><ele>341.59999999999997</ele><time>2026-03-29T10:41:34.959Z</time></trkpt><trkpt lat="45.7410177" lon="9.911783"><ele>340.2</ele><time>2026-03-29T10:41:35.964Z</time></trkpt><trkpt lat="45.7409192" lon="9.9118076"><ele>338.8</ele><time>2026-03-29T10:41:36.962Z</time></trkpt><trkpt lat="45.7408091" lon="9.9118109"><ele>337.4</ele><time>2026-03-29T10:41:37.966Z</time></trkpt><trkpt lat="45.7407022" lon="9.9117949"><ele>336.0</ele><time>2026-03-29T10:41:39.032Z</time></trkpt><trkpt lat="45.7405986" lon="9.9117785"><ele>336.0</ele><time>2026-03-29T10:41:39.948Z</time></trkpt><trkpt lat="45.7404912" lon="9.9117614"><ele>336.0</ele><time>2026-03-29T10:41:40.955Z</time></trkpt><trkpt lat="45.7403823" lon="9.9117603"><ele>336.0</ele><time>2026-03-29T10:41:41.969Z</time></trkpt><trkpt lat="45.7402798" lon="9.9117772"><ele>336.0</ele><time>2026-03-29T10:41:43.031Z</time></trkpt><trkpt lat="45.7401808" lon="9.9118266"><ele>336.0</ele><time>2026-03-29T10:41:44.03Z</time></trkpt><trkpt lat="45.740083" lon="9.9118951"><ele>335.6</ele><time>2026-03-29T10:41:44.952Z</time></trkpt><trkpt lat="45.7399861" lon="9.9119572"><ele>335.20000000000005</ele><time>2026-03-29T10:41:45.955Z</time></trkpt><trkpt lat="45.7398892" lon="9.9120015"><ele>334.79999999999995</ele><time>2026-03-29T10:41:46.966Z</time></trkpt><trkpt lat="45.7397843" lon="9.9120226"><ele>334.4</ele><time>2026-03-29T10:41:48.039Z</time></trkpt><trkpt lat="45.7396842" lon="9.9120162"><ele>334.0</ele><time>2026-03-29T10:41:49.028Z</time></trkpt><trkpt lat="45.7395908" lon="9.911972"><ele>334.0</ele><time>2026-03-29T10:41:49.971Z</time></trkpt><trkpt lat="45.7394898" lon="9.9119543"><ele>334.0</ele><time>2026-03-29T10:41:50.958Z</time></trkpt><trkpt lat="45.7394065" lon="9.9119169"><ele>334.0</ele><time>2026-03-29T10:41:51.996Z</time></trkpt><trkpt lat="45.7393256" lon="9.9118862"><ele>334.0</ele><time>2026-03-29T10:41:52.958Z</time></trkpt><trkpt lat="45.7392524" lon="9.9118489"><ele>334.0</ele><time>2026-03-29T10:41:54.035Z</time></trkpt><trkpt lat="45.7391794" lon="9.9118235"><ele>334.0</ele><time>2026-03-29T10:41:54.962Z</time></trkpt><trkpt lat="45.7391124" lon="9.9118045"><ele>332.0</ele><time>2026-03-29T10:41:55.964Z</time></trkpt><trkpt lat="45.7389933" lon="9.91178"><ele>330.0</ele><time>2026-03-29T10:41:58.029Z</time></trkpt><trkpt lat="45.7388875" lon="9.9117614"><ele>328.0</ele><time>2026-03-29T10:41:59.951Z</time></trkpt><trkpt lat="45.7387842" lon="9.9117426"><ele>326.0</ele><time>2026-03-29T10:42:01.943Z</time></trkpt><trkpt lat="45.7386848" lon="9.9117204"><ele>324.0</ele><time>2026-03-29T10:42:03.985Z</time></trkpt><trkpt lat="45.738592" lon="9.9116891"><ele>325.0</ele><time>2026-03-29T10:42:05.96Z</time></trkpt><trkpt lat="45.7384959" lon="9.9116525"><ele>326.0</ele><time>2026-03-29T10:42:07.949Z</time></trkpt><trkpt lat="45.7384104" lon="9.9115989"><ele>327.0</ele><time>2026-03-29T10:42:09.954Z</time></trkpt><trkpt lat="45.7383204" lon="9.9115335"><ele>328.0</ele><time>2026-03-29T10:42:12.031Z</time></trkpt><trkpt lat="45.738224" lon="9.9114497"><ele>329.0</ele><time>2026-03-29T10:42:13.949Z</time></trkpt><trkpt lat="45.7381274" lon="9.9113687"><ele>329.0</ele><time>2026-03-29T10:42:15.952Z</time></trkpt><trkpt lat="45.7380201" lon="9.9112957"><ele>329.0</ele><time>2026-03-29T10:42:17.948Z</time></trkpt><trkpt lat="45.7379171" lon="9.9112274"><ele>329.0</ele><time>2026-03-29T10:42:19.943Z</time></trkpt><trkpt lat="45.7378173" lon="9.9111558"><ele>329.0</ele><time>2026-03-29T10:42:21.953Z</time></trkpt><trkpt lat="45.7377105" lon="9.9110848"><ele>330.2</ele><time>2026-03-29T10:42:24.049Z</time></trkpt><trkpt lat="45.7376147" lon="9.9110246"><ele>331.4</ele><time>2026-03-29T10:42:25.958Z</time></trkpt><trkpt lat="45.7375163" lon="9.9109834"><ele>332.6</ele><time>2026-03-29T10:42:28.064Z</time></trkpt><trkpt lat="45.7374235" lon="9.910941"><ele>333.8</ele><time>2026-03-29T10:42:29.967Z</time></trkpt><trkpt lat="45.7373244" lon="9.9108957"><ele>335.0</ele><time>2026-03-29T10:42:32.028Z</time></trkpt><trkpt lat="45.7372238" lon="9.9108533"><ele>333.4</ele><time>2026-03-29T10:42:34.034Z</time></trkpt><trkpt lat="45.7371248" lon="9.9107958"><ele>331.8</ele><time>2026-03-29T10:42:35.959Z</time></trkpt><trkpt lat="45.7370197" lon="9.910755"><ele>330.20000000000005</ele><time>2026-03-29T10:42:38.025Z</time></trkpt><trkpt lat="45.7369172" lon="9.910695"><ele>328.6</ele><time>2026-03-29T10:42:39.961Z</time></trkpt><trkpt lat="45.7368112" lon="9.9106602"><ele>327.0</ele><time>2026-03-29T10:42:42.033Z</time></trkpt><trkpt lat="45.7367126" lon="9.9106575"><ele>327.0</ele><time>2026-03-29T10:42:44.029Z</time></trkpt><trkpt lat="45.7366136" lon="9.9106877"><ele>327.0</ele><time>2026-03-29T10:42:45.954Z</time></trkpt><trkpt lat="45.736511" lon="9.9107035"><ele>327.0</ele><time>2026-03-29T10:42:47.955Z</time></trkpt><trkpt lat="45.7364173" lon="9.9107035"><ele>327.0</ele><time>2026-03-29T10:42:49.957Z</time></trkpt><trkpt lat="45.7363252" lon="9.9106935"><ele>327.0</ele><time>2026-03-29T10:42:51.956Z</time></trkpt><trkpt lat="45.7362339" lon="9.910691"><ele>327.0</ele><time>2026-03-29T10:42:54.028Z</time></trkpt><trkpt lat="45.7361494" lon="9.9106788"><ele>327.0</ele><time>2026-03-29T10:42:55.95Z</time></trkpt><trkpt lat="45.7360577" lon="9.9106693"><ele>327.0</ele><time>2026-03-29T10:42:57.959Z</time></trkpt><trkpt lat="45.7359644" lon="9.9106502"><ele>327.0</ele><time>2026-03-29T10:42:59.947Z</time></trkpt><trkpt lat="45.7358726" lon="9.9106484"><ele>327.0</ele><time>2026-03-29T10:43:02.008Z</time></trkpt><trkpt lat="45.7357854" lon="9.9106538"><ele>327.8333333333333</ele><time>2026-03-29T10:43:03.96Z</time></trkpt><trkpt lat="45.7356889" lon="9.9106538"><ele>328.6666666666667</ele><time>2026-03-29T10:43:05.955Z</time></trkpt><trkpt lat="45.7356252" lon="9.9106477"><ele>329.5</ele><time>2026-03-29T10:43:07.024Z</time></trkpt><trkpt lat="45.7355565" lon="9.9106594"><ele>330.33333333333337</ele><time>2026-03-29T10:43:08.029Z</time></trkpt><trkpt lat="45.7354851" lon="9.9106629"><ele>331.1666666666667</ele><time>2026-03-29T10:43:09.027Z</time></trkpt><trkpt lat="45.7354103" lon="9.9106664"><ele>332.0</ele><time>2026-03-29T10:43:09.984Z</time></trkpt><trkpt lat="45.7353297" lon="9.9106804"><ele>332.0</ele><time>2026-03-29T10:43:11.034Z</time></trkpt><trkpt lat="45.7352515" lon="9.9106901"><ele>332.0</ele><time>2026-03-29T10:43:12.027Z</time></trkpt><trkpt lat="45.7351726" lon="9.9107013"><ele>332.0</ele><time>2026-03-29T10:43:13.021Z</time></trkpt><trkpt lat="45.7350889" lon="9.9107186"><ele>332.0</ele><time>2026-03-29T10:43:13.957Z</time></trkpt><trkpt lat="45.735006" lon="9.9107349"><ele>332.0</ele><time>2026-03-29T10:43:14.95Z</time></trkpt><trkpt lat="45.7349192" lon="9.9107598"><ele>332.0</ele><time>2026-03-29T10:43:15.944Z</time></trkpt><trkpt lat="45.7348304" lon="9.9107968"><ele>332.20000000000005</ele><time>2026-03-29T10:43:16.951Z</time></trkpt><trkpt lat="45.7347407" lon="9.9108342"><ele>332.4</ele><time>2026-03-29T10:43:17.952Z</time></trkpt><trkpt lat="45.7346559" lon="9.9108817"><ele>332.6</ele><time>2026-03-29T10:43:18.955Z</time></trkpt><trkpt lat="45.7345672" lon="9.9109265"><ele>332.79999999999995</ele><time>2026-03-29T10:43:19.956Z</time></trkpt><trkpt lat="45.7344815" lon="9.9109664"><ele>333.0</ele><time>2026-03-29T10:43:20.951Z</time></trkpt><trkpt lat="45.7343976" lon="9.9110034"><ele>331.2</ele><time>2026-03-29T10:43:22.032Z</time></trkpt><trkpt lat="45.734313" lon="9.9110445"><ele>329.4</ele><time>2026-03-29T10:43:23.031Z</time></trkpt><trkpt lat="45.7342272" lon="9.9110879"><ele>327.59999999999997</ele><time>2026-03-29T10:43:24.033Z</time></trkpt><trkpt lat="45.734144" lon="9.9111449"><ele>325.79999999999995</ele><time>2026-03-29T10:43:24.949Z</time></trkpt><trkpt lat="45.7340592" lon="9.9111915"><ele>324.0</ele><time>2026-03-29T10:43:25.951Z</time></trkpt><trkpt lat="45.7339738" lon="9.9112411"><ele>324.0</ele><time>2026-03-29T10:43:26.938Z</time></trkpt><trkpt lat="45.733894" lon="9.9112837"><ele>324.0</ele><time>2026-03-29T10:43:27.957Z</time></trkpt><trkpt lat="45.7338154" lon="9.9113205"><ele>324.0</ele><time>2026-03-29T10:43:28.957Z</time></trkpt><trkpt lat="45.7337391" lon="9.9113569"><ele>324.0</ele><time>2026-03-29T10:43:29.949Z</time></trkpt><trkpt lat="45.7336635" lon="9.9113775"><ele>324.0</ele><time>2026-03-29T10:43:30.959Z</time></trkpt><trkpt lat="45.733592" lon="9.9114"><ele>324.0</ele><time>2026-03-29T10:43:31.954Z</time></trkpt><trkpt lat="45.7335208" lon="9.9114144"><ele>322.8</ele><time>2026-03-29T10:43:32.949Z</time></trkpt><trkpt lat="45.7334491" lon="9.9114326"><ele>321.59999999999997</ele><time>2026-03-29T10:43:34.03Z</time></trkpt><trkpt lat="45.7333836" lon="9.9114374"><ele>320.4</ele><time>2026-03-29T10:43:34.957Z</time></trkpt><trkpt lat="45.7333092" lon="9.9113091"><ele>319.2</ele><time>2026-03-29T10:43:36.958Z</time></trkpt><trkpt lat="45.7333098" lon="9.9111366"><ele>318.0</ele><time>2026-03-29T10:43:38.956Z</time></trkpt><trkpt lat="45.7333376" lon="9.9109887"><ele>317.4</ele><time>2026-03-29T10:43:40.956Z</time></trkpt><trkpt lat="45.7333648" lon="9.9108463"><ele>316.8</ele><time>2026-03-29T10:43:43.032Z</time></trkpt><trkpt lat="45.7333989" lon="9.9107176"><ele>316.2</ele><time>2026-03-29T10:43:44.958Z</time></trkpt><trkpt lat="45.7334336" lon="9.9105886"><ele>315.6</ele><time>2026-03-29T10:43:46.95Z</time></trkpt><trkpt lat="45.733475" lon="9.91045"><ele>315.0</ele><time>2026-03-29T10:43:48.945Z</time></trkpt><trkpt lat="45.7335066" lon="9.9103121"><ele>315.0</ele><time>2026-03-29T10:43:50.954Z</time></trkpt><trkpt lat="45.7335431" lon="9.9101934"><ele>315.0</ele><time>2026-03-29T10:43:52.956Z</time></trkpt><trkpt lat="45.7335821" lon="9.9100622"><ele>315.0</ele><time>2026-03-29T10:43:54.954Z</time></trkpt><trkpt lat="45.7336009" lon="9.9099165"><ele>315.0</ele><time>2026-03-29T10:43:56.953Z</time></trkpt><trkpt lat="45.7336087" lon="9.9097844"><ele>315.0</ele><time>2026-03-29T10:43:59.022Z</time></trkpt><trkpt lat="45.7336084" lon="9.9096717"><ele>315.1666666666667</ele><time>2026-03-29T10:44:00.955Z</time></trkpt><trkpt lat="45.7335804" lon="9.9095618"><ele>315.3333333333333</ele><time>2026-03-29T10:44:02.951Z</time></trkpt><trkpt lat="45.7335227" lon="9.9094932"><ele>315.5</ele><time>2026-03-29T10:44:05.947Z</time></trkpt><trkpt lat="45.7334603" lon="9.9095076"><ele>315.66666666666663</ele><time>2026-03-29T10:44:12.969Z</time></trkpt><trkpt lat="45.7335247" lon="9.9095639"><ele>315.8333333333333</ele><time>2026-03-29T10:44:47.956Z</time></trkpt><trkpt lat="45.7335565" lon="9.9096929"><ele>316.0</ele><time>2026-03-29T10:44:50.957Z</time></trkpt><trkpt lat="45.7335718" lon="9.9098386"><ele>316.0</ele><time>2026-03-29T10:44:52.965Z</time></trkpt><trkpt lat="45.7335693" lon="9.9099733"><ele>316.0</ele><time>2026-03-29T10:44:54.965Z</time></trkpt><trkpt lat="45.7335389" lon="9.9101"><ele>316.0</ele><time>2026-03-29T10:44:56.966Z</time></trkpt><trkpt lat="45.7335104" lon="9.9102389"><ele>316.0</ele><time>2026-03-29T10:44:58.969Z</time></trkpt><trkpt lat="45.7334708" lon="9.9103807"><ele>316.0</ele><time>2026-03-29T10:45:00.964Z</time></trkpt><trkpt lat="45.733432" lon="9.9105258"><ele>315.8</ele><time>2026-03-29T10:45:02.969Z</time></trkpt><trkpt lat="45.7333931" lon="9.9106699"><ele>315.6</ele><time>2026-03-29T10:45:04.966Z</time></trkpt><trkpt lat="45.733358" lon="9.9108052"><ele>315.4</ele><time>2026-03-29T10:45:06.965Z</time></trkpt><trkpt lat="45.7333195" lon="9.9109387"><ele>315.2</ele><time>2026-03-29T10:45:08.968Z</time></trkpt><trkpt lat="45.733287" lon="9.9110705"><ele>315.0</ele><time>2026-03-29T10:45:10.965Z</time></trkpt><trkpt lat="45.7332527" lon="9.9111952"><ele>315.6</ele><time>2026-03-29T10:45:13.033Z</time></trkpt><trkpt lat="45.7332193" lon="9.9113197"><ele>316.2</ele><time>2026-03-29T10:45:14.949Z</time></trkpt><trkpt lat="45.7331678" lon="9.9114439"><ele>316.8</ele><time>2026-03-29T10:45:16.955Z</time></trkpt><trkpt lat="45.7330863" lon="9.9115129"><ele>317.4</ele><time>2026-03-29T10:45:19.033Z</time></trkpt><trkpt lat="45.7329948" lon="9.9115195"><ele>318.0</ele><time>2026-03-29T10:45:20.952Z</time></trkpt><trkpt lat="45.7329013" lon="9.9114929"><ele>318.0</ele><time>2026-03-29T10:45:23.023Z</time></trkpt><trkpt lat="45.7328051" lon="9.9114405"><ele>318.0</ele><time>2026-03-29T10:45:24.957Z</time></trkpt><trkpt lat="45.7327352" lon="9.9113557"><ele>318.0</ele><time>2026-03-29T10:45:26.955Z</time></trkpt><trkpt lat="45.7326803" lon="9.911262"><ele>318.0</ele><time>2026-03-29T10:45:28.952Z</time></trkpt><trkpt lat="45.7326221" lon="9.9111605"><ele>318.0</ele><time>2026-03-29T10:45:30.974Z</time></trkpt><trkpt lat="45.7325684" lon="9.9110404"><ele>317.2</ele><time>2026-03-29T10:45:32.959Z</time></trkpt><trkpt lat="45.7325258" lon="9.9109009"><ele>316.4</ele><time>2026-03-29T10:45:34.957Z</time></trkpt><trkpt lat="45.7324858" lon="9.9107654"><ele>315.59999999999997</ele><time>2026-03-29T10:45:36.957Z</time></trkpt><trkpt lat="45.7324377" lon="9.9106457"><ele>314.8</ele><time>2026-03-29T10:45:38.972Z</time></trkpt><trkpt lat="45.7323924" lon="9.9105399"><ele>314.0</ele><time>2026-03-29T10:45:40.957Z</time></trkpt><trkpt lat="45.7323441" lon="9.9104291"><ele>314.0</ele><time>2026-03-29T10:45:42.959Z</time></trkpt><trkpt lat="45.7322827" lon="9.9103128"><ele>314.0</ele><time>2026-03-29T10:45:44.963Z</time></trkpt><trkpt lat="45.7322222" lon="9.910195"><ele>314.0</ele><time>2026-03-29T10:45:47.028Z</time></trkpt><trkpt lat="45.7321777" lon="9.9101278"><ele>314.0</ele><time>2026-03-29T10:45:47.956Z</time></trkpt><trkpt lat="45.7321262" lon="9.9100706"><ele>314.0</ele><time>2026-03-29T10:45:48.957Z</time></trkpt><trkpt lat="45.7320255" lon="9.9099852"><ele>313.8</ele><time>2026-03-29T10:45:50.958Z</time></trkpt><trkpt lat="45.7319257" lon="9.909884"><ele>313.59999999999997</ele><time>2026-03-29T10:45:52.957Z</time></trkpt><trkpt lat="45.7318256" lon="9.9097945"><ele>313.4</ele><time>2026-03-29T10:45:54.958Z</time></trkpt><trkpt lat="45.7317335" lon="9.9097169"><ele>313.2</ele><time>2026-03-29T10:45:56.962Z</time></trkpt><trkpt lat="45.7316494" lon="9.9096458"><ele>313.0</ele><time>2026-03-29T10:45:58.965Z</time></trkpt><trkpt lat="45.7315612" lon="9.9095909"><ele>312.6</ele><time>2026-03-29T10:46:00.964Z</time></trkpt><trkpt lat="45.7314716" lon="9.9095342"><ele>312.20000000000005</ele><time>2026-03-29T10:46:02.961Z</time></trkpt><trkpt lat="45.7313893" lon="9.9094588"><ele>311.8</ele><time>2026-03-29T10:46:04.965Z</time></trkpt><trkpt lat="45.7313131" lon="9.9093614"><ele>311.40000000000003</ele><time>2026-03-29T10:46:06.964Z</time></trkpt><trkpt lat="45.7312344" lon="9.9092663"><ele>311.0</ele><time>2026-03-29T10:46:08.967Z</time></trkpt><trkpt lat="45.7311628" lon="9.9091755"><ele>311.0</ele><time>2026-03-29T10:46:10.965Z</time></trkpt><trkpt lat="45.7310933" lon="9.9090888"><ele>311.0</ele><time>2026-03-29T10:46:12.96Z</time></trkpt><trkpt lat="45.731012" lon="9.909003"><ele>311.0</ele><time>2026-03-29T10:46:14.965Z</time></trkpt><trkpt lat="45.7309284" lon="9.9089157"><ele>311.0</ele><time>2026-03-29T10:46:16.966Z</time></trkpt><trkpt lat="45.7308587" lon="9.9088097"><ele>311.0</ele><time>2026-03-29T10:46:18.961Z</time></trkpt><trkpt lat="45.7308064" lon="9.9086913"><ele>311.2</ele><time>2026-03-29T10:46:20.964Z</time></trkpt><trkpt lat="45.7307572" lon="9.9085705"><ele>311.40000000000003</ele><time>2026-03-29T10:46:22.968Z</time></trkpt><trkpt lat="45.7307061" lon="9.9084626"><ele>311.6</ele><time>2026-03-29T10:46:24.96Z</time></trkpt><trkpt lat="45.7306382" lon="9.9083789"><ele>311.8</ele><time>2026-03-29T10:46:26.965Z</time></trkpt><trkpt lat="45.7305688" lon="9.9082992"><ele>312.0</ele><time>2026-03-29T10:46:28.965Z</time></trkpt><trkpt lat="45.7304924" lon="9.9082375"><ele>312.0</ele><time>2026-03-29T10:46:30.969Z</time></trkpt><trkpt lat="45.7304043" lon="9.9082084"><ele>312.0</ele><time>2026-03-29T10:46:32.959Z</time></trkpt><trkpt lat="45.7303041" lon="9.9081748"><ele>312.0</ele><time>2026-03-29T10:46:34.965Z</time></trkpt><trkpt lat="45.7302023" lon="9.9081363"><ele>312.0</ele><time>2026-03-29T10:46:36.969Z</time></trkpt><trkpt lat="45.7301068" lon="9.9080851"><ele>312.0</ele><time>2026-03-29T10:46:38.965Z</time></trkpt><trkpt lat="45.7300188" lon="9.90802"><ele>312.0</ele><time>2026-03-29T10:46:40.967Z</time></trkpt><trkpt lat="45.7299407" lon="9.9079615"><ele>312.0</ele><time>2026-03-29T10:46:42.966Z</time></trkpt><trkpt lat="45.7298811" lon="9.9078767"><ele>312.0</ele><time>2026-03-29T10:46:44.969Z</time></trkpt><trkpt lat="45.7298366" lon="9.9077818"><ele>312.0</ele><time>2026-03-29T10:46:46.973Z</time></trkpt><trkpt lat="45.7297921" lon="9.9076718"><ele>312.0</ele><time>2026-03-29T10:46:48.966Z</time></trkpt><trkpt lat="45.7297448" lon="9.9075534"><ele>312.0</ele><time>2026-03-29T10:46:50.969Z</time></trkpt><trkpt lat="45.7297009" lon="9.9074225"><ele>312.0</ele><time>2026-03-29T10:46:52.969Z</time></trkpt><trkpt lat="45.7296594" lon="9.9072954"><ele>312.0</ele><time>2026-03-29T10:46:54.964Z</time></trkpt><trkpt lat="45.7296169" lon="9.9071696"><ele>312.0</ele><time>2026-03-29T10:46:56.966Z</time></trkpt><trkpt lat="45.7295549" lon="9.9070576"><ele>312.0</ele><time>2026-03-29T10:46:58.965Z</time></trkpt><trkpt lat="45.7294809" lon="9.9069597"><ele>312.0</ele><time>2026-03-29T10:47:00.959Z</time></trkpt><trkpt lat="45.7294095" lon="9.90688"><ele>311.6666666666667</ele><time>2026-03-29T10:47:02.962Z</time></trkpt><trkpt lat="45.7293425" lon="9.906818"><ele>311.3333333333333</ele><time>2026-03-29T10:47:04.955Z</time></trkpt><trkpt lat="45.729279" lon="9.9067566"><ele>311.0</ele><time>2026-03-29T10:47:07.037Z</time></trkpt><trkpt lat="45.7292103" lon="9.9066971"><ele>310.66666666666663</ele><time>2026-03-29T10:47:08.947Z</time></trkpt><trkpt lat="45.7291266" lon="9.9066221"><ele>310.3333333333333</ele><time>2026-03-29T10:47:10.96Z</time></trkpt><trkpt lat="45.7290453" lon="9.9065603"><ele>310.0</ele><time>2026-03-29T10:47:12.957Z</time></trkpt><trkpt lat="45.7289637" lon="9.9065104"><ele>310.0</ele><time>2026-03-29T10:47:14.983Z</time></trkpt><trkpt lat="45.7288736" lon="9.9064756"><ele>310.0</ele><time>2026-03-29T10:47:16.966Z</time></trkpt><trkpt lat="45.7287816" lon="9.9064387"><ele>310.0</ele><time>2026-03-29T10:47:18.964Z</time></trkpt><trkpt lat="45.7286883" lon="9.9064139"><ele>310.0</ele><time>2026-03-29T10:47:20.956Z</time></trkpt><trkpt lat="45.7285927" lon="9.9063958"><ele>310.0</ele><time>2026-03-29T10:47:23.031Z</time></trkpt><trkpt lat="45.728499" lon="9.9063523"><ele>311.0</ele><time>2026-03-29T10:47:24.962Z</time></trkpt><trkpt lat="45.7284189" lon="9.9062787"><ele>312.0</ele><time>2026-03-29T10:47:26.958Z</time></trkpt><trkpt lat="45.7283437" lon="9.9062024"><ele>313.0</ele><time>2026-03-29T10:47:28.964Z</time></trkpt><trkpt lat="45.7282751" lon="9.9061126"><ele>314.0</ele><time>2026-03-29T10:47:31.033Z</time></trkpt><trkpt lat="45.7282246" lon="9.9060118"><ele>315.0</ele><time>2026-03-29T10:47:33.034Z</time></trkpt><trkpt lat="45.7281726" lon="9.9059125"><ele>314.8333333333333</ele><time>2026-03-29T10:47:34.951Z</time></trkpt><trkpt lat="45.7281397" lon="9.9058086"><ele>314.6666666666667</ele><time>2026-03-29T10:47:36.96Z</time></trkpt><trkpt lat="45.7280962" lon="9.9057234"><ele>314.5</ele><time>2026-03-29T10:47:39.029Z</time></trkpt><trkpt lat="45.7280489" lon="9.9056327"><ele>314.33333333333337</ele><time>2026-03-29T10:47:40.96Z</time></trkpt><trkpt lat="45.7280005" lon="9.9055323"><ele>314.1666666666667</ele><time>2026-03-29T10:47:42.959Z</time></trkpt><trkpt lat="45.7279527" lon="9.9054402"><ele>314.0</ele><time>2026-03-29T10:47:44.965Z</time></trkpt><trkpt lat="45.7278983" lon="9.9053735"><ele>313.99999999999994</ele><time>2026-03-29T10:47:46.984Z</time></trkpt><trkpt lat="45.7278319" lon="9.905312"><ele>314.0</ele><time>2026-03-29T10:47:49.964Z</time></trkpt><trkpt lat="45.7277764" lon="9.905256"><ele>314.0</ele><time>2026-03-29T10:47:52.968Z</time></trkpt><trkpt lat="45.7277053" lon="9.9051772"><ele>314.0</ele><time>2026-03-29T10:47:55.953Z</time></trkpt><trkpt lat="45.7276412" lon="9.9051699"><ele>314.0</ele><time>2026-03-29T10:47:57.97Z</time></trkpt><trkpt lat="45.7275806" lon="9.9052185"><ele>313.99999999999994</ele><time>2026-03-29T10:47:59.956Z</time></trkpt><trkpt lat="45.7275346" lon="9.9052862"><ele>314.0</ele><time>2026-03-29T10:48:01.966Z</time></trkpt><trkpt lat="45.7274902" lon="9.9053598"><ele>314.85714285714283</ele><time>2026-03-29T10:48:04.967Z</time></trkpt><trkpt lat="45.7275319" lon="9.9054385"><ele>315.7142857142857</ele><time>2026-03-29T10:48:08.967Z</time></trkpt><trkpt lat="45.7275958" lon="9.905474"><ele>316.57142857142856</ele><time>2026-03-29T10:48:12.061Z</time></trkpt><trkpt lat="45.7276566" lon="9.9054974"><ele>317.42857142857144</ele><time>2026-03-29T10:49:54.94Z</time></trkpt><trkpt lat="45.7275904" lon="9.9054753"><ele>318.2857142857143</ele><time>2026-03-29T10:52:35.958Z</time></trkpt><trkpt lat="45.7275359" lon="9.9054149"><ele>319.1428571428571</ele><time>2026-03-29T10:52:40.947Z</time></trkpt><trkpt lat="45.7274972" lon="9.9053124"><ele>320.0</ele><time>2026-03-29T10:52:43.957Z</time></trkpt><trkpt lat="45.7274666" lon="9.9052303"><ele>320.0</ele><time>2026-03-29T10:52:45.953Z</time></trkpt><trkpt lat="45.727422" lon="9.9051075"><ele>320.0</ele><time>2026-03-29T10:52:47.949Z</time></trkpt><trkpt lat="45.7273521" lon="9.9049926"><ele>320.0</ele><time>2026-03-29T10:52:49.946Z</time></trkpt><trkpt lat="45.727252" lon="9.904895"><ele>320.0</ele><time>2026-03-29T10:52:51.952Z</time></trkpt><trkpt lat="45.7271677" lon="9.904807"><ele>320.0</ele><time>2026-03-29T10:52:53.955Z</time></trkpt><trkpt lat="45.7270955" lon="9.9047529"><ele>319.83333333333337</ele><time>2026-03-29T10:52:55.953Z</time></trkpt><trkpt lat="45.7270218" lon="9.9047085"><ele>319.6666666666667</ele><time>2026-03-29T10:52:57.95Z</time></trkpt><trkpt lat="45.7269538" lon="9.9046452"><ele>319.5</ele><time>2026-03-29T10:52:59.955Z</time></trkpt><trkpt lat="45.7268819" lon="9.9045538"><ele>319.3333333333333</ele><time>2026-03-29T10:53:01.958Z</time></trkpt><trkpt lat="45.7267921" lon="9.9044488"><ele>319.16666666666663</ele><time>2026-03-29T10:53:03.954Z</time></trkpt><trkpt lat="45.7267427" lon="9.9043908"><ele>319.0</ele><time>2026-03-29T10:53:04.955Z</time></trkpt><trkpt lat="45.7266745" lon="9.9042496"><ele>318.4</ele><time>2026-03-29T10:53:06.951Z</time></trkpt><trkpt lat="45.7266265" lon="9.9040813"><ele>317.79999999999995</ele><time>2026-03-29T10:53:08.949Z</time></trkpt><trkpt lat="45.7265797" lon="9.9039183"><ele>317.20000000000005</ele><time>2026-03-29T10:53:10.943Z</time></trkpt><trkpt lat="45.7265486" lon="9.9038275"><ele>316.6</ele><time>2026-03-29T10:53:11.955Z</time></trkpt><trkpt lat="45.7265173" lon="9.903733"><ele>316.0</ele><time>2026-03-29T10:53:12.954Z</time></trkpt><trkpt lat="45.7264792" lon="9.9036458"><ele>316.00000000000006</ele><time>2026-03-29T10:53:13.96Z</time></trkpt><trkpt lat="45.7264412" lon="9.9035618"><ele>316.0</ele><time>2026-03-29T10:53:14.956Z</time></trkpt><trkpt lat="45.7263979" lon="9.9034725"><ele>316.0</ele><time>2026-03-29T10:53:15.957Z</time></trkpt><trkpt lat="45.7263527" lon="9.9033909"><ele>316.0</ele><time>2026-03-29T10:53:16.951Z</time></trkpt><trkpt lat="45.726304" lon="9.9033152"><ele>316.0</ele><time>2026-03-29T10:53:17.957Z</time></trkpt><trkpt lat="45.726261" lon="9.9032427"><ele>316.00000000000006</ele><time>2026-03-29T10:53:18.95Z</time></trkpt><trkpt lat="45.7262183" lon="9.9031736"><ele>316.0</ele><time>2026-03-29T10:53:19.953Z</time></trkpt><trkpt lat="45.7261774" lon="9.9030926"><ele>316.14285714285717</ele><time>2026-03-29T10:53:20.956Z</time></trkpt><trkpt lat="45.7261389" lon="9.9030147"><ele>316.2857142857143</ele><time>2026-03-29T10:53:21.955Z</time></trkpt><trkpt lat="45.7260952" lon="9.9029396"><ele>316.42857142857144</ele><time>2026-03-29T10:53:22.955Z</time></trkpt><trkpt lat="45.7260518" lon="9.9028707"><ele>316.57142857142856</ele><time>2026-03-29T10:53:23.952Z</time></trkpt><trkpt lat="45.7260078" lon="9.9028058"><ele>316.7142857142857</ele><time>2026-03-29T10:53:24.954Z</time></trkpt><trkpt lat="45.7259327" lon="9.9026684"><ele>316.8571428571429</ele><time>2026-03-29T10:53:26.957Z</time></trkpt><trkpt lat="45.7258875" lon="9.9026048"><ele>317.0</ele><time>2026-03-29T10:53:27.96Z</time></trkpt><trkpt lat="45.7258441" lon="9.9025374"><ele>315.8571428571429</ele><time>2026-03-29T10:53:28.95Z</time></trkpt><trkpt lat="45.7257995" lon="9.9024698"><ele>314.7142857142857</ele><time>2026-03-29T10:53:29.954Z</time></trkpt><trkpt lat="45.7257491" lon="9.902399"><ele>313.57142857142856</ele><time>2026-03-29T10:53:30.953Z</time></trkpt><trkpt lat="45.7256989" lon="9.9023235"><ele>312.42857142857144</ele><time>2026-03-29T10:53:31.946Z</time></trkpt><trkpt lat="45.7256507" lon="9.9022595"><ele>311.2857142857143</ele><time>2026-03-29T10:53:32.953Z</time></trkpt><trkpt lat="45.7255913" lon="9.9021953"><ele>310.14285714285717</ele><time>2026-03-29T10:53:33.954Z</time></trkpt><trkpt lat="45.725534" lon="9.9021213"><ele>309.0</ele><time>2026-03-29T10:53:34.956Z</time></trkpt><trkpt lat="45.7254813" lon="9.9020392"><ele>309.0</ele><time>2026-03-29T10:53:35.96Z</time></trkpt><trkpt lat="45.7254339" lon="9.9019682"><ele>309.0</ele><time>2026-03-29T10:53:36.954Z</time></trkpt><trkpt lat="45.7253865" lon="9.9018952"><ele>309.0</ele><time>2026-03-29T10:53:37.951Z</time></trkpt><trkpt lat="45.725298" lon="9.9017689"><ele>309.0</ele><time>2026-03-29T10:53:39.953Z</time></trkpt><trkpt lat="45.7252563" lon="9.9017006"><ele>309.0</ele><time>2026-03-29T10:53:40.952Z</time></trkpt><trkpt lat="45.7251769" lon="9.9015801"><ele>309.0</ele><time>2026-03-29T10:53:42.954Z</time></trkpt><trkpt lat="45.7250801" lon="9.90155"><ele>308.42857142857144</ele><time>2026-03-29T10:53:44.954Z</time></trkpt><trkpt lat="45.7250143" lon="9.9015508"><ele>307.8571428571429</ele><time>2026-03-29T10:53:45.948Z</time></trkpt><trkpt lat="45.7249435" lon="9.9015423"><ele>307.28571428571433</ele><time>2026-03-29T10:53:46.953Z</time></trkpt><trkpt lat="45.7248734" lon="9.9015213"><ele>306.7142857142857</ele><time>2026-03-29T10:53:47.953Z</time></trkpt><trkpt lat="45.7248062" lon="9.9014874"><ele>306.1428571428571</ele><time>2026-03-29T10:53:48.95Z</time></trkpt><trkpt lat="45.7247428" lon="9.901439"><ele>305.5714285714286</ele><time>2026-03-29T10:53:49.956Z</time></trkpt><trkpt lat="45.7246788" lon="9.9013875"><ele>305.0</ele><time>2026-03-29T10:53:50.952Z</time></trkpt><trkpt lat="45.7246209" lon="9.9013332"><ele>305.0</ele><time>2026-03-29T10:53:51.954Z</time></trkpt><trkpt lat="45.7245585" lon="9.9012817"><ele>305.0</ele><time>2026-03-29T10:53:52.946Z</time></trkpt><trkpt lat="45.7244917" lon="9.9012239"><ele>305.0</ele><time>2026-03-29T10:53:53.957Z</time></trkpt><trkpt lat="45.7244363" lon="9.9011625"><ele>305.0</ele><time>2026-03-29T10:53:54.951Z</time></trkpt><trkpt lat="45.7243886" lon="9.9010973"><ele>305.0</ele><time>2026-03-29T10:53:55.96Z</time></trkpt><trkpt lat="45.7243458" lon="9.9010155"><ele>305.0</ele><time>2026-03-29T10:53:56.961Z</time></trkpt><trkpt lat="45.7243036" lon="9.9009363"><ele>305.0</ele><time>2026-03-29T10:53:57.958Z</time></trkpt><trkpt lat="45.7242263" lon="9.9008046"><ele>304.5</ele><time>2026-03-29T10:53:59.941Z</time></trkpt><trkpt lat="45.7241865" lon="9.900734"><ele>304.0</ele><time>2026-03-29T10:54:00.955Z</time></trkpt><trkpt lat="45.7241051" lon="9.9006036"><ele>303.5</ele><time>2026-03-29T10:54:02.953Z</time></trkpt><trkpt lat="45.7240558" lon="9.900546"><ele>303.0</ele><time>2026-03-29T10:54:03.952Z</time></trkpt><trkpt lat="45.7239487" lon="9.9004568"><ele>302.5</ele><time>2026-03-29T10:54:05.955Z</time></trkpt><trkpt lat="45.723887" lon="9.9004309"><ele>302.0</ele><time>2026-03-29T10:54:06.948Z</time></trkpt><trkpt lat="45.7237861" lon="9.9003962"><ele>302.0</ele><time>2026-03-29T10:54:08.954Z</time></trkpt><trkpt lat="45.7237545" lon="9.9003171"><ele>302.0</ele><time>2026-03-29T10:54:10.953Z</time></trkpt><trkpt lat="45.7237801" lon="9.9002316"><ele>302.0</ele><time>2026-03-29T10:54:12.958Z</time></trkpt><trkpt lat="45.7237299" lon="9.9001085"><ele>302.0</ele><time>2026-03-29T10:54:15.953Z</time></trkpt><trkpt lat="45.7236384" lon="9.9000696"><ele>302.0</ele><time>2026-03-29T10:54:17.959Z</time></trkpt><trkpt lat="45.7235686" lon="9.8999812"><ele>302.0</ele><time>2026-03-29T10:54:19.955Z</time></trkpt><trkpt lat="45.7235231" lon="9.8998508"><ele>302.0</ele><time>2026-03-29T10:54:21.956Z</time></trkpt><trkpt lat="45.723448" lon="9.8997189"><ele>302.0</ele><time>2026-03-29T10:54:23.952Z</time></trkpt><trkpt lat="45.72336" lon="9.8996539"><ele>302.0</ele><time>2026-03-29T10:54:25.957Z</time></trkpt><trkpt lat="45.7232541" lon="9.8995793"><ele>302.0</ele><time>2026-03-29T10:54:27.952Z</time></trkpt><trkpt lat="45.7231564" lon="9.8994758"><ele>302.0</ele><time>2026-03-29T10:54:29.946Z</time></trkpt><trkpt lat="45.7230756" lon="9.8993455"><ele>302.0</ele><time>2026-03-29T10:54:31.956Z</time></trkpt><trkpt lat="45.7230078" lon="9.8992312"><ele>302.0</ele><time>2026-03-29T10:54:33.959Z</time></trkpt><trkpt lat="45.722927" lon="9.8991108"><ele>302.0</ele><time>2026-03-29T10:54:35.957Z</time></trkpt><trkpt lat="45.7228541" lon="9.8989776"><ele>302.0</ele><time>2026-03-29T10:54:37.949Z</time></trkpt><trkpt lat="45.7227528" lon="9.8988913"><ele>302.0</ele><time>2026-03-29T10:54:39.958Z</time></trkpt><trkpt lat="45.7226964" lon="9.8988472"><ele>302.0</ele><time>2026-03-29T10:54:40.956Z</time></trkpt><trkpt lat="45.7226386" lon="9.8987967"><ele>302.0</ele><time>2026-03-29T10:54:41.953Z</time></trkpt><trkpt lat="45.7225804" lon="9.8987418"><ele>302.0</ele><time>2026-03-29T10:54:42.956Z</time></trkpt><trkpt lat="45.7225157" lon="9.8986845"><ele>302.0</ele><time>2026-03-29T10:54:43.952Z</time></trkpt><trkpt lat="45.7224544" lon="9.8986241"><ele>302.00000000000006</ele><time>2026-03-29T10:54:44.944Z</time></trkpt><trkpt lat="45.7223964" lon="9.8985749"><ele>302.0</ele><time>2026-03-29T10:54:45.957Z</time></trkpt><trkpt lat="45.7223395" lon="9.8985166"><ele>302.0</ele><time>2026-03-29T10:54:46.952Z</time></trkpt><trkpt lat="45.7222838" lon="9.8984634"><ele>302.0</ele><time>2026-03-29T10:54:47.952Z</time></trkpt><trkpt lat="45.7222314" lon="9.8984037"><ele>302.0</ele><time>2026-03-29T10:54:48.951Z</time></trkpt><trkpt lat="45.7221839" lon="9.8983409"><ele>302.00000000000006</ele><time>2026-03-29T10:54:49.954Z</time></trkpt><trkpt lat="45.7220965" lon="9.8982371"><ele>302.0</ele><time>2026-03-29T10:54:51.945Z</time></trkpt><trkpt lat="45.7220104" lon="9.8981211"><ele>302.0</ele><time>2026-03-29T10:54:53.949Z</time></trkpt><trkpt lat="45.7219201" lon="9.8979911"><ele>302.0</ele><time>2026-03-29T10:54:55.953Z</time></trkpt><trkpt lat="45.7218764" lon="9.8979258"><ele>302.0</ele><time>2026-03-29T10:54:56.955Z</time></trkpt><trkpt lat="45.7218033" lon="9.897792"><ele>302.0</ele><time>2026-03-29T10:54:58.955Z</time></trkpt><trkpt lat="45.7217631" lon="9.8977191"><ele>302.0</ele><time>2026-03-29T10:54:59.957Z</time></trkpt><trkpt lat="45.7217242" lon="9.8976425"><ele>302.0</ele><time>2026-03-29T10:55:00.954Z</time></trkpt><trkpt lat="45.7216512" lon="9.8975027"><ele>302.75</ele><time>2026-03-29T10:55:02.95Z</time></trkpt><trkpt lat="45.7215841" lon="9.8973593"><ele>303.5</ele><time>2026-03-29T10:55:04.951Z</time></trkpt><trkpt lat="45.7215221" lon="9.8972211"><ele>304.25</ele><time>2026-03-29T10:55:06.953Z</time></trkpt><trkpt lat="45.7214705" lon="9.8970797"><ele>305.0</ele><time>2026-03-29T10:55:08.955Z</time></trkpt><trkpt lat="45.7214241" lon="9.8969404"><ele>305.0</ele><time>2026-03-29T10:55:10.958Z</time></trkpt><trkpt lat="45.7213791" lon="9.8967942"><ele>305.0</ele><time>2026-03-29T10:55:13.024Z</time></trkpt><trkpt lat="45.7213466" lon="9.8966358"><ele>305.0</ele><time>2026-03-29T10:55:14.953Z</time></trkpt><trkpt lat="45.7213289" lon="9.8965474"><ele>305.0</ele><time>2026-03-29T10:55:15.964Z</time></trkpt><trkpt lat="45.7212902" lon="9.8963722"><ele>305.0</ele><time>2026-03-29T10:55:18.032Z</time></trkpt><trkpt lat="45.721274" lon="9.8962847"><ele>304.4</ele><time>2026-03-29T10:55:18.974Z</time></trkpt><trkpt lat="45.7212369" lon="9.8961562"><ele>303.8</ele><time>2026-03-29T10:55:20.977Z</time></trkpt><trkpt lat="45.7211714" lon="9.8960495"><ele>303.2</ele><time>2026-03-29T10:55:22.97Z</time></trkpt><trkpt lat="45.721114" lon="9.8959102"><ele>302.6</ele><time>2026-03-29T10:55:24.969Z</time></trkpt><trkpt lat="45.7210714" lon="9.895768"><ele>302.0</ele><time>2026-03-29T10:55:26.993Z</time></trkpt><trkpt lat="45.7210325" lon="9.895643"><ele>301.8</ele><time>2026-03-29T10:55:28.979Z</time></trkpt><trkpt lat="45.72101" lon="9.8955243"><ele>301.6</ele><time>2026-03-29T10:55:30.971Z</time></trkpt><trkpt lat="45.7210067" lon="9.8953744"><ele>301.40000000000003</ele><time>2026-03-29T10:55:32.985Z</time></trkpt><trkpt lat="45.7210118" lon="9.8952197"><ele>301.2</ele><time>2026-03-29T10:55:34.968Z</time></trkpt><trkpt lat="45.7210065" lon="9.895085"><ele>301.0</ele><time>2026-03-29T10:55:36.959Z</time></trkpt><trkpt lat="45.7209999" lon="9.8949839"><ele>301.0</ele><time>2026-03-29T10:55:39.959Z</time></trkpt><trkpt lat="45.7210101" lon="9.8948406"><ele>301.0</ele><time>2026-03-29T10:55:41.97Z</time></trkpt><trkpt lat="45.7209997" lon="9.8947375"><ele>301.0</ele><time>2026-03-29T10:55:42.975Z</time></trkpt><trkpt lat="45.7209709" lon="9.8945845"><ele>301.0</ele><time>2026-03-29T10:55:44.975Z</time></trkpt><trkpt lat="45.720951" lon="9.8944969"><ele>301.0</ele><time>2026-03-29T10:55:45.973Z</time></trkpt><trkpt lat="45.7209218" lon="9.8944168"><ele>301.0</ele><time>2026-03-29T10:55:46.958Z</time></trkpt><trkpt lat="45.7208476" lon="9.8942766"><ele>300.5</ele><time>2026-03-29T10:55:48.973Z</time></trkpt><trkpt lat="45.7208056" lon="9.8942016"><ele>300.0</ele><time>2026-03-29T10:55:49.973Z</time></trkpt><trkpt lat="45.7207295" lon="9.8940775"><ele>299.5</ele><time>2026-03-29T10:55:51.965Z</time></trkpt><trkpt lat="45.7206313" lon="9.8939678"><ele>299.0</ele><time>2026-03-29T10:55:53.972Z</time></trkpt><trkpt lat="45.7205795" lon="9.8939162"><ele>298.5</ele><time>2026-03-29T10:55:54.968Z</time></trkpt><trkpt lat="45.7205269" lon="9.8938653"><ele>298.0</ele><time>2026-03-29T10:55:55.973Z</time></trkpt><trkpt lat="45.7204117" lon="9.8937843"><ele>298.0</ele><time>2026-03-29T10:55:57.969Z</time></trkpt><trkpt lat="45.7202968" lon="9.8937085"><ele>298.0</ele><time>2026-03-29T10:55:59.952Z</time></trkpt><trkpt lat="45.7202333" lon="9.8936666"><ele>298.0</ele><time>2026-03-29T10:56:00.95Z</time></trkpt><trkpt lat="45.7201642" lon="9.8936188"><ele>298.0</ele><time>2026-03-29T10:56:01.989Z</time></trkpt><trkpt lat="45.7201026" lon="9.8935697"><ele>298.0</ele><time>2026-03-29T10:56:03.037Z</time></trkpt><trkpt lat="45.720045" lon="9.8935259"><ele>298.0</ele><time>2026-03-29T10:56:04.031Z</time></trkpt><trkpt lat="45.7199885" lon="9.893473"><ele>297.0</ele><time>2026-03-29T10:56:04.962Z</time></trkpt><trkpt lat="45.7198944" lon="9.893358"><ele>296.0</ele><time>2026-03-29T10:56:06.971Z</time></trkpt><trkpt lat="45.7197926" lon="9.8932435"><ele>295.0</ele><time>2026-03-29T10:56:09.027Z</time></trkpt><trkpt lat="45.7197465" lon="9.8931798"><ele>294.0</ele><time>2026-03-29T10:56:09.959Z</time></trkpt><trkpt lat="45.7196958" lon="9.8931189"><ele>293.0</ele><time>2026-03-29T10:56:10.962Z</time></trkpt><trkpt lat="45.7195997" lon="9.8930002"><ele>292.99999999999994</ele><time>2026-03-29T10:56:13.038Z</time></trkpt><trkpt lat="45.7195499" lon="9.8929424"><ele>293.0</ele><time>2026-03-29T10:56:14.027Z</time></trkpt><trkpt lat="45.7195024" lon="9.8928784"><ele>293.0</ele><time>2026-03-29T10:56:14.95Z</time></trkpt><trkpt lat="45.7194511" lon="9.892821"><ele>293.0</ele><time>2026-03-29T10:56:15.959Z</time></trkpt><trkpt lat="45.7193992" lon="9.8927689"><ele>293.0</ele><time>2026-03-29T10:56:16.968Z</time></trkpt><trkpt lat="45.7193456" lon="9.8927176"><ele>292.99999999999994</ele><time>2026-03-29T10:56:18.026Z</time></trkpt><trkpt lat="45.7192426" lon="9.8926126"><ele>293.0</ele><time>2026-03-29T10:56:19.951Z</time></trkpt><trkpt lat="45.719144" lon="9.8925067"><ele>292.25</ele><time>2026-03-29T10:56:22.016Z</time></trkpt><trkpt lat="45.7190481" lon="9.8923997"><ele>291.5</ele><time>2026-03-29T10:56:24.027Z</time></trkpt><trkpt lat="45.7189636" lon="9.8922816"><ele>290.75</ele><time>2026-03-29T10:56:25.967Z</time></trkpt><trkpt lat="45.7188841" lon="9.8921599"><ele>290.0</ele><time>2026-03-29T10:56:27.964Z</time></trkpt><trkpt lat="45.7188029" lon="9.8920401"><ele>290.0</ele><time>2026-03-29T10:56:29.967Z</time></trkpt><trkpt lat="45.7187212" lon="9.8919193"><ele>290.0</ele><time>2026-03-29T10:56:31.962Z</time></trkpt><trkpt lat="45.7186457" lon="9.8917929"><ele>290.0</ele><time>2026-03-29T10:56:33.954Z</time></trkpt><trkpt lat="45.7185752" lon="9.8916625"><ele>290.0</ele><time>2026-03-29T10:56:35.945Z</time></trkpt><trkpt lat="45.7185224" lon="9.8915288"><ele>290.5</ele><time>2026-03-29T10:56:37.956Z</time></trkpt><trkpt lat="45.7184545" lon="9.8913951"><ele>291.0</ele><time>2026-03-29T10:56:39.952Z</time></trkpt><trkpt lat="45.7183898" lon="9.8912554"><ele>291.5</ele><time>2026-03-29T10:56:41.97Z</time></trkpt><trkpt lat="45.7183302" lon="9.8911108"><ele>292.0</ele><time>2026-03-29T10:56:43.955Z</time></trkpt><trkpt lat="45.7182789" lon="9.8909536"><ele>291.5</ele><time>2026-03-29T10:56:45.95Z</time></trkpt><trkpt lat="45.7182514" lon="9.8907959"><ele>291.0</ele><time>2026-03-29T10:56:47.958Z</time></trkpt><trkpt lat="45.7182519" lon="9.8906383"><ele>290.5</ele><time>2026-03-29T10:56:49.964Z</time></trkpt><trkpt lat="45.718276" lon="9.8904806"><ele>290.0</ele><time>2026-03-29T10:56:51.989Z</time></trkpt><trkpt lat="45.7183286" lon="9.890332"><ele>290.0</ele><time>2026-03-29T10:56:54.078Z</time></trkpt><trkpt lat="45.7183996" lon="9.8902102"><ele>290.0</ele><time>2026-03-29T10:56:55.965Z</time></trkpt><trkpt lat="45.7184826" lon="9.8901042"><ele>290.0</ele><time>2026-03-29T10:56:58.032Z</time></trkpt><trkpt lat="45.71856" lon="9.8899975"><ele>290.0</ele><time>2026-03-29T10:56:59.951Z</time></trkpt><trkpt lat="45.7186325" lon="9.8898883"><ele>290.0</ele><time>2026-03-29T10:57:02.071Z</time></trkpt><trkpt lat="45.7187022" lon="9.889784"><ele>290.4</ele><time>2026-03-29T10:57:04.034Z</time></trkpt><trkpt lat="45.71878" lon="9.8896889"><ele>290.8</ele><time>2026-03-29T10:57:05.969Z</time></trkpt><trkpt lat="45.7188863" lon="9.8896517"><ele>291.2</ele><time>2026-03-29T10:57:07.962Z</time></trkpt><trkpt lat="45.7189839" lon="9.8895941"><ele>291.6</ele><time>2026-03-29T10:57:09.967Z</time></trkpt><trkpt lat="45.7190756" lon="9.889475"><ele>292.0</ele><time>2026-03-29T10:57:11.965Z</time></trkpt><trkpt lat="45.7191506" lon="9.8893295"><ele>292.6</ele><time>2026-03-29T10:57:13.969Z</time></trkpt><trkpt lat="45.7192055" lon="9.8891936"><ele>293.2</ele><time>2026-03-29T10:57:15.963Z</time></trkpt><trkpt lat="45.7192105" lon="9.8890352"><ele>293.8</ele><time>2026-03-29T10:57:17.972Z</time></trkpt><trkpt lat="45.7191455" lon="9.8889239"><ele>294.4</ele><time>2026-03-29T10:57:19.966Z</time></trkpt><trkpt lat="45.7190529" lon="9.8888539"><ele>295.0</ele><time>2026-03-29T10:57:22.027Z</time></trkpt><trkpt lat="45.7189509" lon="9.8887917"><ele>295.0</ele><time>2026-03-29T10:57:23.972Z</time></trkpt><trkpt lat="45.7188508" lon="9.8887324"><ele>295.0</ele><time>2026-03-29T10:57:25.955Z</time></trkpt><trkpt lat="45.7187652" lon="9.8886493"><ele>295.0</ele><time>2026-03-29T10:57:28.035Z</time></trkpt><trkpt lat="45.7186873" lon="9.8885502"><ele>295.0</ele><time>2026-03-29T10:57:29.959Z</time></trkpt><trkpt lat="45.7186378" lon="9.8884333"><ele>295.0</ele><time>2026-03-29T10:57:32.031Z</time></trkpt><trkpt lat="45.7185996" lon="9.8883199"><ele>294.5</ele><time>2026-03-29T10:57:33.961Z</time></trkpt><trkpt lat="45.7185631" lon="9.8882111"><ele>294.0</ele><time>2026-03-29T10:57:36.036Z</time></trkpt><trkpt lat="45.7185164" lon="9.8880947"><ele>293.5</ele><time>2026-03-29T10:57:37.97Z</time></trkpt><trkpt lat="45.7184796" lon="9.8879901"><ele>293.0</ele><time>2026-03-29T10:57:39.974Z</time></trkpt><trkpt lat="45.7184537" lon="9.8878754"><ele>292.5</ele><time>2026-03-29T10:57:41.972Z</time></trkpt><trkpt lat="45.7184486" lon="9.8877476"><ele>292.0</ele><time>2026-03-29T10:57:44.033Z</time></trkpt><trkpt lat="45.7184588" lon="9.8876317"><ele>292.5</ele><time>2026-03-29T10:57:45.964Z</time></trkpt><trkpt lat="45.718486" lon="9.8875242"><ele>293.0</ele><time>2026-03-29T10:57:47.958Z</time></trkpt><trkpt lat="45.718526" lon="9.887407"><ele>293.5</ele><time>2026-03-29T10:57:49.964Z</time></trkpt><trkpt lat="45.7185628" lon="9.8872969"><ele>294.0</ele><time>2026-03-29T10:57:52.034Z</time></trkpt><trkpt lat="45.7185918" lon="9.8871766"><ele>294.5</ele><time>2026-03-29T10:57:54.037Z</time></trkpt><trkpt lat="45.7186004" lon="9.8870372"><ele>295.0</ele><time>2026-03-29T10:57:55.966Z</time></trkpt><trkpt lat="45.7185972" lon="9.8869129"><ele>296.66666666666663</ele><time>2026-03-29T10:57:57.967Z</time></trkpt><trkpt lat="45.7185933" lon="9.8867928"><ele>298.3333333333333</ele><time>2026-03-29T10:57:59.962Z</time></trkpt><trkpt lat="45.7185842" lon="9.8866692"><ele>300.0</ele><time>2026-03-29T10:58:01.962Z</time></trkpt><trkpt lat="45.7185722" lon="9.88654"><ele>301.6666666666667</ele><time>2026-03-29T10:58:04.029Z</time></trkpt><trkpt lat="45.718558" lon="9.886411"><ele>303.33333333333337</ele><time>2026-03-29T10:58:05.972Z</time></trkpt><trkpt lat="45.7185354" lon="9.8862821"><ele>305.0</ele><time>2026-03-29T10:58:07.965Z</time></trkpt><trkpt lat="45.7185094" lon="9.8861561"><ele>305.0</ele><time>2026-03-29T10:58:09.969Z</time></trkpt><trkpt lat="45.7184741" lon="9.8860414"><ele>305.0</ele><time>2026-03-29T10:58:11.97Z</time></trkpt><trkpt lat="45.7184356" lon="9.8859474"><ele>305.0</ele><time>2026-03-29T10:58:13.963Z</time></trkpt><trkpt lat="45.7183863" lon="9.8858401"><ele>305.0</ele><time>2026-03-29T10:58:16.03Z</time></trkpt><trkpt lat="45.7183466" lon="9.8857357"><ele>305.0</ele><time>2026-03-29T10:58:17.968Z</time></trkpt><trkpt lat="45.7182962" lon="9.8856373"><ele>305.0</ele><time>2026-03-29T10:58:19.964Z</time></trkpt><trkpt lat="45.7182455" lon="9.8855378"><ele>305.5</ele><time>2026-03-29T10:58:21.968Z</time></trkpt><trkpt lat="45.7181902" lon="9.885429"><ele>306.0</ele><time>2026-03-29T10:58:23.947Z</time></trkpt><trkpt lat="45.7181324" lon="9.8853285"><ele>306.5</ele><time>2026-03-29T10:58:25.953Z</time></trkpt><trkpt lat="45.7180796" lon="9.8852211"><ele>307.0</ele><time>2026-03-29T10:58:28.038Z</time></trkpt><trkpt lat="45.7180206" lon="9.8851325"><ele>307.5</ele><time>2026-03-29T10:58:29.952Z</time></trkpt><trkpt lat="45.7179575" lon="9.8850478"><ele>308.0</ele><time>2026-03-29T10:58:31.957Z</time></trkpt><trkpt lat="45.7178909" lon="9.884965"><ele>307.5</ele><time>2026-03-29T10:58:33.957Z</time></trkpt><trkpt lat="45.7178154" lon="9.8848865"><ele>307.0</ele><time>2026-03-29T10:58:35.941Z</time></trkpt><trkpt lat="45.7177383" lon="9.8848154"><ele>306.5</ele><time>2026-03-29T10:58:38.025Z</time></trkpt><trkpt lat="45.7176644" lon="9.8847512"><ele>306.0</ele><time>2026-03-29T10:58:39.954Z</time></trkpt><trkpt lat="45.7175962" lon="9.8846658"><ele>305.5</ele><time>2026-03-29T10:58:41.958Z</time></trkpt><trkpt lat="45.7175393" lon="9.8845756"><ele>305.0</ele><time>2026-03-29T10:58:43.988Z</time></trkpt><trkpt lat="45.7174999" lon="9.8844695"><ele>305.0</ele><time>2026-03-29T10:58:45.953Z</time></trkpt><trkpt lat="45.7174731" lon="9.8843466"><ele>305.0</ele><time>2026-03-29T10:58:47.945Z</time></trkpt><trkpt lat="45.7174477" lon="9.8842198"><ele>305.0</ele><time>2026-03-29T10:58:49.951Z</time></trkpt><trkpt lat="45.7174345" lon="9.8840893"><ele>305.0</ele><time>2026-03-29T10:58:52.03Z</time></trkpt><trkpt lat="45.7174318" lon="9.8839625"><ele>305.0</ele><time>2026-03-29T10:58:54.03Z</time></trkpt><trkpt lat="45.7174242" lon="9.8838412"><ele>305.0</ele><time>2026-03-29T10:58:55.967Z</time></trkpt><trkpt lat="45.7174098" lon="9.8837064"><ele>306.8</ele><time>2026-03-29T10:58:57.952Z</time></trkpt><trkpt lat="45.7173951" lon="9.8835751"><ele>308.6</ele><time>2026-03-29T10:58:59.957Z</time></trkpt><trkpt lat="45.7173636" lon="9.883442"><ele>310.4</ele><time>2026-03-29T10:59:01.967Z</time></trkpt><trkpt lat="45.7173161" lon="9.8833179"><ele>312.2</ele><time>2026-03-29T10:59:03.965Z</time></trkpt><trkpt lat="45.7172556" lon="9.8832124"><ele>314.0</ele><time>2026-03-29T10:59:05.972Z</time></trkpt><trkpt lat="45.7171999" lon="9.8830974"><ele>316.0</ele><time>2026-03-29T10:59:07.964Z</time></trkpt><trkpt lat="45.7171459" lon="9.882986"><ele>318.0</ele><time>2026-03-29T10:59:09.964Z</time></trkpt><trkpt lat="45.7171003" lon="9.8828715"><ele>320.0</ele><time>2026-03-29T10:59:12.025Z</time></trkpt><trkpt lat="45.7170514" lon="9.8827461"><ele>322.0</ele><time>2026-03-29T10:59:14.048Z</time></trkpt><trkpt lat="45.7170108" lon="9.8826127"><ele>324.0</ele><time>2026-03-29T10:59:15.965Z</time></trkpt><trkpt lat="45.716982" lon="9.8824855"><ele>325.0</ele><time>2026-03-29T10:59:18.038Z</time></trkpt><trkpt lat="45.7169604" lon="9.882364"><ele>326.0</ele><time>2026-03-29T10:59:19.952Z</time></trkpt><trkpt lat="45.7169406" lon="9.8822203"><ele>327.0</ele><time>2026-03-29T10:59:22.042Z</time></trkpt><trkpt lat="45.7169298" lon="9.8820782"><ele>328.0</ele><time>2026-03-29T10:59:23.966Z</time></trkpt><trkpt lat="45.7169113" lon="9.8819294"><ele>329.0</ele><time>2026-03-29T10:59:25.963Z</time></trkpt><trkpt lat="45.716895" lon="9.8817858"><ele>326.2</ele><time>2026-03-29T10:59:28.031Z</time></trkpt><trkpt lat="45.7168794" lon="9.881638"><ele>323.4</ele><time>2026-03-29T10:59:29.969Z</time></trkpt><trkpt lat="45.7168687" lon="9.8814908"><ele>320.6</ele><time>2026-03-29T10:59:31.993Z</time></trkpt><trkpt lat="45.7168585" lon="9.8813444"><ele>317.8</ele><time>2026-03-29T10:59:34.029Z</time></trkpt><trkpt lat="45.7168521" lon="9.8811992"><ele>315.0</ele><time>2026-03-29T10:59:35.956Z</time></trkpt><trkpt lat="45.7168405" lon="9.8810484"><ele>315.6</ele><time>2026-03-29T10:59:37.948Z</time></trkpt><trkpt lat="45.7168154" lon="9.8809103"><ele>316.2</ele><time>2026-03-29T10:59:39.946Z</time></trkpt><trkpt lat="45.7167912" lon="9.880737"><ele>316.8</ele><time>2026-03-29T10:59:41.939Z</time></trkpt><trkpt lat="45.7167623" lon="9.8805909"><ele>317.4</ele><time>2026-03-29T10:59:43.958Z</time></trkpt><trkpt lat="45.716738" lon="9.8804559"><ele>318.0</ele><time>2026-03-29T10:59:45.953Z</time></trkpt><trkpt lat="45.7167178" lon="9.8803421"><ele>318.0</ele><time>2026-03-29T10:59:47.952Z</time></trkpt><trkpt lat="45.7166899" lon="9.8802219"><ele>318.0</ele><time>2026-03-29T10:59:49.95Z</time></trkpt><trkpt lat="45.7166928" lon="9.8801169"><ele>318.0</ele><time>2026-03-29T10:59:52.028Z</time></trkpt><trkpt lat="45.7167353" lon="9.8800021"><ele>318.0</ele><time>2026-03-29T10:59:53.964Z</time></trkpt><trkpt lat="45.7167688" lon="9.8799145"><ele>318.0</ele><time>2026-03-29T10:59:55.961Z</time></trkpt><trkpt lat="45.7167999" lon="9.8798025"><ele>318.0</ele><time>2026-03-29T10:59:58.042Z</time></trkpt><trkpt lat="45.7168415" lon="9.8797019"><ele>318.0</ele><time>2026-03-29T10:59:59.965Z</time></trkpt><trkpt lat="45.7168875" lon="9.8795886"><ele>318.0</ele><time>2026-03-29T11:00:01.965Z</time></trkpt><trkpt lat="45.7169239" lon="9.8795033"><ele>318.0</ele><time>2026-03-29T11:00:03.961Z</time></trkpt><trkpt lat="45.7169796" lon="9.8794009"><ele>318.0</ele><time>2026-03-29T11:00:06.956Z</time></trkpt><trkpt lat="45.7170141" lon="9.8793236"><ele>318.0</ele><time>2026-03-29T11:00:09.029Z</time></trkpt><trkpt lat="45.7170671" lon="9.8792169"><ele>318.0</ele><time>2026-03-29T11:00:11.948Z</time></trkpt><trkpt lat="45.7170954" lon="9.8791313"><ele>321.0</ele><time>2026-03-29T11:00:13.945Z</time></trkpt><trkpt lat="45.7171343" lon="9.8790131"><ele>324.0</ele><time>2026-03-29T11:00:17.036Z</time></trkpt><trkpt lat="45.717177" lon="9.878888"><ele>327.0</ele><time>2026-03-29T11:00:19.961Z</time></trkpt><trkpt lat="45.7172127" lon="9.8787676"><ele>330.0</ele><time>2026-03-29T11:00:23.031Z</time></trkpt><trkpt lat="45.7172408" lon="9.8786854"><ele>333.0</ele><time>2026-03-29T11:00:24.96Z</time></trkpt><trkpt lat="45.7172748" lon="9.878608"><ele>336.0</ele><time>2026-03-29T11:00:26.955Z</time></trkpt><trkpt lat="45.717313" lon="9.878505"><ele>335.2857142857143</ele><time>2026-03-29T11:00:29.957Z</time></trkpt><trkpt lat="45.7173483" lon="9.8784295"><ele>334.57142857142856</ele><time>2026-03-29T11:00:31.945Z</time></trkpt><trkpt lat="45.7173999" lon="9.8783283"><ele>333.8571428571429</ele><time>2026-03-29T11:00:34.953Z</time></trkpt><trkpt lat="45.7174516" lon="9.8782427"><ele>333.1428571428571</ele><time>2026-03-29T11:00:37.955Z</time></trkpt><trkpt lat="45.7174948" lon="9.878171"><ele>332.42857142857144</ele><time>2026-03-29T11:00:39.952Z</time></trkpt><trkpt lat="45.7175301" lon="9.8780956"><ele>331.7142857142857</ele><time>2026-03-29T11:00:41.95Z</time></trkpt><trkpt lat="45.7175674" lon="9.8780173"><ele>331.0</ele><time>2026-03-29T11:00:43.953Z</time></trkpt><trkpt lat="45.7176071" lon="9.8779429"><ele>331.0</ele><time>2026-03-29T11:00:45.954Z</time></trkpt><trkpt lat="45.7176627" lon="9.8778503"><ele>331.0</ele><time>2026-03-29T11:00:48.958Z</time></trkpt><trkpt lat="45.7177185" lon="9.8777804"><ele>331.0</ele><time>2026-03-29T11:00:51.958Z</time></trkpt><trkpt lat="45.7177837" lon="9.8777216"><ele>331.0</ele><time>2026-03-29T11:00:54.949Z</time></trkpt><trkpt lat="45.7178447" lon="9.87767"><ele>331.0</ele><time>2026-03-29T11:00:57.963Z</time></trkpt><trkpt lat="45.717922" lon="9.8776448"><ele>331.0</ele><time>2026-03-29T11:01:00.966Z</time></trkpt><trkpt lat="45.7179856" lon="9.877642"><ele>334.2857142857143</ele><time>2026-03-29T11:01:03.962Z</time></trkpt><trkpt lat="45.7180689" lon="9.8776466"><ele>337.57142857142856</ele><time>2026-03-29T11:01:06.964Z</time></trkpt><trkpt lat="45.7181301" lon="9.8776716"><ele>340.8571428571429</ele><time>2026-03-29T11:01:09.961Z</time></trkpt><trkpt lat="45.7182085" lon="9.8776737"><ele>344.1428571428571</ele><time>2026-03-29T11:01:12.964Z</time></trkpt><trkpt lat="45.7182764" lon="9.877709"><ele>347.4285714285714</ele><time>2026-03-29T11:01:15.965Z</time></trkpt><trkpt lat="45.7183464" lon="9.8777259"><ele>350.7142857142857</ele><time>2026-03-29T11:01:18.962Z</time></trkpt><trkpt lat="45.718417" lon="9.8777319"><ele>354.0</ele><time>2026-03-29T11:01:22.037Z</time></trkpt><trkpt lat="45.7184826" lon="9.8777142"><ele>354.0</ele><time>2026-03-29T11:01:24.967Z</time></trkpt><trkpt lat="45.7185482" lon="9.877682"><ele>354.0</ele><time>2026-03-29T11:01:27.967Z</time></trkpt><trkpt lat="45.7186108" lon="9.8777023"><ele>354.0</ele><time>2026-03-29T11:01:30.966Z</time></trkpt><trkpt lat="45.7186117" lon="9.8778156"><ele>354.0</ele><time>2026-03-29T11:01:35.955Z</time></trkpt><trkpt lat="45.7185975" lon="9.8779248"><ele>354.0</ele><time>2026-03-29T11:01:39.947Z</time></trkpt><trkpt lat="45.7185802" lon="9.8780207"><ele>354.0</ele><time>2026-03-29T11:01:42.958Z</time></trkpt><trkpt lat="45.7185614" lon="9.8781161"><ele>354.0</ele><time>2026-03-29T11:01:46.028Z</time></trkpt><trkpt lat="45.7185317" lon="9.8782179"><ele>354.0</ele><time>2026-03-29T11:01:48.956Z</time></trkpt><trkpt lat="45.7185145" lon="9.8783106"><ele>354.0</ele><time>2026-03-29T11:01:51.963Z</time></trkpt><trkpt lat="45.7185066" lon="9.8784294"><ele>354.0</ele><time>2026-03-29T11:01:55.956Z</time></trkpt><trkpt lat="45.718498" lon="9.8785357"><ele>354.0</ele><time>2026-03-29T11:01:59.029Z</time></trkpt><trkpt lat="45.7184723" lon="9.8786398"><ele>354.0</ele><time>2026-03-29T11:02:02.957Z</time></trkpt><trkpt lat="45.7183975" lon="9.8786482"><ele>354.0</ele><time>2026-03-29T11:02:57.967Z</time></trkpt><trkpt lat="45.7183809" lon="9.8787509"><ele>354.6666666666667</ele><time>2026-03-29T11:03:01.959Z</time></trkpt><trkpt lat="45.7184034" lon="9.8788537"><ele>355.3333333333333</ele><time>2026-03-29T11:03:04.959Z</time></trkpt><trkpt lat="45.7183786" lon="9.8787549"><ele>356.0</ele><time>2026-03-29T11:03:09.966Z</time></trkpt><trkpt lat="45.7183084" lon="9.8787876"><ele>356.66666666666663</ele><time>2026-03-29T11:03:53.959Z</time></trkpt><trkpt lat="45.7182926" lon="9.8788801"><ele>357.3333333333333</ele><time>2026-03-29T11:03:59.959Z</time></trkpt><trkpt lat="45.7183509" lon="9.8789146"><ele>358.0</ele><time>2026-03-29T11:04:06.957Z</time></trkpt><trkpt lat="45.7183258" lon="9.8787256"><ele>358.0</ele><time>2026-03-29T11:04:18.955Z</time></trkpt></trkseg></trk></gpx>